<?xml version="1.0" encoding="UTF-8"?>
<gpx creator="Garmin Connect" version="1.1"
  xsi:schemaLocation="http://www.topografix.com/GPX/1/1 http://www.topografix.com/GPX/11.xsd"
  xmlns:ns3="http://www.garmin.com/xmlschemas/TrackPointExtension/v1"
  xmlns="http://www.topografix.com/GPX/1/1"
  xmlns:xsi="http://www.w3.org/2001/XMLSchema-instance" xmlns:ns2="http://www.garmin.com/xmlschemas/GpxExtensions/v3">
  <metadata>
    <link href="connect.garmin.com">
      <text>Garmin Connect</text>
    </link>
    <time>2021-05-21T07:41:09.000Z</time>
  </metadata>
  <trk>
    <name>Camerino Ciclismo</name>
    <type>cycling</type>
    <trkseg>
      <trkpt lat="43.1421861983835697174072265625" lon="13.07796978391706943511962890625">
        <ele>527.79998779296875</ele>
        <time>2021-05-21T07:41:15.000Z</time>
        <extensions>
          <ns3:TrackPointExtension>
            <ns3:atemp>17.0</ns3:atemp>
          </ns3:TrackPointExtension>
        </extensions>
      </trkpt>
      <trkpt lat="43.1421861983835697174072265625" lon="13.07796978391706943511962890625">
        <ele>527.5999755859375</ele>
        <time>2021-05-21T07:41:16.000Z</time>
        <extensions>
          <ns3:TrackPointExtension>
            <ns3:atemp>17.0</ns3:atemp>
          </ns3:TrackPointExtension>
        </extensions>
      </trkpt>
      <trkpt lat="43.14232039265334606170654296875" lon="13.07805829681456089019775390625">
        <ele>527.79998779296875</ele>
        <time>2021-05-21T07:41:22.000Z</time>
        <extensions>
          <ns3:TrackPointExtension>
            <ns3:atemp>17.0</ns3:atemp>
          </ns3:TrackPointExtension>
        </extensions>
      </trkpt>
      <trkpt lat="43.14243187196552753448486328125" lon="13.07816348969936370849609375">
        <ele>528.4000244140625</ele>
        <time>2021-05-21T07:41:27.000Z</time>
        <extensions>
          <ns3:TrackPointExtension>
            <ns3:atemp>17.0</ns3:atemp>
          </ns3:TrackPointExtension>
        </extensions>
      </trkpt>
      <trkpt lat="43.14253714866936206817626953125" lon="13.07848644442856311798095703125">
        <ele>528.4000244140625</ele>
        <time>2021-05-21T07:41:34.000Z</time>
        <extensions>
          <ns3:TrackPointExtension>
            <ns3:atemp>18.0</ns3:atemp>
          </ns3:TrackPointExtension>
        </extensions>
      </trkpt>
      <trkpt lat="43.14267477951943874359130859375" lon="13.07894275523722171783447265625">
        <ele>528.20001220703125</ele>
        <time>2021-05-21T07:41:43.000Z</time>
        <extensions>
          <ns3:TrackPointExtension>
            <ns3:atemp>18.0</ns3:atemp>
          </ns3:TrackPointExtension>
        </extensions>
      </trkpt>
      <trkpt lat="43.1428398191928863525390625" lon="13.07952144183218479156494140625">
        <ele>528.4000244140625</ele>
        <time>2021-05-21T07:41:54.000Z</time>
        <extensions>
          <ns3:TrackPointExtension>
            <ns3:atemp>18.0</ns3:atemp>
          </ns3:TrackPointExtension>
        </extensions>
      </trkpt>
      <trkpt lat="43.142883740365505218505859375" lon="13.0796782672405242919921875">
        <ele>529.20001220703125</ele>
        <time>2021-05-21T07:41:57.000Z</time>
        <extensions>
          <ns3:TrackPointExtension>
            <ns3:atemp>18.0</ns3:atemp>
          </ns3:TrackPointExtension>
        </extensions>
      </trkpt>
      <trkpt lat="43.14294719137251377105712890625" lon="13.07999334298074245452880859375">
        <ele>530.4000244140625</ele>
        <time>2021-05-21T07:42:03.000Z</time>
        <extensions>
          <ns3:TrackPointExtension>
            <ns3:atemp>18.0</ns3:atemp>
          </ns3:TrackPointExtension>
        </extensions>
      </trkpt>
      <trkpt lat="43.14296529628336429595947265625" lon="13.08008738793432712554931640625">
        <ele>531</ele>
        <time>2021-05-21T07:42:05.000Z</time>
        <extensions>
          <ns3:TrackPointExtension>
            <ns3:atemp>18.0</ns3:atemp>
          </ns3:TrackPointExtension>
        </extensions>
      </trkpt>
      <trkpt lat="43.14297971315681934356689453125" lon="13.08019618503749370574951171875">
        <ele>531.4000244140625</ele>
        <time>2021-05-21T07:42:07.000Z</time>
        <extensions>
          <ns3:TrackPointExtension>
            <ns3:atemp>18.0</ns3:atemp>
          </ns3:TrackPointExtension>
        </extensions>
      </trkpt>
      <trkpt lat="43.1430465169250965118408203125" lon="13.080508410930633544921875">
        <ele>532.4000244140625</ele>
        <time>2021-05-21T07:42:13.000Z</time>
        <extensions>
          <ns3:TrackPointExtension>
            <ns3:atemp>18.0</ns3:atemp>
          </ns3:TrackPointExtension>
        </extensions>
      </trkpt>
      <trkpt lat="43.14307895489037036895751953125" lon="13.08064989745616912841796875">
        <ele>532.4000244140625</ele>
        <time>2021-05-21T07:42:16.000Z</time>
        <extensions>
          <ns3:TrackPointExtension>
            <ns3:atemp>18.0</ns3:atemp>
          </ns3:TrackPointExtension>
        </extensions>
      </trkpt>
      <trkpt lat="43.14311482943594455718994140625" lon="13.0809571780264377593994140625">
        <ele>533</ele>
        <time>2021-05-21T07:42:22.000Z</time>
        <extensions>
          <ns3:TrackPointExtension>
            <ns3:atemp>18.0</ns3:atemp>
          </ns3:TrackPointExtension>
        </extensions>
      </trkpt>
      <trkpt lat="43.14313511364161968231201171875" lon="13.08114216662943363189697265625">
        <ele>534.20001220703125</ele>
        <time>2021-05-21T07:42:26.000Z</time>
        <extensions>
          <ns3:TrackPointExtension>
            <ns3:atemp>18.0</ns3:atemp>
          </ns3:TrackPointExtension>
        </extensions>
      </trkpt>
      <trkpt lat="43.14314383082091808319091796875" lon="13.08127694763243198394775390625">
        <ele>535.20001220703125</ele>
        <time>2021-05-21T07:42:29.000Z</time>
        <extensions>
          <ns3:TrackPointExtension>
            <ns3:atemp>18.0</ns3:atemp>
          </ns3:TrackPointExtension>
        </extensions>
      </trkpt>
      <trkpt lat="43.143147267401218414306640625" lon="13.08135758154094219207763671875">
        <ele>535.79998779296875</ele>
        <time>2021-05-21T07:42:31.000Z</time>
        <extensions>
          <ns3:TrackPointExtension>
            <ns3:atemp>18.0</ns3:atemp>
          </ns3:TrackPointExtension>
        </extensions>
      </trkpt>
      <trkpt lat="43.14330174587666988372802734375" lon="13.081635944545269012451171875">
        <ele>536.4000244140625</ele>
        <time>2021-05-21T07:42:38.000Z</time>
        <extensions>
          <ns3:TrackPointExtension>
            <ns3:atemp>18.0</ns3:atemp>
          </ns3:TrackPointExtension>
        </extensions>
      </trkpt>
      <trkpt lat="43.1433180905878543853759765625" lon="13.08167391456663608551025390625">
        <ele>536.5999755859375</ele>
        <time>2021-05-21T07:42:39.000Z</time>
        <extensions>
          <ns3:TrackPointExtension>
            <ns3:atemp>18.0</ns3:atemp>
          </ns3:TrackPointExtension>
        </extensions>
      </trkpt>
      <trkpt lat="43.14340434037148952484130859375" lon="13.08183652348816394805908203125">
        <ele>537.4000244140625</ele>
        <time>2021-05-21T07:42:43.000Z</time>
        <extensions>
          <ns3:TrackPointExtension>
            <ns3:atemp>18.0</ns3:atemp>
          </ns3:TrackPointExtension>
        </extensions>
      </trkpt>
      <trkpt lat="43.1434513628482818603515625" lon="13.08191816322505474090576171875">
        <ele>537.79998779296875</ele>
        <time>2021-05-21T07:42:45.000Z</time>
        <extensions>
          <ns3:TrackPointExtension>
            <ns3:atemp>18.0</ns3:atemp>
          </ns3:TrackPointExtension>
        </extensions>
      </trkpt>
      <trkpt lat="43.14352319575846195220947265625" lon="13.08203735388815402984619140625">
        <ele>538.4000244140625</ele>
        <time>2021-05-21T07:42:48.000Z</time>
        <extensions>
          <ns3:TrackPointExtension>
            <ns3:atemp>18.0</ns3:atemp>
          </ns3:TrackPointExtension>
        </extensions>
      </trkpt>
      <trkpt lat="43.14370013773441314697265625" lon="13.0822744779288768768310546875">
        <ele>539.5999755859375</ele>
        <time>2021-05-21T07:42:54.000Z</time>
        <extensions>
          <ns3:TrackPointExtension>
            <ns3:atemp>18.0</ns3:atemp>
          </ns3:TrackPointExtension>
        </extensions>
      </trkpt>
      <trkpt lat="43.1437328271567821502685546875" lon="13.082309179008007049560546875">
        <ele>539.79998779296875</ele>
        <time>2021-05-21T07:42:55.000Z</time>
        <extensions>
          <ns3:TrackPointExtension>
            <ns3:atemp>18.0</ns3:atemp>
          </ns3:TrackPointExtension>
        </extensions>
      </trkpt>
      <trkpt lat="43.1439395248889923095703125" lon="13.0825413577258586883544921875">
        <ele>540.5999755859375</ele>
        <time>2021-05-21T07:43:01.000Z</time>
        <extensions>
          <ns3:TrackPointExtension>
            <ns3:atemp>18.0</ns3:atemp>
          </ns3:TrackPointExtension>
        </extensions>
      </trkpt>
      <trkpt lat="43.1440463103353977203369140625" lon="13.08266800828278064727783203125">
        <ele>540.5999755859375</ele>
        <time>2021-05-21T07:43:04.000Z</time>
        <extensions>
          <ns3:TrackPointExtension>
            <ns3:atemp>18.0</ns3:atemp>
          </ns3:TrackPointExtension>
        </extensions>
      </trkpt>
      <trkpt lat="43.1443695165216922760009765625" lon="13.0830432660877704620361328125">
        <ele>540.4000244140625</ele>
        <time>2021-05-21T07:43:13.000Z</time>
        <extensions>
          <ns3:TrackPointExtension>
            <ns3:atemp>18.0</ns3:atemp>
          </ns3:TrackPointExtension>
        </extensions>
      </trkpt>
      <trkpt lat="43.14455710351467132568359375" lon="13.08341014198958873748779296875">
        <ele>540.4000244140625</ele>
        <time>2021-05-21T07:43:19.000Z</time>
        <extensions>
          <ns3:TrackPointExtension>
            <ns3:atemp>18.0</ns3:atemp>
          </ns3:TrackPointExtension>
        </extensions>
      </trkpt>
      <trkpt lat="43.14460513181984424591064453125" lon="13.08372437953948974609375">
        <ele>540</ele>
        <time>2021-05-21T07:43:23.000Z</time>
        <extensions>
          <ns3:TrackPointExtension>
            <ns3:atemp>18.0</ns3:atemp>
          </ns3:TrackPointExtension>
        </extensions>
      </trkpt>
      <trkpt lat="43.144610412418842315673828125" lon="13.0838998965919017791748046875">
        <ele>539.5999755859375</ele>
        <time>2021-05-21T07:43:25.000Z</time>
        <extensions>
          <ns3:TrackPointExtension>
            <ns3:atemp>18.0</ns3:atemp>
          </ns3:TrackPointExtension>
        </extensions>
      </trkpt>
      <trkpt lat="43.1445872783660888671875" lon="13.0839874036610126495361328125">
        <ele>539.20001220703125</ele>
        <time>2021-05-21T07:43:26.000Z</time>
        <extensions>
          <ns3:TrackPointExtension>
            <ns3:atemp>18.0</ns3:atemp>
          </ns3:TrackPointExtension>
        </extensions>
      </trkpt>
      <trkpt lat="43.14454109407961368560791015625" lon="13.08422720991075038909912109375">
        <ele>538.4000244140625</ele>
        <time>2021-05-21T07:43:28.000Z</time>
        <extensions>
          <ns3:TrackPointExtension>
            <ns3:atemp>18.0</ns3:atemp>
          </ns3:TrackPointExtension>
        </extensions>
      </trkpt>
      <trkpt lat="43.14451393671333789825439453125" lon="13.08434908278286457061767578125">
        <ele>537.79998779296875</ele>
        <time>2021-05-21T07:43:29.000Z</time>
        <extensions>
          <ns3:TrackPointExtension>
            <ns3:atemp>18.0</ns3:atemp>
          </ns3:TrackPointExtension>
        </extensions>
      </trkpt>
      <trkpt lat="43.14448577351868152618408203125" lon="13.08446743525564670562744140625">
        <ele>537.20001220703125</ele>
        <time>2021-05-21T07:43:30.000Z</time>
        <extensions>
          <ns3:TrackPointExtension>
            <ns3:atemp>18.0</ns3:atemp>
          </ns3:TrackPointExtension>
        </extensions>
      </trkpt>
      <trkpt lat="43.144435398280620574951171875" lon="13.0847059004008769989013671875">
        <ele>535.4000244140625</ele>
        <time>2021-05-21T07:43:32.000Z</time>
        <extensions>
          <ns3:TrackPointExtension>
            <ns3:atemp>18.0</ns3:atemp>
          </ns3:TrackPointExtension>
        </extensions>
      </trkpt>
      <trkpt lat="43.1443177163600921630859375" lon="13.0849613808095455169677734375">
        <ele>534.20001220703125</ele>
        <time>2021-05-21T07:43:34.000Z</time>
        <extensions>
          <ns3:TrackPointExtension>
            <ns3:atemp>18.0</ns3:atemp>
          </ns3:TrackPointExtension>
        </extensions>
      </trkpt>
      <trkpt lat="43.1442836858332157135009765625" lon="13.085081242024898529052734375">
        <ele>533.4000244140625</ele>
        <time>2021-05-21T07:43:35.000Z</time>
        <extensions>
          <ns3:TrackPointExtension>
            <ns3:atemp>18.0</ns3:atemp>
          </ns3:TrackPointExtension>
        </extensions>
      </trkpt>
      <trkpt lat="43.14424932003021240234375" lon="13.0852027796208858489990234375">
        <ele>532.4000244140625</ele>
        <time>2021-05-21T07:43:36.000Z</time>
        <extensions>
          <ns3:TrackPointExtension>
            <ns3:atemp>18.0</ns3:atemp>
          </ns3:TrackPointExtension>
        </extensions>
      </trkpt>
      <trkpt lat="43.14418620429933071136474609375" lon="13.08543638326227664947509765625">
        <ele>531</ele>
        <time>2021-05-21T07:43:38.000Z</time>
        <extensions>
          <ns3:TrackPointExtension>
            <ns3:atemp>18.0</ns3:atemp>
          </ns3:TrackPointExtension>
        </extensions>
      </trkpt>
      <trkpt lat="43.14412283711135387420654296875" lon="13.085659928619861602783203125">
        <ele>529.5999755859375</ele>
        <time>2021-05-21T07:43:40.000Z</time>
        <extensions>
          <ns3:TrackPointExtension>
            <ns3:atemp>18.0</ns3:atemp>
          </ns3:TrackPointExtension>
        </extensions>
      </trkpt>
      <trkpt lat="43.1440629065036773681640625" lon="13.085883893072605133056640625">
        <ele>528</ele>
        <time>2021-05-21T07:43:42.000Z</time>
        <extensions>
          <ns3:TrackPointExtension>
            <ns3:atemp>18.0</ns3:atemp>
          </ns3:TrackPointExtension>
        </extensions>
      </trkpt>
      <trkpt lat="43.14401957206428050994873046875" lon="13.0861046724021434783935546875">
        <ele>526.79998779296875</ele>
        <time>2021-05-21T07:43:44.000Z</time>
        <extensions>
          <ns3:TrackPointExtension>
            <ns3:atemp>18.0</ns3:atemp>
          </ns3:TrackPointExtension>
        </extensions>
      </trkpt>
      <trkpt lat="43.14404320903122425079345703125" lon="13.0864080972969532012939453125">
        <ele>526.20001220703125</ele>
        <time>2021-05-21T07:43:47.000Z</time>
        <extensions>
          <ns3:TrackPointExtension>
            <ns3:atemp>18.0</ns3:atemp>
          </ns3:TrackPointExtension>
        </extensions>
      </trkpt>
      <trkpt lat="43.1440602242946624755859375" lon="13.086499460041522979736328125">
        <ele>526.20001220703125</ele>
        <time>2021-05-21T07:43:48.000Z</time>
        <extensions>
          <ns3:TrackPointExtension>
            <ns3:atemp>18.0</ns3:atemp>
          </ns3:TrackPointExtension>
        </extensions>
      </trkpt>
      <trkpt lat="43.14417413435876369476318359375" lon="13.08687538839876651763916015625">
        <ele>525.5999755859375</ele>
        <time>2021-05-21T07:43:52.000Z</time>
        <extensions>
          <ns3:TrackPointExtension>
            <ns3:atemp>18.0</ns3:atemp>
          </ns3:TrackPointExtension>
        </extensions>
      </trkpt>
      <trkpt lat="43.14421135000884532928466796875" lon="13.086969517171382904052734375">
        <ele>525.5999755859375</ele>
        <time>2021-05-21T07:43:53.000Z</time>
        <extensions>
          <ns3:TrackPointExtension>
            <ns3:atemp>18.0</ns3:atemp>
          </ns3:TrackPointExtension>
        </extensions>
      </trkpt>
      <trkpt lat="43.1444533355534076690673828125" lon="13.08752976357936859130859375">
        <ele>524.79998779296875</ele>
        <time>2021-05-21T07:43:59.000Z</time>
        <extensions>
          <ns3:TrackPointExtension>
            <ns3:atemp>18.0</ns3:atemp>
          </ns3:TrackPointExtension>
        </extensions>
      </trkpt>
      <trkpt lat="43.144480325281620025634765625" lon="13.08762875385582447052001953125">
        <ele>524.4000244140625</ele>
        <time>2021-05-21T07:44:00.000Z</time>
        <extensions>
          <ns3:TrackPointExtension>
            <ns3:atemp>18.0</ns3:atemp>
          </ns3:TrackPointExtension>
        </extensions>
      </trkpt>
      <trkpt lat="43.14453522674739360809326171875" lon="13.08794156648218631744384765625">
        <ele>523</ele>
        <time>2021-05-21T07:44:03.000Z</time>
        <extensions>
          <ns3:TrackPointExtension>
            <ns3:atemp>18.0</ns3:atemp>
          </ns3:TrackPointExtension>
        </extensions>
      </trkpt>
      <trkpt lat="43.14455249346792697906494140625" lon="13.08804667554795742034912109375">
        <ele>522.4000244140625</ele>
        <time>2021-05-21T07:44:04.000Z</time>
        <extensions>
          <ns3:TrackPointExtension>
            <ns3:atemp>18.0</ns3:atemp>
          </ns3:TrackPointExtension>
        </extensions>
      </trkpt>
      <trkpt lat="43.14455031417310237884521484375" lon="13.08815597556531429290771484375">
        <ele>522</ele>
        <time>2021-05-21T07:44:05.000Z</time>
        <extensions>
          <ns3:TrackPointExtension>
            <ns3:atemp>18.0</ns3:atemp>
          </ns3:TrackPointExtension>
        </extensions>
      </trkpt>
      <trkpt lat="43.1446209736168384552001953125" lon="13.08861513622105121612548828125">
        <ele>521.20001220703125</ele>
        <time>2021-05-21T07:44:09.000Z</time>
        <extensions>
          <ns3:TrackPointExtension>
            <ns3:atemp>18.0</ns3:atemp>
          </ns3:TrackPointExtension>
        </extensions>
      </trkpt>
      <trkpt lat="43.14464402385056018829345703125" lon="13.0887265317142009735107421875">
        <ele>520.79998779296875</ele>
        <time>2021-05-21T07:44:10.000Z</time>
        <extensions>
          <ns3:TrackPointExtension>
            <ns3:atemp>18.0</ns3:atemp>
          </ns3:TrackPointExtension>
        </extensions>
      </trkpt>
      <trkpt lat="43.14479137770831584930419921875" lon="13.08916716836392879486083984375">
        <ele>519.4000244140625</ele>
        <time>2021-05-21T07:44:14.000Z</time>
        <extensions>
          <ns3:TrackPointExtension>
            <ns3:atemp>18.0</ns3:atemp>
          </ns3:TrackPointExtension>
        </extensions>
      </trkpt>
      <trkpt lat="43.14483613707125186920166015625" lon="13.08926490135490894317626953125">
        <ele>518.5999755859375</ele>
        <time>2021-05-21T07:44:15.000Z</time>
        <extensions>
          <ns3:TrackPointExtension>
            <ns3:atemp>18.0</ns3:atemp>
          </ns3:TrackPointExtension>
        </extensions>
      </trkpt>
      <trkpt lat="43.14487771131098270416259765625" lon="13.08936280198395252227783203125">
        <ele>517.5999755859375</ele>
        <time>2021-05-21T07:44:16.000Z</time>
        <extensions>
          <ns3:TrackPointExtension>
            <ns3:atemp>18.0</ns3:atemp>
          </ns3:TrackPointExtension>
        </extensions>
      </trkpt>
      <trkpt lat="43.14494241960346698760986328125" lon="13.089552819728851318359375">
        <ele>516.4000244140625</ele>
        <time>2021-05-21T07:44:18.000Z</time>
        <extensions>
          <ns3:TrackPointExtension>
            <ns3:atemp>18.0</ns3:atemp>
          </ns3:TrackPointExtension>
        </extensions>
      </trkpt>
      <trkpt lat="43.14500033855438232421875" lon="13.08981291018426418304443359375">
        <ele>516</ele>
        <time>2021-05-21T07:44:21.000Z</time>
        <extensions>
          <ns3:TrackPointExtension>
            <ns3:atemp>18.0</ns3:atemp>
          </ns3:TrackPointExtension>
        </extensions>
      </trkpt>
      <trkpt lat="43.14501735381782054901123046875" lon="13.09013611637055873870849609375">
        <ele>516</ele>
        <time>2021-05-21T07:44:25.000Z</time>
        <extensions>
          <ns3:TrackPointExtension>
            <ns3:atemp>18.0</ns3:atemp>
          </ns3:TrackPointExtension>
        </extensions>
      </trkpt>
      <trkpt lat="43.1450112350285053253173828125" lon="13.09020736254751682281494140625">
        <ele>516.20001220703125</ele>
        <time>2021-05-21T07:44:26.000Z</time>
        <extensions>
          <ns3:TrackPointExtension>
            <ns3:atemp>18.0</ns3:atemp>
          </ns3:TrackPointExtension>
        </extensions>
      </trkpt>
      <trkpt lat="43.14493219368159770965576171875" lon="13.0904914252460002899169921875">
        <ele>517.4000244140625</ele>
        <time>2021-05-21T07:44:30.000Z</time>
        <extensions>
          <ns3:TrackPointExtension>
            <ns3:atemp>18.0</ns3:atemp>
          </ns3:TrackPointExtension>
        </extensions>
      </trkpt>
      <trkpt lat="43.14491425640881061553955078125" lon="13.09056376107037067413330078125">
        <ele>517.5999755859375</ele>
        <time>2021-05-21T07:44:31.000Z</time>
        <extensions>
          <ns3:TrackPointExtension>
            <ns3:atemp>18.0</ns3:atemp>
          </ns3:TrackPointExtension>
        </extensions>
      </trkpt>
      <trkpt lat="43.14479984343051910400390625" lon="13.090898953378200531005859375">
        <ele>518.5999755859375</ele>
        <time>2021-05-21T07:44:36.000Z</time>
        <extensions>
          <ns3:TrackPointExtension>
            <ns3:atemp>18.0</ns3:atemp>
          </ns3:TrackPointExtension>
        </extensions>
      </trkpt>
      <trkpt lat="43.1447721831500530242919921875" lon="13.09101554565131664276123046875">
        <ele>519</ele>
        <time>2021-05-21T07:44:38.000Z</time>
        <extensions>
          <ns3:TrackPointExtension>
            <ns3:atemp>18.0</ns3:atemp>
          </ns3:TrackPointExtension>
        </extensions>
      </trkpt>
      <trkpt lat="43.14476086758077144622802734375" lon="13.09124437160789966583251953125">
        <ele>519.79998779296875</ele>
        <time>2021-05-21T07:44:42.000Z</time>
        <extensions>
          <ns3:TrackPointExtension>
            <ns3:atemp>18.0</ns3:atemp>
          </ns3:TrackPointExtension>
        </extensions>
      </trkpt>
      <trkpt lat="43.1447708420455455780029296875" lon="13.09135149233043193817138671875">
        <ele>520.5999755859375</ele>
        <time>2021-05-21T07:44:44.000Z</time>
        <extensions>
          <ns3:TrackPointExtension>
            <ns3:atemp>18.0</ns3:atemp>
          </ns3:TrackPointExtension>
        </extensions>
      </trkpt>
      <trkpt lat="43.14477570354938507080078125" lon="13.09140044264495372772216796875">
        <ele>520.79998779296875</ele>
        <time>2021-05-21T07:44:45.000Z</time>
        <extensions>
          <ns3:TrackPointExtension>
            <ns3:atemp>18.0</ns3:atemp>
          </ns3:TrackPointExtension>
        </extensions>
      </trkpt>
      <trkpt lat="43.1448058784008026123046875" lon="13.09155148454010486602783203125">
        <ele>522</ele>
        <time>2021-05-21T07:44:48.000Z</time>
        <extensions>
          <ns3:TrackPointExtension>
            <ns3:atemp>18.0</ns3:atemp>
          </ns3:TrackPointExtension>
        </extensions>
      </trkpt>
      <trkpt lat="43.1448419205844402313232421875" lon="13.09169615618884563446044921875">
        <ele>523</ele>
        <time>2021-05-21T07:44:51.000Z</time>
        <extensions>
          <ns3:TrackPointExtension>
            <ns3:atemp>18.0</ns3:atemp>
          </ns3:TrackPointExtension>
        </extensions>
      </trkpt>
      <trkpt lat="43.1448568403720855712890625" lon="13.09174527414143085479736328125">
        <ele>523.20001220703125</ele>
        <time>2021-05-21T07:44:52.000Z</time>
        <extensions>
          <ns3:TrackPointExtension>
            <ns3:atemp>18.0</ns3:atemp>
          </ns3:TrackPointExtension>
        </extensions>
      </trkpt>
      <trkpt lat="43.14490889199078083038330078125" lon="13.0919673107564449310302734375">
        <ele>523.79998779296875</ele>
        <time>2021-05-21T07:44:56.000Z</time>
        <extensions>
          <ns3:TrackPointExtension>
            <ns3:atemp>18.0</ns3:atemp>
          </ns3:TrackPointExtension>
        </extensions>
      </trkpt>
      <trkpt lat="43.14493705518543720245361328125" lon="13.09216302819550037384033203125">
        <ele>524.20001220703125</ele>
        <time>2021-05-21T07:44:59.000Z</time>
        <extensions>
          <ns3:TrackPointExtension>
            <ns3:atemp>18.0</ns3:atemp>
          </ns3:TrackPointExtension>
        </extensions>
      </trkpt>
      <trkpt lat="43.144951052963733673095703125" lon="13.09229479171335697174072265625">
        <ele>524.20001220703125</ele>
        <time>2021-05-21T07:45:01.000Z</time>
        <extensions>
          <ns3:TrackPointExtension>
            <ns3:atemp>18.0</ns3:atemp>
          </ns3:TrackPointExtension>
        </extensions>
      </trkpt>
      <trkpt lat="43.1449775397777557373046875" lon="13.09270818717777729034423828125">
        <ele>524.4000244140625</ele>
        <time>2021-05-21T07:45:07.000Z</time>
        <extensions>
          <ns3:TrackPointExtension>
            <ns3:atemp>18.0</ns3:atemp>
          </ns3:TrackPointExtension>
        </extensions>
      </trkpt>
      <trkpt lat="43.144934289157390594482421875" lon="13.093044050037860870361328125">
        <ele>524.5999755859375</ele>
        <time>2021-05-21T07:45:13.000Z</time>
        <extensions>
          <ns3:TrackPointExtension>
            <ns3:atemp>18.0</ns3:atemp>
          </ns3:TrackPointExtension>
        </extensions>
      </trkpt>
      <trkpt lat="43.1448667310178279876708984375" lon="13.0932162143290042877197265625">
        <ele>526</ele>
        <time>2021-05-21T07:45:17.000Z</time>
        <extensions>
          <ns3:TrackPointExtension>
            <ns3:atemp>18.0</ns3:atemp>
          </ns3:TrackPointExtension>
        </extensions>
      </trkpt>
      <trkpt lat="43.14480965025722980499267578125" lon="13.093363903462886810302734375">
        <ele>527</ele>
        <time>2021-05-21T07:45:20.000Z</time>
        <extensions>
          <ns3:TrackPointExtension>
            <ns3:atemp>18.0</ns3:atemp>
          </ns3:TrackPointExtension>
        </extensions>
      </trkpt>
      <trkpt lat="43.14477310515940189361572265625" lon="13.09355274774134159088134765625">
        <ele>527.20001220703125</ele>
        <time>2021-05-21T07:45:23.000Z</time>
        <extensions>
          <ns3:TrackPointExtension>
            <ns3:atemp>18.0</ns3:atemp>
          </ns3:TrackPointExtension>
        </extensions>
      </trkpt>
      <trkpt lat="43.1448050402104854583740234375" lon="13.093776963651180267333984375">
        <ele>527.20001220703125</ele>
        <time>2021-05-21T07:45:26.000Z</time>
        <extensions>
          <ns3:TrackPointExtension>
            <ns3:atemp>17.0</ns3:atemp>
          </ns3:TrackPointExtension>
        </extensions>
      </trkpt>
      <trkpt lat="43.144816942512989044189453125" lon="13.09386304579675197601318359375">
        <ele>527.20001220703125</ele>
        <time>2021-05-21T07:45:27.000Z</time>
        <extensions>
          <ns3:TrackPointExtension>
            <ns3:atemp>17.0</ns3:atemp>
          </ns3:TrackPointExtension>
        </extensions>
      </trkpt>
      <trkpt lat="43.14491626806557178497314453125" lon="13.0943373776972293853759765625">
        <ele>526</ele>
        <time>2021-05-21T07:45:31.000Z</time>
        <extensions>
          <ns3:TrackPointExtension>
            <ns3:atemp>17.0</ns3:atemp>
          </ns3:TrackPointExtension>
        </extensions>
      </trkpt>
      <trkpt lat="43.14494594000279903411865234375" lon="13.094466626644134521484375">
        <ele>525.20001220703125</ele>
        <time>2021-05-21T07:45:32.000Z</time>
        <extensions>
          <ns3:TrackPointExtension>
            <ns3:atemp>17.0</ns3:atemp>
          </ns3:TrackPointExtension>
        </extensions>
      </trkpt>
      <trkpt lat="43.14501148648560047149658203125" lon="13.09474297799170017242431640625">
        <ele>523.20001220703125</ele>
        <time>2021-05-21T07:45:34.000Z</time>
        <extensions>
          <ns3:TrackPointExtension>
            <ns3:atemp>17.0</ns3:atemp>
          </ns3:TrackPointExtension>
        </extensions>
      </trkpt>
      <trkpt lat="43.14503361470997333526611328125" lon="13.09486962854862213134765625">
        <ele>522</ele>
        <time>2021-05-21T07:45:35.000Z</time>
        <extensions>
          <ns3:TrackPointExtension>
            <ns3:atemp>17.0</ns3:atemp>
          </ns3:TrackPointExtension>
        </extensions>
      </trkpt>
      <trkpt lat="43.1450541503727436065673828125" lon="13.095002062618732452392578125">
        <ele>520.79998779296875</ele>
        <time>2021-05-21T07:45:36.000Z</time>
        <extensions>
          <ns3:TrackPointExtension>
            <ns3:atemp>17.0</ns3:atemp>
          </ns3:TrackPointExtension>
        </extensions>
      </trkpt>
      <trkpt lat="43.1450611911714076995849609375" lon="13.0951380170881748199462890625">
        <ele>519.5999755859375</ele>
        <time>2021-05-21T07:45:37.000Z</time>
        <extensions>
          <ns3:TrackPointExtension>
            <ns3:atemp>17.0</ns3:atemp>
          </ns3:TrackPointExtension>
        </extensions>
      </trkpt>
      <trkpt lat="43.145078457891941070556640625" lon="13.09540498070418834686279296875">
        <ele>517.79998779296875</ele>
        <time>2021-05-21T07:45:39.000Z</time>
        <extensions>
          <ns3:TrackPointExtension>
            <ns3:atemp>17.0</ns3:atemp>
          </ns3:TrackPointExtension>
        </extensions>
      </trkpt>
      <trkpt lat="43.14509849064052104949951171875" lon="13.09564612805843353271484375">
        <ele>516.4000244140625</ele>
        <time>2021-05-21T07:45:41.000Z</time>
        <extensions>
          <ns3:TrackPointExtension>
            <ns3:atemp>17.0</ns3:atemp>
          </ns3:TrackPointExtension>
        </extensions>
      </trkpt>
      <trkpt lat="43.14514811150729656219482421875" lon="13.09595433063805103302001953125">
        <ele>516</ele>
        <time>2021-05-21T07:45:45.000Z</time>
        <extensions>
          <ns3:TrackPointExtension>
            <ns3:atemp>17.0</ns3:atemp>
          </ns3:TrackPointExtension>
        </extensions>
      </trkpt>
      <trkpt lat="43.145200498402118682861328125" lon="13.0961596034467220306396484375">
        <ele>517</ele>
        <time>2021-05-21T07:45:50.000Z</time>
        <extensions>
          <ns3:TrackPointExtension>
            <ns3:atemp>17.0</ns3:atemp>
          </ns3:TrackPointExtension>
        </extensions>
      </trkpt>
      <trkpt lat="43.14521030522882938385009765625" lon="13.096199668943881988525390625">
        <ele>518.20001220703125</ele>
        <time>2021-05-21T07:45:51.000Z</time>
        <extensions>
          <ns3:TrackPointExtension>
            <ns3:atemp>17.0</ns3:atemp>
          </ns3:TrackPointExtension>
        </extensions>
      </trkpt>
      <trkpt lat="43.14522053115069866180419921875" lon="13.09623713605105876922607421875">
        <ele>519.20001220703125</ele>
        <time>2021-05-21T07:45:52.000Z</time>
        <extensions>
          <ns3:TrackPointExtension>
            <ns3:atemp>17.0</ns3:atemp>
          </ns3:TrackPointExtension>
        </extensions>
      </trkpt>
      <trkpt lat="43.14523972570896148681640625" lon="13.096317015588283538818359375">
        <ele>521</ele>
        <time>2021-05-21T07:45:54.000Z</time>
        <extensions>
          <ns3:TrackPointExtension>
            <ns3:atemp>17.0</ns3:atemp>
          </ns3:TrackPointExtension>
        </extensions>
      </trkpt>
      <trkpt lat="43.14525506459176540374755859375" lon="13.09639588929712772369384765625">
        <ele>522.4000244140625</ele>
        <time>2021-05-21T07:45:56.000Z</time>
        <extensions>
          <ns3:TrackPointExtension>
            <ns3:atemp>17.0</ns3:atemp>
          </ns3:TrackPointExtension>
        </extensions>
      </trkpt>
      <trkpt lat="43.1452657096087932586669921875" lon="13.09647484682500362396240234375">
        <ele>523.5999755859375</ele>
        <time>2021-05-21T07:45:58.000Z</time>
        <extensions>
          <ns3:TrackPointExtension>
            <ns3:atemp>17.0</ns3:atemp>
          </ns3:TrackPointExtension>
        </extensions>
      </trkpt>
      <trkpt lat="43.14527048729360103607177734375" lon="13.0965478532016277313232421875">
        <ele>524.4000244140625</ele>
        <time>2021-05-21T07:46:00.000Z</time>
        <extensions>
          <ns3:TrackPointExtension>
            <ns3:atemp>17.0</ns3:atemp>
          </ns3:TrackPointExtension>
        </extensions>
      </trkpt>
      <trkpt lat="43.1452717445790767669677734375" lon="13.096587248146533966064453125">
        <ele>524.79998779296875</ele>
        <time>2021-05-21T07:46:01.000Z</time>
        <extensions>
          <ns3:TrackPointExtension>
            <ns3:atemp>17.0</ns3:atemp>
          </ns3:TrackPointExtension>
        </extensions>
      </trkpt>
      <trkpt lat="43.1452720798552036285400390625" lon="13.09668690897524356842041015625">
        <ele>526</ele>
        <time>2021-05-21T07:46:04.000Z</time>
        <extensions>
          <ns3:TrackPointExtension>
            <ns3:atemp>17.0</ns3:atemp>
          </ns3:TrackPointExtension>
        </extensions>
      </trkpt>
      <trkpt lat="43.145260512828826904296875" lon="13.09681355953216552734375">
        <ele>527.5999755859375</ele>
        <time>2021-05-21T07:46:08.000Z</time>
        <extensions>
          <ns3:TrackPointExtension>
            <ns3:atemp>17.0</ns3:atemp>
          </ns3:TrackPointExtension>
        </extensions>
      </trkpt>
      <trkpt lat="43.1452509574592113494873046875" lon="13.0968502722680568695068359375">
        <ele>528.20001220703125</ele>
        <time>2021-05-21T07:46:09.000Z</time>
        <extensions>
          <ns3:TrackPointExtension>
            <ns3:atemp>17.0</ns3:atemp>
          </ns3:TrackPointExtension>
        </extensions>
      </trkpt>
      <trkpt lat="43.145244419574737548828125" lon="13.096886314451694488525390625">
        <ele>528.5999755859375</ele>
        <time>2021-05-21T07:46:10.000Z</time>
        <extensions>
          <ns3:TrackPointExtension>
            <ns3:atemp>17.0</ns3:atemp>
          </ns3:TrackPointExtension>
        </extensions>
      </trkpt>
      <trkpt lat="43.14522773958742618560791015625" lon="13.0969981290400028228759765625">
        <ele>530</ele>
        <time>2021-05-21T07:46:13.000Z</time>
        <extensions>
          <ns3:TrackPointExtension>
            <ns3:atemp>17.0</ns3:atemp>
          </ns3:TrackPointExtension>
        </extensions>
      </trkpt>
      <trkpt lat="43.14522455446422100067138671875" lon="13.097084462642669677734375">
        <ele>531.4000244140625</ele>
        <time>2021-05-21T07:46:15.000Z</time>
        <extensions>
          <ns3:TrackPointExtension>
            <ns3:atemp>17.0</ns3:atemp>
          </ns3:TrackPointExtension>
        </extensions>
      </trkpt>
      <trkpt lat="43.14522874541580677032470703125" lon="13.09723491780459880828857421875">
        <ele>532.79998779296875</ele>
        <time>2021-05-21T07:46:18.000Z</time>
        <extensions>
          <ns3:TrackPointExtension>
            <ns3:atemp>17.0</ns3:atemp>
          </ns3:TrackPointExtension>
        </extensions>
      </trkpt>
      <trkpt lat="43.14522539265453815460205078125" lon="13.09728956781327724456787109375">
        <ele>533</ele>
        <time>2021-05-21T07:46:19.000Z</time>
        <extensions>
          <ns3:TrackPointExtension>
            <ns3:atemp>17.0</ns3:atemp>
          </ns3:TrackPointExtension>
        </extensions>
      </trkpt>
      <trkpt lat="43.14521919004619121551513671875" lon="13.0973930843174457550048828125">
        <ele>533.79998779296875</ele>
        <time>2021-05-21T07:46:21.000Z</time>
        <extensions>
          <ns3:TrackPointExtension>
            <ns3:atemp>17.0</ns3:atemp>
          </ns3:TrackPointExtension>
        </extensions>
      </trkpt>
      <trkpt lat="43.14521432854235172271728515625" lon="13.09754018671810626983642578125">
        <ele>534.79998779296875</ele>
        <time>2021-05-21T07:46:24.000Z</time>
        <extensions>
          <ns3:TrackPointExtension>
            <ns3:atemp>17.0</ns3:atemp>
          </ns3:TrackPointExtension>
        </extensions>
      </trkpt>
      <trkpt lat="43.1452187709510326385498046875" lon="13.09779281727969646453857421875">
        <ele>535.5999755859375</ele>
        <time>2021-05-21T07:46:29.000Z</time>
        <extensions>
          <ns3:TrackPointExtension>
            <ns3:atemp>17.0</ns3:atemp>
          </ns3:TrackPointExtension>
        </extensions>
      </trkpt>
      <trkpt lat="43.145223967730998992919921875" lon="13.09784646145999431610107421875">
        <ele>536</ele>
        <time>2021-05-21T07:46:30.000Z</time>
        <extensions>
          <ns3:TrackPointExtension>
            <ns3:atemp>17.0</ns3:atemp>
          </ns3:TrackPointExtension>
        </extensions>
      </trkpt>
      <trkpt lat="43.14525187946856021881103515625" lon="13.09815935790538787841796875">
        <ele>537.20001220703125</ele>
        <time>2021-05-21T07:46:36.000Z</time>
        <extensions>
          <ns3:TrackPointExtension>
            <ns3:atemp>17.0</ns3:atemp>
          </ns3:TrackPointExtension>
        </extensions>
      </trkpt>
      <trkpt lat="43.14526562578976154327392578125" lon="13.09834853745996952056884765625">
        <ele>538.20001220703125</ele>
        <time>2021-05-21T07:46:40.000Z</time>
        <extensions>
          <ns3:TrackPointExtension>
            <ns3:atemp>17.0</ns3:atemp>
          </ns3:TrackPointExtension>
        </extensions>
      </trkpt>
      <trkpt lat="43.14527015201747417449951171875" lon="13.0985824763774871826171875">
        <ele>539.5999755859375</ele>
        <time>2021-05-21T07:46:45.000Z</time>
        <extensions>
          <ns3:TrackPointExtension>
            <ns3:atemp>17.0</ns3:atemp>
          </ns3:TrackPointExtension>
        </extensions>
      </trkpt>
      <trkpt lat="43.1452848203480243682861328125" lon="13.098891936242580413818359375">
        <ele>540.5999755859375</ele>
        <time>2021-05-21T07:46:50.000Z</time>
        <extensions>
          <ns3:TrackPointExtension>
            <ns3:atemp>17.0</ns3:atemp>
          </ns3:TrackPointExtension>
        </extensions>
      </trkpt>
      <trkpt lat="43.1453019194304943084716796875" lon="13.09897382743656635284423828125">
        <ele>540.5999755859375</ele>
        <time>2021-05-21T07:46:51.000Z</time>
        <extensions>
          <ns3:TrackPointExtension>
            <ns3:atemp>17.0</ns3:atemp>
          </ns3:TrackPointExtension>
        </extensions>
      </trkpt>
      <trkpt lat="43.14538230188190937042236328125" lon="13.09923483990132808685302734375">
        <ele>540.5999755859375</ele>
        <time>2021-05-21T07:46:54.000Z</time>
        <extensions>
          <ns3:TrackPointExtension>
            <ns3:atemp>17.0</ns3:atemp>
          </ns3:TrackPointExtension>
        </extensions>
      </trkpt>
      <trkpt lat="43.145415075123310089111328125" lon="13.099321089684963226318359375">
        <ele>540.5999755859375</ele>
        <time>2021-05-21T07:46:55.000Z</time>
        <extensions>
          <ns3:TrackPointExtension>
            <ns3:atemp>17.0</ns3:atemp>
          </ns3:TrackPointExtension>
        </extensions>
      </trkpt>
      <trkpt lat="43.1455252133309841156005859375" lon="13.09974043630063533782958984375">
        <ele>539.79998779296875</ele>
        <time>2021-05-21T07:46:59.000Z</time>
        <extensions>
          <ns3:TrackPointExtension>
            <ns3:atemp>17.0</ns3:atemp>
          </ns3:TrackPointExtension>
        </extensions>
      </trkpt>
      <trkpt lat="43.1455570645630359649658203125" lon="13.099868595600128173828125">
        <ele>539</ele>
        <time>2021-05-21T07:47:00.000Z</time>
        <extensions>
          <ns3:TrackPointExtension>
            <ns3:atemp>17.0</ns3:atemp>
          </ns3:TrackPointExtension>
        </extensions>
      </trkpt>
      <trkpt lat="43.145655132830142974853515625" lon="13.1001145206391811370849609375">
        <ele>538.20001220703125</ele>
        <time>2021-05-21T07:47:02.000Z</time>
        <extensions>
          <ns3:TrackPointExtension>
            <ns3:atemp>17.0</ns3:atemp>
          </ns3:TrackPointExtension>
        </extensions>
      </trkpt>
      <trkpt lat="43.14571271650493144989013671875" lon="13.10022641904652118682861328125">
        <ele>538</ele>
        <time>2021-05-21T07:47:03.000Z</time>
        <extensions>
          <ns3:TrackPointExtension>
            <ns3:atemp>17.0</ns3:atemp>
          </ns3:TrackPointExtension>
        </extensions>
      </trkpt>
      <trkpt lat="43.145824111998081207275390625" lon="13.10044200159609317779541015625">
        <ele>536.4000244140625</ele>
        <time>2021-05-21T07:47:05.000Z</time>
        <extensions>
          <ns3:TrackPointExtension>
            <ns3:atemp>17.0</ns3:atemp>
          </ns3:TrackPointExtension>
        </extensions>
      </trkpt>
      <trkpt lat="43.14587582834064960479736328125" lon="13.10054660774767398834228515625">
        <ele>535</ele>
        <time>2021-05-21T07:47:06.000Z</time>
        <extensions>
          <ns3:TrackPointExtension>
            <ns3:atemp>17.0</ns3:atemp>
          </ns3:TrackPointExtension>
        </extensions>
      </trkpt>
      <trkpt lat="43.1459251977503299713134765625" lon="13.10064752586185932159423828125">
        <ele>533.5999755859375</ele>
        <time>2021-05-21T07:47:07.000Z</time>
        <extensions>
          <ns3:TrackPointExtension>
            <ns3:atemp>17.0</ns3:atemp>
          </ns3:TrackPointExtension>
        </extensions>
      </trkpt>
      <trkpt lat="43.14597238786518573760986328125" lon="13.100744672119617462158203125">
        <ele>532.20001220703125</ele>
        <time>2021-05-21T07:47:08.000Z</time>
        <extensions>
          <ns3:TrackPointExtension>
            <ns3:atemp>17.0</ns3:atemp>
          </ns3:TrackPointExtension>
        </extensions>
      </trkpt>
      <trkpt lat="43.146016560494899749755859375" lon="13.10083829797804355621337890625">
        <ele>531.20001220703125</ele>
        <time>2021-05-21T07:47:09.000Z</time>
        <extensions>
          <ns3:TrackPointExtension>
            <ns3:atemp>17.0</ns3:atemp>
          </ns3:TrackPointExtension>
        </extensions>
      </trkpt>
      <trkpt lat="43.14605771563947200775146484375" lon="13.10092873871326446533203125">
        <ele>530.79998779296875</ele>
        <time>2021-05-21T07:47:10.000Z</time>
        <extensions>
          <ns3:TrackPointExtension>
            <ns3:atemp>17.0</ns3:atemp>
          </ns3:TrackPointExtension>
        </extensions>
      </trkpt>
      <trkpt lat="43.1462675146758556365966796875" lon="13.10131967067718505859375">
        <ele>530.4000244140625</ele>
        <time>2021-05-21T07:47:15.000Z</time>
        <extensions>
          <ns3:TrackPointExtension>
            <ns3:atemp>17.0</ns3:atemp>
          </ns3:TrackPointExtension>
        </extensions>
      </trkpt>
      <trkpt lat="43.146516792476177215576171875" lon="13.1019042246043682098388671875">
        <ele>530.79998779296875</ele>
        <time>2021-05-21T07:47:23.000Z</time>
        <extensions>
          <ns3:TrackPointExtension>
            <ns3:atemp>17.0</ns3:atemp>
          </ns3:TrackPointExtension>
        </extensions>
      </trkpt>
      <trkpt lat="43.146608658134937286376953125" lon="13.10238056816160678863525390625">
        <ele>531.20001220703125</ele>
        <time>2021-05-21T07:47:30.000Z</time>
        <extensions>
          <ns3:TrackPointExtension>
            <ns3:atemp>17.0</ns3:atemp>
          </ns3:TrackPointExtension>
        </extensions>
      </trkpt>
      <trkpt lat="43.146636150777339935302734375" lon="13.10248400084674358367919921875">
        <ele>532</ele>
        <time>2021-05-21T07:47:32.000Z</time>
        <extensions>
          <ns3:TrackPointExtension>
            <ns3:atemp>17.0</ns3:atemp>
          </ns3:TrackPointExtension>
        </extensions>
      </trkpt>
      <trkpt lat="43.14665802754461765289306640625" lon="13.10257871635258197784423828125">
        <ele>533.20001220703125</ele>
        <time>2021-05-21T07:47:34.000Z</time>
        <extensions>
          <ns3:TrackPointExtension>
            <ns3:atemp>17.0</ns3:atemp>
          </ns3:TrackPointExtension>
        </extensions>
      </trkpt>
      <trkpt lat="43.14667697064578533172607421875" lon="13.10266546905040740966796875">
        <ele>534.20001220703125</ele>
        <time>2021-05-21T07:47:36.000Z</time>
        <extensions>
          <ns3:TrackPointExtension>
            <ns3:atemp>17.0</ns3:atemp>
          </ns3:TrackPointExtension>
        </extensions>
      </trkpt>
      <trkpt lat="43.1466861069202423095703125" lon="13.10270226560533046722412109375">
        <ele>534.5999755859375</ele>
        <time>2021-05-21T07:47:37.000Z</time>
        <extensions>
          <ns3:TrackPointExtension>
            <ns3:atemp>17.0</ns3:atemp>
          </ns3:TrackPointExtension>
        </extensions>
      </trkpt>
      <trkpt lat="43.14669842831790447235107421875" lon="13.10277409851551055908203125">
        <ele>536.20001220703125</ele>
        <time>2021-05-21T07:47:39.000Z</time>
        <extensions>
          <ns3:TrackPointExtension>
            <ns3:atemp>17.0</ns3:atemp>
          </ns3:TrackPointExtension>
        </extensions>
      </trkpt>
      <trkpt lat="43.1467040441930294036865234375" lon="13.10285682789981365203857421875">
        <ele>537.5999755859375</ele>
        <time>2021-05-21T07:47:41.000Z</time>
        <extensions>
          <ns3:TrackPointExtension>
            <ns3:atemp>17.0</ns3:atemp>
          </ns3:TrackPointExtension>
        </extensions>
      </trkpt>
      <trkpt lat="43.1467077322304248809814453125" lon="13.1029378809034824371337890625">
        <ele>539.4000244140625</ele>
        <time>2021-05-21T07:47:43.000Z</time>
        <extensions>
          <ns3:TrackPointExtension>
            <ns3:atemp>17.0</ns3:atemp>
          </ns3:TrackPointExtension>
        </extensions>
      </trkpt>
      <trkpt lat="43.14671854488551616668701171875" lon="13.10301926918327808380126953125">
        <ele>540.5999755859375</ele>
        <time>2021-05-21T07:47:45.000Z</time>
        <extensions>
          <ns3:TrackPointExtension>
            <ns3:atemp>17.0</ns3:atemp>
          </ns3:TrackPointExtension>
        </extensions>
      </trkpt>
      <trkpt lat="43.14673103392124176025390625" lon="13.1031014956533908843994140625">
        <ele>541.5999755859375</ele>
        <time>2021-05-21T07:47:47.000Z</time>
        <extensions>
          <ns3:TrackPointExtension>
            <ns3:atemp>17.0</ns3:atemp>
          </ns3:TrackPointExtension>
        </extensions>
      </trkpt>
      <trkpt lat="43.14674134366214275360107421875" lon="13.10322881676256656646728515625">
        <ele>543</ele>
        <time>2021-05-21T07:47:50.000Z</time>
        <extensions>
          <ns3:TrackPointExtension>
            <ns3:atemp>17.0</ns3:atemp>
          </ns3:TrackPointExtension>
        </extensions>
      </trkpt>
      <trkpt lat="43.14676531590521335601806640625" lon="13.10330249369144439697265625">
        <ele>543.79998779296875</ele>
        <time>2021-05-21T07:47:52.000Z</time>
        <extensions>
          <ns3:TrackPointExtension>
            <ns3:atemp>17.0</ns3:atemp>
          </ns3:TrackPointExtension>
        </extensions>
      </trkpt>
      <trkpt lat="43.146789371967315673828125" lon="13.10331934131681919097900390625">
        <ele>544.4000244140625</ele>
        <time>2021-05-21T07:47:53.000Z</time>
        <extensions>
          <ns3:TrackPointExtension>
            <ns3:atemp>17.0</ns3:atemp>
          </ns3:TrackPointExtension>
        </extensions>
      </trkpt>
      <trkpt lat="43.14687008969485759735107421875" lon="13.10331565327942371368408203125">
        <ele>546</ele>
        <time>2021-05-21T07:47:56.000Z</time>
        <extensions>
          <ns3:TrackPointExtension>
            <ns3:atemp>17.0</ns3:atemp>
          </ns3:TrackPointExtension>
        </extensions>
      </trkpt>
      <trkpt lat="43.14694435335695743560791015625" lon="13.10324625112116336822509765625">
        <ele>547.4000244140625</ele>
        <time>2021-05-21T07:47:59.000Z</time>
        <extensions>
          <ns3:TrackPointExtension>
            <ns3:atemp>17.0</ns3:atemp>
          </ns3:TrackPointExtension>
        </extensions>
      </trkpt>
      <trkpt lat="43.14698307774960994720458984375" lon="13.1031873263418674468994140625">
        <ele>548.20001220703125</ele>
        <time>2021-05-21T07:48:01.000Z</time>
        <extensions>
          <ns3:TrackPointExtension>
            <ns3:atemp>17.0</ns3:atemp>
          </ns3:TrackPointExtension>
        </extensions>
      </trkpt>
      <trkpt lat="43.14699816517531871795654296875" lon="13.10315488837659358978271484375">
        <ele>548.4000244140625</ele>
        <time>2021-05-21T07:48:02.000Z</time>
        <extensions>
          <ns3:TrackPointExtension>
            <ns3:atemp>17.0</ns3:atemp>
          </ns3:TrackPointExtension>
        </extensions>
      </trkpt>
      <trkpt lat="43.14701174385845661163330078125" lon="13.10303117148578166961669921875">
        <ele>549.4000244140625</ele>
        <time>2021-05-21T07:48:05.000Z</time>
        <extensions>
          <ns3:TrackPointExtension>
            <ns3:atemp>17.0</ns3:atemp>
          </ns3:TrackPointExtension>
        </extensions>
      </trkpt>
      <trkpt lat="43.14700654707849025726318359375" lon="13.1029491126537322998046875">
        <ele>550.20001220703125</ele>
        <time>2021-05-21T07:48:07.000Z</time>
        <extensions>
          <ns3:TrackPointExtension>
            <ns3:atemp>17.0</ns3:atemp>
          </ns3:TrackPointExtension>
        </extensions>
      </trkpt>
      <trkpt lat="43.14700998365879058837890625" lon="13.1029073707759380340576171875">
        <ele>550.5999755859375</ele>
        <time>2021-05-21T07:48:08.000Z</time>
        <extensions>
          <ns3:TrackPointExtension>
            <ns3:atemp>17.0</ns3:atemp>
          </ns3:TrackPointExtension>
        </extensions>
      </trkpt>
      <trkpt lat="43.14699984155595302581787109375" lon="13.10278910212218761444091796875">
        <ele>552</ele>
        <time>2021-05-21T07:48:11.000Z</time>
        <extensions>
          <ns3:TrackPointExtension>
            <ns3:atemp>17.0</ns3:atemp>
          </ns3:TrackPointExtension>
        </extensions>
      </trkpt>
      <trkpt lat="43.146996237337589263916015625" lon="13.1027132458984851837158203125">
        <ele>553</ele>
        <time>2021-05-21T07:48:13.000Z</time>
        <extensions>
          <ns3:TrackPointExtension>
            <ns3:atemp>17.0</ns3:atemp>
          </ns3:TrackPointExtension>
        </extensions>
      </trkpt>
      <trkpt lat="43.14700637944042682647705078125" lon="13.10259095393121242523193359375">
        <ele>553.79998779296875</ele>
        <time>2021-05-21T07:48:16.000Z</time>
        <extensions>
          <ns3:TrackPointExtension>
            <ns3:atemp>17.0</ns3:atemp>
          </ns3:TrackPointExtension>
        </extensions>
      </trkpt>
      <trkpt lat="43.14701400697231292724609375" lon="13.102551810443401336669921875">
        <ele>554.4000244140625</ele>
        <time>2021-05-21T07:48:17.000Z</time>
        <extensions>
          <ns3:TrackPointExtension>
            <ns3:atemp>17.0</ns3:atemp>
          </ns3:TrackPointExtension>
        </extensions>
      </trkpt>
      <trkpt lat="43.14705281518399715423583984375" lon="13.1024503894150257110595703125">
        <ele>555.4000244140625</ele>
        <time>2021-05-21T07:48:20.000Z</time>
        <extensions>
          <ns3:TrackPointExtension>
            <ns3:atemp>17.0</ns3:atemp>
          </ns3:TrackPointExtension>
        </extensions>
      </trkpt>
      <trkpt lat="43.14709740690886974334716796875" lon="13.102388866245746612548828125">
        <ele>556.4000244140625</ele>
        <time>2021-05-21T07:48:22.000Z</time>
        <extensions>
          <ns3:TrackPointExtension>
            <ns3:atemp>17.0</ns3:atemp>
          </ns3:TrackPointExtension>
        </extensions>
      </trkpt>
      <trkpt lat="43.1471429206430912017822265625" lon="13.10233463533222675323486328125">
        <ele>557.4000244140625</ele>
        <time>2021-05-21T07:48:24.000Z</time>
        <extensions>
          <ns3:TrackPointExtension>
            <ns3:atemp>17.0</ns3:atemp>
          </ns3:TrackPointExtension>
        </extensions>
      </trkpt>
      <trkpt lat="43.1472240574657917022705078125" lon="13.102268166840076446533203125">
        <ele>558.79998779296875</ele>
        <time>2021-05-21T07:48:27.000Z</time>
        <extensions>
          <ns3:TrackPointExtension>
            <ns3:atemp>17.0</ns3:atemp>
          </ns3:TrackPointExtension>
        </extensions>
      </trkpt>
      <trkpt lat="43.14727242104709148406982421875" lon="13.10222650878131389617919921875">
        <ele>559.79998779296875</ele>
        <time>2021-05-21T07:48:29.000Z</time>
        <extensions>
          <ns3:TrackPointExtension>
            <ns3:atemp>17.0</ns3:atemp>
          </ns3:TrackPointExtension>
        </extensions>
      </trkpt>
      <trkpt lat="43.1472998298704624176025390625" lon="13.1022046320140361785888671875">
        <ele>560.20001220703125</ele>
        <time>2021-05-21T07:48:30.000Z</time>
        <extensions>
          <ns3:TrackPointExtension>
            <ns3:atemp>17.0</ns3:atemp>
          </ns3:TrackPointExtension>
        </extensions>
      </trkpt>
      <trkpt lat="43.14739010296761989593505859375" lon="13.10214721597731113433837890625">
        <ele>561.5999755859375</ele>
        <time>2021-05-21T07:48:33.000Z</time>
        <extensions>
          <ns3:TrackPointExtension>
            <ns3:atemp>17.0</ns3:atemp>
          </ns3:TrackPointExtension>
        </extensions>
      </trkpt>
      <trkpt lat="43.14748875796794891357421875" lon="13.1020856089890003204345703125">
        <ele>562.79998779296875</ele>
        <time>2021-05-21T07:48:36.000Z</time>
        <extensions>
          <ns3:TrackPointExtension>
            <ns3:atemp>17.0</ns3:atemp>
          </ns3:TrackPointExtension>
        </extensions>
      </trkpt>
      <trkpt lat="43.14758422784507274627685546875" lon="13.1020232476294040679931640625">
        <ele>564</ele>
        <time>2021-05-21T07:48:39.000Z</time>
        <extensions>
          <ns3:TrackPointExtension>
            <ns3:atemp>17.0</ns3:atemp>
          </ns3:TrackPointExtension>
        </extensions>
      </trkpt>
      <trkpt lat="43.14764943905174732208251953125" lon="13.10199684463441371917724609375">
        <ele>565</ele>
        <time>2021-05-21T07:48:41.000Z</time>
        <extensions>
          <ns3:TrackPointExtension>
            <ns3:atemp>17.0</ns3:atemp>
          </ns3:TrackPointExtension>
        </extensions>
      </trkpt>
      <trkpt lat="43.14776443876326084136962890625" lon="13.101975806057453155517578125">
        <ele>566.4000244140625</ele>
        <time>2021-05-21T07:48:45.000Z</time>
        <extensions>
          <ns3:TrackPointExtension>
            <ns3:atemp>17.0</ns3:atemp>
          </ns3:TrackPointExtension>
        </extensions>
      </trkpt>
      <trkpt lat="43.1477884948253631591796875" lon="13.1019779853522777557373046875">
        <ele>566.79998779296875</ele>
        <time>2021-05-21T07:48:46.000Z</time>
        <extensions>
          <ns3:TrackPointExtension>
            <ns3:atemp>17.0</ns3:atemp>
          </ns3:TrackPointExtension>
        </extensions>
      </trkpt>
      <trkpt lat="43.14783819951117038726806640625" lon="13.10200254432857036590576171875">
        <ele>567.79998779296875</ele>
        <time>2021-05-21T07:48:48.000Z</time>
        <extensions>
          <ns3:TrackPointExtension>
            <ns3:atemp>17.0</ns3:atemp>
          </ns3:TrackPointExtension>
        </extensions>
      </trkpt>
      <trkpt lat="43.1479207612574100494384765625" lon="13.10205392539501190185546875">
        <ele>569.20001220703125</ele>
        <time>2021-05-21T07:48:51.000Z</time>
        <extensions>
          <ns3:TrackPointExtension>
            <ns3:atemp>17.0</ns3:atemp>
          </ns3:TrackPointExtension>
        </extensions>
      </trkpt>
      <trkpt lat="43.14794682897627353668212890625" lon="13.10207345522940158843994140625">
        <ele>569.79998779296875</ele>
        <time>2021-05-21T07:48:52.000Z</time>
        <extensions>
          <ns3:TrackPointExtension>
            <ns3:atemp>17.0</ns3:atemp>
          </ns3:TrackPointExtension>
        </extensions>
      </trkpt>
      <trkpt lat="43.147966526448726654052734375" lon="13.10209491290152072906494140625">
        <ele>570.4000244140625</ele>
        <time>2021-05-21T07:48:53.000Z</time>
        <extensions>
          <ns3:TrackPointExtension>
            <ns3:atemp>17.0</ns3:atemp>
          </ns3:TrackPointExtension>
        </extensions>
      </trkpt>
      <trkpt lat="43.14800969325006008148193359375" lon="13.102130703628063201904296875">
        <ele>571.4000244140625</ele>
        <time>2021-05-21T07:48:55.000Z</time>
        <extensions>
          <ns3:TrackPointExtension>
            <ns3:atemp>17.0</ns3:atemp>
          </ns3:TrackPointExtension>
        </extensions>
      </trkpt>
      <trkpt lat="43.14806216396391391754150390625" lon="13.1021712720394134521484375">
        <ele>572.5999755859375</ele>
        <time>2021-05-21T07:48:59.000Z</time>
        <extensions>
          <ns3:TrackPointExtension>
            <ns3:atemp>17.0</ns3:atemp>
          </ns3:TrackPointExtension>
        </extensions>
      </trkpt>
      <trkpt lat="43.14807415008544921875" lon="13.1021674163639545440673828125">
        <ele>573.20001220703125</ele>
        <time>2021-05-21T07:49:05.000Z</time>
        <extensions>
          <ns3:TrackPointExtension>
            <ns3:atemp>17.0</ns3:atemp>
          </ns3:TrackPointExtension>
        </extensions>
      </trkpt>
      <trkpt lat="43.14807423390448093414306640625" lon="13.10216448269784450531005859375">
        <ele>573.5999755859375</ele>
        <time>2021-05-21T07:49:09.000Z</time>
        <extensions>
          <ns3:TrackPointExtension>
            <ns3:atemp>17.0</ns3:atemp>
          </ns3:TrackPointExtension>
        </extensions>
      </trkpt>
      <trkpt lat="43.14807406626641750335693359375" lon="13.10215878300368785858154296875">
        <ele>573.79998779296875</ele>
        <time>2021-05-21T07:49:20.000Z</time>
        <extensions>
          <ns3:TrackPointExtension>
            <ns3:atemp>17.0</ns3:atemp>
          </ns3:TrackPointExtension>
        </extensions>
      </trkpt>
      <trkpt lat="43.14807423390448093414306640625" lon="13.1021576933562755584716796875">
        <ele>574</ele>
        <time>2021-05-21T07:49:40.000Z</time>
        <extensions>
          <ns3:TrackPointExtension>
            <ns3:atemp>17.0</ns3:atemp>
          </ns3:TrackPointExtension>
        </extensions>
      </trkpt>
      <trkpt lat="43.14807021059095859527587890625" lon="13.1021617166697978973388671875">
        <ele>573.79998779296875</ele>
        <time>2021-05-21T07:49:58.000Z</time>
        <extensions>
          <ns3:TrackPointExtension>
            <ns3:atemp>17.0</ns3:atemp>
          </ns3:TrackPointExtension>
        </extensions>
      </trkpt>
      <trkpt lat="43.14806987531483173370361328125" lon="13.10216096229851245880126953125">
        <ele>573.79998779296875</ele>
        <time>2021-05-21T07:50:14.000Z</time>
        <extensions>
          <ns3:TrackPointExtension>
            <ns3:atemp>17.0</ns3:atemp>
          </ns3:TrackPointExtension>
        </extensions>
      </trkpt>
      <trkpt lat="43.14807004295289516448974609375" lon="13.1021573580801486968994140625">
        <ele>573.79998779296875</ele>
        <time>2021-05-21T07:50:45.000Z</time>
        <extensions>
          <ns3:TrackPointExtension>
            <ns3:atemp>16.0</ns3:atemp>
          </ns3:TrackPointExtension>
        </extensions>
      </trkpt>
      <trkpt lat="43.1480701267719268798828125" lon="13.1021540053188800811767578125">
        <ele>574</ele>
        <time>2021-05-21T07:51:06.000Z</time>
        <extensions>
          <ns3:TrackPointExtension>
            <ns3:atemp>16.0</ns3:atemp>
          </ns3:TrackPointExtension>
        </extensions>
      </trkpt>
      <trkpt lat="43.148071132600307464599609375" lon="13.1021511554718017578125">
        <ele>574.20001220703125</ele>
        <time>2021-05-21T07:51:22.000Z</time>
        <extensions>
          <ns3:TrackPointExtension>
            <ns3:atemp>16.0</ns3:atemp>
          </ns3:TrackPointExtension>
        </extensions>
      </trkpt>
      <trkpt lat="43.14806652255356311798095703125" lon="13.1021439470350742340087890625">
        <ele>574.4000244140625</ele>
        <time>2021-05-21T07:51:43.000Z</time>
        <extensions>
          <ns3:TrackPointExtension>
            <ns3:atemp>16.0</ns3:atemp>
          </ns3:TrackPointExtension>
        </extensions>
      </trkpt>
      <trkpt lat="43.1480701267719268798828125" lon="13.1021409295499324798583984375">
        <ele>574.4000244140625</ele>
        <time>2021-05-21T07:51:44.000Z</time>
        <extensions>
          <ns3:TrackPointExtension>
            <ns3:atemp>16.0</ns3:atemp>
          </ns3:TrackPointExtension>
        </extensions>
      </trkpt>
      <trkpt lat="43.14808814786374568939208984375" lon="13.1020983494818210601806640625">
        <ele>574.4000244140625</ele>
        <time>2021-05-21T07:51:48.000Z</time>
        <extensions>
          <ns3:TrackPointExtension>
            <ns3:atemp>16.0</ns3:atemp>
          </ns3:TrackPointExtension>
        </extensions>
      </trkpt>
      <trkpt lat="43.1480957753956317901611328125" lon="13.10208250768482685089111328125">
        <ele>574.4000244140625</ele>
        <time>2021-05-21T07:51:57.000Z</time>
        <extensions>
          <ns3:TrackPointExtension>
            <ns3:atemp>16.0</ns3:atemp>
          </ns3:TrackPointExtension>
        </extensions>
      </trkpt>
      <trkpt lat="43.14809493720531463623046875" lon="13.102057278156280517578125">
        <ele>574.4000244140625</ele>
        <time>2021-05-21T07:52:15.000Z</time>
        <extensions>
          <ns3:TrackPointExtension>
            <ns3:atemp>16.0</ns3:atemp>
          </ns3:TrackPointExtension>
        </extensions>
      </trkpt>
      <trkpt lat="43.14809217117726802825927734375" lon="13.10204009525477886199951171875">
        <ele>574.20001220703125</ele>
        <time>2021-05-21T07:52:22.000Z</time>
        <extensions>
          <ns3:TrackPointExtension>
            <ns3:atemp>16.0</ns3:atemp>
          </ns3:TrackPointExtension>
        </extensions>
      </trkpt>
      <trkpt lat="43.1480924226343631744384765625" lon="13.1020423583686351776123046875">
        <ele>574.20001220703125</ele>
        <time>2021-05-21T07:52:56.000Z</time>
        <extensions>
          <ns3:TrackPointExtension>
            <ns3:atemp>16.0</ns3:atemp>
          </ns3:TrackPointExtension>
        </extensions>
      </trkpt>
      <trkpt lat="43.14809435047209262847900390625" lon="13.1020443700253963470458984375">
        <ele>573.79998779296875</ele>
        <time>2021-05-21T07:53:42.000Z</time>
        <extensions>
          <ns3:TrackPointExtension>
            <ns3:atemp>17.0</ns3:atemp>
          </ns3:TrackPointExtension>
        </extensions>
      </trkpt>
      <trkpt lat="43.148094601929187774658203125" lon="13.10204395093023777008056640625">
        <ele>573.79998779296875</ele>
        <time>2021-05-21T07:53:50.000Z</time>
        <extensions>
          <ns3:TrackPointExtension>
            <ns3:atemp>17.0</ns3:atemp>
          </ns3:TrackPointExtension>
        </extensions>
      </trkpt>
      <trkpt lat="43.14806166104972362518310546875" lon="13.1020272709429264068603515625">
        <ele>573.79998779296875</ele>
        <time>2021-05-21T07:53:53.000Z</time>
        <extensions>
          <ns3:TrackPointExtension>
            <ns3:atemp>17.0</ns3:atemp>
          </ns3:TrackPointExtension>
        </extensions>
      </trkpt>
      <trkpt lat="43.148044645786285400390625" lon="13.1020255945622920989990234375">
        <ele>573.5999755859375</ele>
        <time>2021-05-21T07:53:54.000Z</time>
        <extensions>
          <ns3:TrackPointExtension>
            <ns3:atemp>17.0</ns3:atemp>
          </ns3:TrackPointExtension>
        </extensions>
      </trkpt>
      <trkpt lat="43.14793040044605731964111328125" lon="13.10199449770152568817138671875">
        <ele>573.5999755859375</ele>
        <time>2021-05-21T07:53:59.000Z</time>
        <extensions>
          <ns3:TrackPointExtension>
            <ns3:atemp>17.0</ns3:atemp>
          </ns3:TrackPointExtension>
        </extensions>
      </trkpt>
      <trkpt lat="43.14775966107845306396484375" lon="13.1019548512995243072509765625">
        <ele>573</ele>
        <time>2021-05-21T07:54:04.000Z</time>
        <extensions>
          <ns3:TrackPointExtension>
            <ns3:atemp>17.0</ns3:atemp>
          </ns3:TrackPointExtension>
        </extensions>
      </trkpt>
      <trkpt lat="43.1476612575352191925048828125" lon="13.10196264646947383880615234375">
        <ele>572.5999755859375</ele>
        <time>2021-05-21T07:54:06.000Z</time>
        <extensions>
          <ns3:TrackPointExtension>
            <ns3:atemp>17.0</ns3:atemp>
          </ns3:TrackPointExtension>
        </extensions>
      </trkpt>
      <trkpt lat="43.1476079486310482025146484375" lon="13.10198175720870494842529296875">
        <ele>572.5999755859375</ele>
        <time>2021-05-21T07:54:07.000Z</time>
        <extensions>
          <ns3:TrackPointExtension>
            <ns3:atemp>17.0</ns3:atemp>
          </ns3:TrackPointExtension>
        </extensions>
      </trkpt>
      <trkpt lat="43.14755178987979888916015625" lon="13.10200438834726810455322265625">
        <ele>572.4000244140625</ele>
        <time>2021-05-21T07:54:08.000Z</time>
        <extensions>
          <ns3:TrackPointExtension>
            <ns3:atemp>17.0</ns3:atemp>
          </ns3:TrackPointExtension>
        </extensions>
      </trkpt>
      <trkpt lat="43.1473222933709621429443359375" lon="13.10214218683540821075439453125">
        <ele>571.20001220703125</ele>
        <time>2021-05-21T07:54:12.000Z</time>
        <extensions>
          <ns3:TrackPointExtension>
            <ns3:atemp>17.0</ns3:atemp>
          </ns3:TrackPointExtension>
        </extensions>
      </trkpt>
      <trkpt lat="43.1472032703459262847900390625" lon="13.10222516767680644989013671875">
        <ele>569.5999755859375</ele>
        <time>2021-05-21T07:54:14.000Z</time>
        <extensions>
          <ns3:TrackPointExtension>
            <ns3:atemp>17.0</ns3:atemp>
          </ns3:TrackPointExtension>
        </extensions>
      </trkpt>
      <trkpt lat="43.14708667807281017303466796875" lon="13.1023256666958332061767578125">
        <ele>568</ele>
        <time>2021-05-21T07:54:16.000Z</time>
        <extensions>
          <ns3:TrackPointExtension>
            <ns3:atemp>17.0</ns3:atemp>
          </ns3:TrackPointExtension>
        </extensions>
      </trkpt>
      <trkpt lat="43.14700587652623653411865234375" lon="13.1024689972400665283203125">
        <ele>565</ele>
        <time>2021-05-21T07:54:18.000Z</time>
        <extensions>
          <ns3:TrackPointExtension>
            <ns3:atemp>18.0</ns3:atemp>
          </ns3:TrackPointExtension>
        </extensions>
      </trkpt>
      <trkpt lat="43.14698056317865848541259765625" lon="13.102556504309177398681640625">
        <ele>564</ele>
        <time>2021-05-21T07:54:19.000Z</time>
        <extensions>
          <ns3:TrackPointExtension>
            <ns3:atemp>18.0</ns3:atemp>
          </ns3:TrackPointExtension>
        </extensions>
      </trkpt>
      <trkpt lat="43.14695793204009532928466796875" lon="13.10274853371083736419677734375">
        <ele>562.20001220703125</ele>
        <time>2021-05-21T07:54:21.000Z</time>
        <extensions>
          <ns3:TrackPointExtension>
            <ns3:atemp>18.0</ns3:atemp>
          </ns3:TrackPointExtension>
        </extensions>
      </trkpt>
      <trkpt lat="43.14695189706981182098388671875" lon="13.1028513796627521514892578125">
        <ele>561.20001220703125</ele>
        <time>2021-05-21T07:54:22.000Z</time>
        <extensions>
          <ns3:TrackPointExtension>
            <ns3:atemp>18.0</ns3:atemp>
          </ns3:TrackPointExtension>
        </extensions>
      </trkpt>
      <trkpt lat="43.1469435989856719970703125" lon="13.1029549799859523773193359375">
        <ele>560.5999755859375</ele>
        <time>2021-05-21T07:54:23.000Z</time>
        <extensions>
          <ns3:TrackPointExtension>
            <ns3:atemp>18.0</ns3:atemp>
          </ns3:TrackPointExtension>
        </extensions>
      </trkpt>
      <trkpt lat="43.1469273380935192108154296875" lon="13.10305346734821796417236328125">
        <ele>559.79998779296875</ele>
        <time>2021-05-21T07:54:24.000Z</time>
        <extensions>
          <ns3:TrackPointExtension>
            <ns3:atemp>18.0</ns3:atemp>
          </ns3:TrackPointExtension>
        </extensions>
      </trkpt>
      <trkpt lat="43.1469015218317508697509765625" lon="13.10313829220831394195556640625">
        <ele>559</ele>
        <time>2021-05-21T07:54:25.000Z</time>
        <extensions>
          <ns3:TrackPointExtension>
            <ns3:atemp>18.0</ns3:atemp>
          </ns3:TrackPointExtension>
        </extensions>
      </trkpt>
      <trkpt lat="43.14686514437198638916015625" lon="13.1032074429094791412353515625">
        <ele>558.4000244140625</ele>
        <time>2021-05-21T07:54:26.000Z</time>
        <extensions>
          <ns3:TrackPointExtension>
            <ns3:atemp>18.0</ns3:atemp>
          </ns3:TrackPointExtension>
        </extensions>
      </trkpt>
      <trkpt lat="43.14682566560804843902587890625" lon="13.10325798578560352325439453125">
        <ele>557.4000244140625</ele>
        <time>2021-05-21T07:54:27.000Z</time>
        <extensions>
          <ns3:TrackPointExtension>
            <ns3:atemp>18.0</ns3:atemp>
          </ns3:TrackPointExtension>
        </extensions>
      </trkpt>
      <trkpt lat="43.14676850102841854095458984375" lon="13.1033231131732463836669921875">
        <ele>555.4000244140625</ele>
        <time>2021-05-21T07:54:29.000Z</time>
        <extensions>
          <ns3:TrackPointExtension>
            <ns3:atemp>18.0</ns3:atemp>
          </ns3:TrackPointExtension>
        </extensions>
      </trkpt>
      <trkpt lat="43.1467519886791706085205078125" lon="13.10334867797791957855224609375">
        <ele>554.20001220703125</ele>
        <time>2021-05-21T07:54:30.000Z</time>
        <extensions>
          <ns3:TrackPointExtension>
            <ns3:atemp>18.0</ns3:atemp>
          </ns3:TrackPointExtension>
        </extensions>
      </trkpt>
      <trkpt lat="43.14674117602407932281494140625" lon="13.10338321141898632049560546875">
        <ele>553</ele>
        <time>2021-05-21T07:54:31.000Z</time>
        <extensions>
          <ns3:TrackPointExtension>
            <ns3:atemp>18.0</ns3:atemp>
          </ns3:TrackPointExtension>
        </extensions>
      </trkpt>
      <trkpt lat="43.14673597924411296844482421875" lon="13.1034210138022899627685546875">
        <ele>552</ele>
        <time>2021-05-21T07:54:32.000Z</time>
        <extensions>
          <ns3:TrackPointExtension>
            <ns3:atemp>18.0</ns3:atemp>
          </ns3:TrackPointExtension>
        </extensions>
      </trkpt>
      <trkpt lat="43.1467385776340961456298828125" lon="13.10345630161464214324951171875">
        <ele>551.20001220703125</ele>
        <time>2021-05-21T07:54:33.000Z</time>
        <extensions>
          <ns3:TrackPointExtension>
            <ns3:atemp>18.0</ns3:atemp>
          </ns3:TrackPointExtension>
        </extensions>
      </trkpt>
      <trkpt lat="43.1467432714998722076416015625" lon="13.103492259979248046875">
        <ele>550.79998779296875</ele>
        <time>2021-05-21T07:54:34.000Z</time>
        <extensions>
          <ns3:TrackPointExtension>
            <ns3:atemp>18.0</ns3:atemp>
          </ns3:TrackPointExtension>
        </extensions>
      </trkpt>
      <trkpt lat="43.146775625646114349365234375" lon="13.103672303259372711181640625">
        <ele>550.4000244140625</ele>
        <time>2021-05-21T07:54:39.000Z</time>
        <extensions>
          <ns3:TrackPointExtension>
            <ns3:atemp>18.0</ns3:atemp>
          </ns3:TrackPointExtension>
        </extensions>
      </trkpt>
      <trkpt lat="43.146782331168651580810546875" lon="13.1037110276520252227783203125">
        <ele>550.4000244140625</ele>
        <time>2021-05-21T07:54:40.000Z</time>
        <extensions>
          <ns3:TrackPointExtension>
            <ns3:atemp>18.0</ns3:atemp>
          </ns3:TrackPointExtension>
        </extensions>
      </trkpt>
      <trkpt lat="43.14683505333960056304931640625" lon="13.10396474786102771759033203125">
        <ele>552.4000244140625</ele>
        <time>2021-05-21T07:54:47.000Z</time>
        <extensions>
          <ns3:TrackPointExtension>
            <ns3:atemp>18.0</ns3:atemp>
          </ns3:TrackPointExtension>
        </extensions>
      </trkpt>
      <trkpt lat="43.14684494398534297943115234375" lon="13.10400045476853847503662109375">
        <ele>552.79998779296875</ele>
        <time>2021-05-21T07:54:48.000Z</time>
        <extensions>
          <ns3:TrackPointExtension>
            <ns3:atemp>18.0</ns3:atemp>
          </ns3:TrackPointExtension>
        </extensions>
      </trkpt>
      <trkpt lat="43.1468609534204006195068359375" lon="13.104072622954845428466796875">
        <ele>553.4000244140625</ele>
        <time>2021-05-21T07:54:50.000Z</time>
        <extensions>
          <ns3:TrackPointExtension>
            <ns3:atemp>18.0</ns3:atemp>
          </ns3:TrackPointExtension>
        </extensions>
      </trkpt>
      <trkpt lat="43.14688752405345439910888671875" lon="13.1041829288005828857421875">
        <ele>554.5999755859375</ele>
        <time>2021-05-21T07:54:53.000Z</time>
        <extensions>
          <ns3:TrackPointExtension>
            <ns3:atemp>18.0</ns3:atemp>
          </ns3:TrackPointExtension>
        </extensions>
      </trkpt>
      <trkpt lat="43.14688752405345439910888671875" lon="13.10426414944231510162353515625">
        <ele>555.20001220703125</ele>
        <time>2021-05-21T07:54:55.000Z</time>
        <extensions>
          <ns3:TrackPointExtension>
            <ns3:atemp>18.0</ns3:atemp>
          </ns3:TrackPointExtension>
        </extensions>
      </trkpt>
      <trkpt lat="43.14687629230320453643798828125" lon="13.10434428043663501739501953125">
        <ele>555.79998779296875</ele>
        <time>2021-05-21T07:54:57.000Z</time>
        <extensions>
          <ns3:TrackPointExtension>
            <ns3:atemp>18.0</ns3:atemp>
          </ns3:TrackPointExtension>
        </extensions>
      </trkpt>
      <trkpt lat="43.146839998662471771240234375" lon="13.10445559211075305938720703125">
        <ele>556.79998779296875</ele>
        <time>2021-05-21T07:55:00.000Z</time>
        <extensions>
          <ns3:TrackPointExtension>
            <ns3:atemp>18.0</ns3:atemp>
          </ns3:TrackPointExtension>
        </extensions>
      </trkpt>
      <trkpt lat="43.14682583324611186981201171875" lon="13.10449079610407352447509765625">
        <ele>557.20001220703125</ele>
        <time>2021-05-21T07:55:01.000Z</time>
        <extensions>
          <ns3:TrackPointExtension>
            <ns3:atemp>18.0</ns3:atemp>
          </ns3:TrackPointExtension>
        </extensions>
      </trkpt>
      <trkpt lat="43.14679808914661407470703125" lon="13.104564137756824493408203125">
        <ele>557.79998779296875</ele>
        <time>2021-05-21T07:55:03.000Z</time>
        <extensions>
          <ns3:TrackPointExtension>
            <ns3:atemp>18.0</ns3:atemp>
          </ns3:TrackPointExtension>
        </extensions>
      </trkpt>
      <trkpt lat="43.14673581160604953765869140625" lon="13.10470419935882091522216796875">
        <ele>559.20001220703125</ele>
        <time>2021-05-21T07:55:07.000Z</time>
        <extensions>
          <ns3:TrackPointExtension>
            <ns3:atemp>18.0</ns3:atemp>
          </ns3:TrackPointExtension>
        </extensions>
      </trkpt>
      <trkpt lat="43.14668987877666950225830078125" lon="13.10480528511106967926025390625">
        <ele>560</ele>
        <time>2021-05-21T07:55:10.000Z</time>
        <extensions>
          <ns3:TrackPointExtension>
            <ns3:atemp>18.0</ns3:atemp>
          </ns3:TrackPointExtension>
        </extensions>
      </trkpt>
      <trkpt lat="43.14667462371289730072021484375" lon="13.10483914799988269805908203125">
        <ele>560.4000244140625</ele>
        <time>2021-05-21T07:55:11.000Z</time>
        <extensions>
          <ns3:TrackPointExtension>
            <ns3:atemp>18.0</ns3:atemp>
          </ns3:TrackPointExtension>
        </extensions>
      </trkpt>
      <trkpt lat="43.14659885130822658538818359375" lon="13.10499228537082672119140625">
        <ele>561.4000244140625</ele>
        <time>2021-05-21T07:55:15.000Z</time>
        <extensions>
          <ns3:TrackPointExtension>
            <ns3:atemp>18.0</ns3:atemp>
          </ns3:TrackPointExtension>
        </extensions>
      </trkpt>
      <trkpt lat="43.14658124931156635284423828125" lon="13.1050310097634792327880859375">
        <ele>561.79998779296875</ele>
        <time>2021-05-21T07:55:16.000Z</time>
        <extensions>
          <ns3:TrackPointExtension>
            <ns3:atemp>18.0</ns3:atemp>
          </ns3:TrackPointExtension>
        </extensions>
      </trkpt>
      <trkpt lat="43.14654327929019927978515625" lon="13.10510787181556224822998046875">
        <ele>562</ele>
        <time>2021-05-21T07:55:18.000Z</time>
        <extensions>
          <ns3:TrackPointExtension>
            <ns3:atemp>18.0</ns3:atemp>
          </ns3:TrackPointExtension>
        </extensions>
      </trkpt>
      <trkpt lat="43.14652509056031703948974609375" lon="13.1051463447511196136474609375">
        <ele>562.4000244140625</ele>
        <time>2021-05-21T07:55:19.000Z</time>
        <extensions>
          <ns3:TrackPointExtension>
            <ns3:atemp>18.0</ns3:atemp>
          </ns3:TrackPointExtension>
        </extensions>
      </trkpt>
      <trkpt lat="43.14645585604012012481689453125" lon="13.10529948212206363677978515625">
        <ele>563.5999755859375</ele>
        <time>2021-05-21T07:55:23.000Z</time>
        <extensions>
          <ns3:TrackPointExtension>
            <ns3:atemp>18.0</ns3:atemp>
          </ns3:TrackPointExtension>
        </extensions>
      </trkpt>
      <trkpt lat="43.14639399759471416473388671875" lon="13.1053971312940120697021484375">
        <ele>564.5999755859375</ele>
        <time>2021-05-21T07:55:26.000Z</time>
        <extensions>
          <ns3:TrackPointExtension>
            <ns3:atemp>18.0</ns3:atemp>
          </ns3:TrackPointExtension>
        </extensions>
      </trkpt>
      <trkpt lat="43.1463761441409587860107421875" lon="13.105429150164127349853515625">
        <ele>565</ele>
        <time>2021-05-21T07:55:27.000Z</time>
        <extensions>
          <ns3:TrackPointExtension>
            <ns3:atemp>18.0</ns3:atemp>
          </ns3:TrackPointExtension>
        </extensions>
      </trkpt>
      <trkpt lat="43.14633943140506744384765625" lon="13.1054891645908355712890625">
        <ele>565.79998779296875</ele>
        <time>2021-05-21T07:55:29.000Z</time>
        <extensions>
          <ns3:TrackPointExtension>
            <ns3:atemp>18.0</ns3:atemp>
          </ns3:TrackPointExtension>
        </extensions>
      </trkpt>
      <trkpt lat="43.146280087530612945556640625" lon="13.10557474382221698760986328125">
        <ele>567</ele>
        <time>2021-05-21T07:55:32.000Z</time>
        <extensions>
          <ns3:TrackPointExtension>
            <ns3:atemp>18.0</ns3:atemp>
          </ns3:TrackPointExtension>
        </extensions>
      </trkpt>
      <trkpt lat="43.146219067275524139404296875" lon="13.1056581437587738037109375">
        <ele>568.20001220703125</ele>
        <time>2021-05-21T07:55:35.000Z</time>
        <extensions>
          <ns3:TrackPointExtension>
            <ns3:atemp>18.0</ns3:atemp>
          </ns3:TrackPointExtension>
        </extensions>
      </trkpt>
      <trkpt lat="43.146162070333957672119140625" lon="13.1057458184659481048583984375">
        <ele>569.4000244140625</ele>
        <time>2021-05-21T07:55:38.000Z</time>
        <extensions>
          <ns3:TrackPointExtension>
            <ns3:atemp>18.0</ns3:atemp>
          </ns3:TrackPointExtension>
        </extensions>
      </trkpt>
      <trkpt lat="43.1461169756948947906494140625" lon="13.1058512628078460693359375">
        <ele>570.5999755859375</ele>
        <time>2021-05-21T07:55:41.000Z</time>
        <extensions>
          <ns3:TrackPointExtension>
            <ns3:atemp>18.0</ns3:atemp>
          </ns3:TrackPointExtension>
        </extensions>
      </trkpt>
      <trkpt lat="43.14609996043145656585693359375" lon="13.10593499802052974700927734375">
        <ele>571.5999755859375</ele>
        <time>2021-05-21T07:55:43.000Z</time>
        <extensions>
          <ns3:TrackPointExtension>
            <ns3:atemp>18.0</ns3:atemp>
          </ns3:TrackPointExtension>
        </extensions>
      </trkpt>
      <trkpt lat="43.14609593711793422698974609375" lon="13.10597757808864116668701171875">
        <ele>572</ele>
        <time>2021-05-21T07:55:44.000Z</time>
        <extensions>
          <ns3:TrackPointExtension>
            <ns3:atemp>18.0</ns3:atemp>
          </ns3:TrackPointExtension>
        </extensions>
      </trkpt>
      <trkpt lat="43.146093003451824188232421875" lon="13.10606382787227630615234375">
        <ele>573.20001220703125</ele>
        <time>2021-05-21T07:55:46.000Z</time>
        <extensions>
          <ns3:TrackPointExtension>
            <ns3:atemp>18.0</ns3:atemp>
          </ns3:TrackPointExtension>
        </extensions>
      </trkpt>
      <trkpt lat="43.1460945121943950653076171875" lon="13.10623708181083202362060546875">
        <ele>574.4000244140625</ele>
        <time>2021-05-21T07:55:50.000Z</time>
        <extensions>
          <ns3:TrackPointExtension>
            <ns3:atemp>18.0</ns3:atemp>
          </ns3:TrackPointExtension>
        </extensions>
      </trkpt>
      <trkpt lat="43.14610071480274200439453125" lon="13.10645853169262409210205078125">
        <ele>575.5999755859375</ele>
        <time>2021-05-21T07:55:55.000Z</time>
        <extensions>
          <ns3:TrackPointExtension>
            <ns3:atemp>19.0</ns3:atemp>
          </ns3:TrackPointExtension>
        </extensions>
      </trkpt>
      <trkpt lat="43.1461094319820404052734375" lon="13.1065405905246734619140625">
        <ele>575.79998779296875</ele>
        <time>2021-05-21T07:55:57.000Z</time>
        <extensions>
          <ns3:TrackPointExtension>
            <ns3:atemp>19.0</ns3:atemp>
          </ns3:TrackPointExtension>
        </extensions>
      </trkpt>
      <trkpt lat="43.14616936258971691131591796875" lon="13.1066805683076381683349609375">
        <ele>576.20001220703125</ele>
        <time>2021-05-21T07:56:01.000Z</time>
        <extensions>
          <ns3:TrackPointExtension>
            <ns3:atemp>19.0</ns3:atemp>
          </ns3:TrackPointExtension>
        </extensions>
      </trkpt>
      <trkpt lat="43.14619190990924835205078125" lon="13.10670445673167705535888671875">
        <ele>576.4000244140625</ele>
        <time>2021-05-21T07:56:02.000Z</time>
        <extensions>
          <ns3:TrackPointExtension>
            <ns3:atemp>19.0</ns3:atemp>
          </ns3:TrackPointExtension>
        </extensions>
      </trkpt>
      <trkpt lat="43.14627815969288349151611328125" lon="13.106760196387767791748046875">
        <ele>577.5999755859375</ele>
        <time>2021-05-21T07:56:06.000Z</time>
        <extensions>
          <ns3:TrackPointExtension>
            <ns3:atemp>19.0</ns3:atemp>
          </ns3:TrackPointExtension>
        </extensions>
      </trkpt>
      <trkpt lat="43.14637119881808757781982421875" lon="13.106780312955379486083984375">
        <ele>578.79998779296875</ele>
        <time>2021-05-21T07:56:10.000Z</time>
        <extensions>
          <ns3:TrackPointExtension>
            <ns3:atemp>19.0</ns3:atemp>
          </ns3:TrackPointExtension>
        </extensions>
      </trkpt>
      <trkpt lat="43.14640170894563198089599609375" lon="13.10679011978209018707275390625">
        <ele>580.20001220703125</ele>
        <time>2021-05-21T07:56:13.000Z</time>
        <extensions>
          <ns3:TrackPointExtension>
            <ns3:atemp>19.0</ns3:atemp>
          </ns3:TrackPointExtension>
        </extensions>
      </trkpt>
      <trkpt lat="43.14639986492693424224853515625" lon="13.10679045505821704864501953125">
        <ele>581.20001220703125</ele>
        <time>2021-05-21T07:56:15.000Z</time>
        <extensions>
          <ns3:TrackPointExtension>
            <ns3:atemp>19.0</ns3:atemp>
          </ns3:TrackPointExtension>
        </extensions>
      </trkpt>
      <trkpt lat="43.14640003256499767303466796875" lon="13.1067912094295024871826171875">
        <ele>582.4000244140625</ele>
        <time>2021-05-21T07:56:19.000Z</time>
        <extensions>
          <ns3:TrackPointExtension>
            <ns3:atemp>19.0</ns3:atemp>
          </ns3:TrackPointExtension>
        </extensions>
      </trkpt>
      <trkpt lat="43.146418221294879913330078125" lon="13.1067927181720733642578125">
        <ele>582.79998779296875</ele>
        <time>2021-05-21T07:56:21.000Z</time>
        <extensions>
          <ns3:TrackPointExtension>
            <ns3:atemp>19.0</ns3:atemp>
          </ns3:TrackPointExtension>
        </extensions>
      </trkpt>
      <trkpt lat="43.14652140252292156219482421875" lon="13.1068002618849277496337890625">
        <ele>583</ele>
        <time>2021-05-21T07:56:26.000Z</time>
        <extensions>
          <ns3:TrackPointExtension>
            <ns3:atemp>19.0</ns3:atemp>
          </ns3:TrackPointExtension>
        </extensions>
      </trkpt>
      <trkpt lat="43.146691806614398956298828125" lon="13.1068180315196514129638671875">
        <ele>583.5999755859375</ele>
        <time>2021-05-21T07:56:33.000Z</time>
        <extensions>
          <ns3:TrackPointExtension>
            <ns3:atemp>19.0</ns3:atemp>
          </ns3:TrackPointExtension>
        </extensions>
      </trkpt>
      <trkpt lat="43.14678660593926906585693359375" lon="13.10683035291731357574462890625">
        <ele>584.79998779296875</ele>
        <time>2021-05-21T07:56:37.000Z</time>
        <extensions>
          <ns3:TrackPointExtension>
            <ns3:atemp>19.0</ns3:atemp>
          </ns3:TrackPointExtension>
        </extensions>
      </trkpt>
      <trkpt lat="43.1468780525028705596923828125" lon="13.10684502124786376953125">
        <ele>585.79998779296875</ele>
        <time>2021-05-21T07:56:41.000Z</time>
        <extensions>
          <ns3:TrackPointExtension>
            <ns3:atemp>19.0</ns3:atemp>
          </ns3:TrackPointExtension>
        </extensions>
      </trkpt>
      <trkpt lat="43.14694292843341827392578125" lon="13.10686086304485797882080078125">
        <ele>587.5999755859375</ele>
        <time>2021-05-21T07:56:44.000Z</time>
        <extensions>
          <ns3:TrackPointExtension>
            <ns3:atemp>19.0</ns3:atemp>
          </ns3:TrackPointExtension>
        </extensions>
      </trkpt>
      <trkpt lat="43.14702012576162815093994140625" lon="13.1068787164986133575439453125">
        <ele>588.5999755859375</ele>
        <time>2021-05-21T07:56:47.000Z</time>
        <extensions>
          <ns3:TrackPointExtension>
            <ns3:atemp>18.0</ns3:atemp>
          </ns3:TrackPointExtension>
        </extensions>
      </trkpt>
      <trkpt lat="43.1470503844320774078369140625" lon="13.10688802041113376617431640625">
        <ele>588.79998779296875</ele>
        <time>2021-05-21T07:56:48.000Z</time>
        <extensions>
          <ns3:TrackPointExtension>
            <ns3:atemp>18.0</ns3:atemp>
          </ns3:TrackPointExtension>
        </extensions>
      </trkpt>
      <trkpt lat="43.1471554934978485107421875" lon="13.10692272149026393890380859375">
        <ele>590</ele>
        <time>2021-05-21T07:56:52.000Z</time>
        <extensions>
          <ns3:TrackPointExtension>
            <ns3:atemp>18.0</ns3:atemp>
          </ns3:TrackPointExtension>
        </extensions>
      </trkpt>
      <trkpt lat="43.14721441827714443206787109375" lon="13.10694484971463680267333984375">
        <ele>590.5999755859375</ele>
        <time>2021-05-21T07:56:54.000Z</time>
        <extensions>
          <ns3:TrackPointExtension>
            <ns3:atemp>18.0</ns3:atemp>
          </ns3:TrackPointExtension>
        </extensions>
      </trkpt>
      <trkpt lat="43.14727845601737499237060546875" lon="13.1069675646722316741943359375">
        <ele>591.20001220703125</ele>
        <time>2021-05-21T07:56:56.000Z</time>
        <extensions>
          <ns3:TrackPointExtension>
            <ns3:atemp>18.0</ns3:atemp>
          </ns3:TrackPointExtension>
        </extensions>
      </trkpt>
      <trkpt lat="43.14736495725810527801513671875" lon="13.107000924646854400634765625">
        <ele>592.20001220703125</ele>
        <time>2021-05-21T07:56:59.000Z</time>
        <extensions>
          <ns3:TrackPointExtension>
            <ns3:atemp>18.0</ns3:atemp>
          </ns3:TrackPointExtension>
        </extensions>
      </trkpt>
      <trkpt lat="43.1474473513662815093994140625" lon="13.10704258270561695098876953125">
        <ele>593.20001220703125</ele>
        <time>2021-05-21T07:57:02.000Z</time>
        <extensions>
          <ns3:TrackPointExtension>
            <ns3:atemp>18.0</ns3:atemp>
          </ns3:TrackPointExtension>
        </extensions>
      </trkpt>
      <trkpt lat="43.14752907492220401763916015625" lon="13.10708633624017238616943359375">
        <ele>594.4000244140625</ele>
        <time>2021-05-21T07:57:05.000Z</time>
        <extensions>
          <ns3:TrackPointExtension>
            <ns3:atemp>18.0</ns3:atemp>
          </ns3:TrackPointExtension>
        </extensions>
      </trkpt>
      <trkpt lat="43.14760803245007991790771484375" lon="13.107137382030487060546875">
        <ele>595.79998779296875</ele>
        <time>2021-05-21T07:57:08.000Z</time>
        <extensions>
          <ns3:TrackPointExtension>
            <ns3:atemp>18.0</ns3:atemp>
          </ns3:TrackPointExtension>
        </extensions>
      </trkpt>
      <trkpt lat="43.14768363721668720245361328125" lon="13.10718541033565998077392578125">
        <ele>597.20001220703125</ele>
        <time>2021-05-21T07:57:11.000Z</time>
        <extensions>
          <ns3:TrackPointExtension>
            <ns3:atemp>18.0</ns3:atemp>
          </ns3:TrackPointExtension>
        </extensions>
      </trkpt>
      <trkpt lat="43.14775488339364528656005859375" lon="13.10724291019141674041748046875">
        <ele>598.79998779296875</ele>
        <time>2021-05-21T07:57:14.000Z</time>
        <extensions>
          <ns3:TrackPointExtension>
            <ns3:atemp>18.0</ns3:atemp>
          </ns3:TrackPointExtension>
        </extensions>
      </trkpt>
      <trkpt lat="43.14781732857227325439453125" lon="13.1073132343590259552001953125">
        <ele>600.20001220703125</ele>
        <time>2021-05-21T07:57:17.000Z</time>
        <extensions>
          <ns3:TrackPointExtension>
            <ns3:atemp>18.0</ns3:atemp>
          </ns3:TrackPointExtension>
        </extensions>
      </trkpt>
      <trkpt lat="43.14784775488078594207763671875" lon="13.107374422252178192138671875">
        <ele>601</ele>
        <time>2021-05-21T07:57:19.000Z</time>
        <extensions>
          <ns3:TrackPointExtension>
            <ns3:atemp>18.0</ns3:atemp>
          </ns3:TrackPointExtension>
        </extensions>
      </trkpt>
      <trkpt lat="43.1478595733642578125" lon="13.10740702785551548004150390625">
        <ele>601.4000244140625</ele>
        <time>2021-05-21T07:57:20.000Z</time>
        <extensions>
          <ns3:TrackPointExtension>
            <ns3:atemp>18.0</ns3:atemp>
          </ns3:TrackPointExtension>
        </extensions>
      </trkpt>
      <trkpt lat="43.14788631163537502288818359375" lon="13.10751046054065227508544921875">
        <ele>602.79998779296875</ele>
        <time>2021-05-21T07:57:23.000Z</time>
        <extensions>
          <ns3:TrackPointExtension>
            <ns3:atemp>18.0</ns3:atemp>
          </ns3:TrackPointExtension>
        </extensions>
      </trkpt>
      <trkpt lat="43.14790357835590839385986328125" lon="13.1076215207576751708984375">
        <ele>604.20001220703125</ele>
        <time>2021-05-21T07:57:26.000Z</time>
        <extensions>
          <ns3:TrackPointExtension>
            <ns3:atemp>18.0</ns3:atemp>
          </ns3:TrackPointExtension>
        </extensions>
      </trkpt>
      <trkpt lat="43.14791916869580745697021484375" lon="13.1077314913272857666015625">
        <ele>605.5999755859375</ele>
        <time>2021-05-21T07:57:29.000Z</time>
        <extensions>
          <ns3:TrackPointExtension>
            <ns3:atemp>18.0</ns3:atemp>
          </ns3:TrackPointExtension>
        </extensions>
      </trkpt>
      <trkpt lat="43.14794280566275119781494140625" lon="13.1078382767736911773681640625">
        <ele>606.79998779296875</ele>
        <time>2021-05-21T07:57:32.000Z</time>
        <extensions>
          <ns3:TrackPointExtension>
            <ns3:atemp>19.0</ns3:atemp>
          </ns3:TrackPointExtension>
        </extensions>
      </trkpt>
      <trkpt lat="43.14795437268912792205810546875" lon="13.1079096905887126922607421875">
        <ele>607.4000244140625</ele>
        <time>2021-05-21T07:57:34.000Z</time>
        <extensions>
          <ns3:TrackPointExtension>
            <ns3:atemp>19.0</ns3:atemp>
          </ns3:TrackPointExtension>
        </extensions>
      </trkpt>
      <trkpt lat="43.1479603238403797149658203125" lon="13.10794564895331859588623046875">
        <ele>608</ele>
        <time>2021-05-21T07:57:35.000Z</time>
        <extensions>
          <ns3:TrackPointExtension>
            <ns3:atemp>19.0</ns3:atemp>
          </ns3:TrackPointExtension>
        </extensions>
      </trkpt>
      <trkpt lat="43.147983960807323455810546875" lon="13.10805310495197772979736328125">
        <ele>609.20001220703125</ele>
        <time>2021-05-21T07:57:38.000Z</time>
        <extensions>
          <ns3:TrackPointExtension>
            <ns3:atemp>19.0</ns3:atemp>
          </ns3:TrackPointExtension>
        </extensions>
      </trkpt>
      <trkpt lat="43.14798052422702312469482421875" lon="13.1080900691449642181396484375">
        <ele>609.5999755859375</ele>
        <time>2021-05-21T07:57:39.000Z</time>
        <extensions>
          <ns3:TrackPointExtension>
            <ns3:atemp>19.0</ns3:atemp>
          </ns3:TrackPointExtension>
        </extensions>
      </trkpt>
      <trkpt lat="43.14796627499163150787353515625" lon="13.10812502168118953704833984375">
        <ele>610</ele>
        <time>2021-05-21T07:57:40.000Z</time>
        <extensions>
          <ns3:TrackPointExtension>
            <ns3:atemp>19.0</ns3:atemp>
          </ns3:TrackPointExtension>
        </extensions>
      </trkpt>
      <trkpt lat="43.14794414676725864410400390625" lon="13.1081510894000530242919921875">
        <ele>610.4000244140625</ele>
        <time>2021-05-21T07:57:41.000Z</time>
        <extensions>
          <ns3:TrackPointExtension>
            <ns3:atemp>19.0</ns3:atemp>
          </ns3:TrackPointExtension>
        </extensions>
      </trkpt>
      <trkpt lat="43.14789201132953166961669921875" lon="13.108177073299884796142578125">
        <ele>611.5999755859375</ele>
        <time>2021-05-21T07:57:43.000Z</time>
        <extensions>
          <ns3:TrackPointExtension>
            <ns3:atemp>19.0</ns3:atemp>
          </ns3:TrackPointExtension>
        </extensions>
      </trkpt>
      <trkpt lat="43.14786401577293872833251953125" lon="13.108183778822422027587890625">
        <ele>611.79998779296875</ele>
        <time>2021-05-21T07:57:44.000Z</time>
        <extensions>
          <ns3:TrackPointExtension>
            <ns3:atemp>19.0</ns3:atemp>
          </ns3:TrackPointExtension>
        </extensions>
      </trkpt>
      <trkpt lat="43.14765798859298229217529296875" lon="13.10824622400104999542236328125">
        <ele>612.5999755859375</ele>
        <time>2021-05-21T07:57:51.000Z</time>
        <extensions>
          <ns3:TrackPointExtension>
            <ns3:atemp>19.0</ns3:atemp>
          </ns3:TrackPointExtension>
        </extensions>
      </trkpt>
      <trkpt lat="43.1474585831165313720703125" lon="13.108310513198375701904296875">
        <ele>613.5999755859375</ele>
        <time>2021-05-21T07:57:58.000Z</time>
        <extensions>
          <ns3:TrackPointExtension>
            <ns3:atemp>19.0</ns3:atemp>
          </ns3:TrackPointExtension>
        </extensions>
      </trkpt>
      <trkpt lat="43.147429414093494415283203125" lon="13.10832082293927669525146484375">
        <ele>613.79998779296875</ele>
        <time>2021-05-21T07:57:59.000Z</time>
        <extensions>
          <ns3:TrackPointExtension>
            <ns3:atemp>19.0</ns3:atemp>
          </ns3:TrackPointExtension>
        </extensions>
      </trkpt>
      <trkpt lat="43.14726940356194972991943359375" lon="13.10839676298201084136962890625">
        <ele>615</ele>
        <time>2021-05-21T07:58:05.000Z</time>
        <extensions>
          <ns3:TrackPointExtension>
            <ns3:atemp>19.0</ns3:atemp>
          </ns3:TrackPointExtension>
        </extensions>
      </trkpt>
      <trkpt lat="43.14721609465777873992919921875" lon="13.108429200947284698486328125">
        <ele>615.79998779296875</ele>
        <time>2021-05-21T07:58:07.000Z</time>
        <extensions>
          <ns3:TrackPointExtension>
            <ns3:atemp>19.0</ns3:atemp>
          </ns3:TrackPointExtension>
        </extensions>
      </trkpt>
      <trkpt lat="43.14718960784375667572021484375" lon="13.10844638384878635406494140625">
        <ele>616</ele>
        <time>2021-05-21T07:58:08.000Z</time>
        <extensions>
          <ns3:TrackPointExtension>
            <ns3:atemp>19.0</ns3:atemp>
          </ns3:TrackPointExtension>
        </extensions>
      </trkpt>
      <trkpt lat="43.14711383543908596038818359375" lon="13.1085061468183994293212890625">
        <ele>617.79998779296875</ele>
        <time>2021-05-21T07:58:11.000Z</time>
        <extensions>
          <ns3:TrackPointExtension>
            <ns3:atemp>18.0</ns3:atemp>
          </ns3:TrackPointExtension>
        </extensions>
      </trkpt>
      <trkpt lat="43.1470128335058689117431640625" lon="13.108607232570648193359375">
        <ele>619</ele>
        <time>2021-05-21T07:58:15.000Z</time>
        <extensions>
          <ns3:TrackPointExtension>
            <ns3:atemp>18.0</ns3:atemp>
          </ns3:TrackPointExtension>
        </extensions>
      </trkpt>
      <trkpt lat="43.14698450267314910888671875" lon="13.10863112099468708038330078125">
        <ele>619.4000244140625</ele>
        <time>2021-05-21T07:58:16.000Z</time>
        <extensions>
          <ns3:TrackPointExtension>
            <ns3:atemp>18.0</ns3:atemp>
          </ns3:TrackPointExtension>
        </extensions>
      </trkpt>
      <trkpt lat="43.14692675136029720306396484375" lon="13.1086744554340839385986328125">
        <ele>620.4000244140625</ele>
        <time>2021-05-21T07:58:18.000Z</time>
        <extensions>
          <ns3:TrackPointExtension>
            <ns3:atemp>18.0</ns3:atemp>
          </ns3:TrackPointExtension>
        </extensions>
      </trkpt>
      <trkpt lat="43.1467167846858501434326171875" lon="13.10877881012856960296630859375">
        <ele>621.4000244140625</ele>
        <time>2021-05-21T07:58:25.000Z</time>
        <extensions>
          <ns3:TrackPointExtension>
            <ns3:atemp>18.0</ns3:atemp>
          </ns3:TrackPointExtension>
        </extensions>
      </trkpt>
      <trkpt lat="43.146563060581684112548828125" lon="13.1088323704898357391357421875">
        <ele>622.5999755859375</ele>
        <time>2021-05-21T07:58:30.000Z</time>
        <extensions>
          <ns3:TrackPointExtension>
            <ns3:atemp>18.0</ns3:atemp>
          </ns3:TrackPointExtension>
        </extensions>
      </trkpt>
      <trkpt lat="43.1464693509042263031005859375" lon="13.108853995800018310546875">
        <ele>623.20001220703125</ele>
        <time>2021-05-21T07:58:33.000Z</time>
        <extensions>
          <ns3:TrackPointExtension>
            <ns3:atemp>18.0</ns3:atemp>
          </ns3:TrackPointExtension>
        </extensions>
      </trkpt>
      <trkpt lat="43.14622837118804454803466796875" lon="13.10883496887981891632080078125">
        <ele>623.20001220703125</ele>
        <time>2021-05-21T07:58:39.000Z</time>
        <extensions>
          <ns3:TrackPointExtension>
            <ns3:atemp>18.0</ns3:atemp>
          </ns3:TrackPointExtension>
        </extensions>
      </trkpt>
      <trkpt lat="43.14602385275065898895263671875" lon="13.10876573435962200164794921875">
        <ele>623</ele>
        <time>2021-05-21T07:58:43.000Z</time>
        <extensions>
          <ns3:TrackPointExtension>
            <ns3:atemp>18.0</ns3:atemp>
          </ns3:TrackPointExtension>
        </extensions>
      </trkpt>
      <trkpt lat="43.1459355913102626800537109375" lon="13.1087116710841655731201171875">
        <ele>622.20001220703125</ele>
        <time>2021-05-21T07:58:45.000Z</time>
        <extensions>
          <ns3:TrackPointExtension>
            <ns3:atemp>18.0</ns3:atemp>
          </ns3:TrackPointExtension>
        </extensions>
      </trkpt>
      <trkpt lat="43.1457518599927425384521484375" lon="13.10857730917632579803466796875">
        <ele>621.79998779296875</ele>
        <time>2021-05-21T07:58:50.000Z</time>
        <extensions>
          <ns3:TrackPointExtension>
            <ns3:atemp>18.0</ns3:atemp>
          </ns3:TrackPointExtension>
        </extensions>
      </trkpt>
      <trkpt lat="43.145603500306606292724609375" lon="13.10841587372124195098876953125">
        <ele>621.79998779296875</ele>
        <time>2021-05-21T07:58:55.000Z</time>
        <extensions>
          <ns3:TrackPointExtension>
            <ns3:atemp>18.0</ns3:atemp>
          </ns3:TrackPointExtension>
        </extensions>
      </trkpt>
      <trkpt lat="43.14536578953266143798828125" lon="13.1082168035209178924560546875">
        <ele>622</ele>
        <time>2021-05-21T07:59:02.000Z</time>
        <extensions>
          <ns3:TrackPointExtension>
            <ns3:atemp>18.0</ns3:atemp>
          </ns3:TrackPointExtension>
        </extensions>
      </trkpt>
      <trkpt lat="43.145199157297611236572265625" lon="13.10809568502008914947509765625">
        <ele>623</ele>
        <time>2021-05-21T07:59:07.000Z</time>
        <extensions>
          <ns3:TrackPointExtension>
            <ns3:atemp>18.0</ns3:atemp>
          </ns3:TrackPointExtension>
        </extensions>
      </trkpt>
      <trkpt lat="43.14510217867791652679443359375" lon="13.1080149672925472259521484375">
        <ele>623.79998779296875</ele>
        <time>2021-05-21T07:59:10.000Z</time>
        <extensions>
          <ns3:TrackPointExtension>
            <ns3:atemp>18.0</ns3:atemp>
          </ns3:TrackPointExtension>
        </extensions>
      </trkpt>
      <trkpt lat="43.14496136270463466644287109375" lon="13.107891082763671875">
        <ele>624.5999755859375</ele>
        <time>2021-05-21T07:59:15.000Z</time>
        <extensions>
          <ns3:TrackPointExtension>
            <ns3:atemp>18.0</ns3:atemp>
          </ns3:TrackPointExtension>
        </extensions>
      </trkpt>
      <trkpt lat="43.14486463554203510284423828125" lon="13.107829727232456207275390625">
        <ele>625</ele>
        <time>2021-05-21T07:59:18.000Z</time>
        <extensions>
          <ns3:TrackPointExtension>
            <ns3:atemp>18.0</ns3:atemp>
          </ns3:TrackPointExtension>
        </extensions>
      </trkpt>
      <trkpt lat="43.144772015511989593505859375" lon="13.107788152992725372314453125">
        <ele>626</ele>
        <time>2021-05-21T07:59:21.000Z</time>
        <extensions>
          <ns3:TrackPointExtension>
            <ns3:atemp>18.0</ns3:atemp>
          </ns3:TrackPointExtension>
        </extensions>
      </trkpt>
      <trkpt lat="43.1447366438806056976318359375" lon="13.10777063481509685516357421875">
        <ele>626.20001220703125</ele>
        <time>2021-05-21T07:59:22.000Z</time>
        <extensions>
          <ns3:TrackPointExtension>
            <ns3:atemp>18.0</ns3:atemp>
          </ns3:TrackPointExtension>
        </extensions>
      </trkpt>
      <trkpt lat="43.14459658227860927581787109375" lon="13.10771347023546695709228515625">
        <ele>627.4000244140625</ele>
        <time>2021-05-21T07:59:26.000Z</time>
        <extensions>
          <ns3:TrackPointExtension>
            <ns3:atemp>18.0</ns3:atemp>
          </ns3:TrackPointExtension>
        </extensions>
      </trkpt>
      <trkpt lat="43.1445644795894622802734375" lon="13.1077051721513271331787109375">
        <ele>627.4000244140625</ele>
        <time>2021-05-21T07:59:27.000Z</time>
        <extensions>
          <ns3:TrackPointExtension>
            <ns3:atemp>18.0</ns3:atemp>
          </ns3:TrackPointExtension>
        </extensions>
      </trkpt>
      <trkpt lat="43.1444974243640899658203125" lon="13.10768882744014263153076171875">
        <ele>627.79998779296875</ele>
        <time>2021-05-21T07:59:31.000Z</time>
        <extensions>
          <ns3:TrackPointExtension>
            <ns3:atemp>18.0</ns3:atemp>
          </ns3:TrackPointExtension>
        </extensions>
      </trkpt>
      <trkpt lat="43.1444893777370452880859375" lon="13.10769016854465007781982421875">
        <ele>628.4000244140625</ele>
        <time>2021-05-21T07:59:36.000Z</time>
        <extensions>
          <ns3:TrackPointExtension>
            <ns3:atemp>18.0</ns3:atemp>
          </ns3:TrackPointExtension>
        </extensions>
      </trkpt>
      <trkpt lat="43.14448761753737926483154296875" lon="13.1076917611062526702880859375">
        <ele>629.4000244140625</ele>
        <time>2021-05-21T07:59:40.000Z</time>
        <extensions>
          <ns3:TrackPointExtension>
            <ns3:atemp>18.0</ns3:atemp>
          </ns3:TrackPointExtension>
        </extensions>
      </trkpt>
      <trkpt lat="43.14448778517544269561767578125" lon="13.1076917611062526702880859375">
        <ele>629.4000244140625</ele>
        <time>2021-05-21T07:59:41.000Z</time>
        <extensions>
          <ns3:TrackPointExtension>
            <ns3:atemp>18.0</ns3:atemp>
          </ns3:TrackPointExtension>
        </extensions>
      </trkpt>
      <trkpt lat="43.14446733333170413970947265625" lon="13.1076904200017452239990234375">
        <ele>629.4000244140625</ele>
        <time>2021-05-21T07:59:47.000Z</time>
        <extensions>
          <ns3:TrackPointExtension>
            <ns3:atemp>17.0</ns3:atemp>
          </ns3:TrackPointExtension>
        </extensions>
      </trkpt>
      <trkpt lat="43.14435417763888835906982421875" lon="13.107699640095233917236328125">
        <ele>629.4000244140625</ele>
        <time>2021-05-21T07:59:52.000Z</time>
        <extensions>
          <ns3:TrackPointExtension>
            <ns3:atemp>17.0</ns3:atemp>
          </ns3:TrackPointExtension>
        </extensions>
      </trkpt>
      <trkpt lat="43.144195340573787689208984375" lon="13.1077078543603420257568359375">
        <ele>629.4000244140625</ele>
        <time>2021-05-21T07:59:58.000Z</time>
        <extensions>
          <ns3:TrackPointExtension>
            <ns3:atemp>17.0</ns3:atemp>
          </ns3:TrackPointExtension>
        </extensions>
      </trkpt>
      <trkpt lat="43.1440328992903232574462890625" lon="13.1077041663229465484619140625">
        <ele>630.4000244140625</ele>
        <time>2021-05-21T08:00:03.000Z</time>
        <extensions>
          <ns3:TrackPointExtension>
            <ns3:atemp>17.0</ns3:atemp>
          </ns3:TrackPointExtension>
        </extensions>
      </trkpt>
      <trkpt lat="43.14398352988064289093017578125" lon="13.10770190320909023284912109375">
        <ele>631</ele>
        <time>2021-05-21T08:00:05.000Z</time>
        <extensions>
          <ns3:TrackPointExtension>
            <ns3:atemp>17.0</ns3:atemp>
          </ns3:TrackPointExtension>
        </extensions>
      </trkpt>
      <trkpt lat="43.14390742219984531402587890625" lon="13.107681535184383392333984375">
        <ele>631.4000244140625</ele>
        <time>2021-05-21T08:00:08.000Z</time>
        <extensions>
          <ns3:TrackPointExtension>
            <ns3:atemp>17.0</ns3:atemp>
          </ns3:TrackPointExtension>
        </extensions>
      </trkpt>
      <trkpt lat="43.14379594288766384124755859375" lon="13.10764004476368427276611328125">
        <ele>632.5999755859375</ele>
        <time>2021-05-21T08:00:12.000Z</time>
        <extensions>
          <ns3:TrackPointExtension>
            <ns3:atemp>17.0</ns3:atemp>
          </ns3:TrackPointExtension>
        </extensions>
      </trkpt>
      <trkpt lat="43.14369234256446361541748046875" lon="13.1076086126267910003662109375">
        <ele>633.79998779296875</ele>
        <time>2021-05-21T08:00:16.000Z</time>
        <extensions>
          <ns3:TrackPointExtension>
            <ns3:atemp>17.0</ns3:atemp>
          </ns3:TrackPointExtension>
        </extensions>
      </trkpt>
      <trkpt lat="43.143609948456287384033203125" lon="13.10757835395634174346923828125">
        <ele>634.5999755859375</ele>
        <time>2021-05-21T08:00:19.000Z</time>
        <extensions>
          <ns3:TrackPointExtension>
            <ns3:atemp>17.0</ns3:atemp>
          </ns3:TrackPointExtension>
        </extensions>
      </trkpt>
      <trkpt lat="43.14358723349869251251220703125" lon="13.1075650267302989959716796875">
        <ele>634.79998779296875</ele>
        <time>2021-05-21T08:00:20.000Z</time>
        <extensions>
          <ns3:TrackPointExtension>
            <ns3:atemp>17.0</ns3:atemp>
          </ns3:TrackPointExtension>
        </extensions>
      </trkpt>
      <trkpt lat="43.1435045041143894195556640625" lon="13.10751163400709629058837890625">
        <ele>636</ele>
        <time>2021-05-21T08:00:24.000Z</time>
        <extensions>
          <ns3:TrackPointExtension>
            <ns3:atemp>17.0</ns3:atemp>
          </ns3:TrackPointExtension>
        </extensions>
      </trkpt>
      <trkpt lat="43.14341288991272449493408203125" lon="13.10748137533664703369140625">
        <ele>637.4000244140625</ele>
        <time>2021-05-21T08:00:28.000Z</time>
        <extensions>
          <ns3:TrackPointExtension>
            <ns3:atemp>17.0</ns3:atemp>
          </ns3:TrackPointExtension>
        </extensions>
      </trkpt>
      <trkpt lat="43.1433247961103916168212890625" lon="13.10746804811060428619384765625">
        <ele>638.4000244140625</ele>
        <time>2021-05-21T08:00:32.000Z</time>
        <extensions>
          <ns3:TrackPointExtension>
            <ns3:atemp>17.0</ns3:atemp>
          </ns3:TrackPointExtension>
        </extensions>
      </trkpt>
      <trkpt lat="43.14325111918151378631591796875" lon="13.10747726820409297943115234375">
        <ele>639.20001220703125</ele>
        <time>2021-05-21T08:00:35.000Z</time>
        <extensions>
          <ns3:TrackPointExtension>
            <ns3:atemp>17.0</ns3:atemp>
          </ns3:TrackPointExtension>
        </extensions>
      </trkpt>
      <trkpt lat="43.14319781027734279632568359375" lon="13.1074859015643596649169921875">
        <ele>640</ele>
        <time>2021-05-21T08:00:37.000Z</time>
        <extensions>
          <ns3:TrackPointExtension>
            <ns3:atemp>17.0</ns3:atemp>
          </ns3:TrackPointExtension>
        </extensions>
      </trkpt>
      <trkpt lat="43.1430458463728427886962890625" lon="13.10751968063414096832275390625">
        <ele>640.5999755859375</ele>
        <time>2021-05-21T08:00:42.000Z</time>
        <extensions>
          <ns3:TrackPointExtension>
            <ns3:atemp>17.0</ns3:atemp>
          </ns3:TrackPointExtension>
        </extensions>
      </trkpt>
      <trkpt lat="43.1428074650466442108154296875" lon="13.107573576271533966064453125">
        <ele>640.79998779296875</ele>
        <time>2021-05-21T08:00:49.000Z</time>
        <extensions>
          <ns3:TrackPointExtension>
            <ns3:atemp>17.0</ns3:atemp>
          </ns3:TrackPointExtension>
        </extensions>
      </trkpt>
      <trkpt lat="43.1425928883254528045654296875" lon="13.107618503272533416748046875">
        <ele>640.79998779296875</ele>
        <time>2021-05-21T08:00:56.000Z</time>
        <extensions>
          <ns3:TrackPointExtension>
            <ns3:atemp>17.0</ns3:atemp>
          </ns3:TrackPointExtension>
        </extensions>
      </trkpt>
      <trkpt lat="43.14239851199090480804443359375" lon="13.107686229050159454345703125">
        <ele>640.5999755859375</ele>
        <time>2021-05-21T08:01:02.000Z</time>
        <extensions>
          <ns3:TrackPointExtension>
            <ns3:atemp>17.0</ns3:atemp>
          </ns3:TrackPointExtension>
        </extensions>
      </trkpt>
      <trkpt lat="43.1421908922493457794189453125" lon="13.10776812024414539337158203125">
        <ele>640.4000244140625</ele>
        <time>2021-05-21T08:01:08.000Z</time>
        <extensions>
          <ns3:TrackPointExtension>
            <ns3:atemp>17.0</ns3:atemp>
          </ns3:TrackPointExtension>
        </extensions>
      </trkpt>
      <trkpt lat="43.1419957615435123443603515625" lon="13.10785395093262195587158203125">
        <ele>640.20001220703125</ele>
        <time>2021-05-21T08:01:14.000Z</time>
        <extensions>
          <ns3:TrackPointExtension>
            <ns3:atemp>17.0</ns3:atemp>
          </ns3:TrackPointExtension>
        </extensions>
      </trkpt>
      <trkpt lat="43.14175142906606197357177734375" lon="13.10796425677835941314697265625">
        <ele>640.20001220703125</ele>
        <time>2021-05-21T08:01:20.000Z</time>
        <extensions>
          <ns3:TrackPointExtension>
            <ns3:atemp>17.0</ns3:atemp>
          </ns3:TrackPointExtension>
        </extensions>
      </trkpt>
      <trkpt lat="43.14155839383602142333984375" lon="13.1080005504190921783447265625">
        <ele>640.4000244140625</ele>
        <time>2021-05-21T08:01:25.000Z</time>
        <extensions>
          <ns3:TrackPointExtension>
            <ns3:atemp>17.0</ns3:atemp>
          </ns3:TrackPointExtension>
        </extensions>
      </trkpt>
      <trkpt lat="43.141446076333522796630859375" lon="13.1078815273940563201904296875">
        <ele>640.4000244140625</ele>
        <time>2021-05-21T08:01:29.000Z</time>
        <extensions>
          <ns3:TrackPointExtension>
            <ns3:atemp>17.0</ns3:atemp>
          </ns3:TrackPointExtension>
        </extensions>
      </trkpt>
      <trkpt lat="43.1413416378200054168701171875" lon="13.10770709998905658721923828125">
        <ele>640</ele>
        <time>2021-05-21T08:01:34.000Z</time>
        <extensions>
          <ns3:TrackPointExtension>
            <ns3:atemp>17.0</ns3:atemp>
          </ns3:TrackPointExtension>
        </extensions>
      </trkpt>
      <trkpt lat="43.1411693058907985687255859375" lon="13.10757097788155078887939453125">
        <ele>639.5999755859375</ele>
        <time>2021-05-21T08:01:39.000Z</time>
        <extensions>
          <ns3:TrackPointExtension>
            <ns3:atemp>17.0</ns3:atemp>
          </ns3:TrackPointExtension>
        </extensions>
      </trkpt>
      <trkpt lat="43.14107266254723072052001953125" lon="13.1075224466621875762939453125">
        <ele>639.5999755859375</ele>
        <time>2021-05-21T08:01:41.000Z</time>
        <extensions>
          <ns3:TrackPointExtension>
            <ns3:atemp>17.0</ns3:atemp>
          </ns3:TrackPointExtension>
        </extensions>
      </trkpt>
      <trkpt lat="43.14095984213054180145263671875" lon="13.10749872587621212005615234375">
        <ele>639.5999755859375</ele>
        <time>2021-05-21T08:01:44.000Z</time>
        <extensions>
          <ns3:TrackPointExtension>
            <ns3:atemp>16.0</ns3:atemp>
          </ns3:TrackPointExtension>
        </extensions>
      </trkpt>
      <trkpt lat="43.14068491570651531219482421875" lon="13.10748246498405933380126953125">
        <ele>639.4000244140625</ele>
        <time>2021-05-21T08:01:50.000Z</time>
        <extensions>
          <ns3:TrackPointExtension>
            <ns3:atemp>16.0</ns3:atemp>
          </ns3:TrackPointExtension>
        </extensions>
      </trkpt>
      <trkpt lat="43.1404642201960086822509765625" lon="13.10742429457604885101318359375">
        <ele>639.20001220703125</ele>
        <time>2021-05-21T08:01:54.000Z</time>
        <extensions>
          <ns3:TrackPointExtension>
            <ns3:atemp>16.0</ns3:atemp>
          </ns3:TrackPointExtension>
        </extensions>
      </trkpt>
      <trkpt lat="43.14030286855995655059814453125" lon="13.10736075975000858306884765625">
        <ele>638.79998779296875</ele>
        <time>2021-05-21T08:01:57.000Z</time>
        <extensions>
          <ns3:TrackPointExtension>
            <ns3:atemp>16.0</ns3:atemp>
          </ns3:TrackPointExtension>
        </extensions>
      </trkpt>
      <trkpt lat="43.140245117247104644775390625" lon="13.10733360238373279571533203125">
        <ele>638.5999755859375</ele>
        <time>2021-05-21T08:01:58.000Z</time>
        <extensions>
          <ns3:TrackPointExtension>
            <ns3:atemp>16.0</ns3:atemp>
          </ns3:TrackPointExtension>
        </extensions>
      </trkpt>
      <trkpt lat="43.13986985944211483001708984375" lon="13.1070909462869167327880859375">
        <ele>637.4000244140625</ele>
        <time>2021-05-21T08:02:05.000Z</time>
        <extensions>
          <ns3:TrackPointExtension>
            <ns3:atemp>16.0</ns3:atemp>
          </ns3:TrackPointExtension>
        </extensions>
      </trkpt>
      <trkpt lat="43.1398248486220836639404296875" lon="13.1070533953607082366943359375">
        <ele>637.4000244140625</ele>
        <time>2021-05-21T08:02:06.000Z</time>
        <extensions>
          <ns3:TrackPointExtension>
            <ns3:atemp>16.0</ns3:atemp>
          </ns3:TrackPointExtension>
        </extensions>
      </trkpt>
      <trkpt lat="43.13977698795497417449951171875" lon="13.107021041214466094970703125">
        <ele>637.4000244140625</ele>
        <time>2021-05-21T08:02:07.000Z</time>
        <extensions>
          <ns3:TrackPointExtension>
            <ns3:atemp>16.0</ns3:atemp>
          </ns3:TrackPointExtension>
        </extensions>
      </trkpt>
      <trkpt lat="43.139644302427768707275390625" lon="13.10695926658809185028076171875">
        <ele>637.4000244140625</ele>
        <time>2021-05-21T08:02:10.000Z</time>
        <extensions>
          <ns3:TrackPointExtension>
            <ns3:atemp>16.0</ns3:atemp>
          </ns3:TrackPointExtension>
        </extensions>
      </trkpt>
      <trkpt lat="43.13959711231291294097900390625" lon="13.10695432126522064208984375">
        <ele>637.4000244140625</ele>
        <time>2021-05-21T08:02:11.000Z</time>
        <extensions>
          <ns3:TrackPointExtension>
            <ns3:atemp>16.0</ns3:atemp>
          </ns3:TrackPointExtension>
        </extensions>
      </trkpt>
      <trkpt lat="43.1392957828938961029052734375" lon="13.10693378560245037078857421875">
        <ele>637.79998779296875</ele>
        <time>2021-05-21T08:02:16.000Z</time>
        <extensions>
          <ns3:TrackPointExtension>
            <ns3:atemp>16.0</ns3:atemp>
          </ns3:TrackPointExtension>
        </extensions>
      </trkpt>
      <trkpt lat="43.13885062001645565032958984375" lon="13.1069471128284931182861328125">
        <ele>638</ele>
        <time>2021-05-21T08:02:24.000Z</time>
        <extensions>
          <ns3:TrackPointExtension>
            <ns3:atemp>16.0</ns3:atemp>
          </ns3:TrackPointExtension>
        </extensions>
      </trkpt>
      <trkpt lat="43.13865087926387786865234375" lon="13.1069072149693965911865234375">
        <ele>638</ele>
        <time>2021-05-21T08:02:28.000Z</time>
        <extensions>
          <ns3:TrackPointExtension>
            <ns3:atemp>16.0</ns3:atemp>
          </ns3:TrackPointExtension>
        </extensions>
      </trkpt>
      <trkpt lat="43.13842959702014923095703125" lon="13.106856085360050201416015625">
        <ele>638.20001220703125</ele>
        <time>2021-05-21T08:02:34.000Z</time>
        <extensions>
          <ns3:TrackPointExtension>
            <ns3:atemp>16.0</ns3:atemp>
          </ns3:TrackPointExtension>
        </extensions>
      </trkpt>
      <trkpt lat="43.1384046189486980438232421875" lon="13.106870837509632110595703125">
        <ele>638.20001220703125</ele>
        <time>2021-05-21T08:02:35.000Z</time>
        <extensions>
          <ns3:TrackPointExtension>
            <ns3:atemp>16.0</ns3:atemp>
          </ns3:TrackPointExtension>
        </extensions>
      </trkpt>
      <trkpt lat="43.13837461173534393310546875" lon="13.10694518499076366424560546875">
        <ele>638.20001220703125</ele>
        <time>2021-05-21T08:02:37.000Z</time>
        <extensions>
          <ns3:TrackPointExtension>
            <ns3:atemp>16.0</ns3:atemp>
          </ns3:TrackPointExtension>
        </extensions>
      </trkpt>
      <trkpt lat="43.1383524835109710693359375" lon="13.10722882859408855438232421875">
        <ele>638</ele>
        <time>2021-05-21T08:02:41.000Z</time>
        <extensions>
          <ns3:TrackPointExtension>
            <ns3:atemp>16.0</ns3:atemp>
          </ns3:TrackPointExtension>
        </extensions>
      </trkpt>
      <trkpt lat="43.13834485597908496856689453125" lon="13.10774129815399646759033203125">
        <ele>636</ele>
        <time>2021-05-21T08:02:46.000Z</time>
        <extensions>
          <ns3:TrackPointExtension>
            <ns3:atemp>16.0</ns3:atemp>
          </ns3:TrackPointExtension>
        </extensions>
      </trkpt>
      <trkpt lat="43.138332366943359375" lon="13.10791396535933017730712890625">
        <ele>634.20001220703125</ele>
        <time>2021-05-21T08:02:48.000Z</time>
        <extensions>
          <ns3:TrackPointExtension>
            <ns3:atemp>16.0</ns3:atemp>
          </ns3:TrackPointExtension>
        </extensions>
      </trkpt>
      <trkpt lat="43.13830931670963764190673828125" lon="13.10798294842243194580078125">
        <ele>633.20001220703125</ele>
        <time>2021-05-21T08:02:49.000Z</time>
        <extensions>
          <ns3:TrackPointExtension>
            <ns3:atemp>16.0</ns3:atemp>
          </ns3:TrackPointExtension>
        </extensions>
      </trkpt>
      <trkpt lat="43.13827863894402980804443359375" lon="13.108032234013080596923828125">
        <ele>632.20001220703125</ele>
        <time>2021-05-21T08:02:50.000Z</time>
        <extensions>
          <ns3:TrackPointExtension>
            <ns3:atemp>16.0</ns3:atemp>
          </ns3:TrackPointExtension>
        </extensions>
      </trkpt>
      <trkpt lat="43.13823488540947437286376953125" lon="13.10805696062743663787841796875">
        <ele>631</ele>
        <time>2021-05-21T08:02:51.000Z</time>
        <extensions>
          <ns3:TrackPointExtension>
            <ns3:atemp>16.0</ns3:atemp>
          </ns3:TrackPointExtension>
        </extensions>
      </trkpt>
      <trkpt lat="43.13817746937274932861328125" lon="13.10805964283645153045654296875">
        <ele>630.4000244140625</ele>
        <time>2021-05-21T08:02:52.000Z</time>
        <extensions>
          <ns3:TrackPointExtension>
            <ns3:atemp>16.0</ns3:atemp>
          </ns3:TrackPointExtension>
        </extensions>
      </trkpt>
      <trkpt lat="43.1381219811737537384033203125" lon="13.10803717933595180511474609375">
        <ele>629.79998779296875</ele>
        <time>2021-05-21T08:02:53.000Z</time>
        <extensions>
          <ns3:TrackPointExtension>
            <ns3:atemp>16.0</ns3:atemp>
          </ns3:TrackPointExtension>
        </extensions>
      </trkpt>
      <trkpt lat="43.13800019212067127227783203125" lon="13.10794807970523834228515625">
        <ele>629.20001220703125</ele>
        <time>2021-05-21T08:02:55.000Z</time>
        <extensions>
          <ns3:TrackPointExtension>
            <ns3:atemp>16.0</ns3:atemp>
          </ns3:TrackPointExtension>
        </extensions>
      </trkpt>
      <trkpt lat="43.1378804147243499755859375" lon="13.10783282853662967681884765625">
        <ele>628.79998779296875</ele>
        <time>2021-05-21T08:02:57.000Z</time>
        <extensions>
          <ns3:TrackPointExtension>
            <ns3:atemp>16.0</ns3:atemp>
          </ns3:TrackPointExtension>
        </extensions>
      </trkpt>
      <trkpt lat="43.13770799897611141204833984375" lon="13.10769326984882354736328125">
        <ele>627</ele>
        <time>2021-05-21T08:03:00.000Z</time>
        <extensions>
          <ns3:TrackPointExtension>
            <ns3:atemp>16.0</ns3:atemp>
          </ns3:TrackPointExtension>
        </extensions>
      </trkpt>
      <trkpt lat="43.137649409472942352294921875" lon="13.10765177942812442779541015625">
        <ele>625.79998779296875</ele>
        <time>2021-05-21T08:03:01.000Z</time>
        <extensions>
          <ns3:TrackPointExtension>
            <ns3:atemp>16.0</ns3:atemp>
          </ns3:TrackPointExtension>
        </extensions>
      </trkpt>
      <trkpt lat="43.13758461736142635345458984375" lon="13.10761280357837677001953125">
        <ele>624.5999755859375</ele>
        <time>2021-05-21T08:03:02.000Z</time>
        <extensions>
          <ns3:TrackPointExtension>
            <ns3:atemp>16.0</ns3:atemp>
          </ns3:TrackPointExtension>
        </extensions>
      </trkpt>
      <trkpt lat="43.137446232140064239501953125" lon="13.1075184233486652374267578125">
        <ele>622.4000244140625</ele>
        <time>2021-05-21T08:03:04.000Z</time>
        <extensions>
          <ns3:TrackPointExtension>
            <ns3:atemp>16.0</ns3:atemp>
          </ns3:TrackPointExtension>
        </extensions>
      </trkpt>
      <trkpt lat="43.1373756565153598785400390625" lon="13.10747944749891757965087890625">
        <ele>622</ele>
        <time>2021-05-21T08:03:05.000Z</time>
        <extensions>
          <ns3:TrackPointExtension>
            <ns3:atemp>16.0</ns3:atemp>
          </ns3:TrackPointExtension>
        </extensions>
      </trkpt>
      <trkpt lat="43.13722453080117702484130859375" lon="13.10744960792362689971923828125">
        <ele>621</ele>
        <time>2021-05-21T08:03:07.000Z</time>
        <extensions>
          <ns3:TrackPointExtension>
            <ns3:atemp>16.0</ns3:atemp>
          </ns3:TrackPointExtension>
        </extensions>
      </trkpt>
      <trkpt lat="43.137158565223217010498046875" lon="13.1074490211904048919677734375">
        <ele>619.79998779296875</ele>
        <time>2021-05-21T08:03:08.000Z</time>
        <extensions>
          <ns3:TrackPointExtension>
            <ns3:atemp>16.0</ns3:atemp>
          </ns3:TrackPointExtension>
        </extensions>
      </trkpt>
      <trkpt lat="43.137092180550098419189453125" lon="13.10745279304683208465576171875">
        <ele>618.4000244140625</ele>
        <time>2021-05-21T08:03:09.000Z</time>
        <extensions>
          <ns3:TrackPointExtension>
            <ns3:atemp>16.0</ns3:atemp>
          </ns3:TrackPointExtension>
        </extensions>
      </trkpt>
      <trkpt lat="43.1370222754776477813720703125" lon="13.1074647791683673858642578125">
        <ele>617.79998779296875</ele>
        <time>2021-05-21T08:03:10.000Z</time>
        <extensions>
          <ns3:TrackPointExtension>
            <ns3:atemp>16.0</ns3:atemp>
          </ns3:TrackPointExtension>
        </extensions>
      </trkpt>
      <trkpt lat="43.13695748336613178253173828125" lon="13.10748565010726451873779296875">
        <ele>617.4000244140625</ele>
        <time>2021-05-21T08:03:11.000Z</time>
        <extensions>
          <ns3:TrackPointExtension>
            <ns3:atemp>16.0</ns3:atemp>
          </ns3:TrackPointExtension>
        </extensions>
      </trkpt>
      <trkpt lat="43.1368197686970233917236328125" lon="13.10753661207854747772216796875">
        <ele>617</ele>
        <time>2021-05-21T08:03:13.000Z</time>
        <extensions>
          <ns3:TrackPointExtension>
            <ns3:atemp>16.0</ns3:atemp>
          </ns3:TrackPointExtension>
        </extensions>
      </trkpt>
      <trkpt lat="43.136746846139430999755859375" lon="13.1075544655323028564453125">
        <ele>616.79998779296875</ele>
        <time>2021-05-21T08:03:14.000Z</time>
        <extensions>
          <ns3:TrackPointExtension>
            <ns3:atemp>16.0</ns3:atemp>
          </ns3:TrackPointExtension>
        </extensions>
      </trkpt>
      <trkpt lat="43.1366021744906902313232421875" lon="13.1075794436037540435791015625">
        <ele>616.5999755859375</ele>
        <time>2021-05-21T08:03:16.000Z</time>
        <extensions>
          <ns3:TrackPointExtension>
            <ns3:atemp>16.0</ns3:atemp>
          </ns3:TrackPointExtension>
        </extensions>
      </trkpt>
      <trkpt lat="43.1364670582115650177001953125" lon="13.1076364405453205108642578125">
        <ele>616.20001220703125</ele>
        <time>2021-05-21T08:03:18.000Z</time>
        <extensions>
          <ns3:TrackPointExtension>
            <ns3:atemp>16.0</ns3:atemp>
          </ns3:TrackPointExtension>
        </extensions>
      </trkpt>
      <trkpt lat="43.1364067085087299346923828125" lon="13.1076656095683574676513671875">
        <ele>616</ele>
        <time>2021-05-21T08:03:19.000Z</time>
        <extensions>
          <ns3:TrackPointExtension>
            <ns3:atemp>16.0</ns3:atemp>
          </ns3:TrackPointExtension>
        </extensions>
      </trkpt>
      <trkpt lat="43.13634677790105342864990234375" lon="13.10767181217670440673828125">
        <ele>615.20001220703125</ele>
        <time>2021-05-21T08:03:20.000Z</time>
        <extensions>
          <ns3:TrackPointExtension>
            <ns3:atemp>16.0</ns3:atemp>
          </ns3:TrackPointExtension>
        </extensions>
      </trkpt>
      <trkpt lat="43.13628626056015491485595703125" lon="13.107654042541980743408203125">
        <ele>614.20001220703125</ele>
        <time>2021-05-21T08:03:21.000Z</time>
        <extensions>
          <ns3:TrackPointExtension>
            <ns3:atemp>16.0</ns3:atemp>
          </ns3:TrackPointExtension>
        </extensions>
      </trkpt>
      <trkpt lat="43.13622557558119297027587890625" lon="13.10763099230825901031494140625">
        <ele>613</ele>
        <time>2021-05-21T08:03:22.000Z</time>
        <extensions>
          <ns3:TrackPointExtension>
            <ns3:atemp>16.0</ns3:atemp>
          </ns3:TrackPointExtension>
        </extensions>
      </trkpt>
      <trkpt lat="43.13616589643061161041259765625" lon="13.1076169945299625396728515625">
        <ele>612.20001220703125</ele>
        <time>2021-05-21T08:03:23.000Z</time>
        <extensions>
          <ns3:TrackPointExtension>
            <ns3:atemp>16.0</ns3:atemp>
          </ns3:TrackPointExtension>
        </extensions>
      </trkpt>
      <trkpt lat="43.1361106596887111663818359375" lon="13.10761288739740848541259765625">
        <ele>611.5999755859375</ele>
        <time>2021-05-21T08:03:24.000Z</time>
        <extensions>
          <ns3:TrackPointExtension>
            <ns3:atemp>16.0</ns3:atemp>
          </ns3:TrackPointExtension>
        </extensions>
      </trkpt>
      <trkpt lat="43.1359869427978992462158203125" lon="13.107647001743316650390625">
        <ele>611.20001220703125</ele>
        <time>2021-05-21T08:03:27.000Z</time>
        <extensions>
          <ns3:TrackPointExtension>
            <ns3:atemp>16.0</ns3:atemp>
          </ns3:TrackPointExtension>
        </extensions>
      </trkpt>
      <trkpt lat="43.13595752231776714324951171875" lon="13.10766041278839111328125">
        <ele>611.20001220703125</ele>
        <time>2021-05-21T08:03:28.000Z</time>
        <extensions>
          <ns3:TrackPointExtension>
            <ns3:atemp>16.0</ns3:atemp>
          </ns3:TrackPointExtension>
        </extensions>
      </trkpt>
      <trkpt lat="43.1358286924660205841064453125" lon="13.10765043832361698150634765625">
        <ele>611.5999755859375</ele>
        <time>2021-05-21T08:03:33.000Z</time>
        <extensions>
          <ns3:TrackPointExtension>
            <ns3:atemp>16.0</ns3:atemp>
          </ns3:TrackPointExtension>
        </extensions>
      </trkpt>
      <trkpt lat="43.135754428803920745849609375" lon="13.10760433785617351531982421875">
        <ele>613.4000244140625</ele>
        <time>2021-05-21T08:03:36.000Z</time>
        <extensions>
          <ns3:TrackPointExtension>
            <ns3:atemp>16.0</ns3:atemp>
          </ns3:TrackPointExtension>
        </extensions>
      </trkpt>
      <trkpt lat="43.13570371828973293304443359375" lon="13.1075703911483287811279296875">
        <ele>614.79998779296875</ele>
        <time>2021-05-21T08:03:38.000Z</time>
        <extensions>
          <ns3:TrackPointExtension>
            <ns3:atemp>16.0</ns3:atemp>
          </ns3:TrackPointExtension>
        </extensions>
      </trkpt>
      <trkpt lat="43.1356181390583515167236328125" lon="13.10751096345484256744384765625">
        <ele>616.20001220703125</ele>
        <time>2021-05-21T08:03:41.000Z</time>
        <extensions>
          <ns3:TrackPointExtension>
            <ns3:atemp>16.0</ns3:atemp>
          </ns3:TrackPointExtension>
        </extensions>
      </trkpt>
      <trkpt lat="43.135428540408611297607421875" lon="13.107362352311611175537109375">
        <ele>617.20001220703125</ele>
        <time>2021-05-21T08:03:47.000Z</time>
        <extensions>
          <ns3:TrackPointExtension>
            <ns3:atemp>16.0</ns3:atemp>
          </ns3:TrackPointExtension>
        </extensions>
      </trkpt>
      <trkpt lat="43.13539274968206882476806640625" lon="13.10733309946954250335693359375">
        <ele>617.4000244140625</ele>
        <time>2021-05-21T08:03:48.000Z</time>
        <extensions>
          <ns3:TrackPointExtension>
            <ns3:atemp>16.0</ns3:atemp>
          </ns3:TrackPointExtension>
        </extensions>
      </trkpt>
      <trkpt lat="43.13517733477056026458740234375" lon="13.10719228349626064300537109375">
        <ele>618.4000244140625</ele>
        <time>2021-05-21T08:03:54.000Z</time>
        <extensions>
          <ns3:TrackPointExtension>
            <ns3:atemp>16.0</ns3:atemp>
          </ns3:TrackPointExtension>
        </extensions>
      </trkpt>
      <trkpt lat="43.135083876550197601318359375" lon="13.10713210143148899078369140625">
        <ele>618.4000244140625</ele>
        <time>2021-05-21T08:03:56.000Z</time>
        <extensions>
          <ns3:TrackPointExtension>
            <ns3:atemp>16.0</ns3:atemp>
          </ns3:TrackPointExtension>
        </extensions>
      </trkpt>
      <trkpt lat="43.13500114716589450836181640625" lon="13.107010312378406524658203125">
        <ele>618.4000244140625</ele>
        <time>2021-05-21T08:03:58.000Z</time>
        <extensions>
          <ns3:TrackPointExtension>
            <ns3:atemp>16.0</ns3:atemp>
          </ns3:TrackPointExtension>
        </extensions>
      </trkpt>
      <trkpt lat="43.1348969601094722747802734375" lon="13.106711246073246002197265625">
        <ele>618.4000244140625</ele>
        <time>2021-05-21T08:04:01.000Z</time>
        <extensions>
          <ns3:TrackPointExtension>
            <ns3:atemp>16.0</ns3:atemp>
          </ns3:TrackPointExtension>
        </extensions>
      </trkpt>
      <trkpt lat="43.13473057933151721954345703125" lon="13.1064384989440441131591796875">
        <ele>615.79998779296875</ele>
        <time>2021-05-21T08:04:04.000Z</time>
        <extensions>
          <ns3:TrackPointExtension>
            <ns3:atemp>16.0</ns3:atemp>
          </ns3:TrackPointExtension>
        </extensions>
      </trkpt>
      <trkpt lat="43.13466385938227176666259765625" lon="13.10635928995907306671142578125">
        <ele>614.79998779296875</ele>
        <time>2021-05-21T08:04:05.000Z</time>
        <extensions>
          <ns3:TrackPointExtension>
            <ns3:atemp>16.0</ns3:atemp>
          </ns3:TrackPointExtension>
        </extensions>
      </trkpt>
      <trkpt lat="43.13459361903369426727294921875" lon="13.10628720559179782867431640625">
        <ele>614</ele>
        <time>2021-05-21T08:04:06.000Z</time>
        <extensions>
          <ns3:TrackPointExtension>
            <ns3:atemp>16.0</ns3:atemp>
          </ns3:TrackPointExtension>
        </extensions>
      </trkpt>
      <trkpt lat="43.134520612657070159912109375" lon="13.10622434131801128387451171875">
        <ele>613.20001220703125</ele>
        <time>2021-05-21T08:04:07.000Z</time>
        <extensions>
          <ns3:TrackPointExtension>
            <ns3:atemp>16.0</ns3:atemp>
          </ns3:TrackPointExtension>
        </extensions>
      </trkpt>
      <trkpt lat="43.134361021220684051513671875" lon="13.1061561964452266693115234375">
        <ele>611.20001220703125</ele>
        <time>2021-05-21T08:04:09.000Z</time>
        <extensions>
          <ns3:TrackPointExtension>
            <ns3:atemp>16.0</ns3:atemp>
          </ns3:TrackPointExtension>
        </extensions>
      </trkpt>
      <trkpt lat="43.1342746876180171966552734375" lon="13.10614169575273990631103515625">
        <ele>610</ele>
        <time>2021-05-21T08:04:10.000Z</time>
        <extensions>
          <ns3:TrackPointExtension>
            <ns3:atemp>16.0</ns3:atemp>
          </ns3:TrackPointExtension>
        </extensions>
      </trkpt>
      <trkpt lat="43.13419011421501636505126953125" lon="13.1061221659183502197265625">
        <ele>609</ele>
        <time>2021-05-21T08:04:11.000Z</time>
        <extensions>
          <ns3:TrackPointExtension>
            <ns3:atemp>16.0</ns3:atemp>
          </ns3:TrackPointExtension>
        </extensions>
      </trkpt>
      <trkpt lat="43.13402415253221988677978515625" lon="13.10607715509831905364990234375">
        <ele>607.4000244140625</ele>
        <time>2021-05-21T08:04:13.000Z</time>
        <extensions>
          <ns3:TrackPointExtension>
            <ns3:atemp>16.0</ns3:atemp>
          </ns3:TrackPointExtension>
        </extensions>
      </trkpt>
      <trkpt lat="43.13394117169082164764404296875" lon="13.10606424696743488311767578125">
        <ele>606.79998779296875</ele>
        <time>2021-05-21T08:04:14.000Z</time>
        <extensions>
          <ns3:TrackPointExtension>
            <ns3:atemp>16.0</ns3:atemp>
          </ns3:TrackPointExtension>
        </extensions>
      </trkpt>
      <trkpt lat="43.1337825022637844085693359375" lon="13.1060926616191864013671875">
        <ele>606.20001220703125</ele>
        <time>2021-05-21T08:04:16.000Z</time>
        <extensions>
          <ns3:TrackPointExtension>
            <ns3:atemp>16.0</ns3:atemp>
          </ns3:TrackPointExtension>
        </extensions>
      </trkpt>
      <trkpt lat="43.13371133990585803985595703125" lon="13.10613247565925121307373046875">
        <ele>606</ele>
        <time>2021-05-21T08:04:17.000Z</time>
        <extensions>
          <ns3:TrackPointExtension>
            <ns3:atemp>16.0</ns3:atemp>
          </ns3:TrackPointExtension>
        </extensions>
      </trkpt>
      <trkpt lat="43.1336460448801517486572265625" lon="13.106180168688297271728515625">
        <ele>605.5999755859375</ele>
        <time>2021-05-21T08:04:18.000Z</time>
        <extensions>
          <ns3:TrackPointExtension>
            <ns3:atemp>16.0</ns3:atemp>
          </ns3:TrackPointExtension>
        </extensions>
      </trkpt>
      <trkpt lat="43.13358980230987071990966796875" lon="13.1062306277453899383544921875">
        <ele>605</ele>
        <time>2021-05-21T08:04:19.000Z</time>
        <extensions>
          <ns3:TrackPointExtension>
            <ns3:atemp>16.0</ns3:atemp>
          </ns3:TrackPointExtension>
        </extensions>
      </trkpt>
      <trkpt lat="43.13349508680403232574462890625" lon="13.1063583679497241973876953125">
        <ele>603.79998779296875</ele>
        <time>2021-05-21T08:04:21.000Z</time>
        <extensions>
          <ns3:TrackPointExtension>
            <ns3:atemp>16.0</ns3:atemp>
          </ns3:TrackPointExtension>
        </extensions>
      </trkpt>
      <trkpt lat="43.13328553922474384307861328125" lon="13.10662181116640567779541015625">
        <ele>602</ele>
        <time>2021-05-21T08:04:25.000Z</time>
        <extensions>
          <ns3:TrackPointExtension>
            <ns3:atemp>16.0</ns3:atemp>
          </ns3:TrackPointExtension>
        </extensions>
      </trkpt>
      <trkpt lat="43.13322636298835277557373046875" lon="13.10667210258543491363525390625">
        <ele>600.5999755859375</ele>
        <time>2021-05-21T08:04:26.000Z</time>
        <extensions>
          <ns3:TrackPointExtension>
            <ns3:atemp>16.0</ns3:atemp>
          </ns3:TrackPointExtension>
        </extensions>
      </trkpt>
      <trkpt lat="43.13316551037132740020751953125" lon="13.10670915059745311737060546875">
        <ele>599.4000244140625</ele>
        <time>2021-05-21T08:04:27.000Z</time>
        <extensions>
          <ns3:TrackPointExtension>
            <ns3:atemp>16.0</ns3:atemp>
          </ns3:TrackPointExtension>
        </extensions>
      </trkpt>
      <trkpt lat="43.13310633413493633270263671875" lon="13.10673178173601627349853515625">
        <ele>598.4000244140625</ele>
        <time>2021-05-21T08:04:28.000Z</time>
        <extensions>
          <ns3:TrackPointExtension>
            <ns3:atemp>16.0</ns3:atemp>
          </ns3:TrackPointExtension>
        </extensions>
      </trkpt>
      <trkpt lat="43.133051097393035888671875" lon="13.10675122775137424468994140625">
        <ele>597.4000244140625</ele>
        <time>2021-05-21T08:04:29.000Z</time>
        <extensions>
          <ns3:TrackPointExtension>
            <ns3:atemp>16.0</ns3:atemp>
          </ns3:TrackPointExtension>
        </extensions>
      </trkpt>
      <trkpt lat="43.13300223089754581451416015625" lon="13.10678534209728240966796875">
        <ele>596.4000244140625</ele>
        <time>2021-05-21T08:04:30.000Z</time>
        <extensions>
          <ns3:TrackPointExtension>
            <ns3:atemp>16.0</ns3:atemp>
          </ns3:TrackPointExtension>
        </extensions>
      </trkpt>
      <trkpt lat="43.13296199776232242584228515625" lon="13.1068371422588825225830078125">
        <ele>595</ele>
        <time>2021-05-21T08:04:31.000Z</time>
        <extensions>
          <ns3:TrackPointExtension>
            <ns3:atemp>16.0</ns3:atemp>
          </ns3:TrackPointExtension>
        </extensions>
      </trkpt>
      <trkpt lat="43.13293266110122203826904296875" lon="13.106909729540348052978515625">
        <ele>592</ele>
        <time>2021-05-21T08:04:32.000Z</time>
        <extensions>
          <ns3:TrackPointExtension>
            <ns3:atemp>16.0</ns3:atemp>
          </ns3:TrackPointExtension>
        </extensions>
      </trkpt>
      <trkpt lat="43.1329091079533100128173828125" lon="13.1069910340011119842529296875">
        <ele>591</ele>
        <time>2021-05-21T08:04:33.000Z</time>
        <extensions>
          <ns3:TrackPointExtension>
            <ns3:atemp>16.0</ns3:atemp>
          </ns3:TrackPointExtension>
        </extensions>
      </trkpt>
      <trkpt lat="43.13285999000072479248046875" lon="13.10715020634233951568603515625">
        <ele>589.20001220703125</ele>
        <time>2021-05-21T08:04:35.000Z</time>
        <extensions>
          <ns3:TrackPointExtension>
            <ns3:atemp>16.0</ns3:atemp>
          </ns3:TrackPointExtension>
        </extensions>
      </trkpt>
      <trkpt lat="43.13282956369221210479736328125" lon="13.10722120106220245361328125">
        <ele>588.4000244140625</ele>
        <time>2021-05-21T08:04:36.000Z</time>
        <extensions>
          <ns3:TrackPointExtension>
            <ns3:atemp>16.0</ns3:atemp>
          </ns3:TrackPointExtension>
        </extensions>
      </trkpt>
      <trkpt lat="43.1327984668314456939697265625" lon="13.1072874180972576141357421875">
        <ele>587.79998779296875</ele>
        <time>2021-05-21T08:04:37.000Z</time>
        <extensions>
          <ns3:TrackPointExtension>
            <ns3:atemp>16.0</ns3:atemp>
          </ns3:TrackPointExtension>
        </extensions>
      </trkpt>
      <trkpt lat="43.13275999389588832855224609375" lon="13.10735757462680339813232421875">
        <ele>587</ele>
        <time>2021-05-21T08:04:38.000Z</time>
        <extensions>
          <ns3:TrackPointExtension>
            <ns3:atemp>16.0</ns3:atemp>
          </ns3:TrackPointExtension>
        </extensions>
      </trkpt>
      <trkpt lat="43.1327153183519840240478515625" lon="13.10742747969925403594970703125">
        <ele>585.79998779296875</ele>
        <time>2021-05-21T08:04:39.000Z</time>
        <extensions>
          <ns3:TrackPointExtension>
            <ns3:atemp>16.0</ns3:atemp>
          </ns3:TrackPointExtension>
        </extensions>
      </trkpt>
      <trkpt lat="43.13266527839004993438720703125" lon="13.1074872426688671112060546875">
        <ele>584.5999755859375</ele>
        <time>2021-05-21T08:04:40.000Z</time>
        <extensions>
          <ns3:TrackPointExtension>
            <ns3:atemp>16.0</ns3:atemp>
          </ns3:TrackPointExtension>
        </extensions>
      </trkpt>
      <trkpt lat="43.1326147355139255523681640625" lon="13.10754449106752872467041015625">
        <ele>582.79998779296875</ele>
        <time>2021-05-21T08:04:41.000Z</time>
        <extensions>
          <ns3:TrackPointExtension>
            <ns3:atemp>16.0</ns3:atemp>
          </ns3:TrackPointExtension>
        </extensions>
      </trkpt>
      <trkpt lat="43.13256897032260894775390625" lon="13.10760282911360263824462890625">
        <ele>581.4000244140625</ele>
        <time>2021-05-21T08:04:42.000Z</time>
        <extensions>
          <ns3:TrackPointExtension>
            <ns3:atemp>16.0</ns3:atemp>
          </ns3:TrackPointExtension>
        </extensions>
      </trkpt>
      <trkpt lat="43.1325299106538295745849609375" lon="13.10765840113162994384765625">
        <ele>580.20001220703125</ele>
        <time>2021-05-21T08:04:43.000Z</time>
        <extensions>
          <ns3:TrackPointExtension>
            <ns3:atemp>16.0</ns3:atemp>
          </ns3:TrackPointExtension>
        </extensions>
      </trkpt>
      <trkpt lat="43.1324517913162708282470703125" lon="13.10777599923312664031982421875">
        <ele>578.4000244140625</ele>
        <time>2021-05-21T08:04:45.000Z</time>
        <extensions>
          <ns3:TrackPointExtension>
            <ns3:atemp>16.0</ns3:atemp>
          </ns3:TrackPointExtension>
        </extensions>
      </trkpt>
      <trkpt lat="43.1324145756661891937255859375" lon="13.1078416295349597930908203125">
        <ele>577.20001220703125</ele>
        <time>2021-05-21T08:04:46.000Z</time>
        <extensions>
          <ns3:TrackPointExtension>
            <ns3:atemp>16.0</ns3:atemp>
          </ns3:TrackPointExtension>
        </extensions>
      </trkpt>
      <trkpt lat="43.13238616101443767547607421875" lon="13.1079133786261081695556640625">
        <ele>575.4000244140625</ele>
        <time>2021-05-21T08:04:47.000Z</time>
        <extensions>
          <ns3:TrackPointExtension>
            <ns3:atemp>16.0</ns3:atemp>
          </ns3:TrackPointExtension>
        </extensions>
      </trkpt>
      <trkpt lat="43.13236503861844539642333984375" lon="13.1080018915235996246337890625">
        <ele>573.5999755859375</ele>
        <time>2021-05-21T08:04:48.000Z</time>
        <extensions>
          <ns3:TrackPointExtension>
            <ns3:atemp>16.0</ns3:atemp>
          </ns3:TrackPointExtension>
        </extensions>
      </trkpt>
      <trkpt lat="43.13235104084014892578125" lon="13.10809836722910404205322265625">
        <ele>572.20001220703125</ele>
        <time>2021-05-21T08:04:49.000Z</time>
        <extensions>
          <ns3:TrackPointExtension>
            <ns3:atemp>16.0</ns3:atemp>
          </ns3:TrackPointExtension>
        </extensions>
      </trkpt>
      <trkpt lat="43.13233721069991588592529296875" lon="13.10819257982075214385986328125">
        <ele>571.20001220703125</ele>
        <time>2021-05-21T08:04:50.000Z</time>
        <extensions>
          <ns3:TrackPointExtension>
            <ns3:atemp>16.0</ns3:atemp>
          </ns3:TrackPointExtension>
        </extensions>
      </trkpt>
      <trkpt lat="43.1323190219700336456298828125" lon="13.10826919041574001312255859375">
        <ele>570</ele>
        <time>2021-05-21T08:04:51.000Z</time>
        <extensions>
          <ns3:TrackPointExtension>
            <ns3:atemp>16.0</ns3:atemp>
          </ns3:TrackPointExtension>
        </extensions>
      </trkpt>
      <trkpt lat="43.13229136168956756591796875" lon="13.10838888399302959442138671875">
        <ele>568.20001220703125</ele>
        <time>2021-05-21T08:04:53.000Z</time>
        <extensions>
          <ns3:TrackPointExtension>
            <ns3:atemp>16.0</ns3:atemp>
          </ns3:TrackPointExtension>
        </extensions>
      </trkpt>
      <trkpt lat="43.1322761066257953643798828125" lon="13.10844873078167438507080078125">
        <ele>567.20001220703125</ele>
        <time>2021-05-21T08:04:54.000Z</time>
        <extensions>
          <ns3:TrackPointExtension>
            <ns3:atemp>16.0</ns3:atemp>
          </ns3:TrackPointExtension>
        </extensions>
      </trkpt>
      <trkpt lat="43.13227853737771511077880859375" lon="13.108511008322238922119140625">
        <ele>566</ele>
        <time>2021-05-21T08:04:55.000Z</time>
        <extensions>
          <ns3:TrackPointExtension>
            <ns3:atemp>16.0</ns3:atemp>
          </ns3:TrackPointExtension>
        </extensions>
      </trkpt>
      <trkpt lat="43.13229496590793132781982421875" lon="13.10858485288918018341064453125">
        <ele>564.5999755859375</ele>
        <time>2021-05-21T08:04:56.000Z</time>
        <extensions>
          <ns3:TrackPointExtension>
            <ns3:atemp>16.0</ns3:atemp>
          </ns3:TrackPointExtension>
        </extensions>
      </trkpt>
      <trkpt lat="43.13229949213564395904541015625" lon="13.1086493097245693206787109375">
        <ele>563.20001220703125</ele>
        <time>2021-05-21T08:04:57.000Z</time>
        <extensions>
          <ns3:TrackPointExtension>
            <ns3:atemp>16.0</ns3:atemp>
          </ns3:TrackPointExtension>
        </extensions>
      </trkpt>
      <trkpt lat="43.132301084697246551513671875" lon="13.10870940797030925750732421875">
        <ele>562</ele>
        <time>2021-05-21T08:04:58.000Z</time>
        <extensions>
          <ns3:TrackPointExtension>
            <ns3:atemp>16.0</ns3:atemp>
          </ns3:TrackPointExtension>
        </extensions>
      </trkpt>
      <trkpt lat="43.13229949213564395904541015625" lon="13.10884452424943447113037109375">
        <ele>561</ele>
        <time>2021-05-21T08:05:00.000Z</time>
        <extensions>
          <ns3:TrackPointExtension>
            <ns3:atemp>16.0</ns3:atemp>
          </ns3:TrackPointExtension>
        </extensions>
      </trkpt>
      <trkpt lat="43.13229479826986789703369140625" lon="13.1089849211275577545166015625">
        <ele>559.20001220703125</ele>
        <time>2021-05-21T08:05:02.000Z</time>
        <extensions>
          <ns3:TrackPointExtension>
            <ns3:atemp>16.0</ns3:atemp>
          </ns3:TrackPointExtension>
        </extensions>
      </trkpt>
      <trkpt lat="43.13228758983314037322998046875" lon="13.10905306600034236907958984375">
        <ele>558.20001220703125</ele>
        <time>2021-05-21T08:05:03.000Z</time>
        <extensions>
          <ns3:TrackPointExtension>
            <ns3:atemp>16.0</ns3:atemp>
          </ns3:TrackPointExtension>
        </extensions>
      </trkpt>
      <trkpt lat="43.1322767771780490875244140625" lon="13.109114505350589752197265625">
        <ele>557</ele>
        <time>2021-05-21T08:05:04.000Z</time>
        <extensions>
          <ns3:TrackPointExtension>
            <ns3:atemp>16.0</ns3:atemp>
          </ns3:TrackPointExtension>
        </extensions>
      </trkpt>
      <trkpt lat="43.13226663507521152496337890625" lon="13.10917980037629604339599609375">
        <ele>556</ele>
        <time>2021-05-21T08:05:05.000Z</time>
        <extensions>
          <ns3:TrackPointExtension>
            <ns3:atemp>16.0</ns3:atemp>
          </ns3:TrackPointExtension>
        </extensions>
      </trkpt>
      <trkpt lat="43.1322504580020904541015625" lon="13.109243921935558319091796875">
        <ele>554.79998779296875</ele>
        <time>2021-05-21T08:05:06.000Z</time>
        <extensions>
          <ns3:TrackPointExtension>
            <ns3:atemp>16.0</ns3:atemp>
          </ns3:TrackPointExtension>
        </extensions>
      </trkpt>
      <trkpt lat="43.1322325207293033599853515625" lon="13.10931776650249958038330078125">
        <ele>553.5999755859375</ele>
        <time>2021-05-21T08:05:07.000Z</time>
        <extensions>
          <ns3:TrackPointExtension>
            <ns3:atemp>16.0</ns3:atemp>
          </ns3:TrackPointExtension>
        </extensions>
      </trkpt>
      <trkpt lat="43.13221181742846965789794921875" lon="13.1093919463455677032470703125">
        <ele>552.20001220703125</ele>
        <time>2021-05-21T08:05:08.000Z</time>
        <extensions>
          <ns3:TrackPointExtension>
            <ns3:atemp>16.0</ns3:atemp>
          </ns3:TrackPointExtension>
        </extensions>
      </trkpt>
      <trkpt lat="43.13218717463314533233642578125" lon="13.109459839761257171630859375">
        <ele>551</ele>
        <time>2021-05-21T08:05:09.000Z</time>
        <extensions>
          <ns3:TrackPointExtension>
            <ns3:atemp>16.0</ns3:atemp>
          </ns3:TrackPointExtension>
        </extensions>
      </trkpt>
      <trkpt lat="43.13217443414032459259033203125" lon="13.10951675288379192352294921875">
        <ele>549.5999755859375</ele>
        <time>2021-05-21T08:05:10.000Z</time>
        <extensions>
          <ns3:TrackPointExtension>
            <ns3:atemp>16.0</ns3:atemp>
          </ns3:TrackPointExtension>
        </extensions>
      </trkpt>
      <trkpt lat="43.1321755237877368927001953125" lon="13.1095716543495655059814453125">
        <ele>548.4000244140625</ele>
        <time>2021-05-21T08:05:11.000Z</time>
        <extensions>
          <ns3:TrackPointExtension>
            <ns3:atemp>16.0</ns3:atemp>
          </ns3:TrackPointExtension>
        </extensions>
      </trkpt>
      <trkpt lat="43.13217694871127605438232421875" lon="13.109619431197643280029296875">
        <ele>547.4000244140625</ele>
        <time>2021-05-21T08:05:12.000Z</time>
        <extensions>
          <ns3:TrackPointExtension>
            <ns3:atemp>16.0</ns3:atemp>
          </ns3:TrackPointExtension>
        </extensions>
      </trkpt>
      <trkpt lat="43.13218164257705211639404296875" lon="13.10966628603637218475341796875">
        <ele>546.4000244140625</ele>
        <time>2021-05-21T08:05:13.000Z</time>
        <extensions>
          <ns3:TrackPointExtension>
            <ns3:atemp>16.0</ns3:atemp>
          </ns3:TrackPointExtension>
        </extensions>
      </trkpt>
      <trkpt lat="43.1321785412728786468505859375" lon="13.10970048420131206512451171875">
        <ele>545.4000244140625</ele>
        <time>2021-05-21T08:05:14.000Z</time>
        <extensions>
          <ns3:TrackPointExtension>
            <ns3:atemp>16.0</ns3:atemp>
          </ns3:TrackPointExtension>
        </extensions>
      </trkpt>
      <trkpt lat="43.13216337002813816070556640625" lon="13.10971909202635288238525390625">
        <ele>544.20001220703125</ele>
        <time>2021-05-21T08:05:15.000Z</time>
        <extensions>
          <ns3:TrackPointExtension>
            <ns3:atemp>16.0</ns3:atemp>
          </ns3:TrackPointExtension>
        </extensions>
      </trkpt>
      <trkpt lat="43.13215582631528377532958984375" lon="13.10973250307142734527587890625">
        <ele>542.79998779296875</ele>
        <time>2021-05-21T08:05:16.000Z</time>
        <extensions>
          <ns3:TrackPointExtension>
            <ns3:atemp>16.0</ns3:atemp>
          </ns3:TrackPointExtension>
        </extensions>
      </trkpt>
      <trkpt lat="43.1321564130485057830810546875" lon="13.1097436510026454925537109375">
        <ele>541.4000244140625</ele>
        <time>2021-05-21T08:05:18.000Z</time>
        <extensions>
          <ns3:TrackPointExtension>
            <ns3:atemp>16.0</ns3:atemp>
          </ns3:TrackPointExtension>
        </extensions>
      </trkpt>
      <trkpt lat="43.13215733505785465240478515625" lon="13.109748177230358123779296875">
        <ele>541</ele>
        <time>2021-05-21T08:05:19.000Z</time>
        <extensions>
          <ns3:TrackPointExtension>
            <ns3:atemp>16.0</ns3:atemp>
          </ns3:TrackPointExtension>
        </extensions>
      </trkpt>
      <trkpt lat="43.1321564130485057830810546875" lon="13.10975614003837108612060546875">
        <ele>540.20001220703125</ele>
        <time>2021-05-21T08:05:26.000Z</time>
        <extensions>
          <ns3:TrackPointExtension>
            <ns3:atemp>16.0</ns3:atemp>
          </ns3:TrackPointExtension>
        </extensions>
      </trkpt>
      <trkpt lat="43.1321564130485057830810546875" lon="13.10975454747676849365234375">
        <ele>540.20001220703125</ele>
        <time>2021-05-21T08:05:33.000Z</time>
        <extensions>
          <ns3:TrackPointExtension>
            <ns3:atemp>16.0</ns3:atemp>
          </ns3:TrackPointExtension>
        </extensions>
      </trkpt>
      <trkpt lat="43.13215565867722034454345703125" lon="13.10975848697125911712646484375">
        <ele>540.20001220703125</ele>
        <time>2021-05-21T08:05:45.000Z</time>
        <extensions>
          <ns3:TrackPointExtension>
            <ns3:atemp>16.0</ns3:atemp>
          </ns3:TrackPointExtension>
        </extensions>
      </trkpt>
      <trkpt lat="43.1321547366678714752197265625" lon="13.10975781641900539398193359375">
        <ele>540</ele>
        <time>2021-05-21T08:06:12.000Z</time>
        <extensions>
          <ns3:TrackPointExtension>
            <ns3:atemp>17.0</ns3:atemp>
          </ns3:TrackPointExtension>
        </extensions>
      </trkpt>
      <trkpt lat="43.1321520544588565826416015625" lon="13.10975614003837108612060546875">
        <ele>539.5999755859375</ele>
        <time>2021-05-21T08:06:51.000Z</time>
        <extensions>
          <ns3:TrackPointExtension>
            <ns3:atemp>17.0</ns3:atemp>
          </ns3:TrackPointExtension>
        </extensions>
      </trkpt>
      <trkpt lat="43.1321517191827297210693359375" lon="13.109756223857402801513671875">
        <ele>540.20001220703125</ele>
        <time>2021-05-21T08:07:19.000Z</time>
        <extensions>
          <ns3:TrackPointExtension>
            <ns3:atemp>17.0</ns3:atemp>
          </ns3:TrackPointExtension>
        </extensions>
      </trkpt>
      <trkpt lat="43.1321512162685394287109375" lon="13.10975597240030765533447265625">
        <ele>540</ele>
        <time>2021-05-21T08:07:31.000Z</time>
        <extensions>
          <ns3:TrackPointExtension>
            <ns3:atemp>17.0</ns3:atemp>
          </ns3:TrackPointExtension>
        </extensions>
      </trkpt>
      <trkpt lat="43.13214979134500026702880859375" lon="13.10975748114287853240966796875">
        <ele>540</ele>
        <time>2021-05-21T08:08:19.000Z</time>
        <extensions>
          <ns3:TrackPointExtension>
            <ns3:atemp>18.0</ns3:atemp>
          </ns3:TrackPointExtension>
        </extensions>
      </trkpt>
      <trkpt lat="43.1321436725556850433349609375" lon="13.10976921580731868743896484375">
        <ele>540.20001220703125</ele>
        <time>2021-05-21T08:08:55.000Z</time>
        <extensions>
          <ns3:TrackPointExtension>
            <ns3:atemp>18.0</ns3:atemp>
          </ns3:TrackPointExtension>
        </extensions>
      </trkpt>
      <trkpt lat="43.13214291818439960479736328125" lon="13.1097744964063167572021484375">
        <ele>540.20001220703125</ele>
        <time>2021-05-21T08:09:16.000Z</time>
        <extensions>
          <ns3:TrackPointExtension>
            <ns3:atemp>18.0</ns3:atemp>
          </ns3:TrackPointExtension>
        </extensions>
      </trkpt>
      <trkpt lat="43.13214241527020931243896484375" lon="13.10977675952017307281494140625">
        <ele>540.20001220703125</ele>
        <time>2021-05-21T08:09:32.000Z</time>
        <extensions>
          <ns3:TrackPointExtension>
            <ns3:atemp>18.0</ns3:atemp>
          </ns3:TrackPointExtension>
        </extensions>
      </trkpt>
      <trkpt lat="43.13213621266186237335205078125" lon="13.1097587384283542633056640625">
        <ele>540.20001220703125</ele>
        <time>2021-05-21T08:09:38.000Z</time>
        <extensions>
          <ns3:TrackPointExtension>
            <ns3:atemp>18.0</ns3:atemp>
          </ns3:TrackPointExtension>
        </extensions>
      </trkpt>
      <trkpt lat="43.1321248970925807952880859375" lon="13.1097178347408771514892578125">
        <ele>540</ele>
        <time>2021-05-21T08:09:40.000Z</time>
        <extensions>
          <ns3:TrackPointExtension>
            <ns3:atemp>18.0</ns3:atemp>
          </ns3:TrackPointExtension>
        </extensions>
      </trkpt>
      <trkpt lat="43.13203965313732624053955078125" lon="13.10958514921367168426513671875">
        <ele>540</ele>
        <time>2021-05-21T08:09:46.000Z</time>
        <extensions>
          <ns3:TrackPointExtension>
            <ns3:atemp>18.0</ns3:atemp>
          </ns3:TrackPointExtension>
        </extensions>
      </trkpt>
      <trkpt lat="43.13196421600878238677978515625" lon="13.109413571655750274658203125">
        <ele>540.5999755859375</ele>
        <time>2021-05-21T08:09:53.000Z</time>
        <extensions>
          <ns3:TrackPointExtension>
            <ns3:atemp>19.0</ns3:atemp>
          </ns3:TrackPointExtension>
        </extensions>
      </trkpt>
      <trkpt lat="43.13196237199008464813232421875" lon="13.10924735851585865020751953125">
        <ele>542.20001220703125</ele>
        <time>2021-05-21T08:09:57.000Z</time>
        <extensions>
          <ns3:TrackPointExtension>
            <ns3:atemp>19.0</ns3:atemp>
          </ns3:TrackPointExtension>
        </extensions>
      </trkpt>
      <trkpt lat="43.13196857459843158721923828125" lon="13.10920427553355693817138671875">
        <ele>542.4000244140625</ele>
        <time>2021-05-21T08:09:58.000Z</time>
        <extensions>
          <ns3:TrackPointExtension>
            <ns3:atemp>19.0</ns3:atemp>
          </ns3:TrackPointExtension>
        </extensions>
      </trkpt>
      <trkpt lat="43.13201241195201873779296875" lon="13.1089949794113636016845703125">
        <ele>542.5999755859375</ele>
        <time>2021-05-21T08:10:03.000Z</time>
        <extensions>
          <ns3:TrackPointExtension>
            <ns3:atemp>19.0</ns3:atemp>
          </ns3:TrackPointExtension>
        </extensions>
      </trkpt>
      <trkpt lat="43.13195499591529369354248046875" lon="13.108649812638759613037109375">
        <ele>542.4000244140625</ele>
        <time>2021-05-21T08:10:10.000Z</time>
        <extensions>
          <ns3:TrackPointExtension>
            <ns3:atemp>19.0</ns3:atemp>
          </ns3:TrackPointExtension>
        </extensions>
      </trkpt>
      <trkpt lat="43.1318003498017787933349609375" lon="13.10849659144878387451171875">
        <ele>541.4000244140625</ele>
        <time>2021-05-21T08:10:15.000Z</time>
        <extensions>
          <ns3:TrackPointExtension>
            <ns3:atemp>19.0</ns3:atemp>
          </ns3:TrackPointExtension>
        </extensions>
      </trkpt>
      <trkpt lat="43.13176405616104602813720703125" lon="13.10847370885312557220458984375">
        <ele>541.20001220703125</ele>
        <time>2021-05-21T08:10:16.000Z</time>
        <extensions>
          <ns3:TrackPointExtension>
            <ns3:atemp>19.0</ns3:atemp>
          </ns3:TrackPointExtension>
        </extensions>
      </trkpt>
      <trkpt lat="43.131609745323657989501953125" lon="13.10842760838568210601806640625">
        <ele>540.4000244140625</ele>
        <time>2021-05-21T08:10:20.000Z</time>
        <extensions>
          <ns3:TrackPointExtension>
            <ns3:atemp>19.0</ns3:atemp>
          </ns3:TrackPointExtension>
        </extensions>
      </trkpt>
      <trkpt lat="43.13153455965220928192138671875" lon="13.10839341022074222564697265625">
        <ele>539.79998779296875</ele>
        <time>2021-05-21T08:10:22.000Z</time>
        <extensions>
          <ns3:TrackPointExtension>
            <ns3:atemp>19.0</ns3:atemp>
          </ns3:TrackPointExtension>
        </extensions>
      </trkpt>
      <trkpt lat="43.13138569705188274383544921875" lon="13.10837094672024250030517578125">
        <ele>539.79998779296875</ele>
        <time>2021-05-21T08:10:25.000Z</time>
        <extensions>
          <ns3:TrackPointExtension>
            <ns3:atemp>19.0</ns3:atemp>
          </ns3:TrackPointExtension>
        </extensions>
      </trkpt>
      <trkpt lat="43.13126348890364170074462890625" lon="13.10838335193693637847900390625">
        <ele>539.5999755859375</ele>
        <time>2021-05-21T08:10:27.000Z</time>
        <extensions>
          <ns3:TrackPointExtension>
            <ns3:atemp>19.0</ns3:atemp>
          </ns3:TrackPointExtension>
        </extensions>
      </trkpt>
      <trkpt lat="43.13104606233537197113037109375" lon="13.10838838107883930206298828125">
        <ele>539.20001220703125</ele>
        <time>2021-05-21T08:10:30.000Z</time>
        <extensions>
          <ns3:TrackPointExtension>
            <ns3:atemp>19.0</ns3:atemp>
          </ns3:TrackPointExtension>
        </extensions>
      </trkpt>
      <trkpt lat="43.1309826113283634185791015625" lon="13.1083867885172367095947265625">
        <ele>538.79998779296875</ele>
        <time>2021-05-21T08:10:31.000Z</time>
        <extensions>
          <ns3:TrackPointExtension>
            <ns3:atemp>19.0</ns3:atemp>
          </ns3:TrackPointExtension>
        </extensions>
      </trkpt>
      <trkpt lat="43.13091270625591278076171875" lon="13.10839056037366390228271484375">
        <ele>538.20001220703125</ele>
        <time>2021-05-21T08:10:32.000Z</time>
        <extensions>
          <ns3:TrackPointExtension>
            <ns3:atemp>19.0</ns3:atemp>
          </ns3:TrackPointExtension>
        </extensions>
      </trkpt>
      <trkpt lat="43.130855374038219451904296875" lon="13.10840246267616748809814453125">
        <ele>537.5999755859375</ele>
        <time>2021-05-21T08:10:33.000Z</time>
        <extensions>
          <ns3:TrackPointExtension>
            <ns3:atemp>19.0</ns3:atemp>
          </ns3:TrackPointExtension>
        </extensions>
      </trkpt>
      <trkpt lat="43.130796365439891815185546875" lon="13.10842425562441349029541015625">
        <ele>537</ele>
        <time>2021-05-21T08:10:34.000Z</time>
        <extensions>
          <ns3:TrackPointExtension>
            <ns3:atemp>19.0</ns3:atemp>
          </ns3:TrackPointExtension>
        </extensions>
      </trkpt>
      <trkpt lat="43.13074062578380107879638671875" lon="13.1084441207349300384521484375">
        <ele>536.4000244140625</ele>
        <time>2021-05-21T08:10:35.000Z</time>
        <extensions>
          <ns3:TrackPointExtension>
            <ns3:atemp>19.0</ns3:atemp>
          </ns3:TrackPointExtension>
        </extensions>
      </trkpt>
      <trkpt lat="43.1306520290672779083251953125" lon="13.1084833480417728424072265625">
        <ele>536.20001220703125</ele>
        <time>2021-05-21T08:10:37.000Z</time>
        <extensions>
          <ns3:TrackPointExtension>
            <ns3:atemp>19.0</ns3:atemp>
          </ns3:TrackPointExtension>
        </extensions>
      </trkpt>
      <trkpt lat="43.1306117959320545196533203125" lon="13.10849902220070362091064453125">
        <ele>536</ele>
        <time>2021-05-21T08:10:38.000Z</time>
        <extensions>
          <ns3:TrackPointExtension>
            <ns3:atemp>19.0</ns3:atemp>
          </ns3:TrackPointExtension>
        </extensions>
      </trkpt>
      <trkpt lat="43.130470477044582366943359375" lon="13.1085088290274143218994140625">
        <ele>536</ele>
        <time>2021-05-21T08:10:42.000Z</time>
        <extensions>
          <ns3:TrackPointExtension>
            <ns3:atemp>19.0</ns3:atemp>
          </ns3:TrackPointExtension>
        </extensions>
      </trkpt>
      <trkpt lat="43.130312897264957427978515625" lon="13.108344040811061859130859375">
        <ele>536.5999755859375</ele>
        <time>2021-05-21T08:10:47.000Z</time>
        <extensions>
          <ns3:TrackPointExtension>
            <ns3:atemp>19.0</ns3:atemp>
          </ns3:TrackPointExtension>
        </extensions>
      </trkpt>
      <trkpt lat="43.13020594418048858642578125" lon="13.10825879685580730438232421875">
        <ele>537.5999755859375</ele>
        <time>2021-05-21T08:10:50.000Z</time>
        <extensions>
          <ns3:TrackPointExtension>
            <ns3:atemp>19.0</ns3:atemp>
          </ns3:TrackPointExtension>
        </extensions>
      </trkpt>
      <trkpt lat="43.13010494224727153778076171875" lon="13.10817070305347442626953125">
        <ele>538.20001220703125</ele>
        <time>2021-05-21T08:10:53.000Z</time>
        <extensions>
          <ns3:TrackPointExtension>
            <ns3:atemp>19.0</ns3:atemp>
          </ns3:TrackPointExtension>
        </extensions>
      </trkpt>
      <trkpt lat="43.13001642934978008270263671875" lon="13.1081018038094043731689453125">
        <ele>538.5999755859375</ele>
        <time>2021-05-21T08:10:56.000Z</time>
        <extensions>
          <ns3:TrackPointExtension>
            <ns3:atemp>19.0</ns3:atemp>
          </ns3:TrackPointExtension>
        </extensions>
      </trkpt>
      <trkpt lat="43.12997116707265377044677734375" lon="13.10806567780673503875732421875">
        <ele>539</ele>
        <time>2021-05-21T08:10:58.000Z</time>
        <extensions>
          <ns3:TrackPointExtension>
            <ns3:atemp>19.0</ns3:atemp>
          </ns3:TrackPointExtension>
        </extensions>
      </trkpt>
      <trkpt lat="43.1298658065497875213623046875" lon="13.10793911106884479522705078125">
        <ele>539.79998779296875</ele>
        <time>2021-05-21T08:11:04.000Z</time>
        <extensions>
          <ns3:TrackPointExtension>
            <ns3:atemp>19.0</ns3:atemp>
          </ns3:TrackPointExtension>
        </extensions>
      </trkpt>
      <trkpt lat="43.129849545657634735107421875" lon="13.10791782103478908538818359375">
        <ele>540.20001220703125</ele>
        <time>2021-05-21T08:11:05.000Z</time>
        <extensions>
          <ns3:TrackPointExtension>
            <ns3:atemp>19.0</ns3:atemp>
          </ns3:TrackPointExtension>
        </extensions>
      </trkpt>
      <trkpt lat="43.12982481904327869415283203125" lon="13.10787172056734561920166015625">
        <ele>541</ele>
        <time>2021-05-21T08:11:07.000Z</time>
        <extensions>
          <ns3:TrackPointExtension>
            <ns3:atemp>19.0</ns3:atemp>
          </ns3:TrackPointExtension>
        </extensions>
      </trkpt>
      <trkpt lat="43.1297694146633148193359375" lon="13.10781254433095455169677734375">
        <ele>542</ele>
        <time>2021-05-21T08:11:10.000Z</time>
        <extensions>
          <ns3:TrackPointExtension>
            <ns3:atemp>19.0</ns3:atemp>
          </ns3:TrackPointExtension>
        </extensions>
      </trkpt>
      <trkpt lat="43.12967545352876186370849609375" lon="13.107750602066516876220703125">
        <ele>543.4000244140625</ele>
        <time>2021-05-21T08:11:14.000Z</time>
        <extensions>
          <ns3:TrackPointExtension>
            <ns3:atemp>19.0</ns3:atemp>
          </ns3:TrackPointExtension>
        </extensions>
      </trkpt>
      <trkpt lat="43.12958744354546070098876953125" lon="13.10772470198571681976318359375">
        <ele>544.5999755859375</ele>
        <time>2021-05-21T08:11:17.000Z</time>
        <extensions>
          <ns3:TrackPointExtension>
            <ns3:atemp>19.0</ns3:atemp>
          </ns3:TrackPointExtension>
        </extensions>
      </trkpt>
      <trkpt lat="43.129559196531772613525390625" lon="13.10771875083446502685546875">
        <ele>545</ele>
        <time>2021-05-21T08:11:18.000Z</time>
        <extensions>
          <ns3:TrackPointExtension>
            <ns3:atemp>19.0</ns3:atemp>
          </ns3:TrackPointExtension>
        </extensions>
      </trkpt>
      <trkpt lat="43.12950127758085727691650390625" lon="13.10771145857870578765869140625">
        <ele>545.79998779296875</ele>
        <time>2021-05-21T08:11:20.000Z</time>
        <extensions>
          <ns3:TrackPointExtension>
            <ns3:atemp>19.0</ns3:atemp>
          </ns3:TrackPointExtension>
        </extensions>
      </trkpt>
      <trkpt lat="43.12940773554146289825439453125" lon="13.10772218741476535797119140625">
        <ele>546.5999755859375</ele>
        <time>2021-05-21T08:11:23.000Z</time>
        <extensions>
          <ns3:TrackPointExtension>
            <ns3:atemp>19.0</ns3:atemp>
          </ns3:TrackPointExtension>
        </extensions>
      </trkpt>
      <trkpt lat="43.12931402586400508880615234375" lon="13.1077534519135951995849609375">
        <ele>546.79998779296875</ele>
        <time>2021-05-21T08:11:27.000Z</time>
        <extensions>
          <ns3:TrackPointExtension>
            <ns3:atemp>19.0</ns3:atemp>
          </ns3:TrackPointExtension>
        </extensions>
      </trkpt>
      <trkpt lat="43.12926306389272212982177734375" lon="13.1077926792204380035400390625">
        <ele>547</ele>
        <time>2021-05-21T08:11:29.000Z</time>
        <extensions>
          <ns3:TrackPointExtension>
            <ns3:atemp>19.0</ns3:atemp>
          </ns3:TrackPointExtension>
        </extensions>
      </trkpt>
      <trkpt lat="43.12907597981393337249755859375" lon="13.1079750694334506988525390625">
        <ele>547</ele>
        <time>2021-05-21T08:11:35.000Z</time>
        <extensions>
          <ns3:TrackPointExtension>
            <ns3:atemp>19.0</ns3:atemp>
          </ns3:TrackPointExtension>
        </extensions>
      </trkpt>
      <trkpt lat="43.12887447886168956756591796875" lon="13.10815519653260707855224609375">
        <ele>546.20001220703125</ele>
        <time>2021-05-21T08:11:40.000Z</time>
        <extensions>
          <ns3:TrackPointExtension>
            <ns3:atemp>19.0</ns3:atemp>
          </ns3:TrackPointExtension>
        </extensions>
      </trkpt>
      <trkpt lat="43.128839023411273956298828125" lon="13.10819040052592754364013671875">
        <ele>545.5999755859375</ele>
        <time>2021-05-21T08:11:41.000Z</time>
        <extensions>
          <ns3:TrackPointExtension>
            <ns3:atemp>19.0</ns3:atemp>
          </ns3:TrackPointExtension>
        </extensions>
      </trkpt>
      <trkpt lat="43.12876802869141101837158203125" lon="13.10825309716165065765380859375">
        <ele>544.4000244140625</ele>
        <time>2021-05-21T08:11:43.000Z</time>
        <extensions>
          <ns3:TrackPointExtension>
            <ns3:atemp>19.0</ns3:atemp>
          </ns3:TrackPointExtension>
        </extensions>
      </trkpt>
      <trkpt lat="43.12871321104466915130615234375" lon="13.10829400084912776947021484375">
        <ele>543.4000244140625</ele>
        <time>2021-05-21T08:11:45.000Z</time>
        <extensions>
          <ns3:TrackPointExtension>
            <ns3:atemp>19.0</ns3:atemp>
          </ns3:TrackPointExtension>
        </extensions>
      </trkpt>
      <trkpt lat="43.128686137497425079345703125" lon="13.108299784362316131591796875">
        <ele>543.20001220703125</ele>
        <time>2021-05-21T08:11:46.000Z</time>
        <extensions>
          <ns3:TrackPointExtension>
            <ns3:atemp>19.0</ns3:atemp>
          </ns3:TrackPointExtension>
        </extensions>
      </trkpt>
      <trkpt lat="43.12862888909876346588134765625" lon="13.1083056516945362091064453125">
        <ele>543</ele>
        <time>2021-05-21T08:11:49.000Z</time>
        <extensions>
          <ns3:TrackPointExtension>
            <ns3:atemp>19.0</ns3:atemp>
          </ns3:TrackPointExtension>
        </extensions>
      </trkpt>
      <trkpt lat="43.1286242790520191192626953125" lon="13.10831009410321712493896484375">
        <ele>543</ele>
        <time>2021-05-21T08:11:50.000Z</time>
        <extensions>
          <ns3:TrackPointExtension>
            <ns3:atemp>19.0</ns3:atemp>
          </ns3:TrackPointExtension>
        </extensions>
      </trkpt>
      <trkpt lat="43.12859100289642810821533203125" lon="13.10830858536064624786376953125">
        <ele>543.4000244140625</ele>
        <time>2021-05-21T08:12:01.000Z</time>
        <extensions>
          <ns3:TrackPointExtension>
            <ns3:atemp>19.0</ns3:atemp>
          </ns3:TrackPointExtension>
        </extensions>
      </trkpt>
      <trkpt lat="43.12858195044100284576416015625" lon="13.1083120219409465789794921875">
        <ele>543.4000244140625</ele>
        <time>2021-05-21T08:12:16.000Z</time>
        <extensions>
          <ns3:TrackPointExtension>
            <ns3:atemp>19.0</ns3:atemp>
          </ns3:TrackPointExtension>
        </extensions>
      </trkpt>
      <trkpt lat="43.12857792712748050689697265625" lon="13.1083153747022151947021484375">
        <ele>543.5999755859375</ele>
        <time>2021-05-21T08:12:27.000Z</time>
        <extensions>
          <ns3:TrackPointExtension>
            <ns3:atemp>19.0</ns3:atemp>
          </ns3:TrackPointExtension>
        </extensions>
      </trkpt>
      <trkpt lat="43.128563426434993743896484375" lon="13.1083291210234165191650390625">
        <ele>543.5999755859375</ele>
        <time>2021-05-21T08:12:34.000Z</time>
        <extensions>
          <ns3:TrackPointExtension>
            <ns3:atemp>19.0</ns3:atemp>
          </ns3:TrackPointExtension>
        </extensions>
      </trkpt>
      <trkpt lat="43.128443397581577301025390625" lon="13.1084109283983707427978515625">
        <ele>543.4000244140625</ele>
        <time>2021-05-21T08:12:42.000Z</time>
        <extensions>
          <ns3:TrackPointExtension>
            <ns3:atemp>19.0</ns3:atemp>
          </ns3:TrackPointExtension>
        </extensions>
      </trkpt>
      <trkpt lat="43.1283969618380069732666015625" lon="13.10843498446047306060791015625">
        <ele>542.79998779296875</ele>
        <time>2021-05-21T08:12:45.000Z</time>
        <extensions>
          <ns3:TrackPointExtension>
            <ns3:atemp>19.0</ns3:atemp>
          </ns3:TrackPointExtension>
        </extensions>
      </trkpt>
      <trkpt lat="43.12835865654051303863525390625" lon="13.1084709428250789642333984375">
        <ele>542.20001220703125</ele>
        <time>2021-05-21T08:12:47.000Z</time>
        <extensions>
          <ns3:TrackPointExtension>
            <ns3:atemp>19.0</ns3:atemp>
          </ns3:TrackPointExtension>
        </extensions>
      </trkpt>
      <trkpt lat="43.12828305177390575408935546875" lon="13.10852902941405773162841796875">
        <ele>542</ele>
        <time>2021-05-21T08:12:50.000Z</time>
        <extensions>
          <ns3:TrackPointExtension>
            <ns3:atemp>19.0</ns3:atemp>
          </ns3:TrackPointExtension>
        </extensions>
      </trkpt>
      <trkpt lat="43.12817509286105632781982421875" lon="13.1086224876344203948974609375">
        <ele>541.5999755859375</ele>
        <time>2021-05-21T08:12:54.000Z</time>
        <extensions>
          <ns3:TrackPointExtension>
            <ns3:atemp>19.0</ns3:atemp>
          </ns3:TrackPointExtension>
        </extensions>
      </trkpt>
      <trkpt lat="43.1280881725251674652099609375" lon="13.10868795029819011688232421875">
        <ele>540.79998779296875</ele>
        <time>2021-05-21T08:12:57.000Z</time>
        <extensions>
          <ns3:TrackPointExtension>
            <ns3:atemp>19.0</ns3:atemp>
          </ns3:TrackPointExtension>
        </extensions>
      </trkpt>
      <trkpt lat="43.1279839016497135162353515625" lon="13.10877562500536441802978515625">
        <ele>540.20001220703125</ele>
        <time>2021-05-21T08:13:01.000Z</time>
        <extensions>
          <ns3:TrackPointExtension>
            <ns3:atemp>19.0</ns3:atemp>
          </ns3:TrackPointExtension>
        </extensions>
      </trkpt>
      <trkpt lat="43.12789329327642917633056640625" lon="13.10885122977197170257568359375">
        <ele>540.20001220703125</ele>
        <time>2021-05-21T08:13:06.000Z</time>
        <extensions>
          <ns3:TrackPointExtension>
            <ns3:atemp>19.0</ns3:atemp>
          </ns3:TrackPointExtension>
        </extensions>
      </trkpt>
      <trkpt lat="43.12787015922367572784423828125" lon="13.10888844542205333709716796875">
        <ele>541</ele>
        <time>2021-05-21T08:13:15.000Z</time>
        <extensions>
          <ns3:TrackPointExtension>
            <ns3:atemp>19.0</ns3:atemp>
          </ns3:TrackPointExtension>
        </extensions>
      </trkpt>
      <trkpt lat="43.127874433994293212890625" lon="13.10888148844242095947265625">
        <ele>541.4000244140625</ele>
        <time>2021-05-21T08:13:29.000Z</time>
        <extensions>
          <ns3:TrackPointExtension>
            <ns3:atemp>19.0</ns3:atemp>
          </ns3:TrackPointExtension>
        </extensions>
      </trkpt>
      <trkpt lat="43.12784384004771709442138671875" lon="13.10892784036695957183837890625">
        <ele>541.4000244140625</ele>
        <time>2021-05-21T08:13:39.000Z</time>
        <extensions>
          <ns3:TrackPointExtension>
            <ns3:atemp>19.0</ns3:atemp>
          </ns3:TrackPointExtension>
        </extensions>
      </trkpt>
      <trkpt lat="43.12783311121165752410888671875" lon="13.10894586145877838134765625">
        <ele>541.4000244140625</ele>
        <time>2021-05-21T08:13:40.000Z</time>
        <extensions>
          <ns3:TrackPointExtension>
            <ns3:atemp>19.0</ns3:atemp>
          </ns3:TrackPointExtension>
        </extensions>
      </trkpt>
      <trkpt lat="43.12777611427009105682373046875" lon="13.109111487865447998046875">
        <ele>541.4000244140625</ele>
        <time>2021-05-21T08:13:45.000Z</time>
        <extensions>
          <ns3:TrackPointExtension>
            <ns3:atemp>19.0</ns3:atemp>
          </ns3:TrackPointExtension>
        </extensions>
      </trkpt>
      <trkpt lat="43.1277223862707614898681640625" lon="13.10929027386009693145751953125">
        <ele>541</ele>
        <time>2021-05-21T08:13:50.000Z</time>
        <extensions>
          <ns3:TrackPointExtension>
            <ns3:atemp>19.0</ns3:atemp>
          </ns3:TrackPointExtension>
        </extensions>
      </trkpt>
      <trkpt lat="43.12771073542535305023193359375" lon="13.1093181855976581573486328125">
        <ele>539.4000244140625</ele>
        <time>2021-05-21T08:13:53.000Z</time>
        <extensions>
          <ns3:TrackPointExtension>
            <ns3:atemp>19.0</ns3:atemp>
          </ns3:TrackPointExtension>
        </extensions>
      </trkpt>
      <trkpt lat="43.127703107893466949462890625" lon="13.10932673513889312744140625">
        <ele>538.5999755859375</ele>
        <time>2021-05-21T08:13:55.000Z</time>
        <extensions>
          <ns3:TrackPointExtension>
            <ns3:atemp>19.0</ns3:atemp>
          </ns3:TrackPointExtension>
        </extensions>
      </trkpt>
      <trkpt lat="43.12770470045506954193115234375" lon="13.1093647889792919158935546875">
        <ele>538.20001220703125</ele>
        <time>2021-05-21T08:13:58.000Z</time>
        <extensions>
          <ns3:TrackPointExtension>
            <ns3:atemp>18.0</ns3:atemp>
          </ns3:TrackPointExtension>
        </extensions>
      </trkpt>
      <trkpt lat="43.1276985816657543182373046875" lon="13.10945145785808563232421875">
        <ele>538</ele>
        <time>2021-05-21T08:14:02.000Z</time>
        <extensions>
          <ns3:TrackPointExtension>
            <ns3:atemp>18.0</ns3:atemp>
          </ns3:TrackPointExtension>
        </extensions>
      </trkpt>
      <trkpt lat="43.12768173404037952423095703125" lon="13.10954826883971691131591796875">
        <ele>538</ele>
        <time>2021-05-21T08:14:04.000Z</time>
        <extensions>
          <ns3:TrackPointExtension>
            <ns3:atemp>18.0</ns3:atemp>
          </ns3:TrackPointExtension>
        </extensions>
      </trkpt>
      <trkpt lat="43.1276623718440532684326171875" lon="13.1096678785979747772216796875">
        <ele>537.79998779296875</ele>
        <time>2021-05-21T08:14:06.000Z</time>
        <extensions>
          <ns3:TrackPointExtension>
            <ns3:atemp>18.0</ns3:atemp>
          </ns3:TrackPointExtension>
        </extensions>
      </trkpt>
      <trkpt lat="43.12761702574789524078369140625" lon="13.10984867624938488006591796875">
        <ele>537</ele>
        <time>2021-05-21T08:14:10.000Z</time>
        <extensions>
          <ns3:TrackPointExtension>
            <ns3:atemp>18.0</ns3:atemp>
          </ns3:TrackPointExtension>
        </extensions>
      </trkpt>
      <trkpt lat="43.12757209874689579010009765625" lon="13.1099159829318523406982421875">
        <ele>536</ele>
        <time>2021-05-21T08:14:16.000Z</time>
        <extensions>
          <ns3:TrackPointExtension>
            <ns3:atemp>18.0</ns3:atemp>
          </ns3:TrackPointExtension>
        </extensions>
      </trkpt>
      <trkpt lat="43.12756757251918315887451171875" lon="13.11007280834019184112548828125">
        <ele>535.79998779296875</ele>
        <time>2021-05-21T08:14:27.000Z</time>
        <extensions>
          <ns3:TrackPointExtension>
            <ns3:atemp>18.0</ns3:atemp>
          </ns3:TrackPointExtension>
        </extensions>
      </trkpt>
      <trkpt lat="43.12755935825407505035400390625" lon="13.11022686772048473358154296875">
        <ele>535.79998779296875</ele>
        <time>2021-05-21T08:14:32.000Z</time>
        <extensions>
          <ns3:TrackPointExtension>
            <ns3:atemp>18.0</ns3:atemp>
          </ns3:TrackPointExtension>
        </extensions>
      </trkpt>
      <trkpt lat="43.1275503896176815032958984375" lon="13.11040498316287994384765625">
        <ele>535.79998779296875</ele>
        <time>2021-05-21T08:14:38.000Z</time>
        <extensions>
          <ns3:TrackPointExtension>
            <ns3:atemp>18.0</ns3:atemp>
          </ns3:TrackPointExtension>
        </extensions>
      </trkpt>
      <trkpt lat="43.127579391002655029296875" lon="13.1106049753725528717041015625">
        <ele>535.79998779296875</ele>
        <time>2021-05-21T08:14:43.000Z</time>
        <extensions>
          <ns3:TrackPointExtension>
            <ns3:atemp>18.0</ns3:atemp>
          </ns3:TrackPointExtension>
        </extensions>
      </trkpt>
      <trkpt lat="43.12769296579062938690185546875" lon="13.1108480505645275115966796875">
        <ele>535.79998779296875</ele>
        <time>2021-05-21T08:14:48.000Z</time>
        <extensions>
          <ns3:TrackPointExtension>
            <ns3:atemp>18.0</ns3:atemp>
          </ns3:TrackPointExtension>
        </extensions>
      </trkpt>
      <trkpt lat="43.127756416797637939453125" lon="13.111016862094402313232421875">
        <ele>534.4000244140625</ele>
        <time>2021-05-21T08:14:51.000Z</time>
        <extensions>
          <ns3:TrackPointExtension>
            <ns3:atemp>18.0</ns3:atemp>
          </ns3:TrackPointExtension>
        </extensions>
      </trkpt>
      <trkpt lat="43.12776521779596805572509765625" lon="13.1110713444650173187255859375">
        <ele>533.5999755859375</ele>
        <time>2021-05-21T08:14:52.000Z</time>
        <extensions>
          <ns3:TrackPointExtension>
            <ns3:atemp>18.0</ns3:atemp>
          </ns3:TrackPointExtension>
        </extensions>
      </trkpt>
      <trkpt lat="43.12777376733720302581787109375" lon="13.1111176125705242156982421875">
        <ele>533</ele>
        <time>2021-05-21T08:14:53.000Z</time>
        <extensions>
          <ns3:TrackPointExtension>
            <ns3:atemp>18.0</ns3:atemp>
          </ns3:TrackPointExtension>
        </extensions>
      </trkpt>
      <trkpt lat="43.1277773715555667877197265625" lon="13.11120562255382537841796875">
        <ele>531.20001220703125</ele>
        <time>2021-05-21T08:14:55.000Z</time>
        <extensions>
          <ns3:TrackPointExtension>
            <ns3:atemp>18.0</ns3:atemp>
          </ns3:TrackPointExtension>
        </extensions>
      </trkpt>
      <trkpt lat="43.12776739709079265594482421875" lon="13.1112825684249401092529296875">
        <ele>529.5999755859375</ele>
        <time>2021-05-21T08:14:57.000Z</time>
        <extensions>
          <ns3:TrackPointExtension>
            <ns3:atemp>18.0</ns3:atemp>
          </ns3:TrackPointExtension>
        </extensions>
      </trkpt>
      <trkpt lat="43.12777007929980754852294921875" lon="13.11154064722359180450439453125">
        <ele>529</ele>
        <time>2021-05-21T08:15:03.000Z</time>
        <extensions>
          <ns3:TrackPointExtension>
            <ns3:atemp>18.0</ns3:atemp>
          </ns3:TrackPointExtension>
        </extensions>
      </trkpt>
      <trkpt lat="43.12784216366708278656005859375" lon="13.1117372028529644012451171875">
        <ele>529.4000244140625</ele>
        <time>2021-05-21T08:15:08.000Z</time>
        <extensions>
          <ns3:TrackPointExtension>
            <ns3:atemp>18.0</ns3:atemp>
          </ns3:TrackPointExtension>
        </extensions>
      </trkpt>
      <trkpt lat="43.127962611615657806396484375" lon="13.11199042014777660369873046875">
        <ele>530</ele>
        <time>2021-05-21T08:15:14.000Z</time>
        <extensions>
          <ns3:TrackPointExtension>
            <ns3:atemp>18.0</ns3:atemp>
          </ns3:TrackPointExtension>
        </extensions>
      </trkpt>
      <trkpt lat="43.12797627411782741546630859375" lon="13.11222058720886707305908203125">
        <ele>530</ele>
        <time>2021-05-21T08:15:18.000Z</time>
        <extensions>
          <ns3:TrackPointExtension>
            <ns3:atemp>18.0</ns3:atemp>
          </ns3:TrackPointExtension>
        </extensions>
      </trkpt>
      <trkpt lat="43.12797174789011478424072265625" lon="13.11228110454976558685302734375">
        <ele>529.79998779296875</ele>
        <time>2021-05-21T08:15:19.000Z</time>
        <extensions>
          <ns3:TrackPointExtension>
            <ns3:atemp>18.0</ns3:atemp>
          </ns3:TrackPointExtension>
        </extensions>
      </trkpt>
      <trkpt lat="43.12796671874821186065673828125" lon="13.11248478479683399200439453125">
        <ele>527.79998779296875</ele>
        <time>2021-05-21T08:15:22.000Z</time>
        <extensions>
          <ns3:TrackPointExtension>
            <ns3:atemp>18.0</ns3:atemp>
          </ns3:TrackPointExtension>
        </extensions>
      </trkpt>
      <trkpt lat="43.12796629965305328369140625" lon="13.11254940927028656005859375">
        <ele>526.5999755859375</ele>
        <time>2021-05-21T08:15:23.000Z</time>
        <extensions>
          <ns3:TrackPointExtension>
            <ns3:atemp>18.0</ns3:atemp>
          </ns3:TrackPointExtension>
        </extensions>
      </trkpt>
      <trkpt lat="43.127947859466075897216796875" lon="13.11268008314073085784912109375">
        <ele>525</ele>
        <time>2021-05-21T08:15:25.000Z</time>
        <extensions>
          <ns3:TrackPointExtension>
            <ns3:atemp>17.0</ns3:atemp>
          </ns3:TrackPointExtension>
        </extensions>
      </trkpt>
      <trkpt lat="43.1279138289391994476318359375" lon="13.11281352303922176361083984375">
        <ele>523.79998779296875</ele>
        <time>2021-05-21T08:15:28.000Z</time>
        <extensions>
          <ns3:TrackPointExtension>
            <ns3:atemp>17.0</ns3:atemp>
          </ns3:TrackPointExtension>
        </extensions>
      </trkpt>
      <trkpt lat="43.12784350477159023284912109375" lon="13.11292357742786407470703125">
        <ele>523.5999755859375</ele>
        <time>2021-05-21T08:15:32.000Z</time>
        <extensions>
          <ns3:TrackPointExtension>
            <ns3:atemp>17.0</ns3:atemp>
          </ns3:TrackPointExtension>
        </extensions>
      </trkpt>
      <trkpt lat="43.12770972959697246551513671875" lon="13.112929277122020721435546875">
        <ele>522.79998779296875</ele>
        <time>2021-05-21T08:15:37.000Z</time>
        <extensions>
          <ns3:TrackPointExtension>
            <ns3:atemp>17.0</ns3:atemp>
          </ns3:TrackPointExtension>
        </extensions>
      </trkpt>
      <trkpt lat="43.12767989002168178558349609375" lon="13.11292500235140323638916015625">
        <ele>522.5999755859375</ele>
        <time>2021-05-21T08:15:38.000Z</time>
        <extensions>
          <ns3:TrackPointExtension>
            <ns3:atemp>17.0</ns3:atemp>
          </ns3:TrackPointExtension>
        </extensions>
      </trkpt>
      <trkpt lat="43.1274893693625926971435546875" lon="13.11290287412703037261962890625">
        <ele>521.79998779296875</ele>
        <time>2021-05-21T08:15:43.000Z</time>
        <extensions>
          <ns3:TrackPointExtension>
            <ns3:atemp>17.0</ns3:atemp>
          </ns3:TrackPointExtension>
        </extensions>
      </trkpt>
      <trkpt lat="43.12745257280766963958740234375" lon="13.1128969229757785797119140625">
        <ele>521.20001220703125</ele>
        <time>2021-05-21T08:15:44.000Z</time>
        <extensions>
          <ns3:TrackPointExtension>
            <ns3:atemp>17.0</ns3:atemp>
          </ns3:TrackPointExtension>
        </extensions>
      </trkpt>
      <trkpt lat="43.12742055393755435943603515625" lon="13.112891055643558502197265625">
        <ele>520.4000244140625</ele>
        <time>2021-05-21T08:15:45.000Z</time>
        <extensions>
          <ns3:TrackPointExtension>
            <ns3:atemp>17.0</ns3:atemp>
          </ns3:TrackPointExtension>
        </extensions>
      </trkpt>
      <trkpt lat="43.12734561972320079803466796875" lon="13.1129079870879650115966796875">
        <ele>518.5999755859375</ele>
        <time>2021-05-21T08:15:47.000Z</time>
        <extensions>
          <ns3:TrackPointExtension>
            <ns3:atemp>17.0</ns3:atemp>
          </ns3:TrackPointExtension>
        </extensions>
      </trkpt>
      <trkpt lat="43.12726833857595920562744140625" lon="13.1129468791186809539794921875">
        <ele>516.5999755859375</ele>
        <time>2021-05-21T08:15:49.000Z</time>
        <extensions>
          <ns3:TrackPointExtension>
            <ns3:atemp>17.0</ns3:atemp>
          </ns3:TrackPointExtension>
        </extensions>
      </trkpt>
      <trkpt lat="43.1272003613412380218505859375" lon="13.11297881416976451873779296875">
        <ele>514.79998779296875</ele>
        <time>2021-05-21T08:15:51.000Z</time>
        <extensions>
          <ns3:TrackPointExtension>
            <ns3:atemp>17.0</ns3:atemp>
          </ns3:TrackPointExtension>
        </extensions>
      </trkpt>
      <trkpt lat="43.12713389284908771514892578125" lon="13.1129837594926357269287109375">
        <ele>513.4000244140625</ele>
        <time>2021-05-21T08:15:53.000Z</time>
        <extensions>
          <ns3:TrackPointExtension>
            <ns3:atemp>17.0</ns3:atemp>
          </ns3:TrackPointExtension>
        </extensions>
      </trkpt>
      <trkpt lat="43.127086199820041656494140625" lon="13.112979568541049957275390625">
        <ele>511.79998779296875</ele>
        <time>2021-05-21T08:15:55.000Z</time>
        <extensions>
          <ns3:TrackPointExtension>
            <ns3:atemp>17.0</ns3:atemp>
          </ns3:TrackPointExtension>
        </extensions>
      </trkpt>
      <trkpt lat="43.127065412700176239013671875" lon="13.11297814361751079559326171875">
        <ele>510</ele>
        <time>2021-05-21T08:15:57.000Z</time>
        <extensions>
          <ns3:TrackPointExtension>
            <ns3:atemp>17.0</ns3:atemp>
          </ns3:TrackPointExtension>
        </extensions>
      </trkpt>
      <trkpt lat="43.12704085372388362884521484375" lon="13.1129832565784454345703125">
        <ele>509</ele>
        <time>2021-05-21T08:15:59.000Z</time>
        <extensions>
          <ns3:TrackPointExtension>
            <ns3:atemp>17.0</ns3:atemp>
          </ns3:TrackPointExtension>
        </extensions>
      </trkpt>
      <trkpt lat="43.1270189769566059112548828125" lon="13.11298300512135028839111328125">
        <ele>507.79998779296875</ele>
        <time>2021-05-21T08:16:01.000Z</time>
        <extensions>
          <ns3:TrackPointExtension>
            <ns3:atemp>17.0</ns3:atemp>
          </ns3:TrackPointExtension>
        </extensions>
      </trkpt>
      <trkpt lat="43.1270089186728000640869140625" lon="13.11298417858779430389404296875">
        <ele>506.20001220703125</ele>
        <time>2021-05-21T08:16:03.000Z</time>
        <extensions>
          <ns3:TrackPointExtension>
            <ns3:atemp>17.0</ns3:atemp>
          </ns3:TrackPointExtension>
        </extensions>
      </trkpt>
      <trkpt lat="43.12697765417397022247314453125" lon="13.11298334039747714996337890625">
        <ele>504.79998779296875</ele>
        <time>2021-05-21T08:16:06.000Z</time>
        <extensions>
          <ns3:TrackPointExtension>
            <ns3:atemp>17.0</ns3:atemp>
          </ns3:TrackPointExtension>
        </extensions>
      </trkpt>
      <trkpt lat="43.1269385106861591339111328125" lon="13.11299733817577362060546875">
        <ele>504.399993896484375</ele>
        <time>2021-05-21T08:16:08.000Z</time>
        <extensions>
          <ns3:TrackPointExtension>
            <ns3:atemp>17.0</ns3:atemp>
          </ns3:TrackPointExtension>
        </extensions>
      </trkpt>
      <trkpt lat="43.12684203498065471649169921875" lon="13.11302726157009601593017578125">
        <ele>503.79998779296875</ele>
        <time>2021-05-21T08:16:11.000Z</time>
        <extensions>
          <ns3:TrackPointExtension>
            <ns3:atemp>17.0</ns3:atemp>
          </ns3:TrackPointExtension>
        </extensions>
      </trkpt>
      <trkpt lat="43.1268107704818248748779296875" lon="13.113039247691631317138671875">
        <ele>503.600006103515625</ele>
        <time>2021-05-21T08:16:12.000Z</time>
        <extensions>
          <ns3:TrackPointExtension>
            <ns3:atemp>17.0</ns3:atemp>
          </ns3:TrackPointExtension>
        </extensions>
      </trkpt>
      <trkpt lat="43.1267175637185573577880859375" lon="13.1130337156355381011962890625">
        <ele>502.399993896484375</ele>
        <time>2021-05-21T08:16:15.000Z</time>
        <extensions>
          <ns3:TrackPointExtension>
            <ns3:atemp>17.0</ns3:atemp>
          </ns3:TrackPointExtension>
        </extensions>
      </trkpt>
      <trkpt lat="43.12668344937264919281005859375" lon="13.11303866095840930938720703125">
        <ele>501.600006103515625</ele>
        <time>2021-05-21T08:16:16.000Z</time>
        <extensions>
          <ns3:TrackPointExtension>
            <ns3:atemp>17.0</ns3:atemp>
          </ns3:TrackPointExtension>
        </extensions>
      </trkpt>
      <trkpt lat="43.12664472497999668121337890625" lon="13.11304620467126369476318359375">
        <ele>500.600006103515625</ele>
        <time>2021-05-21T08:16:17.000Z</time>
        <extensions>
          <ns3:TrackPointExtension>
            <ns3:atemp>17.0</ns3:atemp>
          </ns3:TrackPointExtension>
        </extensions>
      </trkpt>
      <trkpt lat="43.1266039051115512847900390625" lon="13.1130571849644184112548828125">
        <ele>499.399993896484375</ele>
        <time>2021-05-21T08:16:18.000Z</time>
        <extensions>
          <ns3:TrackPointExtension>
            <ns3:atemp>17.0</ns3:atemp>
          </ns3:TrackPointExtension>
        </extensions>
      </trkpt>
      <trkpt lat="43.12656216323375701904296875" lon="13.11307671479880809783935546875">
        <ele>498.399993896484375</ele>
        <time>2021-05-21T08:16:19.000Z</time>
        <extensions>
          <ns3:TrackPointExtension>
            <ns3:atemp>17.0</ns3:atemp>
          </ns3:TrackPointExtension>
        </extensions>
      </trkpt>
      <trkpt lat="43.12652184627950191497802734375" lon="13.113110996782779693603515625">
        <ele>497.399993896484375</ele>
        <time>2021-05-21T08:16:20.000Z</time>
        <extensions>
          <ns3:TrackPointExtension>
            <ns3:atemp>17.0</ns3:atemp>
          </ns3:TrackPointExtension>
        </extensions>
      </trkpt>
      <trkpt lat="43.12649234198033809661865234375" lon="13.1131473742425441741943359375">
        <ele>496.399993896484375</ele>
        <time>2021-05-21T08:16:21.000Z</time>
        <extensions>
          <ns3:TrackPointExtension>
            <ns3:atemp>17.0</ns3:atemp>
          </ns3:TrackPointExtension>
        </extensions>
      </trkpt>
      <trkpt lat="43.1264697946608066558837890625" lon="13.11316790990531444549560546875">
        <ele>495.399993896484375</ele>
        <time>2021-05-21T08:16:22.000Z</time>
        <extensions>
          <ns3:TrackPointExtension>
            <ns3:atemp>17.0</ns3:atemp>
          </ns3:TrackPointExtension>
        </extensions>
      </trkpt>
      <trkpt lat="43.1264443136751651763916015625" lon="13.11317930929362773895263671875">
        <ele>493.20001220703125</ele>
        <time>2021-05-21T08:16:24.000Z</time>
        <extensions>
          <ns3:TrackPointExtension>
            <ns3:atemp>17.0</ns3:atemp>
          </ns3:TrackPointExtension>
        </extensions>
      </trkpt>
      <trkpt lat="43.12643031589686870574951171875" lon="13.11318919993937015533447265625">
        <ele>491.399993896484375</ele>
        <time>2021-05-21T08:16:26.000Z</time>
        <extensions>
          <ns3:TrackPointExtension>
            <ns3:atemp>17.0</ns3:atemp>
          </ns3:TrackPointExtension>
        </extensions>
      </trkpt>
      <trkpt lat="43.12641774304211139678955078125" lon="13.11320428736507892608642578125">
        <ele>490</ele>
        <time>2021-05-21T08:16:28.000Z</time>
        <extensions>
          <ns3:TrackPointExtension>
            <ns3:atemp>17.0</ns3:atemp>
          </ns3:TrackPointExtension>
        </extensions>
      </trkpt>
      <trkpt lat="43.126365356147289276123046875" lon="13.11326681636273860931396484375">
        <ele>489.399993896484375</ele>
        <time>2021-05-21T08:16:33.000Z</time>
        <extensions>
          <ns3:TrackPointExtension>
            <ns3:atemp>17.0</ns3:atemp>
          </ns3:TrackPointExtension>
        </extensions>
      </trkpt>
      <trkpt lat="43.1263571418821811676025390625" lon="13.113408721983432769775390625">
        <ele>489.399993896484375</ele>
        <time>2021-05-21T08:16:38.000Z</time>
        <extensions>
          <ns3:TrackPointExtension>
            <ns3:atemp>17.0</ns3:atemp>
          </ns3:TrackPointExtension>
        </extensions>
      </trkpt>
      <trkpt lat="43.12633509747684001922607421875" lon="13.11359538696706295013427734375">
        <ele>489.600006103515625</ele>
        <time>2021-05-21T08:16:43.000Z</time>
        <extensions>
          <ns3:TrackPointExtension>
            <ns3:atemp>17.0</ns3:atemp>
          </ns3:TrackPointExtension>
        </extensions>
      </trkpt>
      <trkpt lat="43.1263182498514652252197265625" lon="13.1136620230972766876220703125">
        <ele>489.600006103515625</ele>
        <time>2021-05-21T08:16:45.000Z</time>
        <extensions>
          <ns3:TrackPointExtension>
            <ns3:atemp>17.0</ns3:atemp>
          </ns3:TrackPointExtension>
        </extensions>
      </trkpt>
      <trkpt lat="43.126264773309230804443359375" lon="13.11379102058708667755126953125">
        <ele>489.79998779296875</ele>
        <time>2021-05-21T08:16:49.000Z</time>
        <extensions>
          <ns3:TrackPointExtension>
            <ns3:atemp>17.0</ns3:atemp>
          </ns3:TrackPointExtension>
        </extensions>
      </trkpt>
      <trkpt lat="43.12615580856800079345703125" lon="13.11402772553265094757080078125">
        <ele>490.600006103515625</ele>
        <time>2021-05-21T08:16:56.000Z</time>
        <extensions>
          <ns3:TrackPointExtension>
            <ns3:atemp>17.0</ns3:atemp>
          </ns3:TrackPointExtension>
        </extensions>
      </trkpt>
      <trkpt lat="43.12612990848720073699951171875" lon="13.11421380378305912017822265625">
        <ele>490.79998779296875</ele>
        <time>2021-05-21T08:17:01.000Z</time>
        <extensions>
          <ns3:TrackPointExtension>
            <ns3:atemp>17.0</ns3:atemp>
          </ns3:TrackPointExtension>
        </extensions>
      </trkpt>
      <trkpt lat="43.1261321716010570526123046875" lon="13.114290498197078704833984375">
        <ele>491</ele>
        <time>2021-05-21T08:17:03.000Z</time>
        <extensions>
          <ns3:TrackPointExtension>
            <ns3:atemp>17.0</ns3:atemp>
          </ns3:TrackPointExtension>
        </extensions>
      </trkpt>
      <trkpt lat="43.12613376416265964508056640625" lon="13.11444179154932498931884765625">
        <ele>491.399993896484375</ele>
        <time>2021-05-21T08:17:07.000Z</time>
        <extensions>
          <ns3:TrackPointExtension>
            <ns3:atemp>17.0</ns3:atemp>
          </ns3:TrackPointExtension>
        </extensions>
      </trkpt>
      <trkpt lat="43.1261583231389522552490234375" lon="13.1145260296761989593505859375">
        <ele>491.79998779296875</ele>
        <time>2021-05-21T08:17:10.000Z</time>
        <extensions>
          <ns3:TrackPointExtension>
            <ns3:atemp>17.0</ns3:atemp>
          </ns3:TrackPointExtension>
        </extensions>
      </trkpt>
      <trkpt lat="43.12616041861474514007568359375" lon="13.11455813236534595489501953125">
        <ele>491.79998779296875</ele>
        <time>2021-05-21T08:17:11.000Z</time>
        <extensions>
          <ns3:TrackPointExtension>
            <ns3:atemp>17.0</ns3:atemp>
          </ns3:TrackPointExtension>
        </extensions>
      </trkpt>
      <trkpt lat="43.12615907751023769378662109375" lon="13.11461965553462505340576171875">
        <ele>492.20001220703125</ele>
        <time>2021-05-21T08:17:13.000Z</time>
        <extensions>
          <ns3:TrackPointExtension>
            <ns3:atemp>17.0</ns3:atemp>
          </ns3:TrackPointExtension>
        </extensions>
      </trkpt>
      <trkpt lat="43.126188330352306365966796875" lon="13.11478746123611927032470703125">
        <ele>493.20001220703125</ele>
        <time>2021-05-21T08:17:18.000Z</time>
        <extensions>
          <ns3:TrackPointExtension>
            <ns3:atemp>17.0</ns3:atemp>
          </ns3:TrackPointExtension>
        </extensions>
      </trkpt>
      <trkpt lat="43.12623166479170322418212890625" lon="13.11488703824579715728759765625">
        <ele>494.399993896484375</ele>
        <time>2021-05-21T08:17:22.000Z</time>
        <extensions>
          <ns3:TrackPointExtension>
            <ns3:atemp>17.0</ns3:atemp>
          </ns3:TrackPointExtension>
        </extensions>
      </trkpt>
      <trkpt lat="43.1262208521366119384765625" lon="13.1149064004421234130859375">
        <ele>494.79998779296875</ele>
        <time>2021-05-21T08:17:23.000Z</time>
        <extensions>
          <ns3:TrackPointExtension>
            <ns3:atemp>17.0</ns3:atemp>
          </ns3:TrackPointExtension>
        </extensions>
      </trkpt>
      <trkpt lat="43.12621104530990123748779296875" lon="13.11492442153394222259521484375">
        <ele>495.20001220703125</ele>
        <time>2021-05-21T08:17:24.000Z</time>
        <extensions>
          <ns3:TrackPointExtension>
            <ns3:atemp>17.0</ns3:atemp>
          </ns3:TrackPointExtension>
        </extensions>
      </trkpt>
      <trkpt lat="43.12619796954095363616943359375" lon="13.11493917368352413177490234375">
        <ele>495.600006103515625</ele>
        <time>2021-05-21T08:17:25.000Z</time>
        <extensions>
          <ns3:TrackPointExtension>
            <ns3:atemp>17.0</ns3:atemp>
          </ns3:TrackPointExtension>
        </extensions>
      </trkpt>
      <trkpt lat="43.12619612552225589752197265625" lon="13.11496968381106853485107421875">
        <ele>496.600006103515625</ele>
        <time>2021-05-21T08:17:28.000Z</time>
        <extensions>
          <ns3:TrackPointExtension>
            <ns3:atemp>17.0</ns3:atemp>
          </ns3:TrackPointExtension>
        </extensions>
      </trkpt>
      <trkpt lat="43.12619294039905071258544921875" lon="13.1149786524474620819091796875">
        <ele>496.79998779296875</ele>
        <time>2021-05-21T08:17:29.000Z</time>
        <extensions>
          <ns3:TrackPointExtension>
            <ns3:atemp>17.0</ns3:atemp>
          </ns3:TrackPointExtension>
        </extensions>
      </trkpt>
      <trkpt lat="43.12610023654997348785400390625" lon="13.11501008458435535430908203125">
        <ele>497.600006103515625</ele>
        <time>2021-05-21T08:17:34.000Z</time>
        <extensions>
          <ns3:TrackPointExtension>
            <ns3:atemp>17.0</ns3:atemp>
          </ns3:TrackPointExtension>
        </extensions>
      </trkpt>
      <trkpt lat="43.12595875002443790435791015625" lon="13.11507680453360080718994140625">
        <ele>497.600006103515625</ele>
        <time>2021-05-21T08:17:39.000Z</time>
        <extensions>
          <ns3:TrackPointExtension>
            <ns3:atemp>17.0</ns3:atemp>
          </ns3:TrackPointExtension>
        </extensions>
      </trkpt>
      <trkpt lat="43.12585330568253993988037109375" lon="13.1151778064668178558349609375">
        <ele>496.20001220703125</ele>
        <time>2021-05-21T08:17:44.000Z</time>
        <extensions>
          <ns3:TrackPointExtension>
            <ns3:atemp>17.0</ns3:atemp>
          </ns3:TrackPointExtension>
        </extensions>
      </trkpt>
      <trkpt lat="43.125736378133296966552734375" lon="13.11526187695562839508056640625">
        <ele>496</ele>
        <time>2021-05-21T08:17:49.000Z</time>
        <extensions>
          <ns3:TrackPointExtension>
            <ns3:atemp>17.0</ns3:atemp>
          </ns3:TrackPointExtension>
        </extensions>
      </trkpt>
      <trkpt lat="43.12561743892729282379150390625" lon="13.1153213046491146087646484375">
        <ele>496</ele>
        <time>2021-05-21T08:17:55.000Z</time>
        <extensions>
          <ns3:TrackPointExtension>
            <ns3:atemp>17.0</ns3:atemp>
          </ns3:TrackPointExtension>
        </extensions>
      </trkpt>
      <trkpt lat="43.1255102343857288360595703125" lon="13.1153900362551212310791015625">
        <ele>497</ele>
        <time>2021-05-21T08:18:00.000Z</time>
        <extensions>
          <ns3:TrackPointExtension>
            <ns3:atemp>17.0</ns3:atemp>
          </ns3:TrackPointExtension>
        </extensions>
      </trkpt>
      <trkpt lat="43.12543471343815326690673828125" lon="13.11539917252957820892333984375">
        <ele>497.600006103515625</ele>
        <time>2021-05-21T08:18:03.000Z</time>
        <extensions>
          <ns3:TrackPointExtension>
            <ns3:atemp>17.0</ns3:atemp>
          </ns3:TrackPointExtension>
        </extensions>
      </trkpt>
      <trkpt lat="43.12540437094867229461669921875" lon="13.11536614783108234405517578125">
        <ele>498</ele>
        <time>2021-05-21T08:18:05.000Z</time>
        <extensions>
          <ns3:TrackPointExtension>
            <ns3:atemp>17.0</ns3:atemp>
          </ns3:TrackPointExtension>
        </extensions>
      </trkpt>
      <trkpt lat="43.12539196573197841644287109375" lon="13.115350641310214996337890625">
        <ele>498.399993896484375</ele>
        <time>2021-05-21T08:18:06.000Z</time>
        <extensions>
          <ns3:TrackPointExtension>
            <ns3:atemp>17.0</ns3:atemp>
          </ns3:TrackPointExtension>
        </extensions>
      </trkpt>
      <trkpt lat="43.12538467347621917724609375" lon="13.11533245258033275604248046875">
        <ele>498.79998779296875</ele>
        <time>2021-05-21T08:18:07.000Z</time>
        <extensions>
          <ns3:TrackPointExtension>
            <ns3:atemp>17.0</ns3:atemp>
          </ns3:TrackPointExtension>
        </extensions>
      </trkpt>
      <trkpt lat="43.12536682002246379852294921875" lon="13.1152658164501190185546875">
        <ele>500</ele>
        <time>2021-05-21T08:18:10.000Z</time>
        <extensions>
          <ns3:TrackPointExtension>
            <ns3:atemp>17.0</ns3:atemp>
          </ns3:TrackPointExtension>
        </extensions>
      </trkpt>
      <trkpt lat="43.1253633834421634674072265625" lon="13.1151746213436126708984375">
        <ele>501.399993896484375</ele>
        <time>2021-05-21T08:18:13.000Z</time>
        <extensions>
          <ns3:TrackPointExtension>
            <ns3:atemp>17.0</ns3:atemp>
          </ns3:TrackPointExtension>
        </extensions>
      </trkpt>
      <trkpt lat="43.1253633834421634674072265625" lon="13.11508233658969402313232421875">
        <ele>502</ele>
        <time>2021-05-21T08:18:16.000Z</time>
        <extensions>
          <ns3:TrackPointExtension>
            <ns3:atemp>17.0</ns3:atemp>
          </ns3:TrackPointExtension>
        </extensions>
      </trkpt>
      <trkpt lat="43.12534385360777378082275390625" lon="13.11494420282542705535888671875">
        <ele>502.20001220703125</ele>
        <time>2021-05-21T08:18:21.000Z</time>
        <extensions>
          <ns3:TrackPointExtension>
            <ns3:atemp>17.0</ns3:atemp>
          </ns3:TrackPointExtension>
        </extensions>
      </trkpt>
      <trkpt lat="43.1252631358802318572998046875" lon="13.11474471352994441986083984375">
        <ele>502</ele>
        <time>2021-05-21T08:18:27.000Z</time>
        <extensions>
          <ns3:TrackPointExtension>
            <ns3:atemp>17.0</ns3:atemp>
          </ns3:TrackPointExtension>
        </extensions>
      </trkpt>
      <trkpt lat="43.1251313723623752593994140625" lon="13.11458042822778224945068359375">
        <ele>501.20001220703125</ele>
        <time>2021-05-21T08:18:32.000Z</time>
        <extensions>
          <ns3:TrackPointExtension>
            <ns3:atemp>17.0</ns3:atemp>
          </ns3:TrackPointExtension>
        </extensions>
      </trkpt>
      <trkpt lat="43.1250338070094585418701171875" lon="13.11449493281543254852294921875">
        <ele>499.79998779296875</ele>
        <time>2021-05-21T08:18:35.000Z</time>
        <extensions>
          <ns3:TrackPointExtension>
            <ns3:atemp>17.0</ns3:atemp>
          </ns3:TrackPointExtension>
        </extensions>
      </trkpt>
      <trkpt lat="43.12493867240846157073974609375" lon="13.11443743295967578887939453125">
        <ele>498.79998779296875</ele>
        <time>2021-05-21T08:18:38.000Z</time>
        <extensions>
          <ns3:TrackPointExtension>
            <ns3:atemp>17.0</ns3:atemp>
          </ns3:TrackPointExtension>
        </extensions>
      </trkpt>
      <trkpt lat="43.12478846870362758636474609375" lon="13.11436593532562255859375">
        <ele>497.79998779296875</ele>
        <time>2021-05-21T08:18:43.000Z</time>
        <extensions>
          <ns3:TrackPointExtension>
            <ns3:atemp>17.0</ns3:atemp>
          </ns3:TrackPointExtension>
        </extensions>
      </trkpt>
      <trkpt lat="43.1247510015964508056640625" lon="13.11436283402144908905029296875">
        <ele>497.79998779296875</ele>
        <time>2021-05-21T08:18:44.000Z</time>
        <extensions>
          <ns3:TrackPointExtension>
            <ns3:atemp>17.0</ns3:atemp>
          </ns3:TrackPointExtension>
        </extensions>
      </trkpt>
      <trkpt lat="43.12457975931465625762939453125" lon="13.1143422983586788177490234375">
        <ele>497.600006103515625</ele>
        <time>2021-05-21T08:18:48.000Z</time>
        <extensions>
          <ns3:TrackPointExtension>
            <ns3:atemp>17.0</ns3:atemp>
          </ns3:TrackPointExtension>
        </extensions>
      </trkpt>
      <trkpt lat="43.124477081000804901123046875" lon="13.11430835165083408355712890625">
        <ele>497.399993896484375</ele>
        <time>2021-05-21T08:18:50.000Z</time>
        <extensions>
          <ns3:TrackPointExtension>
            <ns3:atemp>17.0</ns3:atemp>
          </ns3:TrackPointExtension>
        </extensions>
      </trkpt>
      <trkpt lat="43.1242754124104976654052734375" lon="13.11428186483681201934814453125">
        <ele>496.600006103515625</ele>
        <time>2021-05-21T08:18:53.000Z</time>
        <extensions>
          <ns3:TrackPointExtension>
            <ns3:atemp>17.0</ns3:atemp>
          </ns3:TrackPointExtension>
        </extensions>
      </trkpt>
      <trkpt lat="43.1241288967430591583251953125" lon="13.11418949626386165618896484375">
        <ele>495.399993896484375</ele>
        <time>2021-05-21T08:18:56.000Z</time>
        <extensions>
          <ns3:TrackPointExtension>
            <ns3:atemp>17.0</ns3:atemp>
          </ns3:TrackPointExtension>
        </extensions>
      </trkpt>
      <trkpt lat="43.12406544573605060577392578125" lon="13.1141124665737152099609375">
        <ele>494.20001220703125</ele>
        <time>2021-05-21T08:18:58.000Z</time>
        <extensions>
          <ns3:TrackPointExtension>
            <ns3:atemp>17.0</ns3:atemp>
          </ns3:TrackPointExtension>
        </extensions>
      </trkpt>
      <trkpt lat="43.12404516153037548065185546875" lon="13.1140834651887416839599609375">
        <ele>494</ele>
        <time>2021-05-21T08:18:59.000Z</time>
        <extensions>
          <ns3:TrackPointExtension>
            <ns3:atemp>17.0</ns3:atemp>
          </ns3:TrackPointExtension>
        </extensions>
      </trkpt>
      <trkpt lat="43.123949356377124786376953125" lon="13.1139651127159595489501953125">
        <ele>493.79998779296875</ele>
        <time>2021-05-21T08:19:03.000Z</time>
        <extensions>
          <ns3:TrackPointExtension>
            <ns3:atemp>17.0</ns3:atemp>
          </ns3:TrackPointExtension>
        </extensions>
      </trkpt>
      <trkpt lat="43.12388406135141849517822265625" lon="13.11377107165753841400146484375">
        <ele>494</ele>
        <time>2021-05-21T08:19:08.000Z</time>
        <extensions>
          <ns3:TrackPointExtension>
            <ns3:atemp>17.0</ns3:atemp>
          </ns3:TrackPointExtension>
        </extensions>
      </trkpt>
      <trkpt lat="43.12379303388297557830810546875" lon="13.113649450242519378662109375">
        <ele>495</ele>
        <time>2021-05-21T08:19:14.000Z</time>
        <extensions>
          <ns3:TrackPointExtension>
            <ns3:atemp>17.0</ns3:atemp>
          </ns3:TrackPointExtension>
        </extensions>
      </trkpt>
      <trkpt lat="43.12376906163990497589111328125" lon="13.1136403977870941162109375">
        <ele>495.399993896484375</ele>
        <time>2021-05-21T08:19:15.000Z</time>
        <extensions>
          <ns3:TrackPointExtension>
            <ns3:atemp>17.0</ns3:atemp>
          </ns3:TrackPointExtension>
        </extensions>
      </trkpt>
      <trkpt lat="43.123624138534069061279296875" lon="13.11366931535303592681884765625">
        <ele>496.600006103515625</ele>
        <time>2021-05-21T08:19:18.000Z</time>
        <extensions>
          <ns3:TrackPointExtension>
            <ns3:atemp>17.0</ns3:atemp>
          </ns3:TrackPointExtension>
        </extensions>
      </trkpt>
      <trkpt lat="43.123579882085323333740234375" lon="13.11368708498775959014892578125">
        <ele>496.79998779296875</ele>
        <time>2021-05-21T08:19:19.000Z</time>
        <extensions>
          <ns3:TrackPointExtension>
            <ns3:atemp>17.0</ns3:atemp>
          </ns3:TrackPointExtension>
        </extensions>
      </trkpt>
      <trkpt lat="43.123530931770801544189453125" lon="13.1137059442698955535888671875">
        <ele>497.399993896484375</ele>
        <time>2021-05-21T08:19:21.000Z</time>
        <extensions>
          <ns3:TrackPointExtension>
            <ns3:atemp>17.0</ns3:atemp>
          </ns3:TrackPointExtension>
        </extensions>
      </trkpt>
      <trkpt lat="43.12350201420485973358154296875" lon="13.113719522953033447265625">
        <ele>497.79998779296875</ele>
        <time>2021-05-21T08:19:22.000Z</time>
        <extensions>
          <ns3:TrackPointExtension>
            <ns3:atemp>17.0</ns3:atemp>
          </ns3:TrackPointExtension>
        </extensions>
      </trkpt>
      <trkpt lat="43.12339455820620059967041015625" lon="13.11374693177640438079833984375">
        <ele>498.600006103515625</ele>
        <time>2021-05-21T08:19:25.000Z</time>
        <extensions>
          <ns3:TrackPointExtension>
            <ns3:atemp>17.0</ns3:atemp>
          </ns3:TrackPointExtension>
        </extensions>
      </trkpt>
      <trkpt lat="43.12332683242857456207275390625" lon="13.1137820519506931304931640625">
        <ele>498.79998779296875</ele>
        <time>2021-05-21T08:19:27.000Z</time>
        <extensions>
          <ns3:TrackPointExtension>
            <ns3:atemp>17.0</ns3:atemp>
          </ns3:TrackPointExtension>
        </extensions>
      </trkpt>
      <trkpt lat="43.1232625432312488555908203125" lon="13.11382739804685115814208984375">
        <ele>499</ele>
        <time>2021-05-21T08:19:30.000Z</time>
        <extensions>
          <ns3:TrackPointExtension>
            <ns3:atemp>17.0</ns3:atemp>
          </ns3:TrackPointExtension>
        </extensions>
      </trkpt>
      <trkpt lat="43.12313203699886798858642578125" lon="13.113894872367382049560546875">
        <ele>499.399993896484375</ele>
        <time>2021-05-21T08:19:35.000Z</time>
        <extensions>
          <ns3:TrackPointExtension>
            <ns3:atemp>17.0</ns3:atemp>
          </ns3:TrackPointExtension>
        </extensions>
      </trkpt>
      <trkpt lat="43.12291762791574001312255859375" lon="13.113966286182403564453125">
        <ele>499.399993896484375</ele>
        <time>2021-05-21T08:19:43.000Z</time>
        <extensions>
          <ns3:TrackPointExtension>
            <ns3:atemp>17.0</ns3:atemp>
          </ns3:TrackPointExtension>
        </extensions>
      </trkpt>
      <trkpt lat="43.122823499143123626708984375" lon="13.1140455789864063262939453125">
        <ele>500</ele>
        <time>2021-05-21T08:19:47.000Z</time>
        <extensions>
          <ns3:TrackPointExtension>
            <ns3:atemp>17.0</ns3:atemp>
          </ns3:TrackPointExtension>
        </extensions>
      </trkpt>
      <trkpt lat="43.1227777339518070220947265625" lon="13.11407298780977725982666015625">
        <ele>500.20001220703125</ele>
        <time>2021-05-21T08:19:49.000Z</time>
        <extensions>
          <ns3:TrackPointExtension>
            <ns3:atemp>17.0</ns3:atemp>
          </ns3:TrackPointExtension>
        </extensions>
      </trkpt>
      <trkpt lat="43.122640438377857208251953125" lon="13.11413451097905635833740234375">
        <ele>501.20001220703125</ele>
        <time>2021-05-21T08:19:54.000Z</time>
        <extensions>
          <ns3:TrackPointExtension>
            <ns3:atemp>17.0</ns3:atemp>
          </ns3:TrackPointExtension>
        </extensions>
      </trkpt>
      <trkpt lat="43.12256508506834506988525390625" lon="13.11417340300977230072021484375">
        <ele>502.399993896484375</ele>
        <time>2021-05-21T08:19:56.000Z</time>
        <extensions>
          <ns3:TrackPointExtension>
            <ns3:atemp>17.0</ns3:atemp>
          </ns3:TrackPointExtension>
        </extensions>
      </trkpt>
      <trkpt lat="43.1224523484706878662109375" lon="13.11428974382579326629638671875">
        <ele>503.20001220703125</ele>
        <time>2021-05-21T08:20:00.000Z</time>
        <extensions>
          <ns3:TrackPointExtension>
            <ns3:atemp>17.0</ns3:atemp>
          </ns3:TrackPointExtension>
        </extensions>
      </trkpt>
      <trkpt lat="43.122374229133129119873046875" lon="13.114376999437808990478515625">
        <ele>503.399993896484375</ele>
        <time>2021-05-21T08:20:03.000Z</time>
        <extensions>
          <ns3:TrackPointExtension>
            <ns3:atemp>17.0</ns3:atemp>
          </ns3:TrackPointExtension>
        </extensions>
      </trkpt>
      <trkpt lat="43.12230683863162994384765625" lon="13.1144616566598415374755859375">
        <ele>503.600006103515625</ele>
        <time>2021-05-21T08:20:06.000Z</time>
        <extensions>
          <ns3:TrackPointExtension>
            <ns3:atemp>17.0</ns3:atemp>
          </ns3:TrackPointExtension>
        </extensions>
      </trkpt>
      <trkpt lat="43.12215127050876617431640625" lon="13.11459585092961788177490234375">
        <ele>503.600006103515625</ele>
        <time>2021-05-21T08:20:11.000Z</time>
        <extensions>
          <ns3:TrackPointExtension>
            <ns3:atemp>17.0</ns3:atemp>
          </ns3:TrackPointExtension>
        </extensions>
      </trkpt>
      <trkpt lat="43.12197692692279815673828125" lon="13.1146755628287792205810546875">
        <ele>504.399993896484375</ele>
        <time>2021-05-21T08:20:17.000Z</time>
        <extensions>
          <ns3:TrackPointExtension>
            <ns3:atemp>17.0</ns3:atemp>
          </ns3:TrackPointExtension>
        </extensions>
      </trkpt>
      <trkpt lat="43.1218998134136199951171875" lon="13.1146849505603313446044921875">
        <ele>506</ele>
        <time>2021-05-21T08:20:20.000Z</time>
        <extensions>
          <ns3:TrackPointExtension>
            <ns3:atemp>17.0</ns3:atemp>
          </ns3:TrackPointExtension>
        </extensions>
      </trkpt>
      <trkpt lat="43.1218272261321544647216796875" lon="13.11467246152460575103759765625">
        <ele>507.399993896484375</ele>
        <time>2021-05-21T08:20:23.000Z</time>
        <extensions>
          <ns3:TrackPointExtension>
            <ns3:atemp>17.0</ns3:atemp>
          </ns3:TrackPointExtension>
        </extensions>
      </trkpt>
      <trkpt lat="43.12173963524401187896728515625" lon="13.11467246152460575103759765625">
        <ele>508.79998779296875</ele>
        <time>2021-05-21T08:20:26.000Z</time>
        <extensions>
          <ns3:TrackPointExtension>
            <ns3:atemp>17.0</ns3:atemp>
          </ns3:TrackPointExtension>
        </extensions>
      </trkpt>
      <trkpt lat="43.12171130441129207611083984375" lon="13.11468134634196758270263671875">
        <ele>509.600006103515625</ele>
        <time>2021-05-21T08:20:28.000Z</time>
        <extensions>
          <ns3:TrackPointExtension>
            <ns3:atemp>17.0</ns3:atemp>
          </ns3:TrackPointExtension>
        </extensions>
      </trkpt>
      <trkpt lat="43.12170309014618396759033203125" lon="13.11468352563679218292236328125">
        <ele>509.79998779296875</ele>
        <time>2021-05-21T08:20:29.000Z</time>
        <extensions>
          <ns3:TrackPointExtension>
            <ns3:atemp>17.0</ns3:atemp>
          </ns3:TrackPointExtension>
        </extensions>
      </trkpt>
      <trkpt lat="43.12168967910110950469970703125" lon="13.114682100713253021240234375">
        <ele>511.20001220703125</ele>
        <time>2021-05-21T08:20:32.000Z</time>
        <extensions>
          <ns3:TrackPointExtension>
            <ns3:atemp>17.0</ns3:atemp>
          </ns3:TrackPointExtension>
        </extensions>
      </trkpt>
      <trkpt lat="43.12168917618691921234130859375" lon="13.11467916704714298248291015625">
        <ele>512.20001220703125</ele>
        <time>2021-05-21T08:20:36.000Z</time>
        <extensions>
          <ns3:TrackPointExtension>
            <ns3:atemp>17.0</ns3:atemp>
          </ns3:TrackPointExtension>
        </extensions>
      </trkpt>
      <trkpt lat="43.12168917618691921234130859375" lon="13.11467732302844524383544921875">
        <ele>512.4000244140625</ele>
        <time>2021-05-21T08:20:38.000Z</time>
        <extensions>
          <ns3:TrackPointExtension>
            <ns3:atemp>17.0</ns3:atemp>
          </ns3:TrackPointExtension>
        </extensions>
      </trkpt>
      <trkpt lat="43.12168682925403118133544921875" lon="13.1146748922765254974365234375">
        <ele>512.4000244140625</ele>
        <time>2021-05-21T08:20:51.000Z</time>
        <extensions>
          <ns3:TrackPointExtension>
            <ns3:atemp>17.0</ns3:atemp>
          </ns3:TrackPointExtension>
        </extensions>
      </trkpt>
      <trkpt lat="43.12159337103366851806640625" lon="13.1146691925823688507080078125">
        <ele>512.4000244140625</ele>
        <time>2021-05-21T08:20:57.000Z</time>
        <extensions>
          <ns3:TrackPointExtension>
            <ns3:atemp>17.0</ns3:atemp>
          </ns3:TrackPointExtension>
        </extensions>
      </trkpt>
      <trkpt lat="43.1214265711605548858642578125" lon="13.11470297165215015411376953125">
        <ele>512.4000244140625</ele>
        <time>2021-05-21T08:21:03.000Z</time>
        <extensions>
          <ns3:TrackPointExtension>
            <ns3:atemp>17.0</ns3:atemp>
          </ns3:TrackPointExtension>
        </extensions>
      </trkpt>
      <trkpt lat="43.121232278645038604736328125" lon="13.114695511758327484130859375">
        <ele>512.4000244140625</ele>
        <time>2021-05-21T08:21:09.000Z</time>
        <extensions>
          <ns3:TrackPointExtension>
            <ns3:atemp>17.0</ns3:atemp>
          </ns3:TrackPointExtension>
        </extensions>
      </trkpt>
      <trkpt lat="43.1209672428667545318603515625" lon="13.11464446596801280975341796875">
        <ele>511.79998779296875</ele>
        <time>2021-05-21T08:21:16.000Z</time>
        <extensions>
          <ns3:TrackPointExtension>
            <ns3:atemp>17.0</ns3:atemp>
          </ns3:TrackPointExtension>
        </extensions>
      </trkpt>
      <trkpt lat="43.1208006106317043304443359375" lon="13.114523850381374359130859375">
        <ele>511.600006103515625</ele>
        <time>2021-05-21T08:21:21.000Z</time>
        <extensions>
          <ns3:TrackPointExtension>
            <ns3:atemp>17.0</ns3:atemp>
          </ns3:TrackPointExtension>
        </extensions>
      </trkpt>
      <trkpt lat="43.1206956692039966583251953125" lon="13.114390075206756591796875">
        <ele>511.600006103515625</ele>
        <time>2021-05-21T08:21:27.000Z</time>
        <extensions>
          <ns3:TrackPointExtension>
            <ns3:atemp>17.0</ns3:atemp>
          </ns3:TrackPointExtension>
        </extensions>
      </trkpt>
      <trkpt lat="43.1206661649048328399658203125" lon="13.11436685733497142791748046875">
        <ele>512.4000244140625</ele>
        <time>2021-05-21T08:21:32.000Z</time>
        <extensions>
          <ns3:TrackPointExtension>
            <ns3:atemp>17.0</ns3:atemp>
          </ns3:TrackPointExtension>
        </extensions>
      </trkpt>
      <trkpt lat="43.12066121958196163177490234375" lon="13.11436124145984649658203125">
        <ele>513.4000244140625</ele>
        <time>2021-05-21T08:21:37.000Z</time>
        <extensions>
          <ns3:TrackPointExtension>
            <ns3:atemp>17.0</ns3:atemp>
          </ns3:TrackPointExtension>
        </extensions>
      </trkpt>
      <trkpt lat="43.12066054902970790863037109375" lon="13.114360235631465911865234375">
        <ele>513.4000244140625</ele>
        <time>2021-05-21T08:21:46.000Z</time>
        <extensions>
          <ns3:TrackPointExtension>
            <ns3:atemp>17.0</ns3:atemp>
          </ns3:TrackPointExtension>
        </extensions>
      </trkpt>
      <trkpt lat="43.120644204318523406982421875" lon="13.114358894526958465576171875">
        <ele>513.79998779296875</ele>
        <time>2021-05-21T08:22:13.000Z</time>
        <extensions>
          <ns3:TrackPointExtension>
            <ns3:atemp>17.0</ns3:atemp>
          </ns3:TrackPointExtension>
        </extensions>
      </trkpt>
      <trkpt lat="43.12063171528279781341552734375" lon="13.1143557094037532806396484375">
        <ele>513.79998779296875</ele>
        <time>2021-05-21T08:22:14.000Z</time>
        <extensions>
          <ns3:TrackPointExtension>
            <ns3:atemp>17.0</ns3:atemp>
          </ns3:TrackPointExtension>
        </extensions>
      </trkpt>
      <trkpt lat="43.12057622708380222320556640625" lon="13.11434104107320308685302734375">
        <ele>513.79998779296875</ele>
        <time>2021-05-21T08:22:16.000Z</time>
        <extensions>
          <ns3:TrackPointExtension>
            <ns3:atemp>17.0</ns3:atemp>
          </ns3:TrackPointExtension>
        </extensions>
      </trkpt>
      <trkpt lat="43.12041562981903553009033203125" lon="13.11420039273798465728759765625">
        <ele>513.5999755859375</ele>
        <time>2021-05-21T08:22:20.000Z</time>
        <extensions>
          <ns3:TrackPointExtension>
            <ns3:atemp>17.0</ns3:atemp>
          </ns3:TrackPointExtension>
        </extensions>
      </trkpt>
      <trkpt lat="43.1203882209956645965576171875" lon="13.114155717194080352783203125">
        <ele>513.5999755859375</ele>
        <time>2021-05-21T08:22:21.000Z</time>
        <extensions>
          <ns3:TrackPointExtension>
            <ns3:atemp>17.0</ns3:atemp>
          </ns3:TrackPointExtension>
        </extensions>
      </trkpt>
      <trkpt lat="43.1203268654644489288330078125" lon="13.1140244565904140472412109375">
        <ele>511.79998779296875</ele>
        <time>2021-05-21T08:22:24.000Z</time>
        <extensions>
          <ns3:TrackPointExtension>
            <ns3:atemp>17.0</ns3:atemp>
          </ns3:TrackPointExtension>
        </extensions>
      </trkpt>
      <trkpt lat="43.12031261622905731201171875" lon="13.1139622628688812255859375">
        <ele>510.399993896484375</ele>
        <time>2021-05-21T08:22:25.000Z</time>
        <extensions>
          <ns3:TrackPointExtension>
            <ns3:atemp>17.0</ns3:atemp>
          </ns3:TrackPointExtension>
        </extensions>
      </trkpt>
      <trkpt lat="43.12030297704041004180908203125" lon="13.113885819911956787109375">
        <ele>509</ele>
        <time>2021-05-21T08:22:26.000Z</time>
        <extensions>
          <ns3:TrackPointExtension>
            <ns3:atemp>17.0</ns3:atemp>
          </ns3:TrackPointExtension>
        </extensions>
      </trkpt>
      <trkpt lat="43.12029828317463397979736328125" lon="13.113796301186084747314453125">
        <ele>507.600006103515625</ele>
        <time>2021-05-21T08:22:27.000Z</time>
        <extensions>
          <ns3:TrackPointExtension>
            <ns3:atemp>17.0</ns3:atemp>
          </ns3:TrackPointExtension>
        </extensions>
      </trkpt>
      <trkpt lat="43.12029576860368251800537109375" lon="13.11369337141513824462890625">
        <ele>507</ele>
        <time>2021-05-21T08:22:28.000Z</time>
        <extensions>
          <ns3:TrackPointExtension>
            <ns3:atemp>17.0</ns3:atemp>
          </ns3:TrackPointExtension>
        </extensions>
      </trkpt>
      <trkpt lat="43.1202963553369045257568359375" lon="13.11358214356005191802978515625">
        <ele>506</ele>
        <time>2021-05-21T08:22:29.000Z</time>
        <extensions>
          <ns3:TrackPointExtension>
            <ns3:atemp>17.0</ns3:atemp>
          </ns3:TrackPointExtension>
        </extensions>
      </trkpt>
      <trkpt lat="43.120291493833065032958984375" lon="13.1133453547954559326171875">
        <ele>504.399993896484375</ele>
        <time>2021-05-21T08:22:31.000Z</time>
        <extensions>
          <ns3:TrackPointExtension>
            <ns3:atemp>17.0</ns3:atemp>
          </ns3:TrackPointExtension>
        </extensions>
      </trkpt>
      <trkpt lat="43.120286129415035247802734375" lon="13.11322222463786602020263671875">
        <ele>503.399993896484375</ele>
        <time>2021-05-21T08:22:32.000Z</time>
        <extensions>
          <ns3:TrackPointExtension>
            <ns3:atemp>17.0</ns3:atemp>
          </ns3:TrackPointExtension>
        </extensions>
      </trkpt>
      <trkpt lat="43.12027984298765659332275390625" lon="13.113095574080944061279296875">
        <ele>502.20001220703125</ele>
        <time>2021-05-21T08:22:33.000Z</time>
        <extensions>
          <ns3:TrackPointExtension>
            <ns3:atemp>17.0</ns3:atemp>
          </ns3:TrackPointExtension>
        </extensions>
      </trkpt>
      <trkpt lat="43.120267353951930999755859375" lon="13.1129716895520687103271484375">
        <ele>501</ele>
        <time>2021-05-21T08:22:34.000Z</time>
        <extensions>
          <ns3:TrackPointExtension>
            <ns3:atemp>17.0</ns3:atemp>
          </ns3:TrackPointExtension>
        </extensions>
      </trkpt>
      <trkpt lat="43.12024287879467010498046875" lon="13.112856857478618621826171875">
        <ele>499.79998779296875</ele>
        <time>2021-05-21T08:22:35.000Z</time>
        <extensions>
          <ns3:TrackPointExtension>
            <ns3:atemp>17.0</ns3:atemp>
          </ns3:TrackPointExtension>
        </extensions>
      </trkpt>
      <trkpt lat="43.120203651487827301025390625" lon="13.1127527542412281036376953125">
        <ele>499</ele>
        <time>2021-05-21T08:22:36.000Z</time>
        <extensions>
          <ns3:TrackPointExtension>
            <ns3:atemp>17.0</ns3:atemp>
          </ns3:TrackPointExtension>
        </extensions>
      </trkpt>
      <trkpt lat="43.12014791183173656463623046875" lon="13.11267119832336902618408203125">
        <ele>498</ele>
        <time>2021-05-21T08:22:37.000Z</time>
        <extensions>
          <ns3:TrackPointExtension>
            <ns3:atemp>17.0</ns3:atemp>
          </ns3:TrackPointExtension>
        </extensions>
      </trkpt>
      <trkpt lat="43.1200422160327434539794921875" lon="13.1125391833484172821044921875">
        <ele>496.399993896484375</ele>
        <time>2021-05-21T08:22:39.000Z</time>
        <extensions>
          <ns3:TrackPointExtension>
            <ns3:atemp>17.0</ns3:atemp>
          </ns3:TrackPointExtension>
        </extensions>
      </trkpt>
      <trkpt lat="43.1199498474597930908203125" lon="13.1124127842485904693603515625">
        <ele>495.600006103515625</ele>
        <time>2021-05-21T08:22:42.000Z</time>
        <extensions>
          <ns3:TrackPointExtension>
            <ns3:atemp>17.0</ns3:atemp>
          </ns3:TrackPointExtension>
        </extensions>
      </trkpt>
      <trkpt lat="43.11986125074326992034912109375" lon="13.11230809427797794342041015625">
        <ele>495.399993896484375</ele>
        <time>2021-05-21T08:22:47.000Z</time>
        <extensions>
          <ns3:TrackPointExtension>
            <ns3:atemp>17.0</ns3:atemp>
          </ns3:TrackPointExtension>
        </extensions>
      </trkpt>
      <trkpt lat="43.11975848861038684844970703125" lon="13.1122387759387493133544921875">
        <ele>498</ele>
        <time>2021-05-21T08:22:51.000Z</time>
        <extensions>
          <ns3:TrackPointExtension>
            <ns3:atemp>17.0</ns3:atemp>
          </ns3:TrackPointExtension>
        </extensions>
      </trkpt>
      <trkpt lat="43.1197237037122249603271484375" lon="13.11222477816045284271240234375">
        <ele>498.600006103515625</ele>
        <time>2021-05-21T08:22:52.000Z</time>
        <extensions>
          <ns3:TrackPointExtension>
            <ns3:atemp>17.0</ns3:atemp>
          </ns3:TrackPointExtension>
        </extensions>
      </trkpt>
      <trkpt lat="43.11968858353793621063232421875" lon="13.11221103183925151824951171875">
        <ele>499</ele>
        <time>2021-05-21T08:22:53.000Z</time>
        <extensions>
          <ns3:TrackPointExtension>
            <ns3:atemp>17.0</ns3:atemp>
          </ns3:TrackPointExtension>
        </extensions>
      </trkpt>
      <trkpt lat="43.11952530406415462493896484375" lon="13.1121303141117095947265625">
        <ele>500.20001220703125</ele>
        <time>2021-05-21T08:22:58.000Z</time>
        <extensions>
          <ns3:TrackPointExtension>
            <ns3:atemp>17.0</ns3:atemp>
          </ns3:TrackPointExtension>
        </extensions>
      </trkpt>
      <trkpt lat="43.1193518824875354766845703125" lon="13.1120111234486103057861328125">
        <ele>500.399993896484375</ele>
        <time>2021-05-21T08:23:04.000Z</time>
        <extensions>
          <ns3:TrackPointExtension>
            <ns3:atemp>17.0</ns3:atemp>
          </ns3:TrackPointExtension>
        </extensions>
      </trkpt>
      <trkpt lat="43.1191765330731868743896484375" lon="13.11183284036815166473388671875">
        <ele>500.399993896484375</ele>
        <time>2021-05-21T08:23:11.000Z</time>
        <extensions>
          <ns3:TrackPointExtension>
            <ns3:atemp>17.0</ns3:atemp>
          </ns3:TrackPointExtension>
        </extensions>
      </trkpt>
      <trkpt lat="43.1189713440835475921630859375" lon="13.11172270216047763824462890625">
        <ele>500.399993896484375</ele>
        <time>2021-05-21T08:23:17.000Z</time>
        <extensions>
          <ns3:TrackPointExtension>
            <ns3:atemp>17.0</ns3:atemp>
          </ns3:TrackPointExtension>
        </extensions>
      </trkpt>
      <trkpt lat="43.11875282786786556243896484375" lon="13.1117988936603069305419921875">
        <ele>500.20001220703125</ele>
        <time>2021-05-21T08:23:21.000Z</time>
        <extensions>
          <ns3:TrackPointExtension>
            <ns3:atemp>18.0</ns3:atemp>
          </ns3:TrackPointExtension>
        </extensions>
      </trkpt>
      <trkpt lat="43.118457533419132232666015625" lon="13.11192068271338939666748046875">
        <ele>499</ele>
        <time>2021-05-21T08:23:26.000Z</time>
        <extensions>
          <ns3:TrackPointExtension>
            <ns3:atemp>18.0</ns3:atemp>
          </ns3:TrackPointExtension>
        </extensions>
      </trkpt>
      <trkpt lat="43.118339516222476959228515625" lon="13.1119769252836704254150390625">
        <ele>497.399993896484375</ele>
        <time>2021-05-21T08:23:28.000Z</time>
        <extensions>
          <ns3:TrackPointExtension>
            <ns3:atemp>18.0</ns3:atemp>
          </ns3:TrackPointExtension>
        </extensions>
      </trkpt>
      <trkpt lat="43.118277154862880706787109375" lon="13.11200383119285106658935546875">
        <ele>496.399993896484375</ele>
        <time>2021-05-21T08:23:29.000Z</time>
        <extensions>
          <ns3:TrackPointExtension>
            <ns3:atemp>18.0</ns3:atemp>
          </ns3:TrackPointExtension>
        </extensions>
      </trkpt>
      <trkpt lat="43.1182144582271575927734375" lon="13.11203232966363430023193359375">
        <ele>495.399993896484375</ele>
        <time>2021-05-21T08:23:30.000Z</time>
        <extensions>
          <ns3:TrackPointExtension>
            <ns3:atemp>18.0</ns3:atemp>
          </ns3:TrackPointExtension>
        </extensions>
      </trkpt>
      <trkpt lat="43.11815117485821247100830078125" lon="13.1120637618005275726318359375">
        <ele>494.399993896484375</ele>
        <time>2021-05-21T08:23:31.000Z</time>
        <extensions>
          <ns3:TrackPointExtension>
            <ns3:atemp>18.0</ns3:atemp>
          </ns3:TrackPointExtension>
        </extensions>
      </trkpt>
      <trkpt lat="43.1180218420922756195068359375" lon="13.11213903129100799560546875">
        <ele>492.79998779296875</ele>
        <time>2021-05-21T08:23:33.000Z</time>
        <extensions>
          <ns3:TrackPointExtension>
            <ns3:atemp>18.0</ns3:atemp>
          </ns3:TrackPointExtension>
        </extensions>
      </trkpt>
      <trkpt lat="43.117961995303630828857421875" lon="13.11217666603624820709228515625">
        <ele>492.600006103515625</ele>
        <time>2021-05-21T08:23:34.000Z</time>
        <extensions>
          <ns3:TrackPointExtension>
            <ns3:atemp>18.0</ns3:atemp>
          </ns3:TrackPointExtension>
        </extensions>
      </trkpt>
      <trkpt lat="43.117790333926677703857421875" lon="13.11230340041220188140869140625">
        <ele>491.600006103515625</ele>
        <time>2021-05-21T08:23:37.000Z</time>
        <extensions>
          <ns3:TrackPointExtension>
            <ns3:atemp>18.0</ns3:atemp>
          </ns3:TrackPointExtension>
        </extensions>
      </trkpt>
      <trkpt lat="43.11767659150063991546630859375" lon="13.11239845119416713714599609375">
        <ele>490.399993896484375</ele>
        <time>2021-05-21T08:23:39.000Z</time>
        <extensions>
          <ns3:TrackPointExtension>
            <ns3:atemp>18.0</ns3:atemp>
          </ns3:TrackPointExtension>
        </extensions>
      </trkpt>
      <trkpt lat="43.11756662093102931976318359375" lon="13.112497441470623016357421875">
        <ele>488.79998779296875</ele>
        <time>2021-05-21T08:23:41.000Z</time>
        <extensions>
          <ns3:TrackPointExtension>
            <ns3:atemp>18.0</ns3:atemp>
          </ns3:TrackPointExtension>
        </extensions>
      </trkpt>
      <trkpt lat="43.11745396815240383148193359375" lon="13.11259659938514232635498046875">
        <ele>487.20001220703125</ele>
        <time>2021-05-21T08:23:43.000Z</time>
        <extensions>
          <ns3:TrackPointExtension>
            <ns3:atemp>18.0</ns3:atemp>
          </ns3:TrackPointExtension>
        </extensions>
      </trkpt>
      <trkpt lat="43.11734165064990520477294921875" lon="13.11269902624189853668212890625">
        <ele>486</ele>
        <time>2021-05-21T08:23:45.000Z</time>
        <extensions>
          <ns3:TrackPointExtension>
            <ns3:atemp>18.0</ns3:atemp>
          </ns3:TrackPointExtension>
        </extensions>
      </trkpt>
      <trkpt lat="43.11723067425191402435302734375" lon="13.1127903051674365997314453125">
        <ele>485</ele>
        <time>2021-05-21T08:23:47.000Z</time>
        <extensions>
          <ns3:TrackPointExtension>
            <ns3:atemp>18.0</ns3:atemp>
          </ns3:TrackPointExtension>
        </extensions>
      </trkpt>
      <trkpt lat="43.1171779520809650421142578125" lon="13.1128295324742794036865234375">
        <ele>484.399993896484375</ele>
        <time>2021-05-21T08:23:48.000Z</time>
        <extensions>
          <ns3:TrackPointExtension>
            <ns3:atemp>18.0</ns3:atemp>
          </ns3:TrackPointExtension>
        </extensions>
      </trkpt>
      <trkpt lat="43.1171279959380626678466796875" lon="13.11285794712603092193603515625">
        <ele>483.600006103515625</ele>
        <time>2021-05-21T08:23:49.000Z</time>
        <extensions>
          <ns3:TrackPointExtension>
            <ns3:atemp>18.0</ns3:atemp>
          </ns3:TrackPointExtension>
        </extensions>
      </trkpt>
      <trkpt lat="43.11702246777713298797607421875" lon="13.11288946308195590972900390625">
        <ele>482.20001220703125</ele>
        <time>2021-05-21T08:23:51.000Z</time>
        <extensions>
          <ns3:TrackPointExtension>
            <ns3:atemp>18.0</ns3:atemp>
          </ns3:TrackPointExtension>
        </extensions>
      </trkpt>
      <trkpt lat="43.11691023409366607666015625" lon="13.11286113224923610687255859375">
        <ele>480.399993896484375</ele>
        <time>2021-05-21T08:23:53.000Z</time>
        <extensions>
          <ns3:TrackPointExtension>
            <ns3:atemp>18.0</ns3:atemp>
          </ns3:TrackPointExtension>
        </extensions>
      </trkpt>
      <trkpt lat="43.1168036162853240966796875" lon="13.112776391208171844482421875">
        <ele>479.20001220703125</ele>
        <time>2021-05-21T08:23:55.000Z</time>
        <extensions>
          <ns3:TrackPointExtension>
            <ns3:atemp>18.0</ns3:atemp>
          </ns3:TrackPointExtension>
        </extensions>
      </trkpt>
      <trkpt lat="43.1167095713317394256591796875" lon="13.11264890246093273162841796875">
        <ele>478.399993896484375</ele>
        <time>2021-05-21T08:23:57.000Z</time>
        <extensions>
          <ns3:TrackPointExtension>
            <ns3:atemp>18.0</ns3:atemp>
          </ns3:TrackPointExtension>
        </extensions>
      </trkpt>
      <trkpt lat="43.11663438566029071807861328125" lon="13.11248579062521457672119140625">
        <ele>478</ele>
        <time>2021-05-21T08:23:59.000Z</time>
        <extensions>
          <ns3:TrackPointExtension>
            <ns3:atemp>18.0</ns3:atemp>
          </ns3:TrackPointExtension>
        </extensions>
      </trkpt>
      <trkpt lat="43.11658543534576892852783203125" lon="13.11229837127029895782470703125">
        <ele>477.20001220703125</ele>
        <time>2021-05-21T08:24:01.000Z</time>
        <extensions>
          <ns3:TrackPointExtension>
            <ns3:atemp>18.0</ns3:atemp>
          </ns3:TrackPointExtension>
        </extensions>
      </trkpt>
      <trkpt lat="43.11656749807298183441162109375" lon="13.112195022404193878173828125">
        <ele>476.600006103515625</ele>
        <time>2021-05-21T08:24:02.000Z</time>
        <extensions>
          <ns3:TrackPointExtension>
            <ns3:atemp>18.0</ns3:atemp>
          </ns3:TrackPointExtension>
        </extensions>
      </trkpt>
      <trkpt lat="43.116550482809543609619140625" lon="13.11198371462523937225341796875">
        <ele>475.20001220703125</ele>
        <time>2021-05-21T08:24:04.000Z</time>
        <extensions>
          <ns3:TrackPointExtension>
            <ns3:atemp>18.0</ns3:atemp>
          </ns3:TrackPointExtension>
        </extensions>
      </trkpt>
      <trkpt lat="43.1165446154773235321044921875" lon="13.11187357641756534576416015625">
        <ele>474.20001220703125</ele>
        <time>2021-05-21T08:24:05.000Z</time>
        <extensions>
          <ns3:TrackPointExtension>
            <ns3:atemp>18.0</ns3:atemp>
          </ns3:TrackPointExtension>
        </extensions>
      </trkpt>
      <trkpt lat="43.11653598211705684661865234375" lon="13.1117643602192401885986328125">
        <ele>473.399993896484375</ele>
        <time>2021-05-21T08:24:06.000Z</time>
        <extensions>
          <ns3:TrackPointExtension>
            <ns3:atemp>18.0</ns3:atemp>
          </ns3:TrackPointExtension>
        </extensions>
      </trkpt>
      <trkpt lat="43.1165221519768238067626953125" lon="13.11153888702392578125">
        <ele>471.600006103515625</ele>
        <time>2021-05-21T08:24:08.000Z</time>
        <extensions>
          <ns3:TrackPointExtension>
            <ns3:atemp>18.0</ns3:atemp>
          </ns3:TrackPointExtension>
        </extensions>
      </trkpt>
      <trkpt lat="43.116498179733753204345703125" lon="13.1113053672015666961669921875">
        <ele>470.20001220703125</ele>
        <time>2021-05-21T08:24:10.000Z</time>
        <extensions>
          <ns3:TrackPointExtension>
            <ns3:atemp>18.0</ns3:atemp>
          </ns3:TrackPointExtension>
        </extensions>
      </trkpt>
      <trkpt lat="43.11648351140320301055908203125" lon="13.1111890263855457305908203125">
        <ele>469.79998779296875</ele>
        <time>2021-05-21T08:24:11.000Z</time>
        <extensions>
          <ns3:TrackPointExtension>
            <ns3:atemp>18.0</ns3:atemp>
          </ns3:TrackPointExtension>
        </extensions>
      </trkpt>
      <trkpt lat="43.1164544261991977691650390625" lon="13.11097227036952972412109375">
        <ele>469</ele>
        <time>2021-05-21T08:24:13.000Z</time>
        <extensions>
          <ns3:TrackPointExtension>
            <ns3:atemp>18.0</ns3:atemp>
          </ns3:TrackPointExtension>
        </extensions>
      </trkpt>
      <trkpt lat="43.11640757136046886444091796875" lon="13.1106847710907459259033203125">
        <ele>467.79998779296875</ele>
        <time>2021-05-21T08:24:16.000Z</time>
        <extensions>
          <ns3:TrackPointExtension>
            <ns3:atemp>18.0</ns3:atemp>
          </ns3:TrackPointExtension>
        </extensions>
      </trkpt>
      <trkpt lat="43.11638309620320796966552734375" lon="13.110599778592586517333984375">
        <ele>467.600006103515625</ele>
        <time>2021-05-21T08:24:17.000Z</time>
        <extensions>
          <ns3:TrackPointExtension>
            <ns3:atemp>18.0</ns3:atemp>
          </ns3:TrackPointExtension>
        </extensions>
      </trkpt>
      <trkpt lat="43.11629676260054111480712890625" lon="13.110452592372894287109375">
        <ele>467.399993896484375</ele>
        <time>2021-05-21T08:24:19.000Z</time>
        <extensions>
          <ns3:TrackPointExtension>
            <ns3:atemp>18.0</ns3:atemp>
          </ns3:TrackPointExtension>
        </extensions>
      </trkpt>
      <trkpt lat="43.11609073542058467864990234375" lon="13.11032057739794254302978515625">
        <ele>467</ele>
        <time>2021-05-21T08:24:22.000Z</time>
        <extensions>
          <ns3:TrackPointExtension>
            <ns3:atemp>18.0</ns3:atemp>
          </ns3:TrackPointExtension>
        </extensions>
      </trkpt>
      <trkpt lat="43.11593181453645229339599609375" lon="13.11032661236822605133056640625">
        <ele>466.79998779296875</ele>
        <time>2021-05-21T08:24:24.000Z</time>
        <extensions>
          <ns3:TrackPointExtension>
            <ns3:atemp>18.0</ns3:atemp>
          </ns3:TrackPointExtension>
        </extensions>
      </trkpt>
      <trkpt lat="43.11585553921759128570556640625" lon="13.11036600731313228607177734375">
        <ele>466.79998779296875</ele>
        <time>2021-05-21T08:24:25.000Z</time>
        <extensions>
          <ns3:TrackPointExtension>
            <ns3:atemp>18.0</ns3:atemp>
          </ns3:TrackPointExtension>
        </extensions>
      </trkpt>
      <trkpt lat="43.11574908904731273651123046875" lon="13.11051889322698116302490234375">
        <ele>465.600006103515625</ele>
        <time>2021-05-21T08:24:27.000Z</time>
        <extensions>
          <ns3:TrackPointExtension>
            <ns3:atemp>18.0</ns3:atemp>
          </ns3:TrackPointExtension>
        </extensions>
      </trkpt>
      <trkpt lat="43.11571120284497737884521484375" lon="13.11061562038958072662353515625">
        <ele>464.399993896484375</ele>
        <time>2021-05-21T08:24:28.000Z</time>
        <extensions>
          <ns3:TrackPointExtension>
            <ns3:atemp>18.0</ns3:atemp>
          </ns3:TrackPointExtension>
        </extensions>
      </trkpt>
      <trkpt lat="43.11567063443362712860107421875" lon="13.11085802502930164337158203125">
        <ele>463</ele>
        <time>2021-05-21T08:24:30.000Z</time>
        <extensions>
          <ns3:TrackPointExtension>
            <ns3:atemp>18.0</ns3:atemp>
          </ns3:TrackPointExtension>
        </extensions>
      </trkpt>
      <trkpt lat="43.11564465053379535675048828125" lon="13.1111142598092555999755859375">
        <ele>461.399993896484375</ele>
        <time>2021-05-21T08:24:32.000Z</time>
        <extensions>
          <ns3:TrackPointExtension>
            <ns3:atemp>18.0</ns3:atemp>
          </ns3:TrackPointExtension>
        </extensions>
      </trkpt>
      <trkpt lat="43.11559301801025867462158203125" lon="13.1114890985190868377685546875">
        <ele>460.20001220703125</ele>
        <time>2021-05-21T08:24:35.000Z</time>
        <extensions>
          <ns3:TrackPointExtension>
            <ns3:atemp>18.0</ns3:atemp>
          </ns3:TrackPointExtension>
        </extensions>
      </trkpt>
      <trkpt lat="43.11555462889373302459716796875" lon="13.1117298267781734466552734375">
        <ele>458.79998779296875</ele>
        <time>2021-05-21T08:24:37.000Z</time>
        <extensions>
          <ns3:TrackPointExtension>
            <ns3:atemp>18.0</ns3:atemp>
          </ns3:TrackPointExtension>
        </extensions>
      </trkpt>
      <trkpt lat="43.1155099533498287200927734375" lon="13.11196074821054935455322265625">
        <ele>456.600006103515625</ele>
        <time>2021-05-21T08:24:39.000Z</time>
        <extensions>
          <ns3:TrackPointExtension>
            <ns3:atemp>18.0</ns3:atemp>
          </ns3:TrackPointExtension>
        </extensions>
      </trkpt>
      <trkpt lat="43.115486986935138702392578125" lon="13.11207407154142856597900390625">
        <ele>455.600006103515625</ele>
        <time>2021-05-21T08:24:40.000Z</time>
        <extensions>
          <ns3:TrackPointExtension>
            <ns3:atemp>18.0</ns3:atemp>
          </ns3:TrackPointExtension>
        </extensions>
      </trkpt>
      <trkpt lat="43.11545320786535739898681640625" lon="13.1122907437384128570556640625">
        <ele>454</ele>
        <time>2021-05-21T08:24:42.000Z</time>
        <extensions>
          <ns3:TrackPointExtension>
            <ns3:atemp>18.0</ns3:atemp>
          </ns3:TrackPointExtension>
        </extensions>
      </trkpt>
      <trkpt lat="43.1154234521090984344482421875" lon="13.1126157939434051513671875">
        <ele>453</ele>
        <time>2021-05-21T08:24:45.000Z</time>
        <extensions>
          <ns3:TrackPointExtension>
            <ns3:atemp>18.0</ns3:atemp>
          </ns3:TrackPointExtension>
        </extensions>
      </trkpt>
      <trkpt lat="43.11541900970041751861572265625" lon="13.11272450722754001617431640625">
        <ele>452.600006103515625</ele>
        <time>2021-05-21T08:24:46.000Z</time>
        <extensions>
          <ns3:TrackPointExtension>
            <ns3:atemp>18.0</ns3:atemp>
          </ns3:TrackPointExtension>
        </extensions>
      </trkpt>
      <trkpt lat="43.115442730486392974853515625" lon="13.11293137259781360626220703125">
        <ele>452</ele>
        <time>2021-05-21T08:24:48.000Z</time>
        <extensions>
          <ns3:TrackPointExtension>
            <ns3:atemp>18.0</ns3:atemp>
          </ns3:TrackPointExtension>
        </extensions>
      </trkpt>
      <trkpt lat="43.11548992060124874114990234375" lon="13.11301703564822673797607421875">
        <ele>451.600006103515625</ele>
        <time>2021-05-21T08:24:49.000Z</time>
        <extensions>
          <ns3:TrackPointExtension>
            <ns3:atemp>18.0</ns3:atemp>
          </ns3:TrackPointExtension>
        </extensions>
      </trkpt>
      <trkpt lat="43.115563094615936279296875" lon="13.1130967475473880767822265625">
        <ele>451.20001220703125</ele>
        <time>2021-05-21T08:24:50.000Z</time>
        <extensions>
          <ns3:TrackPointExtension>
            <ns3:atemp>18.0</ns3:atemp>
          </ns3:TrackPointExtension>
        </extensions>
      </trkpt>
      <trkpt lat="43.115740120410919189453125" lon="13.1132516451179981231689453125">
        <ele>450.399993896484375</ele>
        <time>2021-05-21T08:24:52.000Z</time>
        <extensions>
          <ns3:TrackPointExtension>
            <ns3:atemp>18.0</ns3:atemp>
          </ns3:TrackPointExtension>
        </extensions>
      </trkpt>
      <trkpt lat="43.11582687310874462127685546875" lon="13.1133351288735866546630859375">
        <ele>449.79998779296875</ele>
        <time>2021-05-21T08:24:53.000Z</time>
        <extensions>
          <ns3:TrackPointExtension>
            <ns3:atemp>18.0</ns3:atemp>
          </ns3:TrackPointExtension>
        </extensions>
      </trkpt>
      <trkpt lat="43.11597959138453006744384765625" lon="13.1135259009897708892822265625">
        <ele>449</ele>
        <time>2021-05-21T08:24:55.000Z</time>
        <extensions>
          <ns3:TrackPointExtension>
            <ns3:atemp>18.0</ns3:atemp>
          </ns3:TrackPointExtension>
        </extensions>
      </trkpt>
      <trkpt lat="43.11611722223460674285888671875" lon="13.11373201198875904083251953125">
        <ele>446.600006103515625</ele>
        <time>2021-05-21T08:24:57.000Z</time>
        <extensions>
          <ns3:TrackPointExtension>
            <ns3:atemp>18.0</ns3:atemp>
          </ns3:TrackPointExtension>
        </extensions>
      </trkpt>
      <trkpt lat="43.1161840260028839111328125" lon="13.11384634114801883697509765625">
        <ele>444.79998779296875</ele>
        <time>2021-05-21T08:24:58.000Z</time>
        <extensions>
          <ns3:TrackPointExtension>
            <ns3:atemp>18.0</ns3:atemp>
          </ns3:TrackPointExtension>
        </extensions>
      </trkpt>
      <trkpt lat="43.11624261550605297088623046875" lon="13.11396586708724498748779296875">
        <ele>442.600006103515625</ele>
        <time>2021-05-21T08:24:59.000Z</time>
        <extensions>
          <ns3:TrackPointExtension>
            <ns3:atemp>18.0</ns3:atemp>
          </ns3:TrackPointExtension>
        </extensions>
      </trkpt>
      <trkpt lat="43.11630028299987316131591796875" lon="13.11408497393131256103515625">
        <ele>440.79998779296875</ele>
        <time>2021-05-21T08:25:00.000Z</time>
        <extensions>
          <ns3:TrackPointExtension>
            <ns3:atemp>18.0</ns3:atemp>
          </ns3:TrackPointExtension>
        </extensions>
      </trkpt>
      <trkpt lat="43.11635727994143962860107421875" lon="13.11420693062245845794677734375">
        <ele>439.20001220703125</ele>
        <time>2021-05-21T08:25:01.000Z</time>
        <extensions>
          <ns3:TrackPointExtension>
            <ns3:atemp>18.0</ns3:atemp>
          </ns3:TrackPointExtension>
        </extensions>
      </trkpt>
      <trkpt lat="43.1164074875414371490478515625" lon="13.11432880349457263946533203125">
        <ele>437.79998779296875</ele>
        <time>2021-05-21T08:25:02.000Z</time>
        <extensions>
          <ns3:TrackPointExtension>
            <ns3:atemp>18.0</ns3:atemp>
          </ns3:TrackPointExtension>
        </extensions>
      </trkpt>
      <trkpt lat="43.11645652167499065399169921875" lon="13.1144482456147670745849609375">
        <ele>436.399993896484375</ele>
        <time>2021-05-21T08:25:03.000Z</time>
        <extensions>
          <ns3:TrackPointExtension>
            <ns3:atemp>18.0</ns3:atemp>
          </ns3:TrackPointExtension>
        </extensions>
      </trkpt>
      <trkpt lat="43.11650731600821018218994140625" lon="13.1145603954792022705078125">
        <ele>434.79998779296875</ele>
        <time>2021-05-21T08:25:04.000Z</time>
        <extensions>
          <ns3:TrackPointExtension>
            <ns3:atemp>18.0</ns3:atemp>
          </ns3:TrackPointExtension>
        </extensions>
      </trkpt>
      <trkpt lat="43.11656062491238117218017578125" lon="13.1146703660488128662109375">
        <ele>433.399993896484375</ele>
        <time>2021-05-21T08:25:05.000Z</time>
        <extensions>
          <ns3:TrackPointExtension>
            <ns3:atemp>18.0</ns3:atemp>
          </ns3:TrackPointExtension>
        </extensions>
      </trkpt>
      <trkpt lat="43.11662114225327968597412109375" lon="13.11476650647819042205810546875">
        <ele>432.20001220703125</ele>
        <time>2021-05-21T08:25:06.000Z</time>
        <extensions>
          <ns3:TrackPointExtension>
            <ns3:atemp>18.0</ns3:atemp>
          </ns3:TrackPointExtension>
        </extensions>
      </trkpt>
      <trkpt lat="43.116688616573810577392578125" lon="13.1148532591760158538818359375">
        <ele>431.20001220703125</ele>
        <time>2021-05-21T08:25:07.000Z</time>
        <extensions>
          <ns3:TrackPointExtension>
            <ns3:atemp>18.0</ns3:atemp>
          </ns3:TrackPointExtension>
        </extensions>
      </trkpt>
      <trkpt lat="43.11675877310335636138916015625" lon="13.11493716202676296234130859375">
        <ele>430.399993896484375</ele>
        <time>2021-05-21T08:25:08.000Z</time>
        <extensions>
          <ns3:TrackPointExtension>
            <ns3:atemp>18.0</ns3:atemp>
          </ns3:TrackPointExtension>
        </extensions>
      </trkpt>
      <trkpt lat="43.1169150955975055694580078125" lon="13.11506272293627262115478515625">
        <ele>429.20001220703125</ele>
        <time>2021-05-21T08:25:10.000Z</time>
        <extensions>
          <ns3:TrackPointExtension>
            <ns3:atemp>18.0</ns3:atemp>
          </ns3:TrackPointExtension>
        </extensions>
      </trkpt>
      <trkpt lat="43.117214329540729522705078125" lon="13.115130700170993804931640625">
        <ele>428.20001220703125</ele>
        <time>2021-05-21T08:25:13.000Z</time>
        <extensions>
          <ns3:TrackPointExtension>
            <ns3:atemp>18.0</ns3:atemp>
          </ns3:TrackPointExtension>
        </extensions>
      </trkpt>
      <trkpt lat="43.11730921268463134765625" lon="13.1151424348354339599609375">
        <ele>427.79998779296875</ele>
        <time>2021-05-21T08:25:14.000Z</time>
        <extensions>
          <ns3:TrackPointExtension>
            <ns3:atemp>18.0</ns3:atemp>
          </ns3:TrackPointExtension>
        </extensions>
      </trkpt>
      <trkpt lat="43.11750040389597415924072265625" lon="13.11517319642007350921630859375">
        <ele>426.399993896484375</ele>
        <time>2021-05-21T08:25:16.000Z</time>
        <extensions>
          <ns3:TrackPointExtension>
            <ns3:atemp>18.0</ns3:atemp>
          </ns3:TrackPointExtension>
        </extensions>
      </trkpt>
      <trkpt lat="43.1176486797630786895751953125" lon="13.11527260579168796539306640625">
        <ele>425.399993896484375</ele>
        <time>2021-05-21T08:25:18.000Z</time>
        <extensions>
          <ns3:TrackPointExtension>
            <ns3:atemp>18.0</ns3:atemp>
          </ns3:TrackPointExtension>
        </extensions>
      </trkpt>
      <trkpt lat="43.117709867656230926513671875" lon="13.11535541899502277374267578125">
        <ele>425</ele>
        <time>2021-05-21T08:25:19.000Z</time>
        <extensions>
          <ns3:TrackPointExtension>
            <ns3:atemp>18.0</ns3:atemp>
          </ns3:TrackPointExtension>
        </extensions>
      </trkpt>
      <trkpt lat="43.11780952848494052886962890625" lon="13.1155751086771488189697265625">
        <ele>423.600006103515625</ele>
        <time>2021-05-21T08:25:21.000Z</time>
        <extensions>
          <ns3:TrackPointExtension>
            <ns3:atemp>18.0</ns3:atemp>
          </ns3:TrackPointExtension>
        </extensions>
      </trkpt>
      <trkpt lat="43.11783568002283573150634765625" lon="13.11570578254759311676025390625">
        <ele>422.600006103515625</ele>
        <time>2021-05-21T08:25:22.000Z</time>
        <extensions>
          <ns3:TrackPointExtension>
            <ns3:atemp>18.0</ns3:atemp>
          </ns3:TrackPointExtension>
        </extensions>
      </trkpt>
      <trkpt lat="43.1178582273423671722412109375" lon="13.1159781105816364288330078125">
        <ele>421.20001220703125</ele>
        <time>2021-05-21T08:25:24.000Z</time>
        <extensions>
          <ns3:TrackPointExtension>
            <ns3:atemp>18.0</ns3:atemp>
          </ns3:TrackPointExtension>
        </extensions>
      </trkpt>
      <trkpt lat="43.117821514606475830078125" lon="13.11624825932085514068603515625">
        <ele>419.79998779296875</ele>
        <time>2021-05-21T08:25:26.000Z</time>
        <extensions>
          <ns3:TrackPointExtension>
            <ns3:atemp>18.0</ns3:atemp>
          </ns3:TrackPointExtension>
        </extensions>
      </trkpt>
      <trkpt lat="43.1177948601543903350830078125" lon="13.11637734062969684600830078125">
        <ele>419</ele>
        <time>2021-05-21T08:25:27.000Z</time>
        <extensions>
          <ns3:TrackPointExtension>
            <ns3:atemp>18.0</ns3:atemp>
          </ns3:TrackPointExtension>
        </extensions>
      </trkpt>
      <trkpt lat="43.1177720613777637481689453125" lon="13.11650407500565052032470703125">
        <ele>417.79998779296875</ele>
        <time>2021-05-21T08:25:28.000Z</time>
        <extensions>
          <ns3:TrackPointExtension>
            <ns3:atemp>18.0</ns3:atemp>
          </ns3:TrackPointExtension>
        </extensions>
      </trkpt>
      <trkpt lat="43.11775236390531063079833984375" lon="13.11662913300096988677978515625">
        <ele>416.399993896484375</ele>
        <time>2021-05-21T08:25:29.000Z</time>
        <extensions>
          <ns3:TrackPointExtension>
            <ns3:atemp>18.0</ns3:atemp>
          </ns3:TrackPointExtension>
        </extensions>
      </trkpt>
      <trkpt lat="43.1177368573844432830810546875" lon="13.11675335280597209930419921875">
        <ele>415</ele>
        <time>2021-05-21T08:25:30.000Z</time>
        <extensions>
          <ns3:TrackPointExtension>
            <ns3:atemp>18.0</ns3:atemp>
          </ns3:TrackPointExtension>
        </extensions>
      </trkpt>
      <trkpt lat="43.117726631462574005126953125" lon="13.11687891371548175811767578125">
        <ele>413.399993896484375</ele>
        <time>2021-05-21T08:25:31.000Z</time>
        <extensions>
          <ns3:TrackPointExtension>
            <ns3:atemp>18.0</ns3:atemp>
          </ns3:TrackPointExtension>
        </extensions>
      </trkpt>
      <trkpt lat="43.11772017739713191986083984375" lon="13.11700782738626003265380859375">
        <ele>412.20001220703125</ele>
        <time>2021-05-21T08:25:32.000Z</time>
        <extensions>
          <ns3:TrackPointExtension>
            <ns3:atemp>18.0</ns3:atemp>
          </ns3:TrackPointExtension>
        </extensions>
      </trkpt>
      <trkpt lat="43.1177210994064807891845703125" lon="13.11713523231446743011474609375">
        <ele>411.600006103515625</ele>
        <time>2021-05-21T08:25:33.000Z</time>
        <extensions>
          <ns3:TrackPointExtension>
            <ns3:atemp>18.0</ns3:atemp>
          </ns3:TrackPointExtension>
        </extensions>
      </trkpt>
      <trkpt lat="43.1177304871380329132080078125" lon="13.11726246960461139678955078125">
        <ele>410.600006103515625</ele>
        <time>2021-05-21T08:25:34.000Z</time>
        <extensions>
          <ns3:TrackPointExtension>
            <ns3:atemp>18.0</ns3:atemp>
          </ns3:TrackPointExtension>
        </extensions>
      </trkpt>
      <trkpt lat="43.1177462451159954071044921875" lon="13.117391131818294525146484375">
        <ele>409</ele>
        <time>2021-05-21T08:25:35.000Z</time>
        <extensions>
          <ns3:TrackPointExtension>
            <ns3:atemp>18.0</ns3:atemp>
          </ns3:TrackPointExtension>
        </extensions>
      </trkpt>
      <trkpt lat="43.117765523493289947509765625" lon="13.11752130277454853057861328125">
        <ele>407.79998779296875</ele>
        <time>2021-05-21T08:25:36.000Z</time>
        <extensions>
          <ns3:TrackPointExtension>
            <ns3:atemp>18.0</ns3:atemp>
          </ns3:TrackPointExtension>
        </extensions>
      </trkpt>
      <trkpt lat="43.11780315823853015899658203125" lon="13.1177852489054203033447265625">
        <ele>406.20001220703125</ele>
        <time>2021-05-21T08:25:38.000Z</time>
        <extensions>
          <ns3:TrackPointExtension>
            <ns3:atemp>18.0</ns3:atemp>
          </ns3:TrackPointExtension>
        </extensions>
      </trkpt>
      <trkpt lat="43.1178438104689121246337890625" lon="13.118034191429615020751953125">
        <ele>404.79998779296875</ele>
        <time>2021-05-21T08:25:40.000Z</time>
        <extensions>
          <ns3:TrackPointExtension>
            <ns3:atemp>18.0</ns3:atemp>
          </ns3:TrackPointExtension>
        </extensions>
      </trkpt>
      <trkpt lat="43.11786015518009662628173828125" lon="13.118160255253314971923828125">
        <ele>404.20001220703125</ele>
        <time>2021-05-21T08:25:41.000Z</time>
        <extensions>
          <ns3:TrackPointExtension>
            <ns3:atemp>18.0</ns3:atemp>
          </ns3:TrackPointExtension>
        </extensions>
      </trkpt>
      <trkpt lat="43.11786719597876071929931640625" lon="13.1184102036058902740478515625">
        <ele>403.600006103515625</ele>
        <time>2021-05-21T08:25:43.000Z</time>
        <extensions>
          <ns3:TrackPointExtension>
            <ns3:atemp>18.0</ns3:atemp>
          </ns3:TrackPointExtension>
        </extensions>
      </trkpt>
      <trkpt lat="43.117845989763736724853515625" lon="13.1185322441160678863525390625">
        <ele>402.79998779296875</ele>
        <time>2021-05-21T08:25:44.000Z</time>
        <extensions>
          <ns3:TrackPointExtension>
            <ns3:atemp>18.0</ns3:atemp>
          </ns3:TrackPointExtension>
        </extensions>
      </trkpt>
      <trkpt lat="43.11780299060046672821044921875" lon="13.1186412088572978973388671875">
        <ele>402</ele>
        <time>2021-05-21T08:25:45.000Z</time>
        <extensions>
          <ns3:TrackPointExtension>
            <ns3:atemp>18.0</ns3:atemp>
          </ns3:TrackPointExtension>
        </extensions>
      </trkpt>
      <trkpt lat="43.11773610301315784454345703125" lon="13.11872997321188449859619140625">
        <ele>400.79998779296875</ele>
        <time>2021-05-21T08:25:46.000Z</time>
        <extensions>
          <ns3:TrackPointExtension>
            <ns3:atemp>18.0</ns3:atemp>
          </ns3:TrackPointExtension>
        </extensions>
      </trkpt>
      <trkpt lat="43.11764876358211040496826171875" lon="13.11880029737949371337890625">
        <ele>399.79998779296875</ele>
        <time>2021-05-21T08:25:47.000Z</time>
        <extensions>
          <ns3:TrackPointExtension>
            <ns3:atemp>18.0</ns3:atemp>
          </ns3:TrackPointExtension>
        </extensions>
      </trkpt>
      <trkpt lat="43.1174414791166782379150390625" lon="13.11891940422356128692626953125">
        <ele>398.20001220703125</ele>
        <time>2021-05-21T08:25:49.000Z</time>
        <extensions>
          <ns3:TrackPointExtension>
            <ns3:atemp>18.0</ns3:atemp>
          </ns3:TrackPointExtension>
        </extensions>
      </trkpt>
      <trkpt lat="43.1172225438058376312255859375" lon="13.11904446221888065338134765625">
        <ele>396.20001220703125</ele>
        <time>2021-05-21T08:25:51.000Z</time>
        <extensions>
          <ns3:TrackPointExtension>
            <ns3:atemp>18.0</ns3:atemp>
          </ns3:TrackPointExtension>
        </extensions>
      </trkpt>
      <trkpt lat="43.11711274087429046630859375" lon="13.11910447664558887481689453125">
        <ele>393.79998779296875</ele>
        <time>2021-05-21T08:25:52.000Z</time>
        <extensions>
          <ns3:TrackPointExtension>
            <ns3:atemp>18.0</ns3:atemp>
          </ns3:TrackPointExtension>
        </extensions>
      </trkpt>
      <trkpt lat="43.11700285412371158599853515625" lon="13.1191608868539333343505859375">
        <ele>391.79998779296875</ele>
        <time>2021-05-21T08:25:53.000Z</time>
        <extensions>
          <ns3:TrackPointExtension>
            <ns3:atemp>18.0</ns3:atemp>
          </ns3:TrackPointExtension>
        </extensions>
      </trkpt>
      <trkpt lat="43.11689455993473529815673828125" lon="13.11921729706227779388427734375">
        <ele>389.600006103515625</ele>
        <time>2021-05-21T08:25:54.000Z</time>
        <extensions>
          <ns3:TrackPointExtension>
            <ns3:atemp>18.0</ns3:atemp>
          </ns3:TrackPointExtension>
        </extensions>
      </trkpt>
      <trkpt lat="43.11678878031671047210693359375" lon="13.11927345581352710723876953125">
        <ele>387.79998779296875</ele>
        <time>2021-05-21T08:25:55.000Z</time>
        <extensions>
          <ns3:TrackPointExtension>
            <ns3:atemp>18.0</ns3:atemp>
          </ns3:TrackPointExtension>
        </extensions>
      </trkpt>
      <trkpt lat="43.11668283306062221527099609375" lon="13.11932072974741458892822265625">
        <ele>385.79998779296875</ele>
        <time>2021-05-21T08:25:56.000Z</time>
        <extensions>
          <ns3:TrackPointExtension>
            <ns3:atemp>18.0</ns3:atemp>
          </ns3:TrackPointExtension>
        </extensions>
      </trkpt>
      <trkpt lat="43.116575963795185089111328125" lon="13.1193536706268787384033203125">
        <ele>383.399993896484375</ele>
        <time>2021-05-21T08:25:57.000Z</time>
        <extensions>
          <ns3:TrackPointExtension>
            <ns3:atemp>18.0</ns3:atemp>
          </ns3:TrackPointExtension>
        </extensions>
      </trkpt>
      <trkpt lat="43.11647211201488971710205078125" lon="13.1193561851978302001953125">
        <ele>381.600006103515625</ele>
        <time>2021-05-21T08:25:58.000Z</time>
        <extensions>
          <ns3:TrackPointExtension>
            <ns3:atemp>18.0</ns3:atemp>
          </ns3:TrackPointExtension>
        </extensions>
      </trkpt>
      <trkpt lat="43.11637287028133869171142578125" lon="13.119341097772121429443359375">
        <ele>380.399993896484375</ele>
        <time>2021-05-21T08:25:59.000Z</time>
        <extensions>
          <ns3:TrackPointExtension>
            <ns3:atemp>18.0</ns3:atemp>
          </ns3:TrackPointExtension>
        </extensions>
      </trkpt>
      <trkpt lat="43.1161727942526340484619140625" lon="13.1192765571177005767822265625">
        <ele>379</ele>
        <time>2021-05-21T08:26:01.000Z</time>
        <extensions>
          <ns3:TrackPointExtension>
            <ns3:atemp>18.0</ns3:atemp>
          </ns3:TrackPointExtension>
        </extensions>
      </trkpt>
      <trkpt lat="43.11596835963428020477294921875" lon="13.11920053325593471527099609375">
        <ele>377.399993896484375</ele>
        <time>2021-05-21T08:26:03.000Z</time>
        <extensions>
          <ns3:TrackPointExtension>
            <ns3:atemp>18.0</ns3:atemp>
          </ns3:TrackPointExtension>
        </extensions>
      </trkpt>
      <trkpt lat="43.1157419644296169281005859375" lon="13.119133226573467254638671875">
        <ele>375.399993896484375</ele>
        <time>2021-05-21T08:26:05.000Z</time>
        <extensions>
          <ns3:TrackPointExtension>
            <ns3:atemp>18.0</ns3:atemp>
          </ns3:TrackPointExtension>
        </extensions>
      </trkpt>
      <trkpt lat="43.115519173443317413330078125" lon="13.1190745532512664794921875">
        <ele>374.20001220703125</ele>
        <time>2021-05-21T08:26:07.000Z</time>
        <extensions>
          <ns3:TrackPointExtension>
            <ns3:atemp>18.0</ns3:atemp>
          </ns3:TrackPointExtension>
        </extensions>
      </trkpt>
      <trkpt lat="43.11519336886703968048095703125" lon="13.118960559368133544921875">
        <ele>372.600006103515625</ele>
        <time>2021-05-21T08:26:10.000Z</time>
        <extensions>
          <ns3:TrackPointExtension>
            <ns3:atemp>18.0</ns3:atemp>
          </ns3:TrackPointExtension>
        </extensions>
      </trkpt>
      <trkpt lat="43.11509127728641033172607421875" lon="13.118934743106365203857421875">
        <ele>371.79998779296875</ele>
        <time>2021-05-21T08:26:11.000Z</time>
        <extensions>
          <ns3:TrackPointExtension>
            <ns3:atemp>18.0</ns3:atemp>
          </ns3:TrackPointExtension>
        </extensions>
      </trkpt>
      <trkpt lat="43.11497728340327739715576171875" lon="13.11892367899417877197265625">
        <ele>371</ele>
        <time>2021-05-21T08:26:12.000Z</time>
        <extensions>
          <ns3:TrackPointExtension>
            <ns3:atemp>18.0</ns3:atemp>
          </ns3:TrackPointExtension>
        </extensions>
      </trkpt>
      <trkpt lat="43.11477175913751125335693359375" lon="13.1189875490963459014892578125">
        <ele>368.600006103515625</ele>
        <time>2021-05-21T08:26:14.000Z</time>
        <extensions>
          <ns3:TrackPointExtension>
            <ns3:atemp>18.0</ns3:atemp>
          </ns3:TrackPointExtension>
        </extensions>
      </trkpt>
      <trkpt lat="43.11468576081097126007080078125" lon="13.1190576218068599700927734375">
        <ele>367.20001220703125</ele>
        <time>2021-05-21T08:26:15.000Z</time>
        <extensions>
          <ns3:TrackPointExtension>
            <ns3:atemp>18.0</ns3:atemp>
          </ns3:TrackPointExtension>
        </extensions>
      </trkpt>
      <trkpt lat="43.11453069560229778289794921875" lon="13.1192272715270519256591796875">
        <ele>365.79998779296875</ele>
        <time>2021-05-21T08:26:17.000Z</time>
        <extensions>
          <ns3:TrackPointExtension>
            <ns3:atemp>18.0</ns3:atemp>
          </ns3:TrackPointExtension>
        </extensions>
      </trkpt>
      <trkpt lat="43.1143123470246791839599609375" lon="13.1194445304572582244873046875">
        <ele>365</ele>
        <time>2021-05-21T08:26:20.000Z</time>
        <extensions>
          <ns3:TrackPointExtension>
            <ns3:atemp>18.0</ns3:atemp>
          </ns3:TrackPointExtension>
        </extensions>
      </trkpt>
      <trkpt lat="43.11424504034221172332763671875" lon="13.11949339695274829864501953125">
        <ele>364.20001220703125</ele>
        <time>2021-05-21T08:26:21.000Z</time>
        <extensions>
          <ns3:TrackPointExtension>
            <ns3:atemp>18.0</ns3:atemp>
          </ns3:TrackPointExtension>
        </extensions>
      </trkpt>
      <trkpt lat="43.11414713971316814422607421875" lon="13.1195692531764507293701171875">
        <ele>363</ele>
        <time>2021-05-21T08:26:23.000Z</time>
        <extensions>
          <ns3:TrackPointExtension>
            <ns3:atemp>18.0</ns3:atemp>
          </ns3:TrackPointExtension>
        </extensions>
      </trkpt>
      <trkpt lat="43.114093244075775146484375" lon="13.1196071393787860870361328125">
        <ele>362</ele>
        <time>2021-05-21T08:26:25.000Z</time>
        <extensions>
          <ns3:TrackPointExtension>
            <ns3:atemp>18.0</ns3:atemp>
          </ns3:TrackPointExtension>
        </extensions>
      </trkpt>
      <trkpt lat="43.11407488770782947540283203125" lon="13.11961711384356021881103515625">
        <ele>361</ele>
        <time>2021-05-21T08:26:26.000Z</time>
        <extensions>
          <ns3:TrackPointExtension>
            <ns3:atemp>18.0</ns3:atemp>
          </ns3:TrackPointExtension>
        </extensions>
      </trkpt>
      <trkpt lat="43.1139941699802875518798828125" lon="13.11964946798980236053466796875">
        <ele>359.79998779296875</ele>
        <time>2021-05-21T08:26:29.000Z</time>
        <extensions>
          <ns3:TrackPointExtension>
            <ns3:atemp>18.0</ns3:atemp>
          </ns3:TrackPointExtension>
        </extensions>
      </trkpt>
      <trkpt lat="43.1139559485018253326416015625" lon="13.11966254375874996185302734375">
        <ele>359.600006103515625</ele>
        <time>2021-05-21T08:26:30.000Z</time>
        <extensions>
          <ns3:TrackPointExtension>
            <ns3:atemp>18.0</ns3:atemp>
          </ns3:TrackPointExtension>
        </extensions>
      </trkpt>
      <trkpt lat="43.1136994622647762298583984375" lon="13.11972473748028278350830078125">
        <ele>358.600006103515625</ele>
        <time>2021-05-21T08:26:35.000Z</time>
        <extensions>
          <ns3:TrackPointExtension>
            <ns3:atemp>18.0</ns3:atemp>
          </ns3:TrackPointExtension>
        </extensions>
      </trkpt>
      <trkpt lat="43.11336745508015155792236328125" lon="13.1198193691670894622802734375">
        <ele>357</ele>
        <time>2021-05-21T08:26:40.000Z</time>
        <extensions>
          <ns3:TrackPointExtension>
            <ns3:atemp>18.0</ns3:atemp>
          </ns3:TrackPointExtension>
        </extensions>
      </trkpt>
      <trkpt lat="43.11321876011788845062255859375" lon="13.119848035275936126708984375">
        <ele>355.600006103515625</ele>
        <time>2021-05-21T08:26:42.000Z</time>
        <extensions>
          <ns3:TrackPointExtension>
            <ns3:atemp>18.0</ns3:atemp>
          </ns3:TrackPointExtension>
        </extensions>
      </trkpt>
      <trkpt lat="43.11306654475629329681396484375" lon="13.11987343244254589080810546875">
        <ele>353.79998779296875</ele>
        <time>2021-05-21T08:26:44.000Z</time>
        <extensions>
          <ns3:TrackPointExtension>
            <ns3:atemp>18.0</ns3:atemp>
          </ns3:TrackPointExtension>
        </extensions>
      </trkpt>
      <trkpt lat="43.11283403076231479644775390625" lon="13.11990478076040744781494140625">
        <ele>352.20001220703125</ele>
        <time>2021-05-21T08:26:47.000Z</time>
        <extensions>
          <ns3:TrackPointExtension>
            <ns3:atemp>18.0</ns3:atemp>
          </ns3:TrackPointExtension>
        </extensions>
      </trkpt>
      <trkpt lat="43.11267510987818241119384765625" lon="13.11992590315639972686767578125">
        <ele>350.79998779296875</ele>
        <time>2021-05-21T08:26:49.000Z</time>
        <extensions>
          <ns3:TrackPointExtension>
            <ns3:atemp>18.0</ns3:atemp>
          </ns3:TrackPointExtension>
        </extensions>
      </trkpt>
      <trkpt lat="43.112595565617084503173828125" lon="13.11994115822017192840576171875">
        <ele>348.79998779296875</ele>
        <time>2021-05-21T08:26:50.000Z</time>
        <extensions>
          <ns3:TrackPointExtension>
            <ns3:atemp>18.0</ns3:atemp>
          </ns3:TrackPointExtension>
        </extensions>
      </trkpt>
      <trkpt lat="43.1123570166528224945068359375" lon="13.119998238980770111083984375">
        <ele>347.600006103515625</ele>
        <time>2021-05-21T08:26:53.000Z</time>
        <extensions>
          <ns3:TrackPointExtension>
            <ns3:atemp>18.0</ns3:atemp>
          </ns3:TrackPointExtension>
        </extensions>
      </trkpt>
      <trkpt lat="43.1122198887169361114501953125" lon="13.1200332753360271453857421875">
        <ele>346.79998779296875</ele>
        <time>2021-05-21T08:26:55.000Z</time>
        <extensions>
          <ns3:TrackPointExtension>
            <ns3:atemp>18.0</ns3:atemp>
          </ns3:TrackPointExtension>
        </extensions>
      </trkpt>
      <trkpt lat="43.11212894506752490997314453125" lon="13.1200973130762577056884765625">
        <ele>346.399993896484375</ele>
        <time>2021-05-21T08:26:57.000Z</time>
        <extensions>
          <ns3:TrackPointExtension>
            <ns3:atemp>18.0</ns3:atemp>
          </ns3:TrackPointExtension>
        </extensions>
      </trkpt>
      <trkpt lat="43.112097680568695068359375" lon="13.1201573275029659271240234375">
        <ele>346.399993896484375</ele>
        <time>2021-05-21T08:26:58.000Z</time>
        <extensions>
          <ns3:TrackPointExtension>
            <ns3:atemp>18.0</ns3:atemp>
          </ns3:TrackPointExtension>
        </extensions>
      </trkpt>
      <trkpt lat="43.11206348240375518798828125" lon="13.1203430704772472381591796875">
        <ele>345.79998779296875</ele>
        <time>2021-05-21T08:27:01.000Z</time>
        <extensions>
          <ns3:TrackPointExtension>
            <ns3:atemp>18.0</ns3:atemp>
          </ns3:TrackPointExtension>
        </extensions>
      </trkpt>
      <trkpt lat="43.11205484904348850250244140625" lon="13.1203940324485301971435546875">
        <ele>345.600006103515625</ele>
        <time>2021-05-21T08:27:02.000Z</time>
        <extensions>
          <ns3:TrackPointExtension>
            <ns3:atemp>18.0</ns3:atemp>
          </ns3:TrackPointExtension>
        </extensions>
      </trkpt>
      <trkpt lat="43.11202819459140300750732421875" lon="13.12055689282715320587158203125">
        <ele>345.600006103515625</ele>
        <time>2021-05-21T08:27:06.000Z</time>
        <extensions>
          <ns3:TrackPointExtension>
            <ns3:atemp>18.0</ns3:atemp>
          </ns3:TrackPointExtension>
        </extensions>
      </trkpt>
      <trkpt lat="43.11203490011394023895263671875" lon="13.1206884048879146575927734375">
        <ele>345.600006103515625</ele>
        <time>2021-05-21T08:27:10.000Z</time>
        <extensions>
          <ns3:TrackPointExtension>
            <ns3:atemp>18.0</ns3:atemp>
          </ns3:TrackPointExtension>
        </extensions>
      </trkpt>
      <trkpt lat="43.11204730533063411712646484375" lon="13.120715729892253875732421875">
        <ele>345.79998779296875</ele>
        <time>2021-05-21T08:27:11.000Z</time>
        <extensions>
          <ns3:TrackPointExtension>
            <ns3:atemp>18.0</ns3:atemp>
          </ns3:TrackPointExtension>
        </extensions>
      </trkpt>
      <trkpt lat="43.11210078187286853790283203125" lon="13.12077666632831096649169921875">
        <ele>347.79998779296875</ele>
        <time>2021-05-21T08:27:15.000Z</time>
        <extensions>
          <ns3:TrackPointExtension>
            <ns3:atemp>18.0</ns3:atemp>
          </ns3:TrackPointExtension>
        </extensions>
      </trkpt>
      <trkpt lat="43.112102709710597991943359375" lon="13.1207712180912494659423828125">
        <ele>348.20001220703125</ele>
        <time>2021-05-21T08:27:16.000Z</time>
        <extensions>
          <ns3:TrackPointExtension>
            <ns3:atemp>18.0</ns3:atemp>
          </ns3:TrackPointExtension>
        </extensions>
      </trkpt>
      <trkpt lat="43.1121025420725345611572265625" lon="13.12077146954834461212158203125">
        <ele>348.79998779296875</ele>
        <time>2021-05-21T08:27:17.000Z</time>
        <extensions>
          <ns3:TrackPointExtension>
            <ns3:atemp>18.0</ns3:atemp>
          </ns3:TrackPointExtension>
        </extensions>
      </trkpt>
      <trkpt lat="43.11210514046251773834228515625" lon="13.120771385729312896728515625">
        <ele>350.20001220703125</ele>
        <time>2021-05-21T08:27:19.000Z</time>
        <extensions>
          <ns3:TrackPointExtension>
            <ns3:atemp>18.0</ns3:atemp>
          </ns3:TrackPointExtension>
        </extensions>
      </trkpt>
      <trkpt lat="43.112106733024120330810546875" lon="13.12077498994767665863037109375">
        <ele>351.399993896484375</ele>
        <time>2021-05-21T08:27:20.000Z</time>
        <extensions>
          <ns3:TrackPointExtension>
            <ns3:atemp>18.0</ns3:atemp>
          </ns3:TrackPointExtension>
        </extensions>
      </trkpt>
      <trkpt lat="43.1121070683002471923828125" lon="13.1207759119570255279541015625">
        <ele>352.399993896484375</ele>
        <time>2021-05-21T08:27:22.000Z</time>
        <extensions>
          <ns3:TrackPointExtension>
            <ns3:atemp>18.0</ns3:atemp>
          </ns3:TrackPointExtension>
        </extensions>
      </trkpt>
      <trkpt lat="43.1121075712144374847412109375" lon="13.12078035436570644378662109375">
        <ele>353.20001220703125</ele>
        <time>2021-05-21T08:27:25.000Z</time>
        <extensions>
          <ns3:TrackPointExtension>
            <ns3:atemp>18.0</ns3:atemp>
          </ns3:TrackPointExtension>
        </extensions>
      </trkpt>
      <trkpt lat="43.11210782267153263092041015625" lon="13.12078169547021389007568359375">
        <ele>353.399993896484375</ele>
        <time>2021-05-21T08:27:30.000Z</time>
        <extensions>
          <ns3:TrackPointExtension>
            <ns3:atemp>18.0</ns3:atemp>
          </ns3:TrackPointExtension>
        </extensions>
      </trkpt>
      <trkpt lat="43.11210949905216693878173828125" lon="13.1207832880318164825439453125">
        <ele>353.399993896484375</ele>
        <time>2021-05-21T08:27:34.000Z</time>
        <extensions>
          <ns3:TrackPointExtension>
            <ns3:atemp>18.0</ns3:atemp>
          </ns3:TrackPointExtension>
        </extensions>
      </trkpt>
      <trkpt lat="43.11211653985083103179931640625" lon="13.12077968381345272064208984375">
        <ele>353.399993896484375</ele>
        <time>2021-05-21T08:27:46.000Z</time>
        <extensions>
          <ns3:TrackPointExtension>
            <ns3:atemp>18.0</ns3:atemp>
          </ns3:TrackPointExtension>
        </extensions>
      </trkpt>
      <trkpt lat="43.1121166236698627471923828125" lon="13.1207869760692119598388671875">
        <ele>353.399993896484375</ele>
        <time>2021-05-21T08:27:57.000Z</time>
        <extensions>
          <ns3:TrackPointExtension>
            <ns3:atemp>18.0</ns3:atemp>
          </ns3:TrackPointExtension>
        </extensions>
      </trkpt>
      <trkpt lat="43.1121323816478252410888671875" lon="13.120800554752349853515625">
        <ele>353.399993896484375</ele>
        <time>2021-05-21T08:28:05.000Z</time>
        <extensions>
          <ns3:TrackPointExtension>
            <ns3:atemp>18.0</ns3:atemp>
          </ns3:TrackPointExtension>
        </extensions>
      </trkpt>
      <trkpt lat="43.1122212298214435577392578125" lon="13.120865933597087860107421875">
        <ele>353.399993896484375</ele>
        <time>2021-05-21T08:28:10.000Z</time>
        <extensions>
          <ns3:TrackPointExtension>
            <ns3:atemp>18.0</ns3:atemp>
          </ns3:TrackPointExtension>
        </extensions>
      </trkpt>
      <trkpt lat="43.1122745387256145477294921875" lon="13.12094916589558124542236328125">
        <ele>353.600006103515625</ele>
        <time>2021-05-21T08:28:14.000Z</time>
        <extensions>
          <ns3:TrackPointExtension>
            <ns3:atemp>18.0</ns3:atemp>
          </ns3:TrackPointExtension>
        </extensions>
      </trkpt>
      <trkpt lat="43.11227805912494659423828125" lon="13.12098537571728229522705078125">
        <ele>354</ele>
        <time>2021-05-21T08:28:15.000Z</time>
        <extensions>
          <ns3:TrackPointExtension>
            <ns3:atemp>18.0</ns3:atemp>
          </ns3:TrackPointExtension>
        </extensions>
      </trkpt>
      <trkpt lat="43.112287111580371856689453125" lon="13.12106450088322162628173828125">
        <ele>354.79998779296875</ele>
        <time>2021-05-21T08:28:17.000Z</time>
        <extensions>
          <ns3:TrackPointExtension>
            <ns3:atemp>18.0</ns3:atemp>
          </ns3:TrackPointExtension>
        </extensions>
      </trkpt>
      <trkpt lat="43.1122934818267822265625" lon="13.1211004592478275299072265625">
        <ele>355.399993896484375</ele>
        <time>2021-05-21T08:28:18.000Z</time>
        <extensions>
          <ns3:TrackPointExtension>
            <ns3:atemp>18.0</ns3:atemp>
          </ns3:TrackPointExtension>
        </extensions>
      </trkpt>
      <trkpt lat="43.11229884624481201171875" lon="13.1211323104798793792724609375">
        <ele>356.600006103515625</ele>
        <time>2021-05-21T08:28:19.000Z</time>
        <extensions>
          <ns3:TrackPointExtension>
            <ns3:atemp>18.0</ns3:atemp>
          </ns3:TrackPointExtension>
        </extensions>
      </trkpt>
      <trkpt lat="43.1123043783009052276611328125" lon="13.12115854583680629730224609375">
        <ele>357</ele>
        <time>2021-05-21T08:28:20.000Z</time>
        <extensions>
          <ns3:TrackPointExtension>
            <ns3:atemp>18.0</ns3:atemp>
          </ns3:TrackPointExtension>
        </extensions>
      </trkpt>
      <trkpt lat="43.112312257289886474609375" lon="13.12118888832628726959228515625">
        <ele>357.79998779296875</ele>
        <time>2021-05-21T08:28:22.000Z</time>
        <extensions>
          <ns3:TrackPointExtension>
            <ns3:atemp>18.0</ns3:atemp>
          </ns3:TrackPointExtension>
        </extensions>
      </trkpt>
      <trkpt lat="43.11230747960507869720458984375" lon="13.1211923249065876007080078125">
        <ele>358.600006103515625</ele>
        <time>2021-05-21T08:28:24.000Z</time>
        <extensions>
          <ns3:TrackPointExtension>
            <ns3:atemp>18.0</ns3:atemp>
          </ns3:TrackPointExtension>
        </extensions>
      </trkpt>
      <trkpt lat="43.1123053841292858123779296875" lon="13.12119810841977596282958984375">
        <ele>359</ele>
        <time>2021-05-21T08:28:25.000Z</time>
        <extensions>
          <ns3:TrackPointExtension>
            <ns3:atemp>18.0</ns3:atemp>
          </ns3:TrackPointExtension>
        </extensions>
      </trkpt>
      <trkpt lat="43.1123043783009052276611328125" lon="13.1212033890187740325927734375">
        <ele>360.20001220703125</ele>
        <time>2021-05-21T08:28:28.000Z</time>
        <extensions>
          <ns3:TrackPointExtension>
            <ns3:atemp>18.0</ns3:atemp>
          </ns3:TrackPointExtension>
        </extensions>
      </trkpt>
      <trkpt lat="43.11229054816067218780517578125" lon="13.121205233037471771240234375">
        <ele>361.20001220703125</ele>
        <time>2021-05-21T08:28:37.000Z</time>
        <extensions>
          <ns3:TrackPointExtension>
            <ns3:atemp>18.0</ns3:atemp>
          </ns3:TrackPointExtension>
        </extensions>
      </trkpt>
      <trkpt lat="43.1122519075870513916015625" lon="13.1212362460792064666748046875">
        <ele>361.399993896484375</ele>
        <time>2021-05-21T08:28:49.000Z</time>
        <extensions>
          <ns3:TrackPointExtension>
            <ns3:atemp>18.0</ns3:atemp>
          </ns3:TrackPointExtension>
        </extensions>
      </trkpt>
      <trkpt lat="43.11223925091326236724853515625" lon="13.12124169431626796722412109375">
        <ele>361.399993896484375</ele>
        <time>2021-05-21T08:29:05.000Z</time>
        <extensions>
          <ns3:TrackPointExtension>
            <ns3:atemp>18.0</ns3:atemp>
          </ns3:TrackPointExtension>
        </extensions>
      </trkpt>
      <trkpt lat="43.11222332529723644256591796875" lon="13.12127622775733470916748046875">
        <ele>361.399993896484375</ele>
        <time>2021-05-21T08:29:13.000Z</time>
        <extensions>
          <ns3:TrackPointExtension>
            <ns3:atemp>19.0</ns3:atemp>
          </ns3:TrackPointExtension>
        </extensions>
      </trkpt>
      <trkpt lat="43.11222969554364681243896484375" lon="13.1212922371923923492431640625">
        <ele>361.399993896484375</ele>
        <time>2021-05-21T08:29:14.000Z</time>
        <extensions>
          <ns3:TrackPointExtension>
            <ns3:atemp>19.0</ns3:atemp>
          </ns3:TrackPointExtension>
        </extensions>
      </trkpt>
      <trkpt lat="43.1122433580458164215087890625" lon="13.121410422027111053466796875">
        <ele>361.399993896484375</ele>
        <time>2021-05-21T08:29:18.000Z</time>
        <extensions>
          <ns3:TrackPointExtension>
            <ns3:atemp>19.0</ns3:atemp>
          </ns3:TrackPointExtension>
        </extensions>
      </trkpt>
      <trkpt lat="43.11223288066685199737548828125" lon="13.1214457936584949493408203125">
        <ele>361.399993896484375</ele>
        <time>2021-05-21T08:29:19.000Z</time>
        <extensions>
          <ns3:TrackPointExtension>
            <ns3:atemp>19.0</ns3:atemp>
          </ns3:TrackPointExtension>
        </extensions>
      </trkpt>
      <trkpt lat="43.11221578158438205718994140625" lon="13.12151997350156307220458984375">
        <ele>361.399993896484375</ele>
        <time>2021-05-21T08:29:22.000Z</time>
        <extensions>
          <ns3:TrackPointExtension>
            <ns3:atemp>19.0</ns3:atemp>
          </ns3:TrackPointExtension>
        </extensions>
      </trkpt>
      <trkpt lat="43.11221863143146038055419921875" lon="13.121570013463497161865234375">
        <ele>361.79998779296875</ele>
        <time>2021-05-21T08:29:24.000Z</time>
        <extensions>
          <ns3:TrackPointExtension>
            <ns3:atemp>19.0</ns3:atemp>
          </ns3:TrackPointExtension>
        </extensions>
      </trkpt>
      <trkpt lat="43.1122296117246150970458984375" lon="13.12163514085114002227783203125">
        <ele>362.399993896484375</ele>
        <time>2021-05-21T08:29:26.000Z</time>
        <extensions>
          <ns3:TrackPointExtension>
            <ns3:atemp>19.0</ns3:atemp>
          </ns3:TrackPointExtension>
        </extensions>
      </trkpt>
      <trkpt lat="43.112242519855499267578125" lon="13.12165819108486175537109375">
        <ele>362.79998779296875</ele>
        <time>2021-05-21T08:29:27.000Z</time>
        <extensions>
          <ns3:TrackPointExtension>
            <ns3:atemp>19.0</ns3:atemp>
          </ns3:TrackPointExtension>
        </extensions>
      </trkpt>
      <trkpt lat="43.1122651509940624237060546875" lon="13.12167738564312458038330078125">
        <ele>363.20001220703125</ele>
        <time>2021-05-21T08:29:28.000Z</time>
        <extensions>
          <ns3:TrackPointExtension>
            <ns3:atemp>19.0</ns3:atemp>
          </ns3:TrackPointExtension>
        </extensions>
      </trkpt>
      <trkpt lat="43.112316615879535675048828125" lon="13.1217046268284320831298828125">
        <ele>364.20001220703125</ele>
        <time>2021-05-21T08:29:30.000Z</time>
        <extensions>
          <ns3:TrackPointExtension>
            <ns3:atemp>19.0</ns3:atemp>
          </ns3:TrackPointExtension>
        </extensions>
      </trkpt>
      <trkpt lat="43.1123793125152587890625" lon="13.1217582710087299346923828125">
        <ele>365.399993896484375</ele>
        <time>2021-05-21T08:29:33.000Z</time>
        <extensions>
          <ns3:TrackPointExtension>
            <ns3:atemp>19.0</ns3:atemp>
          </ns3:TrackPointExtension>
        </extensions>
      </trkpt>
      <trkpt lat="43.11240387149155139923095703125" lon="13.1218145973980426788330078125">
        <ele>366.600006103515625</ele>
        <time>2021-05-21T08:29:35.000Z</time>
        <extensions>
          <ns3:TrackPointExtension>
            <ns3:atemp>19.0</ns3:atemp>
          </ns3:TrackPointExtension>
        </extensions>
      </trkpt>
      <trkpt lat="43.11242415569722652435302734375" lon="13.12186212278902530670166015625">
        <ele>367.79998779296875</ele>
        <time>2021-05-21T08:29:37.000Z</time>
        <extensions>
          <ns3:TrackPointExtension>
            <ns3:atemp>19.0</ns3:atemp>
          </ns3:TrackPointExtension>
        </extensions>
      </trkpt>
      <trkpt lat="43.11242382042109966278076171875" lon="13.1218913756310939788818359375">
        <ele>368.20001220703125</ele>
        <time>2021-05-21T08:29:38.000Z</time>
        <extensions>
          <ns3:TrackPointExtension>
            <ns3:atemp>19.0</ns3:atemp>
          </ns3:TrackPointExtension>
        </extensions>
      </trkpt>
      <trkpt lat="43.112426586449146270751953125" lon="13.12196262180805206298828125">
        <ele>369.20001220703125</ele>
        <time>2021-05-21T08:29:40.000Z</time>
        <extensions>
          <ns3:TrackPointExtension>
            <ns3:atemp>19.0</ns3:atemp>
          </ns3:TrackPointExtension>
        </extensions>
      </trkpt>
      <trkpt lat="43.11245416291058063507080078125" lon="13.1220757775008678436279296875">
        <ele>370.20001220703125</ele>
        <time>2021-05-21T08:29:43.000Z</time>
        <extensions>
          <ns3:TrackPointExtension>
            <ns3:atemp>19.0</ns3:atemp>
          </ns3:TrackPointExtension>
        </extensions>
      </trkpt>
      <trkpt lat="43.11246220953762531280517578125" lon="13.1221109814941883087158203125">
        <ele>370.600006103515625</ele>
        <time>2021-05-21T08:29:44.000Z</time>
        <extensions>
          <ns3:TrackPointExtension>
            <ns3:atemp>19.0</ns3:atemp>
          </ns3:TrackPointExtension>
        </extensions>
      </trkpt>
      <trkpt lat="43.1124884448945522308349609375" lon="13.1221733428537845611572265625">
        <ele>371.399993896484375</ele>
        <time>2021-05-21T08:29:46.000Z</time>
        <extensions>
          <ns3:TrackPointExtension>
            <ns3:atemp>19.0</ns3:atemp>
          </ns3:TrackPointExtension>
        </extensions>
      </trkpt>
      <trkpt lat="43.11254334636032581329345703125" lon="13.12230267561972141265869140625">
        <ele>372.600006103515625</ele>
        <time>2021-05-21T08:29:50.000Z</time>
        <extensions>
          <ns3:TrackPointExtension>
            <ns3:atemp>19.0</ns3:atemp>
          </ns3:TrackPointExtension>
        </extensions>
      </trkpt>
      <trkpt lat="43.11258592642843723297119140625" lon="13.1224274821579456329345703125">
        <ele>373.79998779296875</ele>
        <time>2021-05-21T08:29:54.000Z</time>
        <extensions>
          <ns3:TrackPointExtension>
            <ns3:atemp>19.0</ns3:atemp>
          </ns3:TrackPointExtension>
        </extensions>
      </trkpt>
      <trkpt lat="43.1125927157700061798095703125" lon="13.1224415637552738189697265625">
        <ele>374</ele>
        <time>2021-05-21T08:29:55.000Z</time>
        <extensions>
          <ns3:TrackPointExtension>
            <ns3:atemp>19.0</ns3:atemp>
          </ns3:TrackPointExtension>
        </extensions>
      </trkpt>
      <trkpt lat="43.1125990860164165496826171875" lon="13.122458159923553466796875">
        <ele>374.79998779296875</ele>
        <time>2021-05-21T08:29:57.000Z</time>
        <extensions>
          <ns3:TrackPointExtension>
            <ns3:atemp>19.0</ns3:atemp>
          </ns3:TrackPointExtension>
        </extensions>
      </trkpt>
      <trkpt lat="43.11260486952960491180419921875" lon="13.12246109358966350555419921875">
        <ele>375</ele>
        <time>2021-05-21T08:29:58.000Z</time>
        <extensions>
          <ns3:TrackPointExtension>
            <ns3:atemp>19.0</ns3:atemp>
          </ns3:TrackPointExtension>
        </extensions>
      </trkpt>
      <trkpt lat="43.112611658871173858642578125" lon="13.12247760593891143798828125">
        <ele>375.79998779296875</ele>
        <time>2021-05-21T08:30:01.000Z</time>
        <extensions>
          <ns3:TrackPointExtension>
            <ns3:atemp>19.0</ns3:atemp>
          </ns3:TrackPointExtension>
        </extensions>
      </trkpt>
      <trkpt lat="43.11260998249053955078125" lon="13.1224864907562732696533203125">
        <ele>376</ele>
        <time>2021-05-21T08:30:03.000Z</time>
        <extensions>
          <ns3:TrackPointExtension>
            <ns3:atemp>19.0</ns3:atemp>
          </ns3:TrackPointExtension>
        </extensions>
      </trkpt>
      <trkpt lat="43.1126218847930431365966796875" lon="13.1225227005779743194580078125">
        <ele>376.399993896484375</ele>
        <time>2021-05-21T08:30:11.000Z</time>
        <extensions>
          <ns3:TrackPointExtension>
            <ns3:atemp>19.0</ns3:atemp>
          </ns3:TrackPointExtension>
        </extensions>
      </trkpt>
      <trkpt lat="43.11264661140739917755126953125" lon="13.122603334486484527587890625">
        <ele>376.399993896484375</ele>
        <time>2021-05-21T08:30:17.000Z</time>
        <extensions>
          <ns3:TrackPointExtension>
            <ns3:atemp>20.0</ns3:atemp>
          </ns3:TrackPointExtension>
        </extensions>
      </trkpt>
      <trkpt lat="43.11271903105080127716064453125" lon="13.1228264607489109039306640625">
        <ele>376.600006103515625</ele>
        <time>2021-05-21T08:30:24.000Z</time>
        <extensions>
          <ns3:TrackPointExtension>
            <ns3:atemp>20.0</ns3:atemp>
          </ns3:TrackPointExtension>
        </extensions>
      </trkpt>
      <trkpt lat="43.1126810610294342041015625" lon="13.12291120178997516632080078125">
        <ele>376.600006103515625</ele>
        <time>2021-05-21T08:30:27.000Z</time>
        <extensions>
          <ns3:TrackPointExtension>
            <ns3:atemp>20.0</ns3:atemp>
          </ns3:TrackPointExtension>
        </extensions>
      </trkpt>
      <trkpt lat="43.1126567535102367401123046875" lon="13.1229159794747829437255859375">
        <ele>376.79998779296875</ele>
        <time>2021-05-21T08:30:28.000Z</time>
        <extensions>
          <ns3:TrackPointExtension>
            <ns3:atemp>20.0</ns3:atemp>
          </ns3:TrackPointExtension>
        </extensions>
      </trkpt>
      <trkpt lat="43.1126259081065654754638671875" lon="13.1228794343769550323486328125">
        <ele>377.20001220703125</ele>
        <time>2021-05-21T08:30:30.000Z</time>
        <extensions>
          <ns3:TrackPointExtension>
            <ns3:atemp>20.0</ns3:atemp>
          </ns3:TrackPointExtension>
        </extensions>
      </trkpt>
      <trkpt lat="43.1126064620912075042724609375" lon="13.12285537831485271453857421875">
        <ele>377.600006103515625</ele>
        <time>2021-05-21T08:30:31.000Z</time>
        <extensions>
          <ns3:TrackPointExtension>
            <ns3:atemp>20.0</ns3:atemp>
          </ns3:TrackPointExtension>
        </extensions>
      </trkpt>
      <trkpt lat="43.11258508823812007904052734375" lon="13.12283190898597240447998046875">
        <ele>377.79998779296875</ele>
        <time>2021-05-21T08:30:32.000Z</time>
        <extensions>
          <ns3:TrackPointExtension>
            <ns3:atemp>20.0</ns3:atemp>
          </ns3:TrackPointExtension>
        </extensions>
      </trkpt>
      <trkpt lat="43.1125420890748500823974609375" lon="13.12277843244373798370361328125">
        <ele>378.399993896484375</ele>
        <time>2021-05-21T08:30:34.000Z</time>
        <extensions>
          <ns3:TrackPointExtension>
            <ns3:atemp>20.0</ns3:atemp>
          </ns3:TrackPointExtension>
        </extensions>
      </trkpt>
      <trkpt lat="43.1124632991850376129150390625" lon="13.1227168254554271697998046875">
        <ele>379.600006103515625</ele>
        <time>2021-05-21T08:30:37.000Z</time>
        <extensions>
          <ns3:TrackPointExtension>
            <ns3:atemp>20.0</ns3:atemp>
          </ns3:TrackPointExtension>
        </extensions>
      </trkpt>
      <trkpt lat="43.11243362724781036376953125" lon="13.12270467169582843780517578125">
        <ele>379.79998779296875</ele>
        <time>2021-05-21T08:30:38.000Z</time>
        <extensions>
          <ns3:TrackPointExtension>
            <ns3:atemp>20.0</ns3:atemp>
          </ns3:TrackPointExtension>
        </extensions>
      </trkpt>
      <trkpt lat="43.11234570108354091644287109375" lon="13.1226973794400691986083984375">
        <ele>380.600006103515625</ele>
        <time>2021-05-21T08:30:41.000Z</time>
        <extensions>
          <ns3:TrackPointExtension>
            <ns3:atemp>20.0</ns3:atemp>
          </ns3:TrackPointExtension>
        </extensions>
      </trkpt>
      <trkpt lat="43.11230815015733242034912109375" lon="13.1227282248437404632568359375">
        <ele>381.20001220703125</ele>
        <time>2021-05-21T08:30:43.000Z</time>
        <extensions>
          <ns3:TrackPointExtension>
            <ns3:atemp>20.0</ns3:atemp>
          </ns3:TrackPointExtension>
        </extensions>
      </trkpt>
      <trkpt lat="43.11229675076901912689208984375" lon="13.12278513796627521514892578125">
        <ele>381.79998779296875</ele>
        <time>2021-05-21T08:30:45.000Z</time>
        <extensions>
          <ns3:TrackPointExtension>
            <ns3:atemp>20.0</ns3:atemp>
          </ns3:TrackPointExtension>
        </extensions>
      </trkpt>
      <trkpt lat="43.11230144463479518890380859375" lon="13.12283794395625591278076171875">
        <ele>382.20001220703125</ele>
        <time>2021-05-21T08:30:47.000Z</time>
        <extensions>
          <ns3:TrackPointExtension>
            <ns3:atemp>20.0</ns3:atemp>
          </ns3:TrackPointExtension>
        </extensions>
      </trkpt>
      <trkpt lat="43.11231217347085475921630859375" lon="13.12286317348480224609375">
        <ele>382.399993896484375</ele>
        <time>2021-05-21T08:30:48.000Z</time>
        <extensions>
          <ns3:TrackPointExtension>
            <ns3:atemp>20.0</ns3:atemp>
          </ns3:TrackPointExtension>
        </extensions>
      </trkpt>
      <trkpt lat="43.11233195476233959197998046875" lon="13.12290969304740428924560546875">
        <ele>383.20001220703125</ele>
        <time>2021-05-21T08:30:50.000Z</time>
        <extensions>
          <ns3:TrackPointExtension>
            <ns3:atemp>20.0</ns3:atemp>
          </ns3:TrackPointExtension>
        </extensions>
      </trkpt>
      <trkpt lat="43.1123699247837066650390625" lon="13.12297272495925426483154296875">
        <ele>384.79998779296875</ele>
        <time>2021-05-21T08:30:53.000Z</time>
        <extensions>
          <ns3:TrackPointExtension>
            <ns3:atemp>20.0</ns3:atemp>
          </ns3:TrackPointExtension>
        </extensions>
      </trkpt>
      <trkpt lat="43.1123975850641727447509765625" lon="13.123039193451404571533203125">
        <ele>386.20001220703125</ele>
        <time>2021-05-21T08:30:56.000Z</time>
        <extensions>
          <ns3:TrackPointExtension>
            <ns3:atemp>20.0</ns3:atemp>
          </ns3:TrackPointExtension>
        </extensions>
      </trkpt>
      <trkpt lat="43.11242616735398769378662109375" lon="13.12308688648045063018798828125">
        <ele>387.20001220703125</ele>
        <time>2021-05-21T08:30:58.000Z</time>
        <extensions>
          <ns3:TrackPointExtension>
            <ns3:atemp>20.0</ns3:atemp>
          </ns3:TrackPointExtension>
        </extensions>
      </trkpt>
      <trkpt lat="43.11244058422744274139404296875" lon="13.1231422908604145050048828125">
        <ele>388</ele>
        <time>2021-05-21T08:31:00.000Z</time>
        <extensions>
          <ns3:TrackPointExtension>
            <ns3:atemp>20.0</ns3:atemp>
          </ns3:TrackPointExtension>
        </extensions>
      </trkpt>
      <trkpt lat="43.11244611628353595733642578125" lon="13.1231691129505634307861328125">
        <ele>388.600006103515625</ele>
        <time>2021-05-21T08:31:01.000Z</time>
        <extensions>
          <ns3:TrackPointExtension>
            <ns3:atemp>20.0</ns3:atemp>
          </ns3:TrackPointExtension>
        </extensions>
      </trkpt>
      <trkpt lat="43.11246288008987903594970703125" lon="13.1232170574367046356201171875">
        <ele>389.600006103515625</ele>
        <time>2021-05-21T08:31:03.000Z</time>
        <extensions>
          <ns3:TrackPointExtension>
            <ns3:atemp>20.0</ns3:atemp>
          </ns3:TrackPointExtension>
        </extensions>
      </trkpt>
      <trkpt lat="43.11249406076967716217041015625" lon="13.1232814304530620574951171875">
        <ele>391</ele>
        <time>2021-05-21T08:31:06.000Z</time>
        <extensions>
          <ns3:TrackPointExtension>
            <ns3:atemp>20.0</ns3:atemp>
          </ns3:TrackPointExtension>
        </extensions>
      </trkpt>
      <trkpt lat="43.1125028617680072784423828125" lon="13.12330699525773525238037109375">
        <ele>391.600006103515625</ele>
        <time>2021-05-21T08:31:07.000Z</time>
        <extensions>
          <ns3:TrackPointExtension>
            <ns3:atemp>20.0</ns3:atemp>
          </ns3:TrackPointExtension>
        </extensions>
      </trkpt>
      <trkpt lat="43.1125093996524810791015625" lon="13.12333591282367706298828125">
        <ele>392.20001220703125</ele>
        <time>2021-05-21T08:31:08.000Z</time>
        <extensions>
          <ns3:TrackPointExtension>
            <ns3:atemp>20.0</ns3:atemp>
          </ns3:TrackPointExtension>
        </extensions>
      </trkpt>
      <trkpt lat="43.112528510391712188720703125" lon="13.123423755168914794921875">
        <ele>393.600006103515625</ele>
        <time>2021-05-21T08:31:11.000Z</time>
        <extensions>
          <ns3:TrackPointExtension>
            <ns3:atemp>20.0</ns3:atemp>
          </ns3:TrackPointExtension>
        </extensions>
      </trkpt>
      <trkpt lat="43.11254686675965785980224609375" lon="13.1234886310994625091552734375">
        <ele>394.79998779296875</ele>
        <time>2021-05-21T08:31:13.000Z</time>
        <extensions>
          <ns3:TrackPointExtension>
            <ns3:atemp>20.0</ns3:atemp>
          </ns3:TrackPointExtension>
        </extensions>
      </trkpt>
      <trkpt lat="43.112556003034114837646484375" lon="13.12351972796022891998291015625">
        <ele>395.600006103515625</ele>
        <time>2021-05-21T08:31:14.000Z</time>
        <extensions>
          <ns3:TrackPointExtension>
            <ns3:atemp>20.0</ns3:atemp>
          </ns3:TrackPointExtension>
        </extensions>
      </trkpt>
      <trkpt lat="43.11256597749888896942138671875" lon="13.1235519982874393463134765625">
        <ele>396</ele>
        <time>2021-05-21T08:31:15.000Z</time>
        <extensions>
          <ns3:TrackPointExtension>
            <ns3:atemp>20.0</ns3:atemp>
          </ns3:TrackPointExtension>
        </extensions>
      </trkpt>
      <trkpt lat="43.11259229667484760284423828125" lon="13.12364445067942142486572265625">
        <ele>397.20001220703125</ele>
        <time>2021-05-21T08:31:18.000Z</time>
        <extensions>
          <ns3:TrackPointExtension>
            <ns3:atemp>20.0</ns3:atemp>
          </ns3:TrackPointExtension>
        </extensions>
      </trkpt>
      <trkpt lat="43.11260486952960491180419921875" lon="13.12373631633818149566650390625">
        <ele>398.399993896484375</ele>
        <time>2021-05-21T08:31:21.000Z</time>
        <extensions>
          <ns3:TrackPointExtension>
            <ns3:atemp>20.0</ns3:atemp>
          </ns3:TrackPointExtension>
        </extensions>
      </trkpt>
      <trkpt lat="43.11260067857801914215087890625" lon="13.12381041236221790313720703125">
        <ele>399.20001220703125</ele>
        <time>2021-05-21T08:31:23.000Z</time>
        <extensions>
          <ns3:TrackPointExtension>
            <ns3:atemp>20.0</ns3:atemp>
          </ns3:TrackPointExtension>
        </extensions>
      </trkpt>
      <trkpt lat="43.112596571445465087890625" lon="13.1238473765552043914794921875">
        <ele>399.600006103515625</ele>
        <time>2021-05-21T08:31:24.000Z</time>
        <extensions>
          <ns3:TrackPointExtension>
            <ns3:atemp>20.0</ns3:atemp>
          </ns3:TrackPointExtension>
        </extensions>
      </trkpt>
      <trkpt lat="43.112572096288204193115234375" lon="13.12394955195486545562744140625">
        <ele>400.79998779296875</ele>
        <time>2021-05-21T08:31:27.000Z</time>
        <extensions>
          <ns3:TrackPointExtension>
            <ns3:atemp>20.0</ns3:atemp>
          </ns3:TrackPointExtension>
        </extensions>
      </trkpt>
      <trkpt lat="43.11253915540874004364013671875" lon="13.124006129801273345947265625">
        <ele>401.399993896484375</ele>
        <time>2021-05-21T08:31:29.000Z</time>
        <extensions>
          <ns3:TrackPointExtension>
            <ns3:atemp>20.0</ns3:atemp>
          </ns3:TrackPointExtension>
        </extensions>
      </trkpt>
      <trkpt lat="43.1124850921332836151123046875" lon="13.12405030243098735809326171875">
        <ele>401.79998779296875</ele>
        <time>2021-05-21T08:31:31.000Z</time>
        <extensions>
          <ns3:TrackPointExtension>
            <ns3:atemp>20.0</ns3:atemp>
          </ns3:TrackPointExtension>
        </extensions>
      </trkpt>
      <trkpt lat="43.1123794801533222198486328125" lon="13.124104030430316925048828125">
        <ele>402.79998779296875</ele>
        <time>2021-05-21T08:31:34.000Z</time>
        <extensions>
          <ns3:TrackPointExtension>
            <ns3:atemp>20.0</ns3:atemp>
          </ns3:TrackPointExtension>
        </extensions>
      </trkpt>
      <trkpt lat="43.1123466230928897857666015625" lon="13.12412020750343799591064453125">
        <ele>403</ele>
        <time>2021-05-21T08:31:35.000Z</time>
        <extensions>
          <ns3:TrackPointExtension>
            <ns3:atemp>20.0</ns3:atemp>
          </ns3:TrackPointExtension>
        </extensions>
      </trkpt>
      <trkpt lat="43.1121528334915637969970703125" lon="13.12420654110610485076904296875">
        <ele>403.79998779296875</ele>
        <time>2021-05-21T08:31:41.000Z</time>
        <extensions>
          <ns3:TrackPointExtension>
            <ns3:atemp>20.0</ns3:atemp>
          </ns3:TrackPointExtension>
        </extensions>
      </trkpt>
      <trkpt lat="43.1120534241199493408203125" lon="13.1242594309151172637939453125">
        <ele>404.20001220703125</ele>
        <time>2021-05-21T08:31:44.000Z</time>
        <extensions>
          <ns3:TrackPointExtension>
            <ns3:atemp>20.0</ns3:atemp>
          </ns3:TrackPointExtension>
        </extensions>
      </trkpt>
      <trkpt lat="43.111938424408435821533203125" lon="13.12436982057988643646240234375">
        <ele>404.600006103515625</ele>
        <time>2021-05-21T08:31:48.000Z</time>
        <extensions>
          <ns3:TrackPointExtension>
            <ns3:atemp>20.0</ns3:atemp>
          </ns3:TrackPointExtension>
        </extensions>
      </trkpt>
      <trkpt lat="43.1118732132017612457275390625" lon="13.12444509007036685943603515625">
        <ele>404.600006103515625</ele>
        <time>2021-05-21T08:31:53.000Z</time>
        <extensions>
          <ns3:TrackPointExtension>
            <ns3:atemp>20.0</ns3:atemp>
          </ns3:TrackPointExtension>
        </extensions>
      </trkpt>
      <trkpt lat="43.11186273582279682159423828125" lon="13.1244585849344730377197265625">
        <ele>404.600006103515625</ele>
        <time>2021-05-21T08:32:01.000Z</time>
        <extensions>
          <ns3:TrackPointExtension>
            <ns3:atemp>20.0</ns3:atemp>
          </ns3:TrackPointExtension>
        </extensions>
      </trkpt>
      <trkpt lat="43.11186223290860652923583984375" lon="13.12445950694382190704345703125">
        <ele>404.600006103515625</ele>
        <time>2021-05-21T08:32:20.000Z</time>
        <extensions>
          <ns3:TrackPointExtension>
            <ns3:atemp>20.0</ns3:atemp>
          </ns3:TrackPointExtension>
        </extensions>
      </trkpt>
      <trkpt lat="43.1118618138134479522705078125" lon="13.12446168623864650726318359375">
        <ele>404.399993896484375</ele>
        <time>2021-05-21T08:32:46.000Z</time>
        <extensions>
          <ns3:TrackPointExtension>
            <ns3:atemp>21.0</ns3:atemp>
          </ns3:TrackPointExtension>
        </extensions>
      </trkpt>
      <trkpt lat="43.111857958137989044189453125" lon="13.12447727657854557037353515625">
        <ele>404.399993896484375</ele>
        <time>2021-05-21T08:32:51.000Z</time>
        <extensions>
          <ns3:TrackPointExtension>
            <ns3:atemp>21.0</ns3:atemp>
          </ns3:TrackPointExtension>
        </extensions>
      </trkpt>
      <trkpt lat="43.1118433736264705657958984375" lon="13.1245315074920654296875">
        <ele>404.399993896484375</ele>
        <time>2021-05-21T08:32:53.000Z</time>
        <extensions>
          <ns3:TrackPointExtension>
            <ns3:atemp>21.0</ns3:atemp>
          </ns3:TrackPointExtension>
        </extensions>
      </trkpt>
      <trkpt lat="43.11178109608590602874755859375" lon="13.1247496046125888824462890625">
        <ele>404.399993896484375</ele>
        <time>2021-05-21T08:32:58.000Z</time>
        <extensions>
          <ns3:TrackPointExtension>
            <ns3:atemp>21.0</ns3:atemp>
          </ns3:TrackPointExtension>
        </extensions>
      </trkpt>
      <trkpt lat="43.11173885129392147064208984375" lon="13.124920763075351715087890625">
        <ele>404</ele>
        <time>2021-05-21T08:33:03.000Z</time>
        <extensions>
          <ns3:TrackPointExtension>
            <ns3:atemp>21.0</ns3:atemp>
          </ns3:TrackPointExtension>
        </extensions>
      </trkpt>
      <trkpt lat="43.11173767782747745513916015625" lon="13.12492671422660350799560546875">
        <ele>403.600006103515625</ele>
        <time>2021-05-21T08:33:04.000Z</time>
        <extensions>
          <ns3:TrackPointExtension>
            <ns3:atemp>21.0</ns3:atemp>
          </ns3:TrackPointExtension>
        </extensions>
      </trkpt>
      <trkpt lat="43.11173491179943084716796875" lon="13.1249313242733478546142578125">
        <ele>403</ele>
        <time>2021-05-21T08:33:09.000Z</time>
        <extensions>
          <ns3:TrackPointExtension>
            <ns3:atemp>21.0</ns3:atemp>
          </ns3:TrackPointExtension>
        </extensions>
      </trkpt>
      <trkpt lat="43.11173382215201854705810546875" lon="13.12493124045431613922119140625">
        <ele>403</ele>
        <time>2021-05-21T08:33:31.000Z</time>
        <extensions>
          <ns3:TrackPointExtension>
            <ns3:atemp>21.0</ns3:atemp>
          </ns3:TrackPointExtension>
        </extensions>
      </trkpt>
      <trkpt lat="43.11173382215201854705810546875" lon="13.1249313242733478546142578125">
        <ele>403</ele>
        <time>2021-05-21T08:33:32.000Z</time>
        <extensions>
          <ns3:TrackPointExtension>
            <ns3:atemp>21.0</ns3:atemp>
          </ns3:TrackPointExtension>
        </extensions>
      </trkpt>
      <trkpt lat="43.1117344088852405548095703125" lon="13.12493056990206241607666015625">
        <ele>403</ele>
        <time>2021-05-21T08:33:46.000Z</time>
        <extensions>
          <ns3:TrackPointExtension>
            <ns3:atemp>21.0</ns3:atemp>
          </ns3:TrackPointExtension>
        </extensions>
      </trkpt>
      <trkpt lat="43.111732564866542816162109375" lon="13.1249316595494747161865234375">
        <ele>403</ele>
        <time>2021-05-21T08:34:25.000Z</time>
        <extensions>
          <ns3:TrackPointExtension>
            <ns3:atemp>22.0</ns3:atemp>
          </ns3:TrackPointExtension>
        </extensions>
      </trkpt>
      <trkpt lat="43.11172979883849620819091796875" lon="13.1249351799488067626953125">
        <ele>402.600006103515625</ele>
        <time>2021-05-21T08:35:02.000Z</time>
        <extensions>
          <ns3:TrackPointExtension>
            <ns3:atemp>22.0</ns3:atemp>
          </ns3:TrackPointExtension>
        </extensions>
      </trkpt>
      <trkpt lat="43.1117290444672107696533203125" lon="13.12493610195815563201904296875">
        <ele>402.600006103515625</ele>
        <time>2021-05-21T08:35:14.000Z</time>
        <extensions>
          <ns3:TrackPointExtension>
            <ns3:atemp>22.0</ns3:atemp>
          </ns3:TrackPointExtension>
        </extensions>
      </trkpt>
      <trkpt lat="43.11172946356236934661865234375" lon="13.12493383884429931640625">
        <ele>402</ele>
        <time>2021-05-21T08:35:43.000Z</time>
        <extensions>
          <ns3:TrackPointExtension>
            <ns3:atemp>23.0</ns3:atemp>
          </ns3:TrackPointExtension>
        </extensions>
      </trkpt>
      <trkpt lat="43.111743628978729248046875" lon="13.1249102018773555755615234375">
        <ele>401.79998779296875</ele>
        <time>2021-05-21T08:35:54.000Z</time>
        <extensions>
          <ns3:TrackPointExtension>
            <ns3:atemp>23.0</ns3:atemp>
          </ns3:TrackPointExtension>
        </extensions>
      </trkpt>
      <trkpt lat="43.1117498315870761871337890625" lon="13.12489503063261508941650390625">
        <ele>401.79998779296875</ele>
        <time>2021-05-21T08:35:57.000Z</time>
        <extensions>
          <ns3:TrackPointExtension>
            <ns3:atemp>23.0</ns3:atemp>
          </ns3:TrackPointExtension>
        </extensions>
      </trkpt>
      <trkpt lat="43.1117545254528522491455078125" lon="13.124855719506740570068359375">
        <ele>401.79998779296875</ele>
        <time>2021-05-21T08:35:59.000Z</time>
        <extensions>
          <ns3:TrackPointExtension>
            <ns3:atemp>23.0</ns3:atemp>
          </ns3:TrackPointExtension>
        </extensions>
      </trkpt>
      <trkpt lat="43.1117719598114490509033203125" lon="13.12478363513946533203125">
        <ele>401.600006103515625</ele>
        <time>2021-05-21T08:36:02.000Z</time>
        <extensions>
          <ns3:TrackPointExtension>
            <ns3:atemp>23.0</ns3:atemp>
          </ns3:TrackPointExtension>
        </extensions>
      </trkpt>
      <trkpt lat="43.1117991171777248382568359375" lon="13.12468380667269229888916015625">
        <ele>401.600006103515625</ele>
        <time>2021-05-21T08:36:06.000Z</time>
        <extensions>
          <ns3:TrackPointExtension>
            <ns3:atemp>23.0</ns3:atemp>
          </ns3:TrackPointExtension>
        </extensions>
      </trkpt>
      <trkpt lat="43.1118725426495075225830078125" lon="13.12448364682495594024658203125">
        <ele>401.79998779296875</ele>
        <time>2021-05-21T08:36:12.000Z</time>
        <extensions>
          <ns3:TrackPointExtension>
            <ns3:atemp>23.0</ns3:atemp>
          </ns3:TrackPointExtension>
        </extensions>
      </trkpt>
      <trkpt lat="43.11202065087854862213134765625" lon="13.12430259771645069122314453125">
        <ele>402.399993896484375</ele>
        <time>2021-05-21T08:36:18.000Z</time>
        <extensions>
          <ns3:TrackPointExtension>
            <ns3:atemp>23.0</ns3:atemp>
          </ns3:TrackPointExtension>
        </extensions>
      </trkpt>
      <trkpt lat="43.11221242882311344146728515625" lon="13.1241990812122821807861328125">
        <ele>403</ele>
        <time>2021-05-21T08:36:24.000Z</time>
        <extensions>
          <ns3:TrackPointExtension>
            <ns3:atemp>23.0</ns3:atemp>
          </ns3:TrackPointExtension>
        </extensions>
      </trkpt>
      <trkpt lat="43.11240923590958118438720703125" lon="13.12411601655185222625732421875">
        <ele>403</ele>
        <time>2021-05-21T08:36:29.000Z</time>
        <extensions>
          <ns3:TrackPointExtension>
            <ns3:atemp>23.0</ns3:atemp>
          </ns3:TrackPointExtension>
        </extensions>
      </trkpt>
      <trkpt lat="43.11249674297869205474853515625" lon="13.1240686587989330291748046875">
        <ele>403</ele>
        <time>2021-05-21T08:36:31.000Z</time>
        <extensions>
          <ns3:TrackPointExtension>
            <ns3:atemp>23.0</ns3:atemp>
          </ns3:TrackPointExtension>
        </extensions>
      </trkpt>
      <trkpt lat="43.1125695817172527313232421875" lon="13.1239764578640460968017578125">
        <ele>403</ele>
        <time>2021-05-21T08:36:33.000Z</time>
        <extensions>
          <ns3:TrackPointExtension>
            <ns3:atemp>23.0</ns3:atemp>
          </ns3:TrackPointExtension>
        </extensions>
      </trkpt>
      <trkpt lat="43.11261107213795185089111328125" lon="13.12373950146138668060302734375">
        <ele>402.600006103515625</ele>
        <time>2021-05-21T08:36:36.000Z</time>
        <extensions>
          <ns3:TrackPointExtension>
            <ns3:atemp>23.0</ns3:atemp>
          </ns3:TrackPointExtension>
        </extensions>
      </trkpt>
      <trkpt lat="43.11256614513695240020751953125" lon="13.123469687998294830322265625">
        <ele>401.79998779296875</ele>
        <time>2021-05-21T08:36:39.000Z</time>
        <extensions>
          <ns3:TrackPointExtension>
            <ns3:atemp>23.0</ns3:atemp>
          </ns3:TrackPointExtension>
        </extensions>
      </trkpt>
      <trkpt lat="43.11254493892192840576171875" lon="13.1233877129852771759033203125">
        <ele>401.79998779296875</ele>
        <time>2021-05-21T08:36:40.000Z</time>
        <extensions>
          <ns3:TrackPointExtension>
            <ns3:atemp>23.0</ns3:atemp>
          </ns3:TrackPointExtension>
        </extensions>
      </trkpt>
      <trkpt lat="43.11249137856066226959228515625" lon="13.1232318095862865447998046875">
        <ele>401.20001220703125</ele>
        <time>2021-05-21T08:36:42.000Z</time>
        <extensions>
          <ns3:TrackPointExtension>
            <ns3:atemp>23.0</ns3:atemp>
          </ns3:TrackPointExtension>
        </extensions>
      </trkpt>
      <trkpt lat="43.1124324537813663482666015625" lon="13.12306635081768035888671875">
        <ele>399.79998779296875</ele>
        <time>2021-05-21T08:36:44.000Z</time>
        <extensions>
          <ns3:TrackPointExtension>
            <ns3:atemp>23.0</ns3:atemp>
          </ns3:TrackPointExtension>
        </extensions>
      </trkpt>
      <trkpt lat="43.11239917762577533721923828125" lon="13.1229880638420581817626953125">
        <ele>398.79998779296875</ele>
        <time>2021-05-21T08:36:45.000Z</time>
        <extensions>
          <ns3:TrackPointExtension>
            <ns3:atemp>23.0</ns3:atemp>
          </ns3:TrackPointExtension>
        </extensions>
      </trkpt>
      <trkpt lat="43.1123667396605014801025390625" lon="13.12291388399899005889892578125">
        <ele>397.600006103515625</ele>
        <time>2021-05-21T08:36:46.000Z</time>
        <extensions>
          <ns3:TrackPointExtension>
            <ns3:atemp>23.0</ns3:atemp>
          </ns3:TrackPointExtension>
        </extensions>
      </trkpt>
      <trkpt lat="43.112339079380035400390625" lon="13.12284213490784168243408203125">
        <ele>396.79998779296875</ele>
        <time>2021-05-21T08:36:47.000Z</time>
        <extensions>
          <ns3:TrackPointExtension>
            <ns3:atemp>23.0</ns3:atemp>
          </ns3:TrackPointExtension>
        </extensions>
      </trkpt>
      <trkpt lat="43.1123216450214385986328125" lon="13.1227719783782958984375">
        <ele>396</ele>
        <time>2021-05-21T08:36:48.000Z</time>
        <extensions>
          <ns3:TrackPointExtension>
            <ns3:atemp>23.0</ns3:atemp>
          </ns3:TrackPointExtension>
        </extensions>
      </trkpt>
      <trkpt lat="43.11232793144881725311279296875" lon="13.122707940638065338134765625">
        <ele>395</ele>
        <time>2021-05-21T08:36:49.000Z</time>
        <extensions>
          <ns3:TrackPointExtension>
            <ns3:atemp>23.0</ns3:atemp>
          </ns3:TrackPointExtension>
        </extensions>
      </trkpt>
      <trkpt lat="43.11235324479639530181884765625" lon="13.122666366398334503173828125">
        <ele>393.79998779296875</ele>
        <time>2021-05-21T08:36:50.000Z</time>
        <extensions>
          <ns3:TrackPointExtension>
            <ns3:atemp>23.0</ns3:atemp>
          </ns3:TrackPointExtension>
        </extensions>
      </trkpt>
      <trkpt lat="43.1123945675790309906005859375" lon="13.12265287153422832489013671875">
        <ele>392.399993896484375</ele>
        <time>2021-05-21T08:36:51.000Z</time>
        <extensions>
          <ns3:TrackPointExtension>
            <ns3:atemp>23.0</ns3:atemp>
          </ns3:TrackPointExtension>
        </extensions>
      </trkpt>
      <trkpt lat="43.11244569718837738037109375" lon="13.12267667613923549652099609375">
        <ele>391</ele>
        <time>2021-05-21T08:36:52.000Z</time>
        <extensions>
          <ns3:TrackPointExtension>
            <ns3:atemp>23.0</ns3:atemp>
          </ns3:TrackPointExtension>
        </extensions>
      </trkpt>
      <trkpt lat="43.112497664988040924072265625" lon="13.12271472997963428497314453125">
        <ele>389.399993896484375</ele>
        <time>2021-05-21T08:36:53.000Z</time>
        <extensions>
          <ns3:TrackPointExtension>
            <ns3:atemp>23.0</ns3:atemp>
          </ns3:TrackPointExtension>
        </extensions>
      </trkpt>
      <trkpt lat="43.1125427596271038055419921875" lon="13.122760243713855743408203125">
        <ele>387.600006103515625</ele>
        <time>2021-05-21T08:36:54.000Z</time>
        <extensions>
          <ns3:TrackPointExtension>
            <ns3:atemp>23.0</ns3:atemp>
          </ns3:TrackPointExtension>
        </extensions>
      </trkpt>
      <trkpt lat="43.11258374713361263275146484375" lon="13.12281078658998012542724609375">
        <ele>386.399993896484375</ele>
        <time>2021-05-21T08:36:55.000Z</time>
        <extensions>
          <ns3:TrackPointExtension>
            <ns3:atemp>23.0</ns3:atemp>
          </ns3:TrackPointExtension>
        </extensions>
      </trkpt>
      <trkpt lat="43.11266354285180568695068359375" lon="13.1229042448103427886962890625">
        <ele>384.600006103515625</ele>
        <time>2021-05-21T08:36:57.000Z</time>
        <extensions>
          <ns3:TrackPointExtension>
            <ns3:atemp>23.0</ns3:atemp>
          </ns3:TrackPointExtension>
        </extensions>
      </trkpt>
      <trkpt lat="43.1127011775970458984375" lon="13.12292075715959072113037109375">
        <ele>383.79998779296875</ele>
        <time>2021-05-21T08:36:58.000Z</time>
        <extensions>
          <ns3:TrackPointExtension>
            <ns3:atemp>23.0</ns3:atemp>
          </ns3:TrackPointExtension>
        </extensions>
      </trkpt>
      <trkpt lat="43.11273378320038318634033203125" lon="13.1229045800864696502685546875">
        <ele>383.20001220703125</ele>
        <time>2021-05-21T08:36:59.000Z</time>
        <extensions>
          <ns3:TrackPointExtension>
            <ns3:atemp>23.0</ns3:atemp>
          </ns3:TrackPointExtension>
        </extensions>
      </trkpt>
      <trkpt lat="43.112730681896209716796875" lon="13.12286292202770709991455078125">
        <ele>382.399993896484375</ele>
        <time>2021-05-21T08:37:00.000Z</time>
        <extensions>
          <ns3:TrackPointExtension>
            <ns3:atemp>23.0</ns3:atemp>
          </ns3:TrackPointExtension>
        </extensions>
      </trkpt>
      <trkpt lat="43.112715594470500946044921875" lon="13.12280525453388690948486328125">
        <ele>381.79998779296875</ele>
        <time>2021-05-21T08:37:01.000Z</time>
        <extensions>
          <ns3:TrackPointExtension>
            <ns3:atemp>23.0</ns3:atemp>
          </ns3:TrackPointExtension>
        </extensions>
      </trkpt>
      <trkpt lat="43.112666308879852294921875" lon="13.12269343994557857513427734375">
        <ele>379.79998779296875</ele>
        <time>2021-05-21T08:37:03.000Z</time>
        <extensions>
          <ns3:TrackPointExtension>
            <ns3:atemp>23.0</ns3:atemp>
          </ns3:TrackPointExtension>
        </extensions>
      </trkpt>
      <trkpt lat="43.11262180097401142120361328125" lon="13.12254658900201320648193359375">
        <ele>378</ele>
        <time>2021-05-21T08:37:07.000Z</time>
        <extensions>
          <ns3:TrackPointExtension>
            <ns3:atemp>23.0</ns3:atemp>
          </ns3:TrackPointExtension>
        </extensions>
      </trkpt>
      <trkpt lat="43.1126289255917072296142578125" lon="13.12251792289316654205322265625">
        <ele>376.20001220703125</ele>
        <time>2021-05-21T08:37:09.000Z</time>
        <extensions>
          <ns3:TrackPointExtension>
            <ns3:atemp>23.0</ns3:atemp>
          </ns3:TrackPointExtension>
        </extensions>
      </trkpt>
      <trkpt lat="43.1126274168491363525390625" lon="13.12251104973256587982177734375">
        <ele>375.600006103515625</ele>
        <time>2021-05-21T08:37:11.000Z</time>
        <extensions>
          <ns3:TrackPointExtension>
            <ns3:atemp>23.0</ns3:atemp>
          </ns3:TrackPointExtension>
        </extensions>
      </trkpt>
      <trkpt lat="43.11262062750756740570068359375" lon="13.1224650330841541290283203125">
        <ele>375.20001220703125</ele>
        <time>2021-05-21T08:37:16.000Z</time>
        <extensions>
          <ns3:TrackPointExtension>
            <ns3:atemp>23.0</ns3:atemp>
          </ns3:TrackPointExtension>
        </extensions>
      </trkpt>
      <trkpt lat="43.11260855756700038909912109375" lon="13.12241859734058380126953125">
        <ele>375</ele>
        <time>2021-05-21T08:37:18.000Z</time>
        <extensions>
          <ns3:TrackPointExtension>
            <ns3:atemp>23.0</ns3:atemp>
          </ns3:TrackPointExtension>
        </extensions>
      </trkpt>
      <trkpt lat="43.11258425004780292510986328125" lon="13.12234525568783283233642578125">
        <ele>375</ele>
        <time>2021-05-21T08:37:20.000Z</time>
        <extensions>
          <ns3:TrackPointExtension>
            <ns3:atemp>23.0</ns3:atemp>
          </ns3:TrackPointExtension>
        </extensions>
      </trkpt>
      <trkpt lat="43.11254837550222873687744140625" lon="13.12225230038166046142578125">
        <ele>374.79998779296875</ele>
        <time>2021-05-21T08:37:22.000Z</time>
        <extensions>
          <ns3:TrackPointExtension>
            <ns3:atemp>23.0</ns3:atemp>
          </ns3:TrackPointExtension>
        </extensions>
      </trkpt>
      <trkpt lat="43.112486936151981353759765625" lon="13.122092373669147491455078125">
        <ele>374.79998779296875</ele>
        <time>2021-05-21T08:37:25.000Z</time>
        <extensions>
          <ns3:TrackPointExtension>
            <ns3:atemp>23.0</ns3:atemp>
          </ns3:TrackPointExtension>
        </extensions>
      </trkpt>
      <trkpt lat="43.11246715486049652099609375" lon="13.1219725124537944793701171875">
        <ele>374.399993896484375</ele>
        <time>2021-05-21T08:37:27.000Z</time>
        <extensions>
          <ns3:TrackPointExtension>
            <ns3:atemp>23.0</ns3:atemp>
          </ns3:TrackPointExtension>
        </extensions>
      </trkpt>
      <trkpt lat="43.1124651432037353515625" lon="13.12191442586481571197509765625">
        <ele>374.20001220703125</ele>
        <time>2021-05-21T08:37:28.000Z</time>
        <extensions>
          <ns3:TrackPointExtension>
            <ns3:atemp>22.0</ns3:atemp>
          </ns3:TrackPointExtension>
        </extensions>
      </trkpt>
      <trkpt lat="43.1124109961092472076416015625" lon="13.12177645973861217498779296875">
        <ele>373</ele>
        <time>2021-05-21T08:37:31.000Z</time>
        <extensions>
          <ns3:TrackPointExtension>
            <ns3:atemp>22.0</ns3:atemp>
          </ns3:TrackPointExtension>
        </extensions>
      </trkpt>
      <trkpt lat="43.1123415939509868621826171875" lon="13.12171585857868194580078125">
        <ele>371.600006103515625</ele>
        <time>2021-05-21T08:37:33.000Z</time>
        <extensions>
          <ns3:TrackPointExtension>
            <ns3:atemp>22.0</ns3:atemp>
          </ns3:TrackPointExtension>
        </extensions>
      </trkpt>
      <trkpt lat="43.11228744685649871826171875" lon="13.12165626324713230133056640625">
        <ele>370</ele>
        <time>2021-05-21T08:37:35.000Z</time>
        <extensions>
          <ns3:TrackPointExtension>
            <ns3:atemp>22.0</ns3:atemp>
          </ns3:TrackPointExtension>
        </extensions>
      </trkpt>
      <trkpt lat="43.112276382744312286376953125" lon="13.121607564389705657958984375">
        <ele>369.399993896484375</ele>
        <time>2021-05-21T08:37:36.000Z</time>
        <extensions>
          <ns3:TrackPointExtension>
            <ns3:atemp>22.0</ns3:atemp>
          </ns3:TrackPointExtension>
        </extensions>
      </trkpt>
      <trkpt lat="43.1122970022261142730712890625" lon="13.12154528684914112091064453125">
        <ele>368.79998779296875</ele>
        <time>2021-05-21T08:37:37.000Z</time>
        <extensions>
          <ns3:TrackPointExtension>
            <ns3:atemp>22.0</ns3:atemp>
          </ns3:TrackPointExtension>
        </extensions>
      </trkpt>
      <trkpt lat="43.11232374049723148345947265625" lon="13.12149063684046268463134765625">
        <ele>368.20001220703125</ele>
        <time>2021-05-21T08:37:38.000Z</time>
        <extensions>
          <ns3:TrackPointExtension>
            <ns3:atemp>22.0</ns3:atemp>
          </ns3:TrackPointExtension>
        </extensions>
      </trkpt>
      <trkpt lat="43.11235852539539337158203125" lon="13.12136105261743068695068359375">
        <ele>367.600006103515625</ele>
        <time>2021-05-21T08:37:40.000Z</time>
        <extensions>
          <ns3:TrackPointExtension>
            <ns3:atemp>22.0</ns3:atemp>
          </ns3:TrackPointExtension>
        </extensions>
      </trkpt>
      <trkpt lat="43.1123563461005687713623046875" lon="13.121289052069187164306640625">
        <ele>367.20001220703125</ele>
        <time>2021-05-21T08:37:41.000Z</time>
        <extensions>
          <ns3:TrackPointExtension>
            <ns3:atemp>22.0</ns3:atemp>
          </ns3:TrackPointExtension>
        </extensions>
      </trkpt>
      <trkpt lat="43.11235181987285614013671875" lon="13.12121520750224590301513671875">
        <ele>367</ele>
        <time>2021-05-21T08:37:42.000Z</time>
        <extensions>
          <ns3:TrackPointExtension>
            <ns3:atemp>22.0</ns3:atemp>
          </ns3:TrackPointExtension>
        </extensions>
      </trkpt>
      <trkpt lat="43.11233597807586193084716796875" lon="13.12108377926051616668701171875">
        <ele>365.79998779296875</ele>
        <time>2021-05-21T08:37:44.000Z</time>
        <extensions>
          <ns3:TrackPointExtension>
            <ns3:atemp>22.0</ns3:atemp>
          </ns3:TrackPointExtension>
        </extensions>
      </trkpt>
      <trkpt lat="43.112315274775028228759765625" lon="13.12104270793497562408447265625">
        <ele>364.399993896484375</ele>
        <time>2021-05-21T08:37:45.000Z</time>
        <extensions>
          <ns3:TrackPointExtension>
            <ns3:atemp>22.0</ns3:atemp>
          </ns3:TrackPointExtension>
        </extensions>
      </trkpt>
      <trkpt lat="43.1122939847409725189208984375" lon="13.1210179813206195831298828125">
        <ele>363.20001220703125</ele>
        <time>2021-05-21T08:37:46.000Z</time>
        <extensions>
          <ns3:TrackPointExtension>
            <ns3:atemp>22.0</ns3:atemp>
          </ns3:TrackPointExtension>
        </extensions>
      </trkpt>
      <trkpt lat="43.112272359430789947509765625" lon="13.12100431881844997406005859375">
        <ele>362.20001220703125</ele>
        <time>2021-05-21T08:37:47.000Z</time>
        <extensions>
          <ns3:TrackPointExtension>
            <ns3:atemp>22.0</ns3:atemp>
          </ns3:TrackPointExtension>
        </extensions>
      </trkpt>
      <trkpt lat="43.11224595643579959869384765625" lon="13.1209888122975826263427734375">
        <ele>360.79998779296875</ele>
        <time>2021-05-21T08:37:48.000Z</time>
        <extensions>
          <ns3:TrackPointExtension>
            <ns3:atemp>22.0</ns3:atemp>
          </ns3:TrackPointExtension>
        </extensions>
      </trkpt>
      <trkpt lat="43.1122115068137645721435546875" lon="13.12096081674098968505859375">
        <ele>359.79998779296875</ele>
        <time>2021-05-21T08:37:49.000Z</time>
        <extensions>
          <ns3:TrackPointExtension>
            <ns3:atemp>22.0</ns3:atemp>
          </ns3:TrackPointExtension>
        </extensions>
      </trkpt>
      <trkpt lat="43.1121766380965709686279296875" lon="13.12091697938740253448486328125">
        <ele>359</ele>
        <time>2021-05-21T08:37:50.000Z</time>
        <extensions>
          <ns3:TrackPointExtension>
            <ns3:atemp>22.0</ns3:atemp>
          </ns3:TrackPointExtension>
        </extensions>
      </trkpt>
      <trkpt lat="43.11213565059006214141845703125" lon="13.1208701245486736297607421875">
        <ele>358.20001220703125</ele>
        <time>2021-05-21T08:37:51.000Z</time>
        <extensions>
          <ns3:TrackPointExtension>
            <ns3:atemp>22.0</ns3:atemp>
          </ns3:TrackPointExtension>
        </extensions>
      </trkpt>
      <trkpt lat="43.11210572719573974609375" lon="13.12082578428089618682861328125">
        <ele>357.399993896484375</ele>
        <time>2021-05-21T08:37:52.000Z</time>
        <extensions>
          <ns3:TrackPointExtension>
            <ns3:atemp>22.0</ns3:atemp>
          </ns3:TrackPointExtension>
        </extensions>
      </trkpt>
      <trkpt lat="43.11208569444715976715087890625" lon="13.12076845206320285797119140625">
        <ele>356.79998779296875</ele>
        <time>2021-05-21T08:37:53.000Z</time>
        <extensions>
          <ns3:TrackPointExtension>
            <ns3:atemp>22.0</ns3:atemp>
          </ns3:TrackPointExtension>
        </extensions>
      </trkpt>
      <trkpt lat="43.11207731254398822784423828125" lon="13.12060332857072353363037109375">
        <ele>355.600006103515625</ele>
        <time>2021-05-21T08:37:55.000Z</time>
        <extensions>
          <ns3:TrackPointExtension>
            <ns3:atemp>22.0</ns3:atemp>
          </ns3:TrackPointExtension>
        </extensions>
      </trkpt>
      <trkpt lat="43.11210899613797664642333984375" lon="13.1203957088291645050048828125">
        <ele>354.399993896484375</ele>
        <time>2021-05-21T08:37:57.000Z</time>
        <extensions>
          <ns3:TrackPointExtension>
            <ns3:atemp>22.0</ns3:atemp>
          </ns3:TrackPointExtension>
        </extensions>
      </trkpt>
      <trkpt lat="43.11212022788822650909423828125" lon="13.1202786974608898162841796875">
        <ele>353.20001220703125</ele>
        <time>2021-05-21T08:37:58.000Z</time>
        <extensions>
          <ns3:TrackPointExtension>
            <ns3:atemp>22.0</ns3:atemp>
          </ns3:TrackPointExtension>
        </extensions>
      </trkpt>
      <trkpt lat="43.112154342234134674072265625" lon="13.12017903663218021392822265625">
        <ele>351.79998779296875</ele>
        <time>2021-05-21T08:37:59.000Z</time>
        <extensions>
          <ns3:TrackPointExtension>
            <ns3:atemp>22.0</ns3:atemp>
          </ns3:TrackPointExtension>
        </extensions>
      </trkpt>
      <trkpt lat="43.11220589093863964080810546875" lon="13.1201130710542201995849609375">
        <ele>350.79998779296875</ele>
        <time>2021-05-21T08:38:00.000Z</time>
        <extensions>
          <ns3:TrackPointExtension>
            <ns3:atemp>22.0</ns3:atemp>
          </ns3:TrackPointExtension>
        </extensions>
      </trkpt>
      <trkpt lat="43.11225534416735172271728515625" lon="13.1200785376131534576416015625">
        <ele>349.79998779296875</ele>
        <time>2021-05-21T08:38:01.000Z</time>
        <extensions>
          <ns3:TrackPointExtension>
            <ns3:atemp>22.0</ns3:atemp>
          </ns3:TrackPointExtension>
        </extensions>
      </trkpt>
      <trkpt lat="43.1123040430247783660888671875" lon="13.1200594268739223480224609375">
        <ele>348</ele>
        <time>2021-05-21T08:38:02.000Z</time>
        <extensions>
          <ns3:TrackPointExtension>
            <ns3:atemp>22.0</ns3:atemp>
          </ns3:TrackPointExtension>
        </extensions>
      </trkpt>
      <trkpt lat="43.112347126007080078125" lon="13.12004475854337215423583984375">
        <ele>347.600006103515625</ele>
        <time>2021-05-21T08:38:03.000Z</time>
        <extensions>
          <ns3:TrackPointExtension>
            <ns3:atemp>22.0</ns3:atemp>
          </ns3:TrackPointExtension>
        </extensions>
      </trkpt>
      <trkpt lat="43.11242767609655857086181640625" lon="13.12002983875572681427001953125">
        <ele>347.20001220703125</ele>
        <time>2021-05-21T08:38:05.000Z</time>
        <extensions>
          <ns3:TrackPointExtension>
            <ns3:atemp>22.0</ns3:atemp>
          </ns3:TrackPointExtension>
        </extensions>
      </trkpt>
      <trkpt lat="43.1127724237740039825439453125" lon="13.11994903720915317535400390625">
        <ele>347.399993896484375</ele>
        <time>2021-05-21T08:38:13.000Z</time>
        <extensions>
          <ns3:TrackPointExtension>
            <ns3:atemp>22.0</ns3:atemp>
          </ns3:TrackPointExtension>
        </extensions>
      </trkpt>
      <trkpt lat="43.11302832327783107757568359375" lon="13.119921125471591949462890625">
        <ele>349</ele>
        <time>2021-05-21T08:38:19.000Z</time>
        <extensions>
          <ns3:TrackPointExtension>
            <ns3:atemp>22.0</ns3:atemp>
          </ns3:TrackPointExtension>
        </extensions>
      </trkpt>
      <trkpt lat="43.11315170489251613616943359375" lon="13.11990846879780292510986328125">
        <ele>349.79998779296875</ele>
        <time>2021-05-21T08:38:22.000Z</time>
        <extensions>
          <ns3:TrackPointExtension>
            <ns3:atemp>22.0</ns3:atemp>
          </ns3:TrackPointExtension>
        </extensions>
      </trkpt>
      <trkpt lat="43.11323552392423152923583984375" lon="13.1198877654969692230224609375">
        <ele>350.20001220703125</ele>
        <time>2021-05-21T08:38:24.000Z</time>
        <extensions>
          <ns3:TrackPointExtension>
            <ns3:atemp>22.0</ns3:atemp>
          </ns3:TrackPointExtension>
        </extensions>
      </trkpt>
      <trkpt lat="43.11336829327046871185302734375" lon="13.11985574662685394287109375">
        <ele>351</ele>
        <time>2021-05-21T08:38:27.000Z</time>
        <extensions>
          <ns3:TrackPointExtension>
            <ns3:atemp>22.0</ns3:atemp>
          </ns3:TrackPointExtension>
        </extensions>
      </trkpt>
      <trkpt lat="43.11345932073891162872314453125" lon="13.11984376050531864166259765625">
        <ele>351.399993896484375</ele>
        <time>2021-05-21T08:38:29.000Z</time>
        <extensions>
          <ns3:TrackPointExtension>
            <ns3:atemp>22.0</ns3:atemp>
          </ns3:TrackPointExtension>
        </extensions>
      </trkpt>
      <trkpt lat="43.113500811159610748291015625" lon="13.119834624230861663818359375">
        <ele>351.600006103515625</ele>
        <time>2021-05-21T08:38:30.000Z</time>
        <extensions>
          <ns3:TrackPointExtension>
            <ns3:atemp>22.0</ns3:atemp>
          </ns3:TrackPointExtension>
        </extensions>
      </trkpt>
      <trkpt lat="43.113542385399341583251953125" lon="13.11982280574738979339599609375">
        <ele>352</ele>
        <time>2021-05-21T08:38:31.000Z</time>
        <extensions>
          <ns3:TrackPointExtension>
            <ns3:atemp>22.0</ns3:atemp>
          </ns3:TrackPointExtension>
        </extensions>
      </trkpt>
      <trkpt lat="43.11358454637229442596435546875" lon="13.11980956234037876129150390625">
        <ele>352.399993896484375</ele>
        <time>2021-05-21T08:38:32.000Z</time>
        <extensions>
          <ns3:TrackPointExtension>
            <ns3:atemp>22.0</ns3:atemp>
          </ns3:TrackPointExtension>
        </extensions>
      </trkpt>
      <trkpt lat="43.11383013613522052764892578125" lon="13.11971887014806270599365234375">
        <ele>353.600006103515625</ele>
        <time>2021-05-21T08:38:38.000Z</time>
        <extensions>
          <ns3:TrackPointExtension>
            <ns3:atemp>22.0</ns3:atemp>
          </ns3:TrackPointExtension>
        </extensions>
      </trkpt>
      <trkpt lat="43.1139113567769527435302734375" lon="13.119686432182788848876953125">
        <ele>354</ele>
        <time>2021-05-21T08:38:40.000Z</time>
        <extensions>
          <ns3:TrackPointExtension>
            <ns3:atemp>22.0</ns3:atemp>
          </ns3:TrackPointExtension>
        </extensions>
      </trkpt>
      <trkpt lat="43.11399458907544612884521484375" lon="13.119654916226863861083984375">
        <ele>354.79998779296875</ele>
        <time>2021-05-21T08:38:42.000Z</time>
        <extensions>
          <ns3:TrackPointExtension>
            <ns3:atemp>22.0</ns3:atemp>
          </ns3:TrackPointExtension>
        </extensions>
      </trkpt>
      <trkpt lat="43.11412014998495578765869140625" lon="13.1196027807891368865966796875">
        <ele>356</ele>
        <time>2021-05-21T08:38:45.000Z</time>
        <extensions>
          <ns3:TrackPointExtension>
            <ns3:atemp>22.0</ns3:atemp>
          </ns3:TrackPointExtension>
        </extensions>
      </trkpt>
      <trkpt lat="43.11427035368978977203369140625" lon="13.11950513161718845367431640625">
        <ele>357</ele>
        <time>2021-05-21T08:38:49.000Z</time>
        <extensions>
          <ns3:TrackPointExtension>
            <ns3:atemp>22.0</ns3:atemp>
          </ns3:TrackPointExtension>
        </extensions>
      </trkpt>
      <trkpt lat="43.1143723614513874053955078125" lon="13.11942801810801029205322265625">
        <ele>358.399993896484375</ele>
        <time>2021-05-21T08:38:52.000Z</time>
        <extensions>
          <ns3:TrackPointExtension>
            <ns3:atemp>22.0</ns3:atemp>
          </ns3:TrackPointExtension>
        </extensions>
      </trkpt>
      <trkpt lat="43.114463388919830322265625" lon="13.1193362362682819366455078125">
        <ele>359.600006103515625</ele>
        <time>2021-05-21T08:38:55.000Z</time>
        <extensions>
          <ns3:TrackPointExtension>
            <ns3:atemp>22.0</ns3:atemp>
          </ns3:TrackPointExtension>
        </extensions>
      </trkpt>
      <trkpt lat="43.11451963149011135101318359375" lon="13.1192654930055141448974609375">
        <ele>360.399993896484375</ele>
        <time>2021-05-21T08:38:57.000Z</time>
        <extensions>
          <ns3:TrackPointExtension>
            <ns3:atemp>22.0</ns3:atemp>
          </ns3:TrackPointExtension>
        </extensions>
      </trkpt>
      <trkpt lat="43.1145467050373554229736328125" lon="13.1192323006689548492431640625">
        <ele>360.79998779296875</ele>
        <time>2021-05-21T08:38:58.000Z</time>
        <extensions>
          <ns3:TrackPointExtension>
            <ns3:atemp>22.0</ns3:atemp>
          </ns3:TrackPointExtension>
        </extensions>
      </trkpt>
      <trkpt lat="43.1145919673144817352294921875" lon="13.11918058432638645172119140625">
        <ele>362.399993896484375</ele>
        <time>2021-05-21T08:39:00.000Z</time>
        <extensions>
          <ns3:TrackPointExtension>
            <ns3:atemp>22.0</ns3:atemp>
          </ns3:TrackPointExtension>
        </extensions>
      </trkpt>
      <trkpt lat="43.1146365590393543243408203125" lon="13.119121827185153961181640625">
        <ele>363.399993896484375</ele>
        <time>2021-05-21T08:39:02.000Z</time>
        <extensions>
          <ns3:TrackPointExtension>
            <ns3:atemp>22.0</ns3:atemp>
          </ns3:TrackPointExtension>
        </extensions>
      </trkpt>
      <trkpt lat="43.1146643869578838348388671875" lon="13.11909106560051441192626953125">
        <ele>363.79998779296875</ele>
        <time>2021-05-21T08:39:03.000Z</time>
        <extensions>
          <ns3:TrackPointExtension>
            <ns3:atemp>22.0</ns3:atemp>
          </ns3:TrackPointExtension>
        </extensions>
      </trkpt>
      <trkpt lat="43.11479086987674236297607421875" lon="13.118980340659618377685546875">
        <ele>364.79998779296875</ele>
        <time>2021-05-21T08:39:07.000Z</time>
        <extensions>
          <ns3:TrackPointExtension>
            <ns3:atemp>22.0</ns3:atemp>
          </ns3:TrackPointExtension>
        </extensions>
      </trkpt>
      <trkpt lat="43.1148239783942699432373046875" lon="13.11895963735878467559814453125">
        <ele>365.20001220703125</ele>
        <time>2021-05-21T08:39:08.000Z</time>
        <extensions>
          <ns3:TrackPointExtension>
            <ns3:atemp>22.0</ns3:atemp>
          </ns3:TrackPointExtension>
        </extensions>
      </trkpt>
      <trkpt lat="43.11493369750678539276123046875" lon="13.1189261935651302337646484375">
        <ele>366.20001220703125</ele>
        <time>2021-05-21T08:39:11.000Z</time>
        <extensions>
          <ns3:TrackPointExtension>
            <ns3:atemp>22.0</ns3:atemp>
          </ns3:TrackPointExtension>
        </extensions>
      </trkpt>
      <trkpt lat="43.11504852958023548126220703125" lon="13.1189245171844959259033203125">
        <ele>366.79998779296875</ele>
        <time>2021-05-21T08:39:14.000Z</time>
        <extensions>
          <ns3:TrackPointExtension>
            <ns3:atemp>22.0</ns3:atemp>
          </ns3:TrackPointExtension>
        </extensions>
      </trkpt>
      <trkpt lat="43.115124218165874481201171875" lon="13.118931390345096588134765625">
        <ele>367.20001220703125</ele>
        <time>2021-05-21T08:39:16.000Z</time>
        <extensions>
          <ns3:TrackPointExtension>
            <ns3:atemp>22.0</ns3:atemp>
          </ns3:TrackPointExtension>
        </extensions>
      </trkpt>
      <trkpt lat="43.11523142270743846893310546875" lon="13.11894589103758335113525390625">
        <ele>368.399993896484375</ele>
        <time>2021-05-21T08:39:19.000Z</time>
        <extensions>
          <ns3:TrackPointExtension>
            <ns3:atemp>22.0</ns3:atemp>
          </ns3:TrackPointExtension>
        </extensions>
      </trkpt>
      <trkpt lat="43.11534650623798370361328125" lon="13.118979670107364654541015625">
        <ele>369.20001220703125</ele>
        <time>2021-05-21T08:39:22.000Z</time>
        <extensions>
          <ns3:TrackPointExtension>
            <ns3:atemp>22.0</ns3:atemp>
          </ns3:TrackPointExtension>
        </extensions>
      </trkpt>
      <trkpt lat="43.11538665555417537689208984375" lon="13.11899400316178798675537109375">
        <ele>369.399993896484375</ele>
        <time>2021-05-21T08:39:23.000Z</time>
        <extensions>
          <ns3:TrackPointExtension>
            <ns3:atemp>22.0</ns3:atemp>
          </ns3:TrackPointExtension>
        </extensions>
      </trkpt>
      <trkpt lat="43.115731738507747650146484375" lon="13.11908327043056488037109375">
        <ele>370.20001220703125</ele>
        <time>2021-05-21T08:39:31.000Z</time>
        <extensions>
          <ns3:TrackPointExtension>
            <ns3:atemp>22.0</ns3:atemp>
          </ns3:TrackPointExtension>
        </extensions>
      </trkpt>
      <trkpt lat="43.1158157251775264739990234375" lon="13.119110763072967529296875">
        <ele>370.79998779296875</ele>
        <time>2021-05-21T08:39:33.000Z</time>
        <extensions>
          <ns3:TrackPointExtension>
            <ns3:atemp>22.0</ns3:atemp>
          </ns3:TrackPointExtension>
        </extensions>
      </trkpt>
      <trkpt lat="43.11593667604029178619384765625" lon="13.11915376223623752593994140625">
        <ele>372</ele>
        <time>2021-05-21T08:39:36.000Z</time>
        <extensions>
          <ns3:TrackPointExtension>
            <ns3:atemp>22.0</ns3:atemp>
          </ns3:TrackPointExtension>
        </extensions>
      </trkpt>
      <trkpt lat="43.11601345427334308624267578125" lon="13.1191880442202091217041015625">
        <ele>372.600006103515625</ele>
        <time>2021-05-21T08:39:38.000Z</time>
        <extensions>
          <ns3:TrackPointExtension>
            <ns3:atemp>22.0</ns3:atemp>
          </ns3:TrackPointExtension>
        </extensions>
      </trkpt>
      <trkpt lat="43.1160497479140758514404296875" lon="13.11920489184558391571044921875">
        <ele>373</ele>
        <time>2021-05-21T08:39:39.000Z</time>
        <extensions>
          <ns3:TrackPointExtension>
            <ns3:atemp>22.0</ns3:atemp>
          </ns3:TrackPointExtension>
        </extensions>
      </trkpt>
      <trkpt lat="43.11615510843694210052490234375" lon="13.11924126930534839630126953125">
        <ele>374.20001220703125</ele>
        <time>2021-05-21T08:39:42.000Z</time>
        <extensions>
          <ns3:TrackPointExtension>
            <ns3:atemp>22.0</ns3:atemp>
          </ns3:TrackPointExtension>
        </extensions>
      </trkpt>
      <trkpt lat="43.11623875983059406280517578125" lon="13.11926993541419506072998046875">
        <ele>374.79998779296875</ele>
        <time>2021-05-21T08:39:44.000Z</time>
        <extensions>
          <ns3:TrackPointExtension>
            <ns3:atemp>22.0</ns3:atemp>
          </ns3:TrackPointExtension>
        </extensions>
      </trkpt>
      <trkpt lat="43.11628167517483234405517578125" lon="13.11928468756377696990966796875">
        <ele>375.20001220703125</ele>
        <time>2021-05-21T08:39:45.000Z</time>
        <extensions>
          <ns3:TrackPointExtension>
            <ns3:atemp>22.0</ns3:atemp>
          </ns3:TrackPointExtension>
        </extensions>
      </trkpt>
      <trkpt lat="43.1164537556469440460205078125" lon="13.1193295307457447052001953125">
        <ele>376.399993896484375</ele>
        <time>2021-05-21T08:39:49.000Z</time>
        <extensions>
          <ns3:TrackPointExtension>
            <ns3:atemp>22.0</ns3:atemp>
          </ns3:TrackPointExtension>
        </extensions>
      </trkpt>
      <trkpt lat="43.1164966709911823272705078125" lon="13.11932844109833240509033203125">
        <ele>376.79998779296875</ele>
        <time>2021-05-21T08:39:50.000Z</time>
        <extensions>
          <ns3:TrackPointExtension>
            <ns3:atemp>22.0</ns3:atemp>
          </ns3:TrackPointExtension>
        </extensions>
      </trkpt>
      <trkpt lat="43.1165399216115474700927734375" lon="13.11932290904223918914794921875">
        <ele>377</ele>
        <time>2021-05-21T08:39:51.000Z</time>
        <extensions>
          <ns3:TrackPointExtension>
            <ns3:atemp>22.0</ns3:atemp>
          </ns3:TrackPointExtension>
        </extensions>
      </trkpt>
      <trkpt lat="43.1166213937103748321533203125" lon="13.11931352131068706512451171875">
        <ele>377.600006103515625</ele>
        <time>2021-05-21T08:39:53.000Z</time>
        <extensions>
          <ns3:TrackPointExtension>
            <ns3:atemp>22.0</ns3:atemp>
          </ns3:TrackPointExtension>
        </extensions>
      </trkpt>
      <trkpt lat="43.11677285470068454742431640625" lon="13.11924110166728496551513671875">
        <ele>378.600006103515625</ele>
        <time>2021-05-21T08:39:57.000Z</time>
        <extensions>
          <ns3:TrackPointExtension>
            <ns3:atemp>22.0</ns3:atemp>
          </ns3:TrackPointExtension>
        </extensions>
      </trkpt>
      <trkpt lat="43.11680856160819530487060546875" lon="13.119219727814197540283203125">
        <ele>378.79998779296875</ele>
        <time>2021-05-21T08:39:58.000Z</time>
        <extensions>
          <ns3:TrackPointExtension>
            <ns3:atemp>22.0</ns3:atemp>
          </ns3:TrackPointExtension>
        </extensions>
      </trkpt>
      <trkpt lat="43.11691702343523502349853515625" lon="13.1191618926823139190673828125">
        <ele>379.79998779296875</ele>
        <time>2021-05-21T08:40:01.000Z</time>
        <extensions>
          <ns3:TrackPointExtension>
            <ns3:atemp>22.0</ns3:atemp>
          </ns3:TrackPointExtension>
        </extensions>
      </trkpt>
      <trkpt lat="43.11705918051302433013916015625" lon="13.11908301897346973419189453125">
        <ele>381</ele>
        <time>2021-05-21T08:40:05.000Z</time>
        <extensions>
          <ns3:TrackPointExtension>
            <ns3:atemp>22.0</ns3:atemp>
          </ns3:TrackPointExtension>
        </extensions>
      </trkpt>
      <trkpt lat="43.11709396541118621826171875" lon="13.1190638244152069091796875">
        <ele>381.20001220703125</ele>
        <time>2021-05-21T08:40:06.000Z</time>
        <extensions>
          <ns3:TrackPointExtension>
            <ns3:atemp>22.0</ns3:atemp>
          </ns3:TrackPointExtension>
        </extensions>
      </trkpt>
      <trkpt lat="43.11716613359749317169189453125" lon="13.11902702786028385162353515625">
        <ele>382</ele>
        <time>2021-05-21T08:40:08.000Z</time>
        <extensions>
          <ns3:TrackPointExtension>
            <ns3:atemp>22.0</ns3:atemp>
          </ns3:TrackPointExtension>
        </extensions>
      </trkpt>
      <trkpt lat="43.1172778643667697906494140625" lon="13.11897153966128826141357421875">
        <ele>383</ele>
        <time>2021-05-21T08:40:11.000Z</time>
        <extensions>
          <ns3:TrackPointExtension>
            <ns3:atemp>22.0</ns3:atemp>
          </ns3:TrackPointExtension>
        </extensions>
      </trkpt>
      <trkpt lat="43.11738406307995319366455078125" lon="13.118924014270305633544921875">
        <ele>384.20001220703125</ele>
        <time>2021-05-21T08:40:14.000Z</time>
        <extensions>
          <ns3:TrackPointExtension>
            <ns3:atemp>22.0</ns3:atemp>
          </ns3:TrackPointExtension>
        </extensions>
      </trkpt>
      <trkpt lat="43.11743200756609439849853515625" lon="13.1189050711691379547119140625">
        <ele>385</ele>
        <time>2021-05-21T08:40:16.000Z</time>
        <extensions>
          <ns3:TrackPointExtension>
            <ns3:atemp>22.0</ns3:atemp>
          </ns3:TrackPointExtension>
        </extensions>
      </trkpt>
      <trkpt lat="43.11744022183120250701904296875" lon="13.11890129931271076202392578125">
        <ele>385.600006103515625</ele>
        <time>2021-05-21T08:40:17.000Z</time>
        <extensions>
          <ns3:TrackPointExtension>
            <ns3:atemp>22.0</ns3:atemp>
          </ns3:TrackPointExtension>
        </extensions>
      </trkpt>
      <trkpt lat="43.11744273640215396881103515625" lon="13.11889744363725185394287109375">
        <ele>386.600006103515625</ele>
        <time>2021-05-21T08:40:20.000Z</time>
        <extensions>
          <ns3:TrackPointExtension>
            <ns3:atemp>22.0</ns3:atemp>
          </ns3:TrackPointExtension>
        </extensions>
      </trkpt>
      <trkpt lat="43.11744340695440769195556640625" lon="13.11889677308499813079833984375">
        <ele>388</ele>
        <time>2021-05-21T08:40:23.000Z</time>
        <extensions>
          <ns3:TrackPointExtension>
            <ns3:atemp>22.0</ns3:atemp>
          </ns3:TrackPointExtension>
        </extensions>
      </trkpt>
      <trkpt lat="43.11747844330966472625732421875" lon="13.1188841164112091064453125">
        <ele>388.600006103515625</ele>
        <time>2021-05-21T08:40:39.000Z</time>
        <extensions>
          <ns3:TrackPointExtension>
            <ns3:atemp>22.0</ns3:atemp>
          </ns3:TrackPointExtension>
        </extensions>
      </trkpt>
      <trkpt lat="43.1176270544528961181640625" lon="13.1187900714576244354248046875">
        <ele>388.600006103515625</ele>
        <time>2021-05-21T08:40:44.000Z</time>
        <extensions>
          <ns3:TrackPointExtension>
            <ns3:atemp>22.0</ns3:atemp>
          </ns3:TrackPointExtension>
        </extensions>
      </trkpt>
      <trkpt lat="43.11777667142450809478759765625" lon="13.118655793368816375732421875">
        <ele>388.79998779296875</ele>
        <time>2021-05-21T08:40:49.000Z</time>
        <extensions>
          <ns3:TrackPointExtension>
            <ns3:atemp>22.0</ns3:atemp>
          </ns3:TrackPointExtension>
        </extensions>
      </trkpt>
      <trkpt lat="43.11782327480614185333251953125" lon="13.118592090904712677001953125">
        <ele>389</ele>
        <time>2021-05-21T08:40:51.000Z</time>
        <extensions>
          <ns3:TrackPointExtension>
            <ns3:atemp>22.0</ns3:atemp>
          </ns3:TrackPointExtension>
        </extensions>
      </trkpt>
      <trkpt lat="43.117861412465572357177734375" lon="13.1185208447277545928955078125">
        <ele>390</ele>
        <time>2021-05-21T08:40:53.000Z</time>
        <extensions>
          <ns3:TrackPointExtension>
            <ns3:atemp>22.0</ns3:atemp>
          </ns3:TrackPointExtension>
        </extensions>
      </trkpt>
      <trkpt lat="43.1178736500442028045654296875" lon="13.118478097021579742431640625">
        <ele>390.399993896484375</ele>
        <time>2021-05-21T08:40:54.000Z</time>
        <extensions>
          <ns3:TrackPointExtension>
            <ns3:atemp>22.0</ns3:atemp>
          </ns3:TrackPointExtension>
        </extensions>
      </trkpt>
      <trkpt lat="43.11788815073668956756591796875" lon="13.11838564462959766387939453125">
        <ele>391.20001220703125</ele>
        <time>2021-05-21T08:40:56.000Z</time>
        <extensions>
          <ns3:TrackPointExtension>
            <ns3:atemp>22.0</ns3:atemp>
          </ns3:TrackPointExtension>
        </extensions>
      </trkpt>
      <trkpt lat="43.1178927607834339141845703125" lon="13.11829268932342529296875">
        <ele>392.600006103515625</ele>
        <time>2021-05-21T08:40:58.000Z</time>
        <extensions>
          <ns3:TrackPointExtension>
            <ns3:atemp>22.0</ns3:atemp>
          </ns3:TrackPointExtension>
        </extensions>
      </trkpt>
      <trkpt lat="43.1178904138505458831787109375" lon="13.11820216476917266845703125">
        <ele>393.20001220703125</ele>
        <time>2021-05-21T08:41:00.000Z</time>
        <extensions>
          <ns3:TrackPointExtension>
            <ns3:atemp>22.0</ns3:atemp>
          </ns3:TrackPointExtension>
        </extensions>
      </trkpt>
      <trkpt lat="43.11788178049027919769287109375" lon="13.118112981319427490234375">
        <ele>393.79998779296875</ele>
        <time>2021-05-21T08:41:02.000Z</time>
        <extensions>
          <ns3:TrackPointExtension>
            <ns3:atemp>22.0</ns3:atemp>
          </ns3:TrackPointExtension>
        </extensions>
      </trkpt>
      <trkpt lat="43.1178682856261730194091796875" lon="13.11802455224096775054931640625">
        <ele>394.79998779296875</ele>
        <time>2021-05-21T08:41:04.000Z</time>
        <extensions>
          <ns3:TrackPointExtension>
            <ns3:atemp>22.0</ns3:atemp>
          </ns3:TrackPointExtension>
        </extensions>
      </trkpt>
      <trkpt lat="43.11785311438143253326416015625" lon="13.1179377995431423187255859375">
        <ele>396</ele>
        <time>2021-05-21T08:41:06.000Z</time>
        <extensions>
          <ns3:TrackPointExtension>
            <ns3:atemp>22.0</ns3:atemp>
          </ns3:TrackPointExtension>
        </extensions>
      </trkpt>
      <trkpt lat="43.1178471632301807403564453125" lon="13.11789379455149173736572265625">
        <ele>396.600006103515625</ele>
        <time>2021-05-21T08:41:07.000Z</time>
        <extensions>
          <ns3:TrackPointExtension>
            <ns3:atemp>22.0</ns3:atemp>
          </ns3:TrackPointExtension>
        </extensions>
      </trkpt>
      <trkpt lat="43.1178334169089794158935546875" lon="13.11780385673046112060546875">
        <ele>397.399993896484375</ele>
        <time>2021-05-21T08:41:09.000Z</time>
        <extensions>
          <ns3:TrackPointExtension>
            <ns3:atemp>22.0</ns3:atemp>
          </ns3:TrackPointExtension>
        </extensions>
      </trkpt>
      <trkpt lat="43.11781455762684345245361328125" lon="13.11766966246068477630615234375">
        <ele>398.399993896484375</ele>
        <time>2021-05-21T08:41:12.000Z</time>
        <extensions>
          <ns3:TrackPointExtension>
            <ns3:atemp>22.0</ns3:atemp>
          </ns3:TrackPointExtension>
        </extensions>
      </trkpt>
      <trkpt lat="43.11779578216373920440673828125" lon="13.11753873713314533233642578125">
        <ele>399.600006103515625</ele>
        <time>2021-05-21T08:41:15.000Z</time>
        <extensions>
          <ns3:TrackPointExtension>
            <ns3:atemp>22.0</ns3:atemp>
          </ns3:TrackPointExtension>
        </extensions>
      </trkpt>
      <trkpt lat="43.11778220348060131072998046875" lon="13.1174518167972564697265625">
        <ele>400.20001220703125</ele>
        <time>2021-05-21T08:41:17.000Z</time>
        <extensions>
          <ns3:TrackPointExtension>
            <ns3:atemp>22.0</ns3:atemp>
          </ns3:TrackPointExtension>
        </extensions>
      </trkpt>
      <trkpt lat="43.1177730672061443328857421875" lon="13.11736263334751129150390625">
        <ele>401</ele>
        <time>2021-05-21T08:41:19.000Z</time>
        <extensions>
          <ns3:TrackPointExtension>
            <ns3:atemp>22.0</ns3:atemp>
          </ns3:TrackPointExtension>
        </extensions>
      </trkpt>
      <trkpt lat="43.1177583150565624237060546875" lon="13.11722609214484691619873046875">
        <ele>402</ele>
        <time>2021-05-21T08:41:22.000Z</time>
        <extensions>
          <ns3:TrackPointExtension>
            <ns3:atemp>22.0</ns3:atemp>
          </ns3:TrackPointExtension>
        </extensions>
      </trkpt>
      <trkpt lat="43.11775001697242259979248046875" lon="13.1171398423612117767333984375">
        <ele>402.399993896484375</ele>
        <time>2021-05-21T08:41:24.000Z</time>
        <extensions>
          <ns3:TrackPointExtension>
            <ns3:atemp>22.0</ns3:atemp>
          </ns3:TrackPointExtension>
        </extensions>
      </trkpt>
      <trkpt lat="43.11774934642016887664794921875" lon="13.11704923398792743682861328125">
        <ele>403</ele>
        <time>2021-05-21T08:41:26.000Z</time>
        <extensions>
          <ns3:TrackPointExtension>
            <ns3:atemp>22.0</ns3:atemp>
          </ns3:TrackPointExtension>
        </extensions>
      </trkpt>
      <trkpt lat="43.11775387264788150787353515625" lon="13.11696507968008518218994140625">
        <ele>404.20001220703125</ele>
        <time>2021-05-21T08:41:28.000Z</time>
        <extensions>
          <ns3:TrackPointExtension>
            <ns3:atemp>22.0</ns3:atemp>
          </ns3:TrackPointExtension>
        </extensions>
      </trkpt>
      <trkpt lat="43.11776594258844852447509765625" lon="13.11687220819294452667236328125">
        <ele>405</ele>
        <time>2021-05-21T08:41:30.000Z</time>
        <extensions>
          <ns3:TrackPointExtension>
            <ns3:atemp>22.0</ns3:atemp>
          </ns3:TrackPointExtension>
        </extensions>
      </trkpt>
      <trkpt lat="43.1177737377583980560302734375" lon="13.11682845465838909149169921875">
        <ele>405.600006103515625</ele>
        <time>2021-05-21T08:41:31.000Z</time>
        <extensions>
          <ns3:TrackPointExtension>
            <ns3:atemp>22.0</ns3:atemp>
          </ns3:TrackPointExtension>
        </extensions>
      </trkpt>
      <trkpt lat="43.11779963783919811248779296875" lon="13.1167070008814334869384765625">
        <ele>406.79998779296875</ele>
        <time>2021-05-21T08:41:34.000Z</time>
        <extensions>
          <ns3:TrackPointExtension>
            <ns3:atemp>22.0</ns3:atemp>
          </ns3:TrackPointExtension>
        </extensions>
      </trkpt>
      <trkpt lat="43.11783366836607456207275390625" lon="13.1165879778563976287841796875">
        <ele>408</ele>
        <time>2021-05-21T08:41:37.000Z</time>
        <extensions>
          <ns3:TrackPointExtension>
            <ns3:atemp>22.0</ns3:atemp>
          </ns3:TrackPointExtension>
        </extensions>
      </trkpt>
      <trkpt lat="43.11790390871465206146240234375" lon="13.11637734062969684600830078125">
        <ele>409</ele>
        <time>2021-05-21T08:41:43.000Z</time>
        <extensions>
          <ns3:TrackPointExtension>
            <ns3:atemp>22.0</ns3:atemp>
          </ns3:TrackPointExtension>
        </extensions>
      </trkpt>
      <trkpt lat="43.11791446991264820098876953125" lon="13.11634607613086700439453125">
        <ele>409.399993896484375</ele>
        <time>2021-05-21T08:41:44.000Z</time>
        <extensions>
          <ns3:TrackPointExtension>
            <ns3:atemp>22.0</ns3:atemp>
          </ns3:TrackPointExtension>
        </extensions>
      </trkpt>
      <trkpt lat="43.11793349683284759521484375" lon="13.1162748299539089202880859375">
        <ele>410.20001220703125</ele>
        <time>2021-05-21T08:41:46.000Z</time>
        <extensions>
          <ns3:TrackPointExtension>
            <ns3:atemp>22.0</ns3:atemp>
          </ns3:TrackPointExtension>
        </extensions>
      </trkpt>
      <trkpt lat="43.11794531531631946563720703125" lon="13.116194866597652435302734375">
        <ele>411.20001220703125</ele>
        <time>2021-05-21T08:41:48.000Z</time>
        <extensions>
          <ns3:TrackPointExtension>
            <ns3:atemp>22.0</ns3:atemp>
          </ns3:TrackPointExtension>
        </extensions>
      </trkpt>
      <trkpt lat="43.11795537360012531280517578125" lon="13.1160642765462398529052734375">
        <ele>412.600006103515625</ele>
        <time>2021-05-21T08:41:51.000Z</time>
        <extensions>
          <ns3:TrackPointExtension>
            <ns3:atemp>22.0</ns3:atemp>
          </ns3:TrackPointExtension>
        </extensions>
      </trkpt>
      <trkpt lat="43.11795721761882305145263671875" lon="13.11590929515659809112548828125">
        <ele>413.79998779296875</ele>
        <time>2021-05-21T08:41:54.000Z</time>
        <extensions>
          <ns3:TrackPointExtension>
            <ns3:atemp>22.0</ns3:atemp>
          </ns3:TrackPointExtension>
        </extensions>
      </trkpt>
      <trkpt lat="43.11794615350663661956787109375" lon="13.11580150388181209564208984375">
        <ele>415</ele>
        <time>2021-05-21T08:41:56.000Z</time>
        <extensions>
          <ns3:TrackPointExtension>
            <ns3:atemp>22.0</ns3:atemp>
          </ns3:TrackPointExtension>
        </extensions>
      </trkpt>
      <trkpt lat="43.117937184870243072509765625" lon="13.11569857411086559295654296875">
        <ele>415.600006103515625</ele>
        <time>2021-05-21T08:41:58.000Z</time>
        <extensions>
          <ns3:TrackPointExtension>
            <ns3:atemp>22.0</ns3:atemp>
          </ns3:TrackPointExtension>
        </extensions>
      </trkpt>
      <trkpt lat="43.11791606247425079345703125" lon="13.115593381226062774658203125">
        <ele>416.20001220703125</ele>
        <time>2021-05-21T08:42:00.000Z</time>
        <extensions>
          <ns3:TrackPointExtension>
            <ns3:atemp>22.0</ns3:atemp>
          </ns3:TrackPointExtension>
        </extensions>
      </trkpt>
      <trkpt lat="43.11784037388861179351806640625" lon="13.11541174538433551788330078125">
        <ele>417.20001220703125</ele>
        <time>2021-05-21T08:42:04.000Z</time>
        <extensions>
          <ns3:TrackPointExtension>
            <ns3:atemp>22.0</ns3:atemp>
          </ns3:TrackPointExtension>
        </extensions>
      </trkpt>
      <trkpt lat="43.1177504360675811767578125" lon="13.11527394689619541168212890625">
        <ele>418.600006103515625</ele>
        <time>2021-05-21T08:42:08.000Z</time>
        <extensions>
          <ns3:TrackPointExtension>
            <ns3:atemp>22.0</ns3:atemp>
          </ns3:TrackPointExtension>
        </extensions>
      </trkpt>
      <trkpt lat="43.1176641024649143218994140625" lon="13.1151972524821758270263671875">
        <ele>419.600006103515625</ele>
        <time>2021-05-21T08:42:11.000Z</time>
        <extensions>
          <ns3:TrackPointExtension>
            <ns3:atemp>22.0</ns3:atemp>
          </ns3:TrackPointExtension>
        </extensions>
      </trkpt>
      <trkpt lat="43.11763300560414791107177734375" lon="13.115178979933261871337890625">
        <ele>420</ele>
        <time>2021-05-21T08:42:12.000Z</time>
        <extensions>
          <ns3:TrackPointExtension>
            <ns3:atemp>22.0</ns3:atemp>
          </ns3:TrackPointExtension>
        </extensions>
      </trkpt>
      <trkpt lat="43.117539547383785247802734375" lon="13.1151389144361019134521484375">
        <ele>421</ele>
        <time>2021-05-21T08:42:15.000Z</time>
        <extensions>
          <ns3:TrackPointExtension>
            <ns3:atemp>22.0</ns3:atemp>
          </ns3:TrackPointExtension>
        </extensions>
      </trkpt>
      <trkpt lat="43.1174647808074951171875" lon="13.11512910760939121246337890625">
        <ele>421.600006103515625</ele>
        <time>2021-05-21T08:42:17.000Z</time>
        <extensions>
          <ns3:TrackPointExtension>
            <ns3:atemp>22.0</ns3:atemp>
          </ns3:TrackPointExtension>
        </extensions>
      </trkpt>
      <trkpt lat="43.1173928640782833099365234375" lon="13.115115948021411895751953125">
        <ele>422.399993896484375</ele>
        <time>2021-05-21T08:42:19.000Z</time>
        <extensions>
          <ns3:TrackPointExtension>
            <ns3:atemp>22.0</ns3:atemp>
          </ns3:TrackPointExtension>
        </extensions>
      </trkpt>
      <trkpt lat="43.11729152686893939971923828125" lon="13.11509407125413417816162109375">
        <ele>423.600006103515625</ele>
        <time>2021-05-21T08:42:22.000Z</time>
        <extensions>
          <ns3:TrackPointExtension>
            <ns3:atemp>22.0</ns3:atemp>
          </ns3:TrackPointExtension>
        </extensions>
      </trkpt>
      <trkpt lat="43.1172543950378894805908203125" lon="13.115089796483516693115234375">
        <ele>424</ele>
        <time>2021-05-21T08:42:23.000Z</time>
        <extensions>
          <ns3:TrackPointExtension>
            <ns3:atemp>22.0</ns3:atemp>
          </ns3:TrackPointExtension>
        </extensions>
      </trkpt>
      <trkpt lat="43.1171873398125171661376953125" lon="13.11507278122007846832275390625">
        <ele>424.79998779296875</ele>
        <time>2021-05-21T08:42:25.000Z</time>
        <extensions>
          <ns3:TrackPointExtension>
            <ns3:atemp>22.0</ns3:atemp>
          </ns3:TrackPointExtension>
        </extensions>
      </trkpt>
      <trkpt lat="43.117038309574127197265625" lon="13.11501896940171718597412109375">
        <ele>426</ele>
        <time>2021-05-21T08:42:29.000Z</time>
        <extensions>
          <ns3:TrackPointExtension>
            <ns3:atemp>22.0</ns3:atemp>
          </ns3:TrackPointExtension>
        </extensions>
      </trkpt>
      <trkpt lat="43.1168507225811481475830078125" lon="13.11489139683544635772705078125">
        <ele>426.600006103515625</ele>
        <time>2021-05-21T08:42:34.000Z</time>
        <extensions>
          <ns3:TrackPointExtension>
            <ns3:atemp>22.0</ns3:atemp>
          </ns3:TrackPointExtension>
        </extensions>
      </trkpt>
      <trkpt lat="43.11681635677814483642578125" lon="13.1148527562618255615234375">
        <ele>426.79998779296875</ele>
        <time>2021-05-21T08:42:35.000Z</time>
        <extensions>
          <ns3:TrackPointExtension>
            <ns3:atemp>22.0</ns3:atemp>
          </ns3:TrackPointExtension>
        </extensions>
      </trkpt>
      <trkpt lat="43.11671652831137180328369140625" lon="13.1147292070090770721435546875">
        <ele>428</ele>
        <time>2021-05-21T08:42:38.000Z</time>
        <extensions>
          <ns3:TrackPointExtension>
            <ns3:atemp>22.0</ns3:atemp>
          </ns3:TrackPointExtension>
        </extensions>
      </trkpt>
      <trkpt lat="43.1166854314506053924560546875" lon="13.114679753780364990234375">
        <ele>428.20001220703125</ele>
        <time>2021-05-21T08:42:39.000Z</time>
        <extensions>
          <ns3:TrackPointExtension>
            <ns3:atemp>22.0</ns3:atemp>
          </ns3:TrackPointExtension>
        </extensions>
      </trkpt>
      <trkpt lat="43.11662994325160980224609375" lon="13.114584870636463165283203125">
        <ele>428.399993896484375</ele>
        <time>2021-05-21T08:42:41.000Z</time>
        <extensions>
          <ns3:TrackPointExtension>
            <ns3:atemp>22.0</ns3:atemp>
          </ns3:TrackPointExtension>
        </extensions>
      </trkpt>
      <trkpt lat="43.116605468094348907470703125" lon="13.11453416012227535247802734375">
        <ele>428.600006103515625</ele>
        <time>2021-05-21T08:42:42.000Z</time>
        <extensions>
          <ns3:TrackPointExtension>
            <ns3:atemp>22.0</ns3:atemp>
          </ns3:TrackPointExtension>
        </extensions>
      </trkpt>
      <trkpt lat="43.1165198050439357757568359375" lon="13.11430625617504119873046875">
        <ele>429</ele>
        <time>2021-05-21T08:42:46.000Z</time>
        <extensions>
          <ns3:TrackPointExtension>
            <ns3:atemp>22.0</ns3:atemp>
          </ns3:TrackPointExtension>
        </extensions>
      </trkpt>
      <trkpt lat="43.11649717390537261962890625" lon="13.11424724757671356201171875">
        <ele>429.20001220703125</ele>
        <time>2021-05-21T08:42:47.000Z</time>
        <extensions>
          <ns3:TrackPointExtension>
            <ns3:atemp>21.0</ns3:atemp>
          </ns3:TrackPointExtension>
        </extensions>
      </trkpt>
      <trkpt lat="43.116357028484344482421875" lon="13.1139295734465122222900390625">
        <ele>430.399993896484375</ele>
        <time>2021-05-21T08:42:53.000Z</time>
        <extensions>
          <ns3:TrackPointExtension>
            <ns3:atemp>21.0</ns3:atemp>
          </ns3:TrackPointExtension>
        </extensions>
      </trkpt>
      <trkpt lat="43.11628938652575016021728515625" lon="13.11378783546388149261474609375">
        <ele>431.600006103515625</ele>
        <time>2021-05-21T08:42:56.000Z</time>
        <extensions>
          <ns3:TrackPointExtension>
            <ns3:atemp>21.0</ns3:atemp>
          </ns3:TrackPointExtension>
        </extensions>
      </trkpt>
      <trkpt lat="43.116225935518741607666015625" lon="13.11366210691630840301513671875">
        <ele>432.600006103515625</ele>
        <time>2021-05-21T08:42:59.000Z</time>
        <extensions>
          <ns3:TrackPointExtension>
            <ns3:atemp>21.0</ns3:atemp>
          </ns3:TrackPointExtension>
        </extensions>
      </trkpt>
      <trkpt lat="43.1162056513130664825439453125" lon="13.11362187378108501434326171875">
        <ele>433</ele>
        <time>2021-05-21T08:43:00.000Z</time>
        <extensions>
          <ns3:TrackPointExtension>
            <ns3:atemp>21.0</ns3:atemp>
          </ns3:TrackPointExtension>
        </extensions>
      </trkpt>
      <trkpt lat="43.1161640770733356475830078125" lon="13.1135503761470317840576171875">
        <ele>433.79998779296875</ele>
        <time>2021-05-21T08:43:02.000Z</time>
        <extensions>
          <ns3:TrackPointExtension>
            <ns3:atemp>21.0</ns3:atemp>
          </ns3:TrackPointExtension>
        </extensions>
      </trkpt>
      <trkpt lat="43.11611169017851352691650390625" lon="13.1134454347193241119384765625">
        <ele>435</ele>
        <time>2021-05-21T08:43:05.000Z</time>
        <extensions>
          <ns3:TrackPointExtension>
            <ns3:atemp>21.0</ns3:atemp>
          </ns3:TrackPointExtension>
        </extensions>
      </trkpt>
      <trkpt lat="43.11607514508068561553955078125" lon="13.11338081024587154388427734375">
        <ele>436.20001220703125</ele>
        <time>2021-05-21T08:43:07.000Z</time>
        <extensions>
          <ns3:TrackPointExtension>
            <ns3:atemp>21.0</ns3:atemp>
          </ns3:TrackPointExtension>
        </extensions>
      </trkpt>
      <trkpt lat="43.1160338222980499267578125" lon="13.1133227236568927764892578125">
        <ele>437.20001220703125</ele>
        <time>2021-05-21T08:43:09.000Z</time>
        <extensions>
          <ns3:TrackPointExtension>
            <ns3:atemp>21.0</ns3:atemp>
          </ns3:TrackPointExtension>
        </extensions>
      </trkpt>
      <trkpt lat="43.1159706227481365203857421875" lon="13.11324250884354114532470703125">
        <ele>438.399993896484375</ele>
        <time>2021-05-21T08:43:12.000Z</time>
        <extensions>
          <ns3:TrackPointExtension>
            <ns3:atemp>21.0</ns3:atemp>
          </ns3:TrackPointExtension>
        </extensions>
      </trkpt>
      <trkpt lat="43.1159184873104095458984375" lon="13.1132013536989688873291015625">
        <ele>439</ele>
        <time>2021-05-21T08:43:14.000Z</time>
        <extensions>
          <ns3:TrackPointExtension>
            <ns3:atemp>21.0</ns3:atemp>
          </ns3:TrackPointExtension>
        </extensions>
      </trkpt>
      <trkpt lat="43.11589459888637065887451171875" lon="13.11318031512200832366943359375">
        <ele>439.20001220703125</ele>
        <time>2021-05-21T08:43:15.000Z</time>
        <extensions>
          <ns3:TrackPointExtension>
            <ns3:atemp>21.0</ns3:atemp>
          </ns3:TrackPointExtension>
        </extensions>
      </trkpt>
      <trkpt lat="43.1158031523227691650390625" lon="13.113123066723346710205078125">
        <ele>440.399993896484375</ele>
        <time>2021-05-21T08:43:18.000Z</time>
        <extensions>
          <ns3:TrackPointExtension>
            <ns3:atemp>21.0</ns3:atemp>
          </ns3:TrackPointExtension>
        </extensions>
      </trkpt>
      <trkpt lat="43.11574758030474185943603515625" lon="13.113075792789459228515625">
        <ele>441.399993896484375</ele>
        <time>2021-05-21T08:43:20.000Z</time>
        <extensions>
          <ns3:TrackPointExtension>
            <ns3:atemp>21.0</ns3:atemp>
          </ns3:TrackPointExtension>
        </extensions>
      </trkpt>
      <trkpt lat="43.11571665108203887939453125" lon="13.11305592767894268035888671875">
        <ele>442.20001220703125</ele>
        <time>2021-05-21T08:43:21.000Z</time>
        <extensions>
          <ns3:TrackPointExtension>
            <ns3:atemp>21.0</ns3:atemp>
          </ns3:TrackPointExtension>
        </extensions>
      </trkpt>
      <trkpt lat="43.1156893260776996612548828125" lon="13.11302977614104747772216796875">
        <ele>442.600006103515625</ele>
        <time>2021-05-21T08:43:22.000Z</time>
        <extensions>
          <ns3:TrackPointExtension>
            <ns3:atemp>21.0</ns3:atemp>
          </ns3:TrackPointExtension>
        </extensions>
      </trkpt>
      <trkpt lat="43.11563543044030666351318359375" lon="13.1129693426191806793212890625">
        <ele>443.79998779296875</ele>
        <time>2021-05-21T08:43:24.000Z</time>
        <extensions>
          <ns3:TrackPointExtension>
            <ns3:atemp>22.0</ns3:atemp>
          </ns3:TrackPointExtension>
        </extensions>
      </trkpt>
      <trkpt lat="43.115574829280376434326171875" lon="13.11286834068596363067626953125">
        <ele>444.79998779296875</ele>
        <time>2021-05-21T08:43:27.000Z</time>
        <extensions>
          <ns3:TrackPointExtension>
            <ns3:atemp>22.0</ns3:atemp>
          </ns3:TrackPointExtension>
        </extensions>
      </trkpt>
      <trkpt lat="43.11556016094982624053955078125" lon="13.11283146031200885772705078125">
        <ele>445</ele>
        <time>2021-05-21T08:43:28.000Z</time>
        <extensions>
          <ns3:TrackPointExtension>
            <ns3:atemp>22.0</ns3:atemp>
          </ns3:TrackPointExtension>
        </extensions>
      </trkpt>
      <trkpt lat="43.11554993502795696258544921875" lon="13.11273808591067790985107421875">
        <ele>446</ele>
        <time>2021-05-21T08:43:31.000Z</time>
        <extensions>
          <ns3:TrackPointExtension>
            <ns3:atemp>22.0</ns3:atemp>
          </ns3:TrackPointExtension>
        </extensions>
      </trkpt>
      <trkpt lat="43.115553371608257293701171875" lon="13.1127038039267063140869140625">
        <ele>446.399993896484375</ele>
        <time>2021-05-21T08:43:32.000Z</time>
        <extensions>
          <ns3:TrackPointExtension>
            <ns3:atemp>22.0</ns3:atemp>
          </ns3:TrackPointExtension>
        </extensions>
      </trkpt>
      <trkpt lat="43.1155585683882236480712890625" lon="13.11258553527295589447021484375">
        <ele>447.399993896484375</ele>
        <time>2021-05-21T08:43:35.000Z</time>
        <extensions>
          <ns3:TrackPointExtension>
            <ns3:atemp>22.0</ns3:atemp>
          </ns3:TrackPointExtension>
        </extensions>
      </trkpt>
      <trkpt lat="43.115572817623615264892578125" lon="13.1124714575707912445068359375">
        <ele>448.600006103515625</ele>
        <time>2021-05-21T08:43:38.000Z</time>
        <extensions>
          <ns3:TrackPointExtension>
            <ns3:atemp>22.0</ns3:atemp>
          </ns3:TrackPointExtension>
        </extensions>
      </trkpt>
      <trkpt lat="43.1155870668590068817138671875" lon="13.11234665103256702423095703125">
        <ele>449.79998779296875</ele>
        <time>2021-05-21T08:43:41.000Z</time>
        <extensions>
          <ns3:TrackPointExtension>
            <ns3:atemp>22.0</ns3:atemp>
          </ns3:TrackPointExtension>
        </extensions>
      </trkpt>
      <trkpt lat="43.11560123227536678314208984375" lon="13.112182952463626861572265625">
        <ele>451</ele>
        <time>2021-05-21T08:43:44.000Z</time>
        <extensions>
          <ns3:TrackPointExtension>
            <ns3:atemp>22.0</ns3:atemp>
          </ns3:TrackPointExtension>
        </extensions>
      </trkpt>
      <trkpt lat="43.11561095528304576873779296875" lon="13.11200760304927825927734375">
        <ele>452.20001220703125</ele>
        <time>2021-05-21T08:43:47.000Z</time>
        <extensions>
          <ns3:TrackPointExtension>
            <ns3:atemp>22.0</ns3:atemp>
          </ns3:TrackPointExtension>
        </extensions>
      </trkpt>
      <trkpt lat="43.11562302522361278533935546875" lon="13.11181842349469661712646484375">
        <ele>452.79998779296875</ele>
        <time>2021-05-21T08:43:50.000Z</time>
        <extensions>
          <ns3:TrackPointExtension>
            <ns3:atemp>22.0</ns3:atemp>
          </ns3:TrackPointExtension>
        </extensions>
      </trkpt>
      <trkpt lat="43.1156353466212749481201171875" lon="13.1116983108222484588623046875">
        <ele>453.399993896484375</ele>
        <time>2021-05-21T08:43:52.000Z</time>
        <extensions>
          <ns3:TrackPointExtension>
            <ns3:atemp>22.0</ns3:atemp>
          </ns3:TrackPointExtension>
        </extensions>
      </trkpt>
      <trkpt lat="43.11566795222461223602294921875" lon="13.11143687926232814788818359375">
        <ele>454</ele>
        <time>2021-05-21T08:43:56.000Z</time>
        <extensions>
          <ns3:TrackPointExtension>
            <ns3:atemp>22.0</ns3:atemp>
          </ns3:TrackPointExtension>
        </extensions>
      </trkpt>
      <trkpt lat="43.115694522857666015625" lon="13.11123588122427463531494140625">
        <ele>454.399993896484375</ele>
        <time>2021-05-21T08:43:59.000Z</time>
        <extensions>
          <ns3:TrackPointExtension>
            <ns3:atemp>22.0</ns3:atemp>
          </ns3:TrackPointExtension>
        </extensions>
      </trkpt>
      <trkpt lat="43.1157173216342926025390625" lon="13.110924661159515380859375">
        <ele>455.600006103515625</ele>
        <time>2021-05-21T08:44:04.000Z</time>
        <extensions>
          <ns3:TrackPointExtension>
            <ns3:atemp>22.0</ns3:atemp>
          </ns3:TrackPointExtension>
        </extensions>
      </trkpt>
      <trkpt lat="43.115723691880702972412109375" lon="13.11086833477020263671875">
        <ele>456</ele>
        <time>2021-05-21T08:44:05.000Z</time>
        <extensions>
          <ns3:TrackPointExtension>
            <ns3:atemp>21.0</ns3:atemp>
          </ns3:TrackPointExtension>
        </extensions>
      </trkpt>
      <trkpt lat="43.1157463230192661285400390625" lon="13.110701031982898712158203125">
        <ele>456.79998779296875</ele>
        <time>2021-05-21T08:44:08.000Z</time>
        <extensions>
          <ns3:TrackPointExtension>
            <ns3:atemp>21.0</ns3:atemp>
          </ns3:TrackPointExtension>
        </extensions>
      </trkpt>
      <trkpt lat="43.11576618812978267669677734375" lon="13.11058494262397289276123046875">
        <ele>457.399993896484375</ele>
        <time>2021-05-21T08:44:10.000Z</time>
        <extensions>
          <ns3:TrackPointExtension>
            <ns3:atemp>21.0</ns3:atemp>
          </ns3:TrackPointExtension>
        </extensions>
      </trkpt>
      <trkpt lat="43.11579837463796138763427734375" lon="13.11048553325235843658447265625">
        <ele>458</ele>
        <time>2021-05-21T08:44:12.000Z</time>
        <extensions>
          <ns3:TrackPointExtension>
            <ns3:atemp>21.0</ns3:atemp>
          </ns3:TrackPointExtension>
        </extensions>
      </trkpt>
      <trkpt lat="43.1158995442092418670654296875" lon="13.1103820167481899261474609375">
        <ele>459.20001220703125</ele>
        <time>2021-05-21T08:44:15.000Z</time>
        <extensions>
          <ns3:TrackPointExtension>
            <ns3:atemp>21.0</ns3:atemp>
          </ns3:TrackPointExtension>
        </extensions>
      </trkpt>
      <trkpt lat="43.11593986116349697113037109375" lon="13.11036768369376659393310546875">
        <ele>459.399993896484375</ele>
        <time>2021-05-21T08:44:16.000Z</time>
        <extensions>
          <ns3:TrackPointExtension>
            <ns3:atemp>21.0</ns3:atemp>
          </ns3:TrackPointExtension>
        </extensions>
      </trkpt>
      <trkpt lat="43.11606676317751407623291015625" lon="13.11038075946271419525146484375">
        <ele>460.20001220703125</ele>
        <time>2021-05-21T08:44:19.000Z</time>
        <extensions>
          <ns3:TrackPointExtension>
            <ns3:atemp>21.0</ns3:atemp>
          </ns3:TrackPointExtension>
        </extensions>
      </trkpt>
      <trkpt lat="43.116104565560817718505859375" lon="13.11039484106004238128662109375">
        <ele>460.399993896484375</ele>
        <time>2021-05-21T08:44:20.000Z</time>
        <extensions>
          <ns3:TrackPointExtension>
            <ns3:atemp>21.0</ns3:atemp>
          </ns3:TrackPointExtension>
        </extensions>
      </trkpt>
      <trkpt lat="43.11617271043360233306884765625" lon="13.11042451299726963043212890625">
        <ele>461.20001220703125</ele>
        <time>2021-05-21T08:44:22.000Z</time>
        <extensions>
          <ns3:TrackPointExtension>
            <ns3:atemp>21.0</ns3:atemp>
          </ns3:TrackPointExtension>
        </extensions>
      </trkpt>
      <trkpt lat="43.11627765186131000518798828125" lon="13.11049827374517917633056640625">
        <ele>462.600006103515625</ele>
        <time>2021-05-21T08:44:26.000Z</time>
        <extensions>
          <ns3:TrackPointExtension>
            <ns3:atemp>21.0</ns3:atemp>
          </ns3:TrackPointExtension>
        </extensions>
      </trkpt>
      <trkpt lat="43.11631335876882076263427734375" lon="13.1105424463748931884765625">
        <ele>463.600006103515625</ele>
        <time>2021-05-21T08:44:28.000Z</time>
        <extensions>
          <ns3:TrackPointExtension>
            <ns3:atemp>21.0</ns3:atemp>
          </ns3:TrackPointExtension>
        </extensions>
      </trkpt>
      <trkpt lat="43.116342611610889434814453125" lon="13.1106089986860752105712890625">
        <ele>464.79998779296875</ele>
        <time>2021-05-21T08:44:30.000Z</time>
        <extensions>
          <ns3:TrackPointExtension>
            <ns3:atemp>21.0</ns3:atemp>
          </ns3:TrackPointExtension>
        </extensions>
      </trkpt>
      <trkpt lat="43.1163568608462810516357421875" lon="13.11064596287906169891357421875">
        <ele>465.20001220703125</ele>
        <time>2021-05-21T08:44:31.000Z</time>
        <extensions>
          <ns3:TrackPointExtension>
            <ns3:atemp>21.0</ns3:atemp>
          </ns3:TrackPointExtension>
        </extensions>
      </trkpt>
      <trkpt lat="43.1163776479661464691162109375" lon="13.110744617879390716552734375">
        <ele>466</ele>
        <time>2021-05-21T08:44:33.000Z</time>
        <extensions>
          <ns3:TrackPointExtension>
            <ns3:atemp>21.0</ns3:atemp>
          </ns3:TrackPointExtension>
        </extensions>
      </trkpt>
      <trkpt lat="43.116397596895694732666015625" lon="13.110894151031970977783203125">
        <ele>467.399993896484375</ele>
        <time>2021-05-21T08:44:36.000Z</time>
        <extensions>
          <ns3:TrackPointExtension>
            <ns3:atemp>21.0</ns3:atemp>
          </ns3:TrackPointExtension>
        </extensions>
      </trkpt>
      <trkpt lat="43.1164024583995342254638671875" lon="13.110949806869029998779296875">
        <ele>467.79998779296875</ele>
        <time>2021-05-21T08:44:37.000Z</time>
        <extensions>
          <ns3:TrackPointExtension>
            <ns3:atemp>21.0</ns3:atemp>
          </ns3:TrackPointExtension>
        </extensions>
      </trkpt>
      <trkpt lat="43.1164118461310863494873046875" lon="13.1110126711428165435791015625">
        <ele>468.20001220703125</ele>
        <time>2021-05-21T08:44:38.000Z</time>
        <extensions>
          <ns3:TrackPointExtension>
            <ns3:atemp>21.0</ns3:atemp>
          </ns3:TrackPointExtension>
        </extensions>
      </trkpt>
      <trkpt lat="43.1164447031915187835693359375" lon="13.11120822094380855560302734375">
        <ele>468.600006103515625</ele>
        <time>2021-05-21T08:44:41.000Z</time>
        <extensions>
          <ns3:TrackPointExtension>
            <ns3:atemp>21.0</ns3:atemp>
          </ns3:TrackPointExtension>
        </extensions>
      </trkpt>
      <trkpt lat="43.11646708287298679351806640625" lon="13.11139614321291446685791015625">
        <ele>468.79998779296875</ele>
        <time>2021-05-21T08:44:44.000Z</time>
        <extensions>
          <ns3:TrackPointExtension>
            <ns3:atemp>21.0</ns3:atemp>
          </ns3:TrackPointExtension>
        </extensions>
      </trkpt>
      <trkpt lat="43.1165003590285778045654296875" lon="13.11165749095380306243896484375">
        <ele>469</ele>
        <time>2021-05-21T08:44:48.000Z</time>
        <extensions>
          <ns3:TrackPointExtension>
            <ns3:atemp>21.0</ns3:atemp>
          </ns3:TrackPointExtension>
        </extensions>
      </trkpt>
      <trkpt lat="43.1165472976863384246826171875" lon="13.112109191715717315673828125">
        <ele>469.399993896484375</ele>
        <time>2021-05-21T08:44:55.000Z</time>
        <extensions>
          <ns3:TrackPointExtension>
            <ns3:atemp>21.0</ns3:atemp>
          </ns3:TrackPointExtension>
        </extensions>
      </trkpt>
      <trkpt lat="43.11655324883759021759033203125" lon="13.11216828413307666778564453125">
        <ele>469.600006103515625</ele>
        <time>2021-05-21T08:44:56.000Z</time>
        <extensions>
          <ns3:TrackPointExtension>
            <ns3:atemp>21.0</ns3:atemp>
          </ns3:TrackPointExtension>
        </extensions>
      </trkpt>
      <trkpt lat="43.11660923995077610015869140625" lon="13.11238822527229785919189453125">
        <ele>470.79998779296875</ele>
        <time>2021-05-21T08:45:00.000Z</time>
        <extensions>
          <ns3:TrackPointExtension>
            <ns3:atemp>21.0</ns3:atemp>
          </ns3:TrackPointExtension>
        </extensions>
      </trkpt>
      <trkpt lat="43.11667595990002155303955078125" lon="13.11255477368831634521484375">
        <ele>471.399993896484375</ele>
        <time>2021-05-21T08:45:03.000Z</time>
        <extensions>
          <ns3:TrackPointExtension>
            <ns3:atemp>21.0</ns3:atemp>
          </ns3:TrackPointExtension>
        </extensions>
      </trkpt>
      <trkpt lat="43.11670370399951934814453125" lon="13.1126002036035060882568359375">
        <ele>471.79998779296875</ele>
        <time>2021-05-21T08:45:04.000Z</time>
        <extensions>
          <ns3:TrackPointExtension>
            <ns3:atemp>21.0</ns3:atemp>
          </ns3:TrackPointExtension>
        </extensions>
      </trkpt>
      <trkpt lat="43.1167343817651271820068359375" lon="13.11264538206160068511962890625">
        <ele>472.20001220703125</ele>
        <time>2021-05-21T08:45:05.000Z</time>
        <extensions>
          <ns3:TrackPointExtension>
            <ns3:atemp>21.0</ns3:atemp>
          </ns3:TrackPointExtension>
        </extensions>
      </trkpt>
      <trkpt lat="43.11683538369834423065185546875" lon="13.1127745471894741058349609375">
        <ele>473.20001220703125</ele>
        <time>2021-05-21T08:45:08.000Z</time>
        <extensions>
          <ns3:TrackPointExtension>
            <ns3:atemp>21.0</ns3:atemp>
          </ns3:TrackPointExtension>
        </extensions>
      </trkpt>
      <trkpt lat="43.1169539876282215118408203125" lon="13.11286482028663158416748046875">
        <ele>474.20001220703125</ele>
        <time>2021-05-21T08:45:11.000Z</time>
        <extensions>
          <ns3:TrackPointExtension>
            <ns3:atemp>21.0</ns3:atemp>
          </ns3:TrackPointExtension>
        </extensions>
      </trkpt>
      <trkpt lat="43.117092959582805633544921875" lon="13.11289004981517791748046875">
        <ele>475.399993896484375</ele>
        <time>2021-05-21T08:45:14.000Z</time>
        <extensions>
          <ns3:TrackPointExtension>
            <ns3:atemp>21.0</ns3:atemp>
          </ns3:TrackPointExtension>
        </extensions>
      </trkpt>
      <trkpt lat="43.11713847331702709197998046875" lon="13.1128778122365474700927734375">
        <ele>475.79998779296875</ele>
        <time>2021-05-21T08:45:15.000Z</time>
        <extensions>
          <ns3:TrackPointExtension>
            <ns3:atemp>21.0</ns3:atemp>
          </ns3:TrackPointExtension>
        </extensions>
      </trkpt>
      <trkpt lat="43.117222376167774200439453125" lon="13.11282928101718425750732421875">
        <ele>476.399993896484375</ele>
        <time>2021-05-21T08:45:17.000Z</time>
        <extensions>
          <ns3:TrackPointExtension>
            <ns3:atemp>21.0</ns3:atemp>
          </ns3:TrackPointExtension>
        </extensions>
      </trkpt>
      <trkpt lat="43.117261268198490142822265625" lon="13.11279776506125926971435546875">
        <ele>476.79998779296875</ele>
        <time>2021-05-21T08:45:18.000Z</time>
        <extensions>
          <ns3:TrackPointExtension>
            <ns3:atemp>21.0</ns3:atemp>
          </ns3:TrackPointExtension>
        </extensions>
      </trkpt>
      <trkpt lat="43.11730057932436466217041015625" lon="13.1127644889056682586669921875">
        <ele>477.600006103515625</ele>
        <time>2021-05-21T08:45:19.000Z</time>
        <extensions>
          <ns3:TrackPointExtension>
            <ns3:atemp>21.0</ns3:atemp>
          </ns3:TrackPointExtension>
        </extensions>
      </trkpt>
      <trkpt lat="43.117339052259922027587890625" lon="13.112731464207172393798828125">
        <ele>478</ele>
        <time>2021-05-21T08:45:20.000Z</time>
        <extensions>
          <ns3:TrackPointExtension>
            <ns3:atemp>21.0</ns3:atemp>
          </ns3:TrackPointExtension>
        </extensions>
      </trkpt>
      <trkpt lat="43.1174512021243572235107421875" lon="13.11263465322554111480712890625">
        <ele>478.79998779296875</ele>
        <time>2021-05-21T08:45:23.000Z</time>
        <extensions>
          <ns3:TrackPointExtension>
            <ns3:atemp>21.0</ns3:atemp>
          </ns3:TrackPointExtension>
        </extensions>
      </trkpt>
      <trkpt lat="43.1175916828215122222900390625" lon="13.11250993050634860992431640625">
        <ele>480</ele>
        <time>2021-05-21T08:45:27.000Z</time>
        <extensions>
          <ns3:TrackPointExtension>
            <ns3:atemp>21.0</ns3:atemp>
          </ns3:TrackPointExtension>
        </extensions>
      </trkpt>
      <trkpt lat="43.117625713348388671875" lon="13.11247908510267734527587890625">
        <ele>480</ele>
        <time>2021-05-21T08:45:28.000Z</time>
        <extensions>
          <ns3:TrackPointExtension>
            <ns3:atemp>21.0</ns3:atemp>
          </ns3:TrackPointExtension>
        </extensions>
      </trkpt>
      <trkpt lat="43.117728643119335174560546875" lon="13.1123943440616130828857421875">
        <ele>481.20001220703125</ele>
        <time>2021-05-21T08:45:31.000Z</time>
        <extensions>
          <ns3:TrackPointExtension>
            <ns3:atemp>21.0</ns3:atemp>
          </ns3:TrackPointExtension>
        </extensions>
      </trkpt>
      <trkpt lat="43.11783584766089916229248046875" lon="13.11230960302054882049560546875">
        <ele>482.20001220703125</ele>
        <time>2021-05-21T08:45:34.000Z</time>
        <extensions>
          <ns3:TrackPointExtension>
            <ns3:atemp>21.0</ns3:atemp>
          </ns3:TrackPointExtension>
        </extensions>
      </trkpt>
      <trkpt lat="43.1179041601717472076416015625" lon="13.112248666584491729736328125">
        <ele>483</ele>
        <time>2021-05-21T08:45:36.000Z</time>
        <extensions>
          <ns3:TrackPointExtension>
            <ns3:atemp>21.0</ns3:atemp>
          </ns3:TrackPointExtension>
        </extensions>
      </trkpt>
      <trkpt lat="43.11793743632733821868896484375" lon="13.112221173942089080810546875">
        <ele>483.399993896484375</ele>
        <time>2021-05-21T08:45:37.000Z</time>
        <extensions>
          <ns3:TrackPointExtension>
            <ns3:atemp>21.0</ns3:atemp>
          </ns3:TrackPointExtension>
        </extensions>
      </trkpt>
      <trkpt lat="43.118041791021823883056640625" lon="13.11215034686028957366943359375">
        <ele>484.79998779296875</ele>
        <time>2021-05-21T08:45:40.000Z</time>
        <extensions>
          <ns3:TrackPointExtension>
            <ns3:atemp>21.0</ns3:atemp>
          </ns3:TrackPointExtension>
        </extensions>
      </trkpt>
      <trkpt lat="43.11814815737307071685791015625" lon="13.1120845489203929901123046875">
        <ele>485.79998779296875</ele>
        <time>2021-05-21T08:45:43.000Z</time>
        <extensions>
          <ns3:TrackPointExtension>
            <ns3:atemp>21.0</ns3:atemp>
          </ns3:TrackPointExtension>
        </extensions>
      </trkpt>
      <trkpt lat="43.118181936442852020263671875" lon="13.11206233687698841094970703125">
        <ele>486</ele>
        <time>2021-05-21T08:45:44.000Z</time>
        <extensions>
          <ns3:TrackPointExtension>
            <ns3:atemp>21.0</ns3:atemp>
          </ns3:TrackPointExtension>
        </extensions>
      </trkpt>
      <trkpt lat="43.11832845211029052734375" lon="13.11198874376714229583740234375">
        <ele>487.79998779296875</ele>
        <time>2021-05-21T08:45:48.000Z</time>
        <extensions>
          <ns3:TrackPointExtension>
            <ns3:atemp>21.0</ns3:atemp>
          </ns3:TrackPointExtension>
        </extensions>
      </trkpt>
      <trkpt lat="43.1184007041156291961669921875" lon="13.11195689253509044647216796875">
        <ele>488.79998779296875</ele>
        <time>2021-05-21T08:45:50.000Z</time>
        <extensions>
          <ns3:TrackPointExtension>
            <ns3:atemp>21.0</ns3:atemp>
          </ns3:TrackPointExtension>
        </extensions>
      </trkpt>
      <trkpt lat="43.11847505159676074981689453125" lon="13.1119283102452754974365234375">
        <ele>489.600006103515625</ele>
        <time>2021-05-21T08:45:52.000Z</time>
        <extensions>
          <ns3:TrackPointExtension>
            <ns3:atemp>21.0</ns3:atemp>
          </ns3:TrackPointExtension>
        </extensions>
      </trkpt>
      <trkpt lat="43.11851159669458866119384765625" lon="13.11191129498183727264404296875">
        <ele>490</ele>
        <time>2021-05-21T08:45:53.000Z</time>
        <extensions>
          <ns3:TrackPointExtension>
            <ns3:atemp>21.0</ns3:atemp>
          </ns3:TrackPointExtension>
        </extensions>
      </trkpt>
      <trkpt lat="43.11862282454967498779296875" lon="13.11186536215245723724365234375">
        <ele>491.20001220703125</ele>
        <time>2021-05-21T08:45:56.000Z</time>
        <extensions>
          <ns3:TrackPointExtension>
            <ns3:atemp>21.0</ns3:atemp>
          </ns3:TrackPointExtension>
        </extensions>
      </trkpt>
      <trkpt lat="43.11880412511527538299560546875" lon="13.11179704964160919189453125">
        <ele>492.20001220703125</ele>
        <time>2021-05-21T08:46:01.000Z</time>
        <extensions>
          <ns3:TrackPointExtension>
            <ns3:atemp>21.0</ns3:atemp>
          </ns3:TrackPointExtension>
        </extensions>
      </trkpt>
      <trkpt lat="43.118949718773365020751953125" lon="13.111735023558139801025390625">
        <ele>493.600006103515625</ele>
        <time>2021-05-21T08:46:05.000Z</time>
        <extensions>
          <ns3:TrackPointExtension>
            <ns3:atemp>21.0</ns3:atemp>
          </ns3:TrackPointExtension>
        </extensions>
      </trkpt>
      <trkpt lat="43.11906765215098857879638671875" lon="13.11168582178652286529541015625">
        <ele>495</ele>
        <time>2021-05-21T08:46:08.000Z</time>
        <extensions>
          <ns3:TrackPointExtension>
            <ns3:atemp>21.0</ns3:atemp>
          </ns3:TrackPointExtension>
        </extensions>
      </trkpt>
      <trkpt lat="43.11915415339171886444091796875" lon="13.11164525337517261505126953125">
        <ele>495.79998779296875</ele>
        <time>2021-05-21T08:46:10.000Z</time>
        <extensions>
          <ns3:TrackPointExtension>
            <ns3:atemp>21.0</ns3:atemp>
          </ns3:TrackPointExtension>
        </extensions>
      </trkpt>
      <trkpt lat="43.1192010082304477691650390625" lon="13.11162346042692661285400390625">
        <ele>496.20001220703125</ele>
        <time>2021-05-21T08:46:11.000Z</time>
        <extensions>
          <ns3:TrackPointExtension>
            <ns3:atemp>21.0</ns3:atemp>
          </ns3:TrackPointExtension>
        </extensions>
      </trkpt>
      <trkpt lat="43.11938934959471225738525390625" lon="13.11154735274612903594970703125">
        <ele>497.600006103515625</ele>
        <time>2021-05-21T08:46:15.000Z</time>
        <extensions>
          <ns3:TrackPointExtension>
            <ns3:atemp>21.0</ns3:atemp>
          </ns3:TrackPointExtension>
        </extensions>
      </trkpt>
      <trkpt lat="43.11942882835865020751953125" lon="13.11152036301791667938232421875">
        <ele>497.79998779296875</ele>
        <time>2021-05-21T08:46:16.000Z</time>
        <extensions>
          <ns3:TrackPointExtension>
            <ns3:atemp>21.0</ns3:atemp>
          </ns3:TrackPointExtension>
        </extensions>
      </trkpt>
      <trkpt lat="43.11949722468852996826171875" lon="13.11144660227000713348388671875">
        <ele>498.600006103515625</ele>
        <time>2021-05-21T08:46:18.000Z</time>
        <extensions>
          <ns3:TrackPointExtension>
            <ns3:atemp>21.0</ns3:atemp>
          </ns3:TrackPointExtension>
        </extensions>
      </trkpt>
      <trkpt lat="43.1195218674838542938232421875" lon="13.11139882542192935943603515625">
        <ele>498.79998779296875</ele>
        <time>2021-05-21T08:46:19.000Z</time>
        <extensions>
          <ns3:TrackPointExtension>
            <ns3:atemp>21.0</ns3:atemp>
          </ns3:TrackPointExtension>
        </extensions>
      </trkpt>
      <trkpt lat="43.1195312552154064178466796875" lon="13.111166059970855712890625">
        <ele>499</ele>
        <time>2021-05-21T08:46:23.000Z</time>
        <extensions>
          <ns3:TrackPointExtension>
            <ns3:atemp>21.0</ns3:atemp>
          </ns3:TrackPointExtension>
        </extensions>
      </trkpt>
      <trkpt lat="43.11950518749654293060302734375" lon="13.1110374815762042999267578125">
        <ele>499.20001220703125</ele>
        <time>2021-05-21T08:46:25.000Z</time>
        <extensions>
          <ns3:TrackPointExtension>
            <ns3:atemp>21.0</ns3:atemp>
          </ns3:TrackPointExtension>
        </extensions>
      </trkpt>
      <trkpt lat="43.119495213031768798828125" lon="13.11097369529306888580322265625">
        <ele>499.20001220703125</ele>
        <time>2021-05-21T08:46:26.000Z</time>
        <extensions>
          <ns3:TrackPointExtension>
            <ns3:atemp>21.0</ns3:atemp>
          </ns3:TrackPointExtension>
        </extensions>
      </trkpt>
      <trkpt lat="43.119494207203388214111328125" lon="13.110853917896747589111328125">
        <ele>499.399993896484375</ele>
        <time>2021-05-21T08:46:28.000Z</time>
        <extensions>
          <ns3:TrackPointExtension>
            <ns3:atemp>21.0</ns3:atemp>
          </ns3:TrackPointExtension>
        </extensions>
      </trkpt>
      <trkpt lat="43.11959437094628810882568359375" lon="13.110615201294422149658203125">
        <ele>499.399993896484375</ele>
        <time>2021-05-21T08:46:32.000Z</time>
        <extensions>
          <ns3:TrackPointExtension>
            <ns3:atemp>21.0</ns3:atemp>
          </ns3:TrackPointExtension>
        </extensions>
      </trkpt>
      <trkpt lat="43.11962974257767200469970703125" lon="13.11055761761963367462158203125">
        <ele>499.399993896484375</ele>
        <time>2021-05-21T08:46:33.000Z</time>
        <extensions>
          <ns3:TrackPointExtension>
            <ns3:atemp>21.0</ns3:atemp>
          </ns3:TrackPointExtension>
        </extensions>
      </trkpt>
      <trkpt lat="43.119759075343608856201171875" lon="13.11030314303934574127197265625">
        <ele>499</ele>
        <time>2021-05-21T08:46:37.000Z</time>
        <extensions>
          <ns3:TrackPointExtension>
            <ns3:atemp>21.0</ns3:atemp>
          </ns3:TrackPointExtension>
        </extensions>
      </trkpt>
      <trkpt lat="43.119785897433757781982421875" lon="13.11022653244435787200927734375">
        <ele>498.79998779296875</ele>
        <time>2021-05-21T08:46:38.000Z</time>
        <extensions>
          <ns3:TrackPointExtension>
            <ns3:atemp>21.0</ns3:atemp>
          </ns3:TrackPointExtension>
        </extensions>
      </trkpt>
      <trkpt lat="43.11984214000403881072998046875" lon="13.1099491752684116363525390625">
        <ele>498</ele>
        <time>2021-05-21T08:46:41.000Z</time>
        <extensions>
          <ns3:TrackPointExtension>
            <ns3:atemp>21.0</ns3:atemp>
          </ns3:TrackPointExtension>
        </extensions>
      </trkpt>
      <trkpt lat="43.11986376531422138214111328125" lon="13.10984616167843341827392578125">
        <ele>497.600006103515625</ele>
        <time>2021-05-21T08:46:42.000Z</time>
        <extensions>
          <ns3:TrackPointExtension>
            <ns3:atemp>21.0</ns3:atemp>
          </ns3:TrackPointExtension>
        </extensions>
      </trkpt>
      <trkpt lat="43.11988337896764278411865234375" lon="13.10974004678428173065185546875">
        <ele>497.20001220703125</ele>
        <time>2021-05-21T08:46:43.000Z</time>
        <extensions>
          <ns3:TrackPointExtension>
            <ns3:atemp>21.0</ns3:atemp>
          </ns3:TrackPointExtension>
        </extensions>
      </trkpt>
      <trkpt lat="43.11989486217498779296875" lon="13.10962907038629055023193359375">
        <ele>497</ele>
        <time>2021-05-21T08:46:44.000Z</time>
        <extensions>
          <ns3:TrackPointExtension>
            <ns3:atemp>21.0</ns3:atemp>
          </ns3:TrackPointExtension>
        </extensions>
      </trkpt>
      <trkpt lat="43.1198873184621334075927734375" lon="13.10942086391150951385498046875">
        <ele>495.399993896484375</ele>
        <time>2021-05-21T08:46:46.000Z</time>
        <extensions>
          <ns3:TrackPointExtension>
            <ns3:atemp>21.0</ns3:atemp>
          </ns3:TrackPointExtension>
        </extensions>
      </trkpt>
      <trkpt lat="43.11986678279936313629150390625" lon="13.1091478653252124786376953125">
        <ele>494.20001220703125</ele>
        <time>2021-05-21T08:46:49.000Z</time>
        <extensions>
          <ns3:TrackPointExtension>
            <ns3:atemp>21.0</ns3:atemp>
          </ns3:TrackPointExtension>
        </extensions>
      </trkpt>
      <trkpt lat="43.11984867788851261138916015625" lon="13.10890571214258670806884765625">
        <ele>494.20001220703125</ele>
        <time>2021-05-21T08:46:52.000Z</time>
        <extensions>
          <ns3:TrackPointExtension>
            <ns3:atemp>21.0</ns3:atemp>
          </ns3:TrackPointExtension>
        </extensions>
      </trkpt>
      <trkpt lat="43.11982336454093456268310546875" lon="13.1084390915930271148681640625">
        <ele>494.399993896484375</ele>
        <time>2021-05-21T08:46:58.000Z</time>
        <extensions>
          <ns3:TrackPointExtension>
            <ns3:atemp>21.0</ns3:atemp>
          </ns3:TrackPointExtension>
        </extensions>
      </trkpt>
      <trkpt lat="43.1198081932961940765380859375" lon="13.1080434657633304595947265625">
        <ele>495.399993896484375</ele>
        <time>2021-05-21T08:47:03.000Z</time>
        <extensions>
          <ns3:TrackPointExtension>
            <ns3:atemp>21.0</ns3:atemp>
          </ns3:TrackPointExtension>
        </extensions>
      </trkpt>
      <trkpt lat="43.119814060628414154052734375" lon="13.1078956089913845062255859375">
        <ele>495.79998779296875</ele>
        <time>2021-05-21T08:47:05.000Z</time>
        <extensions>
          <ns3:TrackPointExtension>
            <ns3:atemp>21.0</ns3:atemp>
          </ns3:TrackPointExtension>
        </extensions>
      </trkpt>
      <trkpt lat="43.119838535785675048828125" lon="13.10754717327654361724853515625">
        <ele>496.399993896484375</ele>
        <time>2021-05-21T08:47:10.000Z</time>
        <extensions>
          <ns3:TrackPointExtension>
            <ns3:atemp>21.0</ns3:atemp>
          </ns3:TrackPointExtension>
        </extensions>
      </trkpt>
      <trkpt lat="43.11984398402273654937744140625" lon="13.1074788607656955718994140625">
        <ele>496.600006103515625</ele>
        <time>2021-05-21T08:47:11.000Z</time>
        <extensions>
          <ns3:TrackPointExtension>
            <ns3:atemp>21.0</ns3:atemp>
          </ns3:TrackPointExtension>
        </extensions>
      </trkpt>
      <trkpt lat="43.11985320411622524261474609375" lon="13.107129000127315521240234375">
        <ele>497.399993896484375</ele>
        <time>2021-05-21T08:47:16.000Z</time>
        <extensions>
          <ns3:TrackPointExtension>
            <ns3:atemp>21.0</ns3:atemp>
          </ns3:TrackPointExtension>
        </extensions>
      </trkpt>
      <trkpt lat="43.11984381638467311859130859375" lon="13.10705297626554965972900390625">
        <ele>497.600006103515625</ele>
        <time>2021-05-21T08:47:17.000Z</time>
        <extensions>
          <ns3:TrackPointExtension>
            <ns3:atemp>21.0</ns3:atemp>
          </ns3:TrackPointExtension>
        </extensions>
      </trkpt>
      <trkpt lat="43.1197465024888515472412109375" lon="13.10688248835504055023193359375">
        <ele>498.79998779296875</ele>
        <time>2021-05-21T08:47:20.000Z</time>
        <extensions>
          <ns3:TrackPointExtension>
            <ns3:atemp>21.0</ns3:atemp>
          </ns3:TrackPointExtension>
        </extensions>
      </trkpt>
      <trkpt lat="43.1197030842304229736328125" lon="13.10684074647724628448486328125">
        <ele>499</ele>
        <time>2021-05-21T08:47:21.000Z</time>
        <extensions>
          <ns3:TrackPointExtension>
            <ns3:atemp>21.0</ns3:atemp>
          </ns3:TrackPointExtension>
        </extensions>
      </trkpt>
      <trkpt lat="43.11962127685546875" lon="13.106770925223827362060546875">
        <ele>499.399993896484375</ele>
        <time>2021-05-21T08:47:23.000Z</time>
        <extensions>
          <ns3:TrackPointExtension>
            <ns3:atemp>21.0</ns3:atemp>
          </ns3:TrackPointExtension>
        </extensions>
      </trkpt>
      <trkpt lat="43.11952061019837856292724609375" lon="13.1067311950027942657470703125">
        <ele>499.399993896484375</ele>
        <time>2021-05-21T08:47:25.000Z</time>
        <extensions>
          <ns3:TrackPointExtension>
            <ns3:atemp>21.0</ns3:atemp>
          </ns3:TrackPointExtension>
        </extensions>
      </trkpt>
      <trkpt lat="43.1192258186638355255126953125" lon="13.10670043341815471649169921875">
        <ele>499.399993896484375</ele>
        <time>2021-05-21T08:47:31.000Z</time>
        <extensions>
          <ns3:TrackPointExtension>
            <ns3:atemp>21.0</ns3:atemp>
          </ns3:TrackPointExtension>
        </extensions>
      </trkpt>
      <trkpt lat="43.119072429835796356201171875" lon="13.10669892467558383941650390625">
        <ele>499.20001220703125</ele>
        <time>2021-05-21T08:47:34.000Z</time>
        <extensions>
          <ns3:TrackPointExtension>
            <ns3:atemp>21.0</ns3:atemp>
          </ns3:TrackPointExtension>
        </extensions>
      </trkpt>
      <trkpt lat="43.1189525686204433441162109375" lon="13.106622733175754547119140625">
        <ele>499</ele>
        <time>2021-05-21T08:47:37.000Z</time>
        <extensions>
          <ns3:TrackPointExtension>
            <ns3:atemp>21.0</ns3:atemp>
          </ns3:TrackPointExtension>
        </extensions>
      </trkpt>
      <trkpt lat="43.11894644983112812042236328125" lon="13.1064421869814395904541015625">
        <ele>498.79998779296875</ele>
        <time>2021-05-21T08:47:40.000Z</time>
        <extensions>
          <ns3:TrackPointExtension>
            <ns3:atemp>21.0</ns3:atemp>
          </ns3:TrackPointExtension>
        </extensions>
      </trkpt>
      <trkpt lat="43.11896539293229579925537109375" lon="13.10638057999312877655029296875">
        <ele>498.79998779296875</ele>
        <time>2021-05-21T08:47:41.000Z</time>
        <extensions>
          <ns3:TrackPointExtension>
            <ns3:atemp>21.0</ns3:atemp>
          </ns3:TrackPointExtension>
        </extensions>
      </trkpt>
      <trkpt lat="43.118988610804080963134765625" lon="13.10631855390965938568115234375">
        <ele>498.79998779296875</ele>
        <time>2021-05-21T08:47:42.000Z</time>
        <extensions>
          <ns3:TrackPointExtension>
            <ns3:atemp>21.0</ns3:atemp>
          </ns3:TrackPointExtension>
        </extensions>
      </trkpt>
      <trkpt lat="43.1190591864287853240966796875" lon="13.1061307154595851898193359375">
        <ele>498.600006103515625</ele>
        <time>2021-05-21T08:47:45.000Z</time>
        <extensions>
          <ns3:TrackPointExtension>
            <ns3:atemp>21.0</ns3:atemp>
          </ns3:TrackPointExtension>
        </extensions>
      </trkpt>
      <trkpt lat="43.119095899164676666259765625" lon="13.10599400661885738372802734375">
        <ele>498.600006103515625</ele>
        <time>2021-05-21T08:47:47.000Z</time>
        <extensions>
          <ns3:TrackPointExtension>
            <ns3:atemp>21.0</ns3:atemp>
          </ns3:TrackPointExtension>
        </extensions>
      </trkpt>
      <trkpt lat="43.1191684864461421966552734375" lon="13.1057548709213733673095703125">
        <ele>498.600006103515625</ele>
        <time>2021-05-21T08:47:51.000Z</time>
        <extensions>
          <ns3:TrackPointExtension>
            <ns3:atemp>21.0</ns3:atemp>
          </ns3:TrackPointExtension>
        </extensions>
      </trkpt>
      <trkpt lat="43.119322545826435089111328125" lon="13.10530786402523517608642578125">
        <ele>498.600006103515625</ele>
        <time>2021-05-21T08:47:59.000Z</time>
        <extensions>
          <ns3:TrackPointExtension>
            <ns3:atemp>21.0</ns3:atemp>
          </ns3:TrackPointExtension>
        </extensions>
      </trkpt>
      <trkpt lat="43.11935179866850376129150390625" lon="13.10513469390571117401123046875">
        <ele>498.600006103515625</ele>
        <time>2021-05-21T08:48:02.000Z</time>
        <extensions>
          <ns3:TrackPointExtension>
            <ns3:atemp>21.0</ns3:atemp>
          </ns3:TrackPointExtension>
        </extensions>
      </trkpt>
      <trkpt lat="43.1193436682224273681640625" lon="13.1050045229494571685791015625">
        <ele>499</ele>
        <time>2021-05-21T08:48:04.000Z</time>
        <extensions>
          <ns3:TrackPointExtension>
            <ns3:atemp>21.0</ns3:atemp>
          </ns3:TrackPointExtension>
        </extensions>
      </trkpt>
      <trkpt lat="43.11929714865982532501220703125" lon="13.10475734062492847442626953125">
        <ele>499.79998779296875</ele>
        <time>2021-05-21T08:48:08.000Z</time>
        <extensions>
          <ns3:TrackPointExtension>
            <ns3:atemp>21.0</ns3:atemp>
          </ns3:TrackPointExtension>
        </extensions>
      </trkpt>
      <trkpt lat="43.1192734278738498687744140625" lon="13.10460009612143039703369140625">
        <ele>500.399993896484375</ele>
        <time>2021-05-21T08:48:11.000Z</time>
        <extensions>
          <ns3:TrackPointExtension>
            <ns3:atemp>21.0</ns3:atemp>
          </ns3:TrackPointExtension>
        </extensions>
      </trkpt>
      <trkpt lat="43.119318187236785888671875" lon="13.10446447692811489105224609375">
        <ele>500.79998779296875</ele>
        <time>2021-05-21T08:48:14.000Z</time>
        <extensions>
          <ns3:TrackPointExtension>
            <ns3:atemp>21.0</ns3:atemp>
          </ns3:TrackPointExtension>
        </extensions>
      </trkpt>
      <trkpt lat="43.11934157274663448333740234375" lon="13.1044291891157627105712890625">
        <ele>501.20001220703125</ele>
        <time>2021-05-21T08:48:15.000Z</time>
        <extensions>
          <ns3:TrackPointExtension>
            <ns3:atemp>21.0</ns3:atemp>
          </ns3:TrackPointExtension>
        </extensions>
      </trkpt>
      <trkpt lat="43.1194554828107357025146484375" lon="13.10430295765399932861328125">
        <ele>502</ele>
        <time>2021-05-21T08:48:19.000Z</time>
        <extensions>
          <ns3:TrackPointExtension>
            <ns3:atemp>21.0</ns3:atemp>
          </ns3:TrackPointExtension>
        </extensions>
      </trkpt>
      <trkpt lat="43.11949797905981540679931640625" lon="13.1042474694550037384033203125">
        <ele>502.399993896484375</ele>
        <time>2021-05-21T08:48:21.000Z</time>
        <extensions>
          <ns3:TrackPointExtension>
            <ns3:atemp>21.0</ns3:atemp>
          </ns3:TrackPointExtension>
        </extensions>
      </trkpt>
      <trkpt lat="43.119543157517910003662109375" lon="13.10418150387704372406005859375">
        <ele>503</ele>
        <time>2021-05-21T08:48:23.000Z</time>
        <extensions>
          <ns3:TrackPointExtension>
            <ns3:atemp>21.0</ns3:atemp>
          </ns3:TrackPointExtension>
        </extensions>
      </trkpt>
      <trkpt lat="43.11957375146448612213134765625" lon="13.10411696322262287139892578125">
        <ele>503.600006103515625</ele>
        <time>2021-05-21T08:48:25.000Z</time>
        <extensions>
          <ns3:TrackPointExtension>
            <ns3:atemp>21.0</ns3:atemp>
          </ns3:TrackPointExtension>
        </extensions>
      </trkpt>
      <trkpt lat="43.11958565376698970794677734375" lon="13.10407656244933605194091796875">
        <ele>503.79998779296875</ele>
        <time>2021-05-21T08:48:26.000Z</time>
        <extensions>
          <ns3:TrackPointExtension>
            <ns3:atemp>21.0</ns3:atemp>
          </ns3:TrackPointExtension>
        </extensions>
      </trkpt>
      <trkpt lat="43.1196211092174053192138671875" lon="13.10398654080927371978759765625">
        <ele>504.20001220703125</ele>
        <time>2021-05-21T08:48:28.000Z</time>
        <extensions>
          <ns3:TrackPointExtension>
            <ns3:atemp>21.0</ns3:atemp>
          </ns3:TrackPointExtension>
        </extensions>
      </trkpt>
      <trkpt lat="43.11965974979102611541748046875" lon="13.10384656302630901336669921875">
        <ele>505</ele>
        <time>2021-05-21T08:48:31.000Z</time>
        <extensions>
          <ns3:TrackPointExtension>
            <ns3:atemp>21.0</ns3:atemp>
          </ns3:TrackPointExtension>
        </extensions>
      </trkpt>
      <trkpt lat="43.11966612003743648529052734375" lon="13.10379727743566036224365234375">
        <ele>505.399993896484375</ele>
        <time>2021-05-21T08:48:32.000Z</time>
        <extensions>
          <ns3:TrackPointExtension>
            <ns3:atemp>21.0</ns3:atemp>
          </ns3:TrackPointExtension>
        </extensions>
      </trkpt>
      <trkpt lat="43.11967114917933940887451171875" lon="13.1036241911351680755615234375">
        <ele>506.20001220703125</ele>
        <time>2021-05-21T08:48:36.000Z</time>
        <extensions>
          <ns3:TrackPointExtension>
            <ns3:atemp>21.0</ns3:atemp>
          </ns3:TrackPointExtension>
        </extensions>
      </trkpt>
      <trkpt lat="43.1196650303900241851806640625" lon="13.10353375039994716644287109375">
        <ele>506.399993896484375</ele>
        <time>2021-05-21T08:48:38.000Z</time>
        <extensions>
          <ns3:TrackPointExtension>
            <ns3:atemp>21.0</ns3:atemp>
          </ns3:TrackPointExtension>
        </extensions>
      </trkpt>
      <trkpt lat="43.1196387112140655517578125" lon="13.10341338627040386199951171875">
        <ele>507.600006103515625</ele>
        <time>2021-05-21T08:48:41.000Z</time>
        <extensions>
          <ns3:TrackPointExtension>
            <ns3:atemp>21.0</ns3:atemp>
          </ns3:TrackPointExtension>
        </extensions>
      </trkpt>
      <trkpt lat="43.1196375377476215362548828125" lon="13.10337047092616558074951171875">
        <ele>507.79998779296875</ele>
        <time>2021-05-21T08:48:42.000Z</time>
        <extensions>
          <ns3:TrackPointExtension>
            <ns3:atemp>21.0</ns3:atemp>
          </ns3:TrackPointExtension>
        </extensions>
      </trkpt>
      <trkpt lat="43.11962756328284740447998046875" lon="13.10329050756990909576416015625">
        <ele>508.399993896484375</ele>
        <time>2021-05-21T08:48:44.000Z</time>
        <extensions>
          <ns3:TrackPointExtension>
            <ns3:atemp>21.0</ns3:atemp>
          </ns3:TrackPointExtension>
        </extensions>
      </trkpt>
      <trkpt lat="43.119556568562984466552734375" lon="13.1030900962650775909423828125">
        <ele>509.600006103515625</ele>
        <time>2021-05-21T08:48:49.000Z</time>
        <extensions>
          <ns3:TrackPointExtension>
            <ns3:atemp>21.0</ns3:atemp>
          </ns3:TrackPointExtension>
        </extensions>
      </trkpt>
      <trkpt lat="43.11949680559337139129638671875" lon="13.10294902883470058441162109375">
        <ele>510.79998779296875</ele>
        <time>2021-05-21T08:48:53.000Z</time>
        <extensions>
          <ns3:TrackPointExtension>
            <ns3:atemp>21.0</ns3:atemp>
          </ns3:TrackPointExtension>
        </extensions>
      </trkpt>
      <trkpt lat="43.1194554828107357025146484375" lon="13.10289840213954448699951171875">
        <ele>511.399993896484375</ele>
        <time>2021-05-21T08:48:55.000Z</time>
        <extensions>
          <ns3:TrackPointExtension>
            <ns3:atemp>21.0</ns3:atemp>
          </ns3:TrackPointExtension>
        </extensions>
      </trkpt>
      <trkpt lat="43.119415082037448883056640625" lon="13.10284475795924663543701171875">
        <ele>512</ele>
        <time>2021-05-21T08:48:57.000Z</time>
        <extensions>
          <ns3:TrackPointExtension>
            <ns3:atemp>21.0</ns3:atemp>
          </ns3:TrackPointExtension>
        </extensions>
      </trkpt>
      <trkpt lat="43.11931944452226161956787109375" lon="13.10276471078395843505859375">
        <ele>513</ele>
        <time>2021-05-21T08:49:01.000Z</time>
        <extensions>
          <ns3:TrackPointExtension>
            <ns3:atemp>21.0</ns3:atemp>
          </ns3:TrackPointExtension>
        </extensions>
      </trkpt>
      <trkpt lat="43.11930201016366481781005859375" lon="13.10274115763604640960693359375">
        <ele>513.4000244140625</ele>
        <time>2021-05-21T08:49:02.000Z</time>
        <extensions>
          <ns3:TrackPointExtension>
            <ns3:atemp>21.0</ns3:atemp>
          </ns3:TrackPointExtension>
        </extensions>
      </trkpt>
      <trkpt lat="43.119266889989376068115234375" lon="13.10266823507845401763916015625">
        <ele>514</ele>
        <time>2021-05-21T08:49:05.000Z</time>
        <extensions>
          <ns3:TrackPointExtension>
            <ns3:atemp>21.0</ns3:atemp>
          </ns3:TrackPointExtension>
        </extensions>
      </trkpt>
      <trkpt lat="43.1192181073129177093505859375" lon="13.1025784648954868316650390625">
        <ele>515.4000244140625</ele>
        <time>2021-05-21T08:49:09.000Z</time>
        <extensions>
          <ns3:TrackPointExtension>
            <ns3:atemp>21.0</ns3:atemp>
          </ns3:TrackPointExtension>
        </extensions>
      </trkpt>
      <trkpt lat="43.11920084059238433837890625" lon="13.1025065481662750244140625">
        <ele>516.5999755859375</ele>
        <time>2021-05-21T08:49:12.000Z</time>
        <extensions>
          <ns3:TrackPointExtension>
            <ns3:atemp>21.0</ns3:atemp>
          </ns3:TrackPointExtension>
        </extensions>
      </trkpt>
      <trkpt lat="43.11919371597468852996826171875" lon="13.10242683626711368560791015625">
        <ele>517</ele>
        <time>2021-05-21T08:49:15.000Z</time>
        <extensions>
          <ns3:TrackPointExtension>
            <ns3:atemp>21.0</ns3:atemp>
          </ns3:TrackPointExtension>
        </extensions>
      </trkpt>
      <trkpt lat="43.11919271014630794525146484375" lon="13.10225374996662139892578125">
        <ele>517.5999755859375</ele>
        <time>2021-05-21T08:49:20.000Z</time>
        <extensions>
          <ns3:TrackPointExtension>
            <ns3:atemp>21.0</ns3:atemp>
          </ns3:TrackPointExtension>
        </extensions>
      </trkpt>
      <trkpt lat="43.11918533407151699066162109375" lon="13.1022284366190433502197265625">
        <ele>517.79998779296875</ele>
        <time>2021-05-21T08:49:21.000Z</time>
        <extensions>
          <ns3:TrackPointExtension>
            <ns3:atemp>21.0</ns3:atemp>
          </ns3:TrackPointExtension>
        </extensions>
      </trkpt>
      <trkpt lat="43.11918550170958042144775390625" lon="13.10213162563741207122802734375">
        <ele>518.20001220703125</ele>
        <time>2021-05-21T08:49:25.000Z</time>
        <extensions>
          <ns3:TrackPointExtension>
            <ns3:atemp>21.0</ns3:atemp>
          </ns3:TrackPointExtension>
        </extensions>
      </trkpt>
      <trkpt lat="43.1191879324615001678466796875" lon="13.10209977440536022186279296875">
        <ele>518.20001220703125</ele>
        <time>2021-05-21T08:49:26.000Z</time>
        <extensions>
          <ns3:TrackPointExtension>
            <ns3:atemp>21.0</ns3:atemp>
          </ns3:TrackPointExtension>
        </extensions>
      </trkpt>
      <trkpt lat="43.11918742954730987548828125" lon="13.10202919878065586090087890625">
        <ele>518.79998779296875</ele>
        <time>2021-05-21T08:49:28.000Z</time>
        <extensions>
          <ns3:TrackPointExtension>
            <ns3:atemp>21.0</ns3:atemp>
          </ns3:TrackPointExtension>
        </extensions>
      </trkpt>
      <trkpt lat="43.1191993318498134613037109375" lon="13.10195493511855602264404296875">
        <ele>520</ele>
        <time>2021-05-21T08:49:30.000Z</time>
        <extensions>
          <ns3:TrackPointExtension>
            <ns3:atemp>21.0</ns3:atemp>
          </ns3:TrackPointExtension>
        </extensions>
      </trkpt>
      <trkpt lat="43.119214586913585662841796875" lon="13.10189207084476947784423828125">
        <ele>520.5999755859375</ele>
        <time>2021-05-21T08:49:32.000Z</time>
        <extensions>
          <ns3:TrackPointExtension>
            <ns3:atemp>21.0</ns3:atemp>
          </ns3:TrackPointExtension>
        </extensions>
      </trkpt>
      <trkpt lat="43.11922229826450347900390625" lon="13.10186214745044708251953125">
        <ele>521</ele>
        <time>2021-05-21T08:49:33.000Z</time>
        <extensions>
          <ns3:TrackPointExtension>
            <ns3:atemp>21.0</ns3:atemp>
          </ns3:TrackPointExtension>
        </extensions>
      </trkpt>
      <trkpt lat="43.11928105540573596954345703125" lon="13.10173683799803256988525390625">
        <ele>522.20001220703125</ele>
        <time>2021-05-21T08:49:38.000Z</time>
        <extensions>
          <ns3:TrackPointExtension>
            <ns3:atemp>21.0</ns3:atemp>
          </ns3:TrackPointExtension>
        </extensions>
      </trkpt>
      <trkpt lat="43.11929413117468357086181640625" lon="13.101712279021739959716796875">
        <ele>522.4000244140625</ele>
        <time>2021-05-21T08:49:39.000Z</time>
        <extensions>
          <ns3:TrackPointExtension>
            <ns3:atemp>21.0</ns3:atemp>
          </ns3:TrackPointExtension>
        </extensions>
      </trkpt>
      <trkpt lat="43.11932413838803768157958984375" lon="13.101632483303546905517578125">
        <ele>523.20001220703125</ele>
        <time>2021-05-21T08:49:42.000Z</time>
        <extensions>
          <ns3:TrackPointExtension>
            <ns3:atemp>21.0</ns3:atemp>
          </ns3:TrackPointExtension>
        </extensions>
      </trkpt>
      <trkpt lat="43.11935640871524810791015625" lon="13.10149057768285274505615234375">
        <ele>523.5999755859375</ele>
        <time>2021-05-21T08:49:47.000Z</time>
        <extensions>
          <ns3:TrackPointExtension>
            <ns3:atemp>21.0</ns3:atemp>
          </ns3:TrackPointExtension>
        </extensions>
      </trkpt>
      <trkpt lat="43.11935531906783580780029296875" lon="13.101446740329265594482421875">
        <ele>523.5999755859375</ele>
        <time>2021-05-21T08:49:51.000Z</time>
        <extensions>
          <ns3:TrackPointExtension>
            <ns3:atemp>21.0</ns3:atemp>
          </ns3:TrackPointExtension>
        </extensions>
      </trkpt>
      <trkpt lat="43.11936286278069019317626953125" lon="13.1014402024447917938232421875">
        <ele>523</ele>
        <time>2021-05-21T08:50:02.000Z</time>
        <extensions>
          <ns3:TrackPointExtension>
            <ns3:atemp>21.0</ns3:atemp>
          </ns3:TrackPointExtension>
        </extensions>
      </trkpt>
      <trkpt lat="43.11936177313327789306640625" lon="13.10143810696899890899658203125">
        <ele>523</ele>
        <time>2021-05-21T08:50:18.000Z</time>
        <extensions>
          <ns3:TrackPointExtension>
            <ns3:atemp>21.0</ns3:atemp>
          </ns3:TrackPointExtension>
        </extensions>
      </trkpt>
      <trkpt lat="43.11936453916132450103759765625" lon="13.10143659822642803192138671875">
        <ele>522.79998779296875</ele>
        <time>2021-05-21T08:50:29.000Z</time>
        <extensions>
          <ns3:TrackPointExtension>
            <ns3:atemp>21.0</ns3:atemp>
          </ns3:TrackPointExtension>
        </extensions>
      </trkpt>
      <trkpt lat="43.119365461170673370361328125" lon="13.1014358438551425933837890625">
        <ele>522.79998779296875</ele>
        <time>2021-05-21T08:50:38.000Z</time>
        <extensions>
          <ns3:TrackPointExtension>
            <ns3:atemp>21.0</ns3:atemp>
          </ns3:TrackPointExtension>
        </extensions>
      </trkpt>
      <trkpt lat="43.11937694437801837921142578125" lon="13.10140022076666355133056640625">
        <ele>523</ele>
        <time>2021-05-21T08:50:46.000Z</time>
        <extensions>
          <ns3:TrackPointExtension>
            <ns3:atemp>22.0</ns3:atemp>
          </ns3:TrackPointExtension>
        </extensions>
      </trkpt>
      <trkpt lat="43.1193807162344455718994140625" lon="13.101400472223758697509765625">
        <ele>523.20001220703125</ele>
        <time>2021-05-21T08:51:04.000Z</time>
        <extensions>
          <ns3:TrackPointExtension>
            <ns3:atemp>22.0</ns3:atemp>
          </ns3:TrackPointExtension>
        </extensions>
      </trkpt>
      <trkpt lat="43.11938448809087276458740234375" lon="13.10140550136566162109375">
        <ele>523.5999755859375</ele>
        <time>2021-05-21T08:51:20.000Z</time>
        <extensions>
          <ns3:TrackPointExtension>
            <ns3:atemp>22.0</ns3:atemp>
          </ns3:TrackPointExtension>
        </extensions>
      </trkpt>
      <trkpt lat="43.119390942156314849853515625" lon="13.101413547992706298828125">
        <ele>523.5999755859375</ele>
        <time>2021-05-21T08:51:32.000Z</time>
        <extensions>
          <ns3:TrackPointExtension>
            <ns3:atemp>22.0</ns3:atemp>
          </ns3:TrackPointExtension>
        </extensions>
      </trkpt>
      <trkpt lat="43.11939270235598087310791015625" lon="13.10141279362142086029052734375">
        <ele>523.79998779296875</ele>
        <time>2021-05-21T08:51:43.000Z</time>
        <extensions>
          <ns3:TrackPointExtension>
            <ns3:atemp>22.0</ns3:atemp>
          </ns3:TrackPointExtension>
        </extensions>
      </trkpt>
      <trkpt lat="43.11939521692693233489990234375" lon="13.1014143861830234527587890625">
        <ele>523.79998779296875</ele>
        <time>2021-05-21T08:51:54.000Z</time>
        <extensions>
          <ns3:TrackPointExtension>
            <ns3:atemp>22.0</ns3:atemp>
          </ns3:TrackPointExtension>
        </extensions>
      </trkpt>
      <trkpt lat="43.11939756385982036590576171875" lon="13.10141346417367458343505859375">
        <ele>523.79998779296875</ele>
        <time>2021-05-21T08:52:09.000Z</time>
        <extensions>
          <ns3:TrackPointExtension>
            <ns3:atemp>22.0</ns3:atemp>
          </ns3:TrackPointExtension>
        </extensions>
      </trkpt>
      <trkpt lat="43.1194108910858631134033203125" lon="13.1013795174658298492431640625">
        <ele>523.79998779296875</ele>
        <time>2021-05-21T08:52:14.000Z</time>
        <extensions>
          <ns3:TrackPointExtension>
            <ns3:atemp>22.0</ns3:atemp>
          </ns3:TrackPointExtension>
        </extensions>
      </trkpt>
      <trkpt lat="43.11942254193127155303955078125" lon="13.10132511891424655914306640625">
        <ele>524</ele>
        <time>2021-05-21T08:52:16.000Z</time>
        <extensions>
          <ns3:TrackPointExtension>
            <ns3:atemp>21.0</ns3:atemp>
          </ns3:TrackPointExtension>
        </extensions>
      </trkpt>
      <trkpt lat="43.11945204623043537139892578125" lon="13.10120743699371814727783203125">
        <ele>524</ele>
        <time>2021-05-21T08:52:19.000Z</time>
        <extensions>
          <ns3:TrackPointExtension>
            <ns3:atemp>21.0</ns3:atemp>
          </ns3:TrackPointExtension>
        </extensions>
      </trkpt>
      <trkpt lat="43.11948515474796295166015625" lon="13.1010747514665126800537109375">
        <ele>524</ele>
        <time>2021-05-21T08:52:22.000Z</time>
        <extensions>
          <ns3:TrackPointExtension>
            <ns3:atemp>21.0</ns3:atemp>
          </ns3:TrackPointExtension>
        </extensions>
      </trkpt>
      <trkpt lat="43.1195721589028835296630859375" lon="13.10085791163146495819091796875">
        <ele>524.20001220703125</ele>
        <time>2021-05-21T08:52:28.000Z</time>
        <extensions>
          <ns3:TrackPointExtension>
            <ns3:atemp>21.0</ns3:atemp>
          </ns3:TrackPointExtension>
        </extensions>
      </trkpt>
      <trkpt lat="43.1196113862097263336181640625" lon="13.1007411517202854156494140625">
        <ele>524.4000244140625</ele>
        <time>2021-05-21T08:52:31.000Z</time>
        <extensions>
          <ns3:TrackPointExtension>
            <ns3:atemp>21.0</ns3:atemp>
          </ns3:TrackPointExtension>
        </extensions>
      </trkpt>
      <trkpt lat="43.11965589411556720733642578125" lon="13.10062699019908905029296875">
        <ele>525.20001220703125</ele>
        <time>2021-05-21T08:52:34.000Z</time>
        <extensions>
          <ns3:TrackPointExtension>
            <ns3:atemp>21.0</ns3:atemp>
          </ns3:TrackPointExtension>
        </extensions>
      </trkpt>
      <trkpt lat="43.119673244655132293701171875" lon="13.1005912832915782928466796875">
        <ele>525.4000244140625</ele>
        <time>2021-05-21T08:52:35.000Z</time>
        <extensions>
          <ns3:TrackPointExtension>
            <ns3:atemp>21.0</ns3:atemp>
          </ns3:TrackPointExtension>
        </extensions>
      </trkpt>
      <trkpt lat="43.11972881667315959930419921875" lon="13.10048944316804409027099609375">
        <ele>526.5999755859375</ele>
        <time>2021-05-21T08:52:39.000Z</time>
        <extensions>
          <ns3:TrackPointExtension>
            <ns3:atemp>21.0</ns3:atemp>
          </ns3:TrackPointExtension>
        </extensions>
      </trkpt>
      <trkpt lat="43.1197921000421047210693359375" lon="13.1003267504274845123291015625">
        <ele>527.20001220703125</ele>
        <time>2021-05-21T08:52:44.000Z</time>
        <extensions>
          <ns3:TrackPointExtension>
            <ns3:atemp>21.0</ns3:atemp>
          </ns3:TrackPointExtension>
        </extensions>
      </trkpt>
      <trkpt lat="43.11982939951121807098388671875" lon="13.10024318285286426544189453125">
        <ele>527.79998779296875</ele>
        <time>2021-05-21T08:52:46.000Z</time>
        <extensions>
          <ns3:TrackPointExtension>
            <ns3:atemp>21.0</ns3:atemp>
          </ns3:TrackPointExtension>
        </extensions>
      </trkpt>
      <trkpt lat="43.1199138052761554718017578125" lon="13.10005777515470981597900390625">
        <ele>528.4000244140625</ele>
        <time>2021-05-21T08:52:50.000Z</time>
        <extensions>
          <ns3:TrackPointExtension>
            <ns3:atemp>21.0</ns3:atemp>
          </ns3:TrackPointExtension>
        </extensions>
      </trkpt>
      <trkpt lat="43.1199473328888416290283203125" lon="13.099952079355716705322265625">
        <ele>528.79998779296875</ele>
        <time>2021-05-21T08:52:52.000Z</time>
        <extensions>
          <ns3:TrackPointExtension>
            <ns3:atemp>21.0</ns3:atemp>
          </ns3:TrackPointExtension>
        </extensions>
      </trkpt>
      <trkpt lat="43.12002587132155895233154296875" lon="13.099676482379436492919921875">
        <ele>529.4000244140625</ele>
        <time>2021-05-21T08:52:57.000Z</time>
        <extensions>
          <ns3:TrackPointExtension>
            <ns3:atemp>21.0</ns3:atemp>
          </ns3:TrackPointExtension>
        </extensions>
      </trkpt>
      <trkpt lat="43.12007565982639789581298828125" lon="13.0994510091841220855712890625">
        <ele>529.79998779296875</ele>
        <time>2021-05-21T08:53:01.000Z</time>
        <extensions>
          <ns3:TrackPointExtension>
            <ns3:atemp>21.0</ns3:atemp>
          </ns3:TrackPointExtension>
        </extensions>
      </trkpt>
      <trkpt lat="43.12008462846279144287109375" lon="13.0992857180535793304443359375">
        <ele>530</ele>
        <time>2021-05-21T08:53:04.000Z</time>
        <extensions>
          <ns3:TrackPointExtension>
            <ns3:atemp>21.0</ns3:atemp>
          </ns3:TrackPointExtension>
        </extensions>
      </trkpt>
      <trkpt lat="43.12007918022572994232177734375" lon="13.09911615215241909027099609375">
        <ele>531</ele>
        <time>2021-05-21T08:53:07.000Z</time>
        <extensions>
          <ns3:TrackPointExtension>
            <ns3:atemp>21.0</ns3:atemp>
          </ns3:TrackPointExtension>
        </extensions>
      </trkpt>
      <trkpt lat="43.12005705200135707855224609375" lon="13.0989936925470829010009765625">
        <ele>531.4000244140625</ele>
        <time>2021-05-21T08:53:09.000Z</time>
        <extensions>
          <ns3:TrackPointExtension>
            <ns3:atemp>21.0</ns3:atemp>
          </ns3:TrackPointExtension>
        </extensions>
      </trkpt>
      <trkpt lat="43.120040036737918853759765625" lon="13.09887190349400043487548828125">
        <ele>532</ele>
        <time>2021-05-21T08:53:11.000Z</time>
        <extensions>
          <ns3:TrackPointExtension>
            <ns3:atemp>21.0</ns3:atemp>
          </ns3:TrackPointExtension>
        </extensions>
      </trkpt>
      <trkpt lat="43.1200009770691394805908203125" lon="13.0985980667173862457275390625">
        <ele>533.20001220703125</ele>
        <time>2021-05-21T08:53:16.000Z</time>
        <extensions>
          <ns3:TrackPointExtension>
            <ns3:atemp>21.0</ns3:atemp>
          </ns3:TrackPointExtension>
        </extensions>
      </trkpt>
      <trkpt lat="43.11995797790586948394775390625" lon="13.098487593233585357666015625">
        <ele>533.4000244140625</ele>
        <time>2021-05-21T08:53:18.000Z</time>
        <extensions>
          <ns3:TrackPointExtension>
            <ns3:atemp>21.0</ns3:atemp>
          </ns3:TrackPointExtension>
        </extensions>
      </trkpt>
      <trkpt lat="43.1198702193796634674072265625" lon="13.098345100879669189453125">
        <ele>533.5999755859375</ele>
        <time>2021-05-21T08:53:21.000Z</time>
        <extensions>
          <ns3:TrackPointExtension>
            <ns3:atemp>21.0</ns3:atemp>
          </ns3:TrackPointExtension>
        </extensions>
      </trkpt>
      <trkpt lat="43.11981079168617725372314453125" lon="13.09826421551406383514404296875">
        <ele>534.20001220703125</ele>
        <time>2021-05-21T08:53:23.000Z</time>
        <extensions>
          <ns3:TrackPointExtension>
            <ns3:atemp>21.0</ns3:atemp>
          </ns3:TrackPointExtension>
        </extensions>
      </trkpt>
      <trkpt lat="43.1196760945022106170654296875" lon="13.0980850942432880401611328125">
        <ele>534.5999755859375</ele>
        <time>2021-05-21T08:53:28.000Z</time>
        <extensions>
          <ns3:TrackPointExtension>
            <ns3:atemp>21.0</ns3:atemp>
          </ns3:TrackPointExtension>
        </extensions>
      </trkpt>
      <trkpt lat="43.1196258030831813812255859375" lon="13.0980096571147441864013671875">
        <ele>535</ele>
        <time>2021-05-21T08:53:30.000Z</time>
        <extensions>
          <ns3:TrackPointExtension>
            <ns3:atemp>21.0</ns3:atemp>
          </ns3:TrackPointExtension>
        </extensions>
      </trkpt>
      <trkpt lat="43.1195165030658245086669921875" lon="13.0978544242680072784423828125">
        <ele>535.5999755859375</ele>
        <time>2021-05-21T08:53:34.000Z</time>
        <extensions>
          <ns3:TrackPointExtension>
            <ns3:atemp>21.0</ns3:atemp>
          </ns3:TrackPointExtension>
        </extensions>
      </trkpt>
      <trkpt lat="43.11942757107317447662353515625" lon="13.097726516425609588623046875">
        <ele>536</ele>
        <time>2021-05-21T08:53:37.000Z</time>
        <extensions>
          <ns3:TrackPointExtension>
            <ns3:atemp>21.0</ns3:atemp>
          </ns3:TrackPointExtension>
        </extensions>
      </trkpt>
      <trkpt lat="43.11934023164212703704833984375" lon="13.0975345708429813385009765625">
        <ele>536.79998779296875</ele>
        <time>2021-05-21T08:53:41.000Z</time>
        <extensions>
          <ns3:TrackPointExtension>
            <ns3:atemp>21.0</ns3:atemp>
          </ns3:TrackPointExtension>
        </extensions>
      </trkpt>
      <trkpt lat="43.11932229436933994293212890625" lon="13.09748821891844272613525390625">
        <ele>537.20001220703125</ele>
        <time>2021-05-21T08:53:42.000Z</time>
        <extensions>
          <ns3:TrackPointExtension>
            <ns3:atemp>21.0</ns3:atemp>
          </ns3:TrackPointExtension>
        </extensions>
      </trkpt>
      <trkpt lat="43.119276948273181915283203125" lon="13.0973313935101032257080078125">
        <ele>538.20001220703125</ele>
        <time>2021-05-21T08:53:45.000Z</time>
        <extensions>
          <ns3:TrackPointExtension>
            <ns3:atemp>20.0</ns3:atemp>
          </ns3:TrackPointExtension>
        </extensions>
      </trkpt>
      <trkpt lat="43.11927401460707187652587890625" lon="13.0972802639007568359375">
        <ele>538.5999755859375</ele>
        <time>2021-05-21T08:53:46.000Z</time>
        <extensions>
          <ns3:TrackPointExtension>
            <ns3:atemp>20.0</ns3:atemp>
          </ns3:TrackPointExtension>
        </extensions>
      </trkpt>
      <trkpt lat="43.1192838214337825775146484375" lon="13.09723391197621822357177734375">
        <ele>538.79998779296875</ele>
        <time>2021-05-21T08:53:47.000Z</time>
        <extensions>
          <ns3:TrackPointExtension>
            <ns3:atemp>20.0</ns3:atemp>
          </ns3:TrackPointExtension>
        </extensions>
      </trkpt>
      <trkpt lat="43.1193213723599910736083984375" lon="13.09716182760894298553466796875">
        <ele>539.20001220703125</ele>
        <time>2021-05-21T08:53:49.000Z</time>
        <extensions>
          <ns3:TrackPointExtension>
            <ns3:atemp>20.0</ns3:atemp>
          </ns3:TrackPointExtension>
        </extensions>
      </trkpt>
      <trkpt lat="43.11944768764078617095947265625" lon="13.0971255339682102203369140625">
        <ele>540</ele>
        <time>2021-05-21T08:53:53.000Z</time>
        <extensions>
          <ns3:TrackPointExtension>
            <ns3:atemp>20.0</ns3:atemp>
          </ns3:TrackPointExtension>
        </extensions>
      </trkpt>
      <trkpt lat="43.11948222108185291290283203125" lon="13.0971314013004302978515625">
        <ele>540.4000244140625</ele>
        <time>2021-05-21T08:53:54.000Z</time>
        <extensions>
          <ns3:TrackPointExtension>
            <ns3:atemp>20.0</ns3:atemp>
          </ns3:TrackPointExtension>
        </extensions>
      </trkpt>
      <trkpt lat="43.11963192187249660491943359375" lon="13.09714472852647304534912109375">
        <ele>541.4000244140625</ele>
        <time>2021-05-21T08:53:59.000Z</time>
        <extensions>
          <ns3:TrackPointExtension>
            <ns3:atemp>20.0</ns3:atemp>
          </ns3:TrackPointExtension>
        </extensions>
      </trkpt>
      <trkpt lat="43.119747340679168701171875" lon="13.09713207185268402099609375">
        <ele>542.5999755859375</ele>
        <time>2021-05-21T08:54:03.000Z</time>
        <extensions>
          <ns3:TrackPointExtension>
            <ns3:atemp>20.0</ns3:atemp>
          </ns3:TrackPointExtension>
        </extensions>
      </trkpt>
      <trkpt lat="43.11983384191989898681640625" lon="13.09711656533181667327880859375">
        <ele>544</ele>
        <time>2021-05-21T08:54:06.000Z</time>
        <extensions>
          <ns3:TrackPointExtension>
            <ns3:atemp>20.0</ns3:atemp>
          </ns3:TrackPointExtension>
        </extensions>
      </trkpt>
      <trkpt lat="43.11986359767615795135498046875" lon="13.09710516594350337982177734375">
        <ele>544.20001220703125</ele>
        <time>2021-05-21T08:54:07.000Z</time>
        <extensions>
          <ns3:TrackPointExtension>
            <ns3:atemp>20.0</ns3:atemp>
          </ns3:TrackPointExtension>
        </extensions>
      </trkpt>
      <trkpt lat="43.11997926793992519378662109375" lon="13.09705940075218677520751953125">
        <ele>545.20001220703125</ele>
        <time>2021-05-21T08:54:11.000Z</time>
        <extensions>
          <ns3:TrackPointExtension>
            <ns3:atemp>20.0</ns3:atemp>
          </ns3:TrackPointExtension>
        </extensions>
      </trkpt>
      <trkpt lat="43.12006811611354351043701171875" lon="13.097015060484409332275390625">
        <ele>546</ele>
        <time>2021-05-21T08:54:14.000Z</time>
        <extensions>
          <ns3:TrackPointExtension>
            <ns3:atemp>20.0</ns3:atemp>
          </ns3:TrackPointExtension>
        </extensions>
      </trkpt>
      <trkpt lat="43.120125196874141693115234375" lon="13.09699050150811672210693359375">
        <ele>546.20001220703125</ele>
        <time>2021-05-21T08:54:16.000Z</time>
        <extensions>
          <ns3:TrackPointExtension>
            <ns3:atemp>20.0</ns3:atemp>
          </ns3:TrackPointExtension>
        </extensions>
      </trkpt>
      <trkpt lat="43.1202779151499271392822265625" lon="13.0969114601612091064453125">
        <ele>547.4000244140625</ele>
        <time>2021-05-21T08:54:21.000Z</time>
        <extensions>
          <ns3:TrackPointExtension>
            <ns3:atemp>20.0</ns3:atemp>
          </ns3:TrackPointExtension>
        </extensions>
      </trkpt>
      <trkpt lat="43.12050615437328815460205078125" lon="13.0967909283936023712158203125">
        <ele>548.4000244140625</ele>
        <time>2021-05-21T08:54:28.000Z</time>
        <extensions>
          <ns3:TrackPointExtension>
            <ns3:atemp>20.0</ns3:atemp>
          </ns3:TrackPointExtension>
        </extensions>
      </trkpt>
      <trkpt lat="43.120808489620685577392578125" lon="13.09661482460796833038330078125">
        <ele>549.20001220703125</ele>
        <time>2021-05-21T08:54:37.000Z</time>
        <extensions>
          <ns3:TrackPointExtension>
            <ns3:atemp>20.0</ns3:atemp>
          </ns3:TrackPointExtension>
        </extensions>
      </trkpt>
      <trkpt lat="43.1208948232233524322509765625" lon="13.09655531309545040130615234375">
        <ele>549.5999755859375</ele>
        <time>2021-05-21T08:54:40.000Z</time>
        <extensions>
          <ns3:TrackPointExtension>
            <ns3:atemp>20.0</ns3:atemp>
          </ns3:TrackPointExtension>
        </extensions>
      </trkpt>
      <trkpt lat="43.1210121698677539825439453125" lon="13.0964881740510463714599609375">
        <ele>550</ele>
        <time>2021-05-21T08:54:44.000Z</time>
        <extensions>
          <ns3:TrackPointExtension>
            <ns3:atemp>20.0</ns3:atemp>
          </ns3:TrackPointExtension>
        </extensions>
      </trkpt>
      <trkpt lat="43.12109992839395999908447265625" lon="13.09643411077558994293212890625">
        <ele>550.5999755859375</ele>
        <time>2021-05-21T08:54:47.000Z</time>
        <extensions>
          <ns3:TrackPointExtension>
            <ns3:atemp>20.0</ns3:atemp>
          </ns3:TrackPointExtension>
        </extensions>
      </trkpt>
      <trkpt lat="43.1211573444306850433349609375" lon="13.0964018404483795166015625">
        <ele>551.20001220703125</ele>
        <time>2021-05-21T08:54:49.000Z</time>
        <extensions>
          <ns3:TrackPointExtension>
            <ns3:atemp>20.0</ns3:atemp>
          </ns3:TrackPointExtension>
        </extensions>
      </trkpt>
      <trkpt lat="43.12121945433318614959716796875" lon="13.09636655263602733612060546875">
        <ele>551.79998779296875</ele>
        <time>2021-05-21T08:54:51.000Z</time>
        <extensions>
          <ns3:TrackPointExtension>
            <ns3:atemp>20.0</ns3:atemp>
          </ns3:TrackPointExtension>
        </extensions>
      </trkpt>
      <trkpt lat="43.12134752981364727020263671875" lon="13.0963027663528919219970703125">
        <ele>553</ele>
        <time>2021-05-21T08:54:55.000Z</time>
        <extensions>
          <ns3:TrackPointExtension>
            <ns3:atemp>20.0</ns3:atemp>
          </ns3:TrackPointExtension>
        </extensions>
      </trkpt>
      <trkpt lat="43.1213813088834285736083984375" lon="13.09628625400364398956298828125">
        <ele>553.4000244140625</ele>
        <time>2021-05-21T08:54:56.000Z</time>
        <extensions>
          <ns3:TrackPointExtension>
            <ns3:atemp>20.0</ns3:atemp>
          </ns3:TrackPointExtension>
        </extensions>
      </trkpt>
      <trkpt lat="43.12148474156856536865234375" lon="13.096249960362911224365234375">
        <ele>554.4000244140625</ele>
        <time>2021-05-21T08:54:59.000Z</time>
        <extensions>
          <ns3:TrackPointExtension>
            <ns3:atemp>20.0</ns3:atemp>
          </ns3:TrackPointExtension>
        </extensions>
      </trkpt>
      <trkpt lat="43.12162295915186405181884765625" lon="13.096198327839374542236328125">
        <ele>555.5999755859375</ele>
        <time>2021-05-21T08:55:03.000Z</time>
        <extensions>
          <ns3:TrackPointExtension>
            <ns3:atemp>20.0</ns3:atemp>
          </ns3:TrackPointExtension>
        </extensions>
      </trkpt>
      <trkpt lat="43.12165665440261363983154296875" lon="13.09618868865072727203369140625">
        <ele>556.20001220703125</ele>
        <time>2021-05-21T08:55:04.000Z</time>
        <extensions>
          <ns3:TrackPointExtension>
            <ns3:atemp>20.0</ns3:atemp>
          </ns3:TrackPointExtension>
        </extensions>
      </trkpt>
      <trkpt lat="43.12172035686671733856201171875" lon="13.0961730144917964935302734375">
        <ele>557</ele>
        <time>2021-05-21T08:55:06.000Z</time>
        <extensions>
          <ns3:TrackPointExtension>
            <ns3:atemp>20.0</ns3:atemp>
          </ns3:TrackPointExtension>
        </extensions>
      </trkpt>
      <trkpt lat="43.121850192546844482421875" lon="13.0961669795215129852294921875">
        <ele>558</ele>
        <time>2021-05-21T08:55:10.000Z</time>
        <extensions>
          <ns3:TrackPointExtension>
            <ns3:atemp>20.0</ns3:atemp>
          </ns3:TrackPointExtension>
        </extensions>
      </trkpt>
      <trkpt lat="43.121943734586238861083984375" lon="13.09618122875690460205078125">
        <ele>559</ele>
        <time>2021-05-21T08:55:13.000Z</time>
        <extensions>
          <ns3:TrackPointExtension>
            <ns3:atemp>20.0</ns3:atemp>
          </ns3:TrackPointExtension>
        </extensions>
      </trkpt>
      <trkpt lat="43.1220401264727115631103515625" lon="13.0962140858173370361328125">
        <ele>560.20001220703125</ele>
        <time>2021-05-21T08:55:16.000Z</time>
        <extensions>
          <ns3:TrackPointExtension>
            <ns3:atemp>21.0</ns3:atemp>
          </ns3:TrackPointExtension>
        </extensions>
      </trkpt>
      <trkpt lat="43.12207139097154140472412109375" lon="13.0962274968624114990234375">
        <ele>560.5999755859375</ele>
        <time>2021-05-21T08:55:17.000Z</time>
        <extensions>
          <ns3:TrackPointExtension>
            <ns3:atemp>21.0</ns3:atemp>
          </ns3:TrackPointExtension>
        </extensions>
      </trkpt>
      <trkpt lat="43.12213274650275707244873046875" lon="13.0962544865906238555908203125">
        <ele>561.5999755859375</ele>
        <time>2021-05-21T08:55:19.000Z</time>
        <extensions>
          <ns3:TrackPointExtension>
            <ns3:atemp>21.0</ns3:atemp>
          </ns3:TrackPointExtension>
        </extensions>
      </trkpt>
      <trkpt lat="43.12225562520325183868408203125" lon="13.09629597701132297515869140625">
        <ele>562.79998779296875</ele>
        <time>2021-05-21T08:55:23.000Z</time>
        <extensions>
          <ns3:TrackPointExtension>
            <ns3:atemp>21.0</ns3:atemp>
          </ns3:TrackPointExtension>
        </extensions>
      </trkpt>
      <trkpt lat="43.12234480865299701690673828125" lon="13.0963362939655780792236328125">
        <ele>563.4000244140625</ele>
        <time>2021-05-21T08:55:26.000Z</time>
        <extensions>
          <ns3:TrackPointExtension>
            <ns3:atemp>21.0</ns3:atemp>
          </ns3:TrackPointExtension>
        </extensions>
      </trkpt>
      <trkpt lat="43.12237196601927280426025390625" lon="13.09634744189679622650146484375">
        <ele>563.79998779296875</ele>
        <time>2021-05-21T08:55:27.000Z</time>
        <extensions>
          <ns3:TrackPointExtension>
            <ns3:atemp>21.0</ns3:atemp>
          </ns3:TrackPointExtension>
        </extensions>
      </trkpt>
      <trkpt lat="43.12247288413345813751220703125" lon="13.09639102779328823089599609375">
        <ele>564.79998779296875</ele>
        <time>2021-05-21T08:55:31.000Z</time>
        <extensions>
          <ns3:TrackPointExtension>
            <ns3:atemp>21.0</ns3:atemp>
          </ns3:TrackPointExtension>
        </extensions>
      </trkpt>
      <trkpt lat="43.12249367125332355499267578125" lon="13.0964046902954578399658203125">
        <ele>565.20001220703125</ele>
        <time>2021-05-21T08:55:32.000Z</time>
        <extensions>
          <ns3:TrackPointExtension>
            <ns3:atemp>21.0</ns3:atemp>
          </ns3:TrackPointExtension>
        </extensions>
      </trkpt>
      <trkpt lat="43.12253759242594242095947265625" lon="13.0964286625385284423828125">
        <ele>566</ele>
        <time>2021-05-21T08:55:34.000Z</time>
        <extensions>
          <ns3:TrackPointExtension>
            <ns3:atemp>21.0</ns3:atemp>
          </ns3:TrackPointExtension>
        </extensions>
      </trkpt>
      <trkpt lat="43.12263247556984424591064453125" lon="13.09649211354553699493408203125">
        <ele>567.20001220703125</ele>
        <time>2021-05-21T08:55:38.000Z</time>
        <extensions>
          <ns3:TrackPointExtension>
            <ns3:atemp>21.0</ns3:atemp>
          </ns3:TrackPointExtension>
        </extensions>
      </trkpt>
      <trkpt lat="43.12270254828035831451416015625" lon="13.0965706519782543182373046875">
        <ele>568.20001220703125</ele>
        <time>2021-05-21T08:55:41.000Z</time>
        <extensions>
          <ns3:TrackPointExtension>
            <ns3:atemp>21.0</ns3:atemp>
          </ns3:TrackPointExtension>
        </extensions>
      </trkpt>
      <trkpt lat="43.122723586857318878173828125" lon="13.09660040773451328277587890625">
        <ele>568.4000244140625</ele>
        <time>2021-05-21T08:55:42.000Z</time>
        <extensions>
          <ns3:TrackPointExtension>
            <ns3:atemp>21.0</ns3:atemp>
          </ns3:TrackPointExtension>
        </extensions>
      </trkpt>
      <trkpt lat="43.1227971799671649932861328125" lon="13.0967064388096332550048828125">
        <ele>569.5999755859375</ele>
        <time>2021-05-21T08:55:46.000Z</time>
        <extensions>
          <ns3:TrackPointExtension>
            <ns3:atemp>21.0</ns3:atemp>
          </ns3:TrackPointExtension>
        </extensions>
      </trkpt>
      <trkpt lat="43.1228273548185825347900390625" lon="13.0967585742473602294921875">
        <ele>570.20001220703125</ele>
        <time>2021-05-21T08:55:48.000Z</time>
        <extensions>
          <ns3:TrackPointExtension>
            <ns3:atemp>21.0</ns3:atemp>
          </ns3:TrackPointExtension>
        </extensions>
      </trkpt>
      <trkpt lat="43.12283397652208805084228515625" lon="13.0968023277819156646728515625">
        <ele>570.4000244140625</ele>
        <time>2021-05-21T08:55:49.000Z</time>
        <extensions>
          <ns3:TrackPointExtension>
            <ns3:atemp>21.0</ns3:atemp>
          </ns3:TrackPointExtension>
        </extensions>
      </trkpt>
      <trkpt lat="43.12283112667500972747802734375" lon="13.09684373438358306884765625">
        <ele>570.79998779296875</ele>
        <time>2021-05-21T08:55:50.000Z</time>
        <extensions>
          <ns3:TrackPointExtension>
            <ns3:atemp>21.0</ns3:atemp>
          </ns3:TrackPointExtension>
        </extensions>
      </trkpt>
      <trkpt lat="43.1228156201541423797607421875" lon="13.0968739092350006103515625">
        <ele>571.20001220703125</ele>
        <time>2021-05-21T08:55:51.000Z</time>
        <extensions>
          <ns3:TrackPointExtension>
            <ns3:atemp>21.0</ns3:atemp>
          </ns3:TrackPointExtension>
        </extensions>
      </trkpt>
      <trkpt lat="43.12274663709104061126708984375" lon="13.09686594642698764801025390625">
        <ele>571.79998779296875</ele>
        <time>2021-05-21T08:55:54.000Z</time>
        <extensions>
          <ns3:TrackPointExtension>
            <ns3:atemp>21.0</ns3:atemp>
          </ns3:TrackPointExtension>
        </extensions>
      </trkpt>
      <trkpt lat="43.1226781569421291351318359375" lon="13.09685580432415008544921875">
        <ele>572.5999755859375</ele>
        <time>2021-05-21T08:55:58.000Z</time>
        <extensions>
          <ns3:TrackPointExtension>
            <ns3:atemp>21.0</ns3:atemp>
          </ns3:TrackPointExtension>
        </extensions>
      </trkpt>
      <trkpt lat="43.122585117816925048828125" lon="13.09685924090445041656494140625">
        <ele>573.20001220703125</ele>
        <time>2021-05-21T08:56:03.000Z</time>
        <extensions>
          <ns3:TrackPointExtension>
            <ns3:atemp>21.0</ns3:atemp>
          </ns3:TrackPointExtension>
        </extensions>
      </trkpt>
      <trkpt lat="43.12256273813545703887939453125" lon="13.09686561115086078643798828125">
        <ele>573.5999755859375</ele>
        <time>2021-05-21T08:56:04.000Z</time>
        <extensions>
          <ns3:TrackPointExtension>
            <ns3:atemp>21.0</ns3:atemp>
          </ns3:TrackPointExtension>
        </extensions>
      </trkpt>
      <trkpt lat="43.12251697294414043426513671875" lon="13.09689058922231197357177734375">
        <ele>574.4000244140625</ele>
        <time>2021-05-21T08:56:06.000Z</time>
        <extensions>
          <ns3:TrackPointExtension>
            <ns3:atemp>21.0</ns3:atemp>
          </ns3:TrackPointExtension>
        </extensions>
      </trkpt>
      <trkpt lat="43.122472465038299560546875" lon="13.09691539965569972991943359375">
        <ele>575.4000244140625</ele>
        <time>2021-05-21T08:56:08.000Z</time>
        <extensions>
          <ns3:TrackPointExtension>
            <ns3:atemp>21.0</ns3:atemp>
          </ns3:TrackPointExtension>
        </extensions>
      </trkpt>
      <trkpt lat="43.12240633182227611541748046875" lon="13.0969545431435108184814453125">
        <ele>576.4000244140625</ele>
        <time>2021-05-21T08:56:11.000Z</time>
        <extensions>
          <ns3:TrackPointExtension>
            <ns3:atemp>20.0</ns3:atemp>
          </ns3:TrackPointExtension>
        </extensions>
      </trkpt>
      <trkpt lat="43.12238789163529872894287109375" lon="13.09696267358958721160888671875">
        <ele>576.5999755859375</ele>
        <time>2021-05-21T08:56:12.000Z</time>
        <extensions>
          <ns3:TrackPointExtension>
            <ns3:atemp>20.0</ns3:atemp>
          </ns3:TrackPointExtension>
        </extensions>
      </trkpt>
      <trkpt lat="43.12231446616351604461669921875" lon="13.096988238394260406494140625">
        <ele>577.5999755859375</ele>
        <time>2021-05-21T08:56:16.000Z</time>
        <extensions>
          <ns3:TrackPointExtension>
            <ns3:atemp>20.0</ns3:atemp>
          </ns3:TrackPointExtension>
        </extensions>
      </trkpt>
      <trkpt lat="43.122313879430294036865234375" lon="13.0969884060323238372802734375">
        <ele>578</ele>
        <time>2021-05-21T08:56:17.000Z</time>
        <extensions>
          <ns3:TrackPointExtension>
            <ns3:atemp>20.0</ns3:atemp>
          </ns3:TrackPointExtension>
        </extensions>
      </trkpt>
      <trkpt lat="43.12232066877186298370361328125" lon="13.09697256423532962799072265625">
        <ele>579.20001220703125</ele>
        <time>2021-05-21T08:56:21.000Z</time>
        <extensions>
          <ns3:TrackPointExtension>
            <ns3:atemp>20.0</ns3:atemp>
          </ns3:TrackPointExtension>
        </extensions>
      </trkpt>
      <trkpt lat="43.122320584952831268310546875" lon="13.096971474587917327880859375">
        <ele>580</ele>
        <time>2021-05-21T08:56:23.000Z</time>
        <extensions>
          <ns3:TrackPointExtension>
            <ns3:atemp>20.0</ns3:atemp>
          </ns3:TrackPointExtension>
        </extensions>
      </trkpt>
      <trkpt lat="43.1223207525908946990966796875" lon="13.0969713069498538970947265625">
        <ele>580.4000244140625</ele>
        <time>2021-05-21T08:56:24.000Z</time>
        <extensions>
          <ns3:TrackPointExtension>
            <ns3:atemp>20.0</ns3:atemp>
          </ns3:TrackPointExtension>
        </extensions>
      </trkpt>
      <trkpt lat="43.12232217751443386077880859375" lon="13.09696845710277557373046875">
        <ele>581.20001220703125</ele>
        <time>2021-05-21T08:56:34.000Z</time>
        <extensions>
          <ns3:TrackPointExtension>
            <ns3:atemp>20.0</ns3:atemp>
          </ns3:TrackPointExtension>
        </extensions>
      </trkpt>
      <trkpt lat="43.1223217584192752838134765625" lon="13.09696569107472896575927734375">
        <ele>581.20001220703125</ele>
        <time>2021-05-21T08:56:42.000Z</time>
        <extensions>
          <ns3:TrackPointExtension>
            <ns3:atemp>20.0</ns3:atemp>
          </ns3:TrackPointExtension>
        </extensions>
      </trkpt>
      <trkpt lat="43.12232217751443386077880859375" lon="13.09696384705603122711181640625">
        <ele>581.4000244140625</ele>
        <time>2021-05-21T08:56:46.000Z</time>
        <extensions>
          <ns3:TrackPointExtension>
            <ns3:atemp>20.0</ns3:atemp>
          </ns3:TrackPointExtension>
        </extensions>
      </trkpt>
      <trkpt lat="43.1223220936954021453857421875" lon="13.09696175158023834228515625">
        <ele>581.79998779296875</ele>
        <time>2021-05-21T08:56:55.000Z</time>
        <extensions>
          <ns3:TrackPointExtension>
            <ns3:atemp>20.0</ns3:atemp>
          </ns3:TrackPointExtension>
        </extensions>
      </trkpt>
      <trkpt lat="43.1223227642476558685302734375" lon="13.09695906937122344970703125">
        <ele>582</ele>
        <time>2021-05-21T08:57:18.000Z</time>
        <extensions>
          <ns3:TrackPointExtension>
            <ns3:atemp>20.0</ns3:atemp>
          </ns3:TrackPointExtension>
        </extensions>
      </trkpt>
      <trkpt lat="43.12232335098087787628173828125" lon="13.0969597399234771728515625">
        <ele>582.20001220703125</ele>
        <time>2021-05-21T08:57:35.000Z</time>
        <extensions>
          <ns3:TrackPointExtension>
            <ns3:atemp>20.0</ns3:atemp>
          </ns3:TrackPointExtension>
        </extensions>
      </trkpt>
      <trkpt lat="43.1223237700760364532470703125" lon="13.09695814736187458038330078125">
        <ele>582.20001220703125</ele>
        <time>2021-05-21T08:57:51.000Z</time>
        <extensions>
          <ns3:TrackPointExtension>
            <ns3:atemp>19.0</ns3:atemp>
          </ns3:TrackPointExtension>
        </extensions>
      </trkpt>
      <trkpt lat="43.122323937714099884033203125" lon="13.0969582311809062957763671875">
        <ele>581.79998779296875</ele>
        <time>2021-05-21T08:58:06.000Z</time>
        <extensions>
          <ns3:TrackPointExtension>
            <ns3:atemp>19.0</ns3:atemp>
          </ns3:TrackPointExtension>
        </extensions>
      </trkpt>
      <trkpt lat="43.122319914400577545166015625" lon="13.09695898555219173431396484375">
        <ele>582</ele>
        <time>2021-05-21T08:58:13.000Z</time>
        <extensions>
          <ns3:TrackPointExtension>
            <ns3:atemp>19.0</ns3:atemp>
          </ns3:TrackPointExtension>
        </extensions>
      </trkpt>
      <trkpt lat="43.1222329102456569671630859375" lon="13.09701598249375820159912109375">
        <ele>582.20001220703125</ele>
        <time>2021-05-21T08:58:18.000Z</time>
        <extensions>
          <ns3:TrackPointExtension>
            <ns3:atemp>19.0</ns3:atemp>
          </ns3:TrackPointExtension>
        </extensions>
      </trkpt>
      <trkpt lat="43.122024871408939361572265625" lon="13.09717775322496891021728515625">
        <ele>582.5999755859375</ele>
        <time>2021-05-21T08:58:26.000Z</time>
        <extensions>
          <ns3:TrackPointExtension>
            <ns3:atemp>19.0</ns3:atemp>
          </ns3:TrackPointExtension>
        </extensions>
      </trkpt>
      <trkpt lat="43.12200651504099369049072265625" lon="13.09720792807638645172119140625">
        <ele>582.79998779296875</ele>
        <time>2021-05-21T08:58:27.000Z</time>
        <extensions>
          <ns3:TrackPointExtension>
            <ns3:atemp>19.0</ns3:atemp>
          </ns3:TrackPointExtension>
        </extensions>
      </trkpt>
      <trkpt lat="43.1219663657248020172119140625" lon="13.09725872240960597991943359375">
        <ele>584</ele>
        <time>2021-05-21T08:58:29.000Z</time>
        <extensions>
          <ns3:TrackPointExtension>
            <ns3:atemp>19.0</ns3:atemp>
          </ns3:TrackPointExtension>
        </extensions>
      </trkpt>
      <trkpt lat="43.12192219309508800506591796875" lon="13.097348324954509735107421875">
        <ele>585</ele>
        <time>2021-05-21T08:58:32.000Z</time>
        <extensions>
          <ns3:TrackPointExtension>
            <ns3:atemp>19.0</ns3:atemp>
          </ns3:TrackPointExtension>
        </extensions>
      </trkpt>
      <trkpt lat="43.12189646065235137939453125" lon="13.09741177596151828765869140625">
        <ele>586</ele>
        <time>2021-05-21T08:58:34.000Z</time>
        <extensions>
          <ns3:TrackPointExtension>
            <ns3:atemp>19.0</ns3:atemp>
          </ns3:TrackPointExtension>
        </extensions>
      </trkpt>
      <trkpt lat="43.12187558971345424652099609375" lon="13.097517304122447967529296875">
        <ele>587.20001220703125</ele>
        <time>2021-05-21T08:58:37.000Z</time>
        <extensions>
          <ns3:TrackPointExtension>
            <ns3:atemp>19.0</ns3:atemp>
          </ns3:TrackPointExtension>
        </extensions>
      </trkpt>
      <trkpt lat="43.1218724884092807769775390625" lon="13.0975496582686901092529296875">
        <ele>587.4000244140625</ele>
        <time>2021-05-21T08:58:38.000Z</time>
        <extensions>
          <ns3:TrackPointExtension>
            <ns3:atemp>19.0</ns3:atemp>
          </ns3:TrackPointExtension>
        </extensions>
      </trkpt>
      <trkpt lat="43.121869973838329315185546875" lon="13.0976147018373012542724609375">
        <ele>588.20001220703125</ele>
        <time>2021-05-21T08:58:40.000Z</time>
        <extensions>
          <ns3:TrackPointExtension>
            <ns3:atemp>19.0</ns3:atemp>
          </ns3:TrackPointExtension>
        </extensions>
      </trkpt>
      <trkpt lat="43.12186905182898044586181640625" lon="13.09778510592877864837646484375">
        <ele>589.4000244140625</ele>
        <time>2021-05-21T08:58:45.000Z</time>
        <extensions>
          <ns3:TrackPointExtension>
            <ns3:atemp>19.0</ns3:atemp>
          </ns3:TrackPointExtension>
        </extensions>
      </trkpt>
      <trkpt lat="43.12187357805669307708740234375" lon="13.097819723188877105712890625">
        <ele>589.79998779296875</ele>
        <time>2021-05-21T08:58:46.000Z</time>
        <extensions>
          <ns3:TrackPointExtension>
            <ns3:atemp>19.0</ns3:atemp>
          </ns3:TrackPointExtension>
        </extensions>
      </trkpt>
      <trkpt lat="43.12188631854951381683349609375" lon="13.09788937680423259735107421875">
        <ele>590.4000244140625</ele>
        <time>2021-05-21T08:58:48.000Z</time>
        <extensions>
          <ns3:TrackPointExtension>
            <ns3:atemp>19.0</ns3:atemp>
          </ns3:TrackPointExtension>
        </extensions>
      </trkpt>
      <trkpt lat="43.12190006487071514129638671875" lon="13.0979989282786846160888671875">
        <ele>591.79998779296875</ele>
        <time>2021-05-21T08:58:52.000Z</time>
        <extensions>
          <ns3:TrackPointExtension>
            <ns3:atemp>19.0</ns3:atemp>
          </ns3:TrackPointExtension>
        </extensions>
      </trkpt>
      <trkpt lat="43.12189788557589054107666015625" lon="13.0980016104876995086669921875">
        <ele>592.20001220703125</ele>
        <time>2021-05-21T08:58:53.000Z</time>
        <extensions>
          <ns3:TrackPointExtension>
            <ns3:atemp>19.0</ns3:atemp>
          </ns3:TrackPointExtension>
        </extensions>
      </trkpt>
      <trkpt lat="43.12190291471779346466064453125" lon="13.09799951501190662384033203125">
        <ele>593</ele>
        <time>2021-05-21T08:58:55.000Z</time>
        <extensions>
          <ns3:TrackPointExtension>
            <ns3:atemp>19.0</ns3:atemp>
          </ns3:TrackPointExtension>
        </extensions>
      </trkpt>
      <trkpt lat="43.12190358527004718780517578125" lon="13.09800001792609691619873046875">
        <ele>594.20001220703125</ele>
        <time>2021-05-21T08:58:57.000Z</time>
        <extensions>
          <ns3:TrackPointExtension>
            <ns3:atemp>19.0</ns3:atemp>
          </ns3:TrackPointExtension>
        </extensions>
      </trkpt>
      <trkpt lat="43.12190341763198375701904296875" lon="13.098000101745128631591796875">
        <ele>595.4000244140625</ele>
        <time>2021-05-21T08:59:01.000Z</time>
        <extensions>
          <ns3:TrackPointExtension>
            <ns3:atemp>19.0</ns3:atemp>
          </ns3:TrackPointExtension>
        </extensions>
      </trkpt>
      <trkpt lat="43.12190274707973003387451171875" lon="13.09800001792609691619873046875">
        <ele>595.79998779296875</ele>
        <time>2021-05-21T08:59:09.000Z</time>
        <extensions>
          <ns3:TrackPointExtension>
            <ns3:atemp>19.0</ns3:atemp>
          </ns3:TrackPointExtension>
        </extensions>
      </trkpt>
      <trkpt lat="43.12190291471779346466064453125" lon="13.0980666540563106536865234375">
        <ele>595.5999755859375</ele>
        <time>2021-05-21T08:59:20.000Z</time>
        <extensions>
          <ns3:TrackPointExtension>
            <ns3:atemp>19.0</ns3:atemp>
          </ns3:TrackPointExtension>
        </extensions>
      </trkpt>
      <trkpt lat="43.121921606361865997314453125" lon="13.09833898209035396575927734375">
        <ele>595.79998779296875</ele>
        <time>2021-05-21T08:59:26.000Z</time>
        <extensions>
          <ns3:TrackPointExtension>
            <ns3:atemp>19.0</ns3:atemp>
          </ns3:TrackPointExtension>
        </extensions>
      </trkpt>
      <trkpt lat="43.12201238237321376800537109375" lon="13.09855875559151172637939453125">
        <ele>596</ele>
        <time>2021-05-21T08:59:31.000Z</time>
        <extensions>
          <ns3:TrackPointExtension>
            <ns3:atemp>19.0</ns3:atemp>
          </ns3:TrackPointExtension>
        </extensions>
      </trkpt>
      <trkpt lat="43.1221081875264644622802734375" lon="13.09864240698516368865966796875">
        <ele>596.20001220703125</ele>
        <time>2021-05-21T08:59:34.000Z</time>
        <extensions>
          <ns3:TrackPointExtension>
            <ns3:atemp>19.0</ns3:atemp>
          </ns3:TrackPointExtension>
        </extensions>
      </trkpt>
      <trkpt lat="43.12214649282395839691162109375" lon="13.09865548275411128997802734375">
        <ele>596.4000244140625</ele>
        <time>2021-05-21T08:59:35.000Z</time>
        <extensions>
          <ns3:TrackPointExtension>
            <ns3:atemp>19.0</ns3:atemp>
          </ns3:TrackPointExtension>
        </extensions>
      </trkpt>
      <trkpt lat="43.12218421138823032379150390625" lon="13.0986610986292362213134765625">
        <ele>596.5999755859375</ele>
        <time>2021-05-21T08:59:36.000Z</time>
        <extensions>
          <ns3:TrackPointExtension>
            <ns3:atemp>19.0</ns3:atemp>
          </ns3:TrackPointExtension>
        </extensions>
      </trkpt>
      <trkpt lat="43.12225830741226673126220703125" lon="13.09865690767765045166015625">
        <ele>597</ele>
        <time>2021-05-21T08:59:38.000Z</time>
        <extensions>
          <ns3:TrackPointExtension>
            <ns3:atemp>19.0</ns3:atemp>
          </ns3:TrackPointExtension>
        </extensions>
      </trkpt>
      <trkpt lat="43.12232452444732189178466796875" lon="13.09863603673875331878662109375">
        <ele>597.4000244140625</ele>
        <time>2021-05-21T08:59:40.000Z</time>
        <extensions>
          <ns3:TrackPointExtension>
            <ns3:atemp>19.0</ns3:atemp>
          </ns3:TrackPointExtension>
        </extensions>
      </trkpt>
      <trkpt lat="43.12241471372544765472412109375" lon="13.09859161265194416046142578125">
        <ele>597.79998779296875</ele>
        <time>2021-05-21T08:59:43.000Z</time>
        <extensions>
          <ns3:TrackPointExtension>
            <ns3:atemp>19.0</ns3:atemp>
          </ns3:TrackPointExtension>
        </extensions>
      </trkpt>
      <trkpt lat="43.1224974431097507476806640625" lon="13.09854484163224697113037109375">
        <ele>598.79998779296875</ele>
        <time>2021-05-21T08:59:46.000Z</time>
        <extensions>
          <ns3:TrackPointExtension>
            <ns3:atemp>19.0</ns3:atemp>
          </ns3:TrackPointExtension>
        </extensions>
      </trkpt>
      <trkpt lat="43.1225757300853729248046875" lon="13.0985041894018650054931640625">
        <ele>599.5999755859375</ele>
        <time>2021-05-21T08:59:49.000Z</time>
        <extensions>
          <ns3:TrackPointExtension>
            <ns3:atemp>19.0</ns3:atemp>
          </ns3:TrackPointExtension>
        </extensions>
      </trkpt>
      <trkpt lat="43.122604899108409881591796875" lon="13.09849170036613941192626953125">
        <ele>599.79998779296875</ele>
        <time>2021-05-21T08:59:50.000Z</time>
        <extensions>
          <ns3:TrackPointExtension>
            <ns3:atemp>19.0</ns3:atemp>
          </ns3:TrackPointExtension>
        </extensions>
      </trkpt>
      <trkpt lat="43.1226945854723453521728515625" lon="13.098448701202869415283203125">
        <ele>601</ele>
        <time>2021-05-21T08:59:53.000Z</time>
        <extensions>
          <ns3:TrackPointExtension>
            <ns3:atemp>19.0</ns3:atemp>
          </ns3:TrackPointExtension>
        </extensions>
      </trkpt>
      <trkpt lat="43.12275870703160762786865234375" lon="13.098431937396526336669921875">
        <ele>602.4000244140625</ele>
        <time>2021-05-21T08:59:55.000Z</time>
        <extensions>
          <ns3:TrackPointExtension>
            <ns3:atemp>19.0</ns3:atemp>
          </ns3:TrackPointExtension>
        </extensions>
      </trkpt>
      <trkpt lat="43.12279164791107177734375" lon="13.09843000955879688262939453125">
        <ele>603</ele>
        <time>2021-05-21T08:59:56.000Z</time>
        <extensions>
          <ns3:TrackPointExtension>
            <ns3:atemp>19.0</ns3:atemp>
          </ns3:TrackPointExtension>
        </extensions>
      </trkpt>
      <trkpt lat="43.12282408587634563446044921875" lon="13.0984331108629703521728515625">
        <ele>603.5999755859375</ele>
        <time>2021-05-21T08:59:57.000Z</time>
        <extensions>
          <ns3:TrackPointExtension>
            <ns3:atemp>19.0</ns3:atemp>
          </ns3:TrackPointExtension>
        </extensions>
      </trkpt>
      <trkpt lat="43.122949562966823577880859375" lon="13.09847242198884487152099609375">
        <ele>604.5999755859375</ele>
        <time>2021-05-21T09:00:01.000Z</time>
        <extensions>
          <ns3:TrackPointExtension>
            <ns3:atemp>19.0</ns3:atemp>
          </ns3:TrackPointExtension>
        </extensions>
      </trkpt>
      <trkpt lat="43.122977055609226226806640625" lon="13.0984832346439361572265625">
        <ele>605</ele>
        <time>2021-05-21T09:00:02.000Z</time>
        <extensions>
          <ns3:TrackPointExtension>
            <ns3:atemp>19.0</ns3:atemp>
          </ns3:TrackPointExtension>
        </extensions>
      </trkpt>
      <trkpt lat="43.12304042279720306396484375" lon="13.09850712306797504425048828125">
        <ele>606</ele>
        <time>2021-05-21T09:00:05.000Z</time>
        <extensions>
          <ns3:TrackPointExtension>
            <ns3:atemp>19.0</ns3:atemp>
          </ns3:TrackPointExtension>
        </extensions>
      </trkpt>
      <trkpt lat="43.12305006198585033416748046875" lon="13.0985115654766559600830078125">
        <ele>606.79998779296875</ele>
        <time>2021-05-21T09:00:07.000Z</time>
        <extensions>
          <ns3:TrackPointExtension>
            <ns3:atemp>19.0</ns3:atemp>
          </ns3:TrackPointExtension>
        </extensions>
      </trkpt>
      <trkpt lat="43.1230489723384380340576171875" lon="13.09851114638149738311767578125">
        <ele>607.4000244140625</ele>
        <time>2021-05-21T09:00:09.000Z</time>
        <extensions>
          <ns3:TrackPointExtension>
            <ns3:atemp>19.0</ns3:atemp>
          </ns3:TrackPointExtension>
        </extensions>
      </trkpt>
      <trkpt lat="43.123048134148120880126953125" lon="13.09851064346730709075927734375">
        <ele>608.5999755859375</ele>
        <time>2021-05-21T09:00:13.000Z</time>
        <extensions>
          <ns3:TrackPointExtension>
            <ns3:atemp>19.0</ns3:atemp>
          </ns3:TrackPointExtension>
        </extensions>
      </trkpt>
      <trkpt lat="43.1230483017861843109130859375" lon="13.098510392010211944580078125">
        <ele>609.20001220703125</ele>
        <time>2021-05-21T09:00:27.000Z</time>
        <extensions>
          <ns3:TrackPointExtension>
            <ns3:atemp>19.0</ns3:atemp>
          </ns3:TrackPointExtension>
        </extensions>
      </trkpt>
      <trkpt lat="43.123048804700374603271484375" lon="13.098509721457958221435546875">
        <ele>609.4000244140625</ele>
        <time>2021-05-21T09:00:58.000Z</time>
        <extensions>
          <ns3:TrackPointExtension>
            <ns3:atemp>19.0</ns3:atemp>
          </ns3:TrackPointExtension>
        </extensions>
      </trkpt>
      <trkpt lat="43.12304805032908916473388671875" lon="13.098511397838592529296875">
        <ele>609.5999755859375</ele>
        <time>2021-05-21T09:01:24.000Z</time>
        <extensions>
          <ns3:TrackPointExtension>
            <ns3:atemp>19.0</ns3:atemp>
          </ns3:TrackPointExtension>
        </extensions>
      </trkpt>
      <trkpt lat="43.1230479665100574493408203125" lon="13.098511733114719390869140625">
        <ele>609.5999755859375</ele>
        <time>2021-05-21T09:01:30.000Z</time>
        <extensions>
          <ns3:TrackPointExtension>
            <ns3:atemp>19.0</ns3:atemp>
          </ns3:TrackPointExtension>
        </extensions>
      </trkpt>
      <trkpt lat="43.12305106781423091888427734375" lon="13.09851014055311679840087890625">
        <ele>609.4000244140625</ele>
        <time>2021-05-21T09:02:03.000Z</time>
        <extensions>
          <ns3:TrackPointExtension>
            <ns3:atemp>19.0</ns3:atemp>
          </ns3:TrackPointExtension>
        </extensions>
      </trkpt>
      <trkpt lat="43.1231099925935268402099609375" lon="13.09852707199752330780029296875">
        <ele>609.5999755859375</ele>
        <time>2021-05-21T09:02:07.000Z</time>
        <extensions>
          <ns3:TrackPointExtension>
            <ns3:atemp>19.0</ns3:atemp>
          </ns3:TrackPointExtension>
        </extensions>
      </trkpt>
      <trkpt lat="43.12314863316714763641357421875" lon="13.09856462292373180389404296875">
        <ele>609.5999755859375</ele>
        <time>2021-05-21T09:02:11.000Z</time>
        <extensions>
          <ns3:TrackPointExtension>
            <ns3:atemp>19.0</ns3:atemp>
          </ns3:TrackPointExtension>
        </extensions>
      </trkpt>
      <trkpt lat="43.123187609016895294189453125" lon="13.0986148305237293243408203125">
        <ele>610.4000244140625</ele>
        <time>2021-05-21T09:02:19.000Z</time>
        <extensions>
          <ns3:TrackPointExtension>
            <ns3:atemp>19.0</ns3:atemp>
          </ns3:TrackPointExtension>
        </extensions>
      </trkpt>
      <trkpt lat="43.12328584492206573486328125" lon="13.0987616814672946929931640625">
        <ele>610.79998779296875</ele>
        <time>2021-05-21T09:02:25.000Z</time>
        <extensions>
          <ns3:TrackPointExtension>
            <ns3:atemp>19.0</ns3:atemp>
          </ns3:TrackPointExtension>
        </extensions>
      </trkpt>
      <trkpt lat="43.1233482062816619873046875" lon="13.0988810397684574127197265625">
        <ele>612</ele>
        <time>2021-05-21T09:02:30.000Z</time>
        <extensions>
          <ns3:TrackPointExtension>
            <ns3:atemp>19.0</ns3:atemp>
          </ns3:TrackPointExtension>
        </extensions>
      </trkpt>
      <trkpt lat="43.123389780521392822265625" lon="13.09895169921219348907470703125">
        <ele>613</ele>
        <time>2021-05-21T09:02:33.000Z</time>
        <extensions>
          <ns3:TrackPointExtension>
            <ns3:atemp>19.0</ns3:atemp>
          </ns3:TrackPointExtension>
        </extensions>
      </trkpt>
      <trkpt lat="43.12340612523257732391357421875" lon="13.09897550381720066070556640625">
        <ele>613.20001220703125</ele>
        <time>2021-05-21T09:02:34.000Z</time>
        <extensions>
          <ns3:TrackPointExtension>
            <ns3:atemp>19.0</ns3:atemp>
          </ns3:TrackPointExtension>
        </extensions>
      </trkpt>
      <trkpt lat="43.1234553270041942596435546875" lon="13.0990464985370635986328125">
        <ele>614.4000244140625</ele>
        <time>2021-05-21T09:02:37.000Z</time>
        <extensions>
          <ns3:TrackPointExtension>
            <ns3:atemp>19.0</ns3:atemp>
          </ns3:TrackPointExtension>
        </extensions>
      </trkpt>
      <trkpt lat="43.12351123429834842681884765625" lon="13.0991398729383945465087890625">
        <ele>615.4000244140625</ele>
        <time>2021-05-21T09:02:41.000Z</time>
        <extensions>
          <ns3:TrackPointExtension>
            <ns3:atemp>19.0</ns3:atemp>
          </ns3:TrackPointExtension>
        </extensions>
      </trkpt>
      <trkpt lat="43.1235535629093647003173828125" lon="13.09922478161752223968505859375">
        <ele>616.79998779296875</ele>
        <time>2021-05-21T09:02:45.000Z</time>
        <extensions>
          <ns3:TrackPointExtension>
            <ns3:atemp>19.0</ns3:atemp>
          </ns3:TrackPointExtension>
        </extensions>
      </trkpt>
      <trkpt lat="43.1235750205814838409423828125" lon="13.09926434420049190521240234375">
        <ele>618</ele>
        <time>2021-05-21T09:02:47.000Z</time>
        <extensions>
          <ns3:TrackPointExtension>
            <ns3:atemp>19.0</ns3:atemp>
          </ns3:TrackPointExtension>
        </extensions>
      </trkpt>
      <trkpt lat="43.12359773553907871246337890625" lon="13.09930264949798583984375">
        <ele>619.20001220703125</ele>
        <time>2021-05-21T09:02:49.000Z</time>
        <extensions>
          <ns3:TrackPointExtension>
            <ns3:atemp>19.0</ns3:atemp>
          </ns3:TrackPointExtension>
        </extensions>
      </trkpt>
      <trkpt lat="43.1236172653734683990478515625" lon="13.0993440560996532440185546875">
        <ele>621.20001220703125</ele>
        <time>2021-05-21T09:02:51.000Z</time>
        <extensions>
          <ns3:TrackPointExtension>
            <ns3:atemp>19.0</ns3:atemp>
          </ns3:TrackPointExtension>
        </extensions>
      </trkpt>
      <trkpt lat="43.12363863922655582427978515625" lon="13.09938537888228893280029296875">
        <ele>622.20001220703125</ele>
        <time>2021-05-21T09:02:53.000Z</time>
        <extensions>
          <ns3:TrackPointExtension>
            <ns3:atemp>19.0</ns3:atemp>
          </ns3:TrackPointExtension>
        </extensions>
      </trkpt>
      <trkpt lat="43.12365842051804065704345703125" lon="13.09942829422652721405029296875">
        <ele>623.20001220703125</ele>
        <time>2021-05-21T09:02:55.000Z</time>
        <extensions>
          <ns3:TrackPointExtension>
            <ns3:atemp>19.0</ns3:atemp>
          </ns3:TrackPointExtension>
        </extensions>
      </trkpt>
      <trkpt lat="43.12368038110435009002685546875" lon="13.09947364032268524169921875">
        <ele>624.20001220703125</ele>
        <time>2021-05-21T09:02:57.000Z</time>
        <extensions>
          <ns3:TrackPointExtension>
            <ns3:atemp>19.0</ns3:atemp>
          </ns3:TrackPointExtension>
        </extensions>
      </trkpt>
      <trkpt lat="43.12369328923523426055908203125" lon="13.0994925834238529205322265625">
        <ele>624.5999755859375</ele>
        <time>2021-05-21T09:02:58.000Z</time>
        <extensions>
          <ns3:TrackPointExtension>
            <ns3:atemp>19.0</ns3:atemp>
          </ns3:TrackPointExtension>
        </extensions>
      </trkpt>
      <trkpt lat="43.123722039163112640380859375" lon="13.09955804608762264251708984375">
        <ele>625.79998779296875</ele>
        <time>2021-05-21T09:03:01.000Z</time>
        <extensions>
          <ns3:TrackPointExtension>
            <ns3:atemp>19.0</ns3:atemp>
          </ns3:TrackPointExtension>
        </extensions>
      </trkpt>
      <trkpt lat="43.12373519875109195709228515625" lon="13.09961018152534961700439453125">
        <ele>626.5999755859375</ele>
        <time>2021-05-21T09:03:03.000Z</time>
        <extensions>
          <ns3:TrackPointExtension>
            <ns3:atemp>19.0</ns3:atemp>
          </ns3:TrackPointExtension>
        </extensions>
      </trkpt>
      <trkpt lat="43.12374408356845378875732421875" lon="13.09963365085422992706298828125">
        <ele>627</ele>
        <time>2021-05-21T09:03:04.000Z</time>
        <extensions>
          <ns3:TrackPointExtension>
            <ns3:atemp>19.0</ns3:atemp>
          </ns3:TrackPointExtension>
        </extensions>
      </trkpt>
      <trkpt lat="43.12377040274441242218017578125" lon="13.099697940051555633544921875">
        <ele>628.20001220703125</ele>
        <time>2021-05-21T09:03:07.000Z</time>
        <extensions>
          <ns3:TrackPointExtension>
            <ns3:atemp>19.0</ns3:atemp>
          </ns3:TrackPointExtension>
        </extensions>
      </trkpt>
      <trkpt lat="43.12379571609199047088623046875" lon="13.09976600110530853271484375">
        <ele>629.4000244140625</ele>
        <time>2021-05-21T09:03:10.000Z</time>
        <extensions>
          <ns3:TrackPointExtension>
            <ns3:atemp>19.0</ns3:atemp>
          </ns3:TrackPointExtension>
        </extensions>
      </trkpt>
      <trkpt lat="43.12381155788898468017578125" lon="13.099834732711315155029296875">
        <ele>630.5999755859375</ele>
        <time>2021-05-21T09:03:13.000Z</time>
        <extensions>
          <ns3:TrackPointExtension>
            <ns3:atemp>19.0</ns3:atemp>
          </ns3:TrackPointExtension>
        </extensions>
      </trkpt>
      <trkpt lat="43.12382153235375881195068359375" lon="13.09991980902850627899169921875">
        <ele>631.79998779296875</ele>
        <time>2021-05-21T09:03:16.000Z</time>
        <extensions>
          <ns3:TrackPointExtension>
            <ns3:atemp>19.0</ns3:atemp>
          </ns3:TrackPointExtension>
        </extensions>
      </trkpt>
      <trkpt lat="43.12382438220083713531494140625" lon="13.099942691624164581298828125">
        <ele>632.4000244140625</ele>
        <time>2021-05-21T09:03:17.000Z</time>
        <extensions>
          <ns3:TrackPointExtension>
            <ns3:atemp>19.0</ns3:atemp>
          </ns3:TrackPointExtension>
        </extensions>
      </trkpt>
      <trkpt lat="43.12382807023823261260986328125" lon="13.09999306686222553253173828125">
        <ele>633.20001220703125</ele>
        <time>2021-05-21T09:03:19.000Z</time>
        <extensions>
          <ns3:TrackPointExtension>
            <ns3:atemp>19.0</ns3:atemp>
          </ns3:TrackPointExtension>
        </extensions>
      </trkpt>
      <trkpt lat="43.12383301556110382080078125" lon="13.100053332746028900146484375">
        <ele>634.4000244140625</ele>
        <time>2021-05-21T09:03:21.000Z</time>
        <extensions>
          <ns3:TrackPointExtension>
            <ns3:atemp>19.0</ns3:atemp>
          </ns3:TrackPointExtension>
        </extensions>
      </trkpt>
      <trkpt lat="43.12384181655943393707275390625" lon="13.10015852563083171844482421875">
        <ele>635.4000244140625</ele>
        <time>2021-05-21T09:03:24.000Z</time>
        <extensions>
          <ns3:TrackPointExtension>
            <ns3:atemp>19.0</ns3:atemp>
          </ns3:TrackPointExtension>
        </extensions>
      </trkpt>
      <trkpt lat="43.123843409121036529541015625" lon="13.1001933105289936065673828125">
        <ele>635.5999755859375</ele>
        <time>2021-05-21T09:03:25.000Z</time>
        <extensions>
          <ns3:TrackPointExtension>
            <ns3:atemp>19.0</ns3:atemp>
          </ns3:TrackPointExtension>
        </extensions>
      </trkpt>
      <trkpt lat="43.12385455705225467681884765625" lon="13.1004130840301513671875">
        <ele>636.5999755859375</ele>
        <time>2021-05-21T09:03:30.000Z</time>
        <extensions>
          <ns3:TrackPointExtension>
            <ns3:atemp>19.0</ns3:atemp>
          </ns3:TrackPointExtension>
        </extensions>
      </trkpt>
      <trkpt lat="43.123834691941738128662109375" lon="13.10072648338973522186279296875">
        <ele>636.5999755859375</ele>
        <time>2021-05-21T09:03:36.000Z</time>
        <extensions>
          <ns3:TrackPointExtension>
            <ns3:atemp>19.0</ns3:atemp>
          </ns3:TrackPointExtension>
        </extensions>
      </trkpt>
      <trkpt lat="43.12379370443522930145263671875" lon="13.10117592103779315948486328125">
        <ele>635.5999755859375</ele>
        <time>2021-05-21T09:03:44.000Z</time>
        <extensions>
          <ns3:TrackPointExtension>
            <ns3:atemp>19.0</ns3:atemp>
          </ns3:TrackPointExtension>
        </extensions>
      </trkpt>
      <trkpt lat="43.12376738525927066802978515625" lon="13.10148370452225208282470703125">
        <ele>634.79998779296875</ele>
        <time>2021-05-21T09:03:51.000Z</time>
        <extensions>
          <ns3:TrackPointExtension>
            <ns3:atemp>19.0</ns3:atemp>
          </ns3:TrackPointExtension>
        </extensions>
      </trkpt>
      <trkpt lat="43.1237577460706233978271484375" lon="13.10174102894961833953857421875">
        <ele>635.20001220703125</ele>
        <time>2021-05-21T09:03:57.000Z</time>
        <extensions>
          <ns3:TrackPointExtension>
            <ns3:atemp>19.0</ns3:atemp>
          </ns3:TrackPointExtension>
        </extensions>
      </trkpt>
      <trkpt lat="43.12371709384024143218994140625" lon="13.10200036503374576568603515625">
        <ele>636.4000244140625</ele>
        <time>2021-05-21T09:04:04.000Z</time>
        <extensions>
          <ns3:TrackPointExtension>
            <ns3:atemp>19.0</ns3:atemp>
          </ns3:TrackPointExtension>
        </extensions>
      </trkpt>
      <trkpt lat="43.12371273525059223175048828125" lon="13.1020371615886688232421875">
        <ele>636.5999755859375</ele>
        <time>2021-05-21T09:04:05.000Z</time>
        <extensions>
          <ns3:TrackPointExtension>
            <ns3:atemp>19.0</ns3:atemp>
          </ns3:TrackPointExtension>
        </extensions>
      </trkpt>
      <trkpt lat="43.12368683516979217529296875" lon="13.10218267142772674560546875">
        <ele>637.79998779296875</ele>
        <time>2021-05-21T09:04:09.000Z</time>
        <extensions>
          <ns3:TrackPointExtension>
            <ns3:atemp>19.0</ns3:atemp>
          </ns3:TrackPointExtension>
        </extensions>
      </trkpt>
      <trkpt lat="43.123665712773799896240234375" lon="13.1022609584033489227294921875">
        <ele>638.5999755859375</ele>
        <time>2021-05-21T09:04:11.000Z</time>
        <extensions>
          <ns3:TrackPointExtension>
            <ns3:atemp>19.0</ns3:atemp>
          </ns3:TrackPointExtension>
        </extensions>
      </trkpt>
      <trkpt lat="43.12365406192839145660400390625" lon="13.10230244882404804229736328125">
        <ele>639</ele>
        <time>2021-05-21T09:04:12.000Z</time>
        <extensions>
          <ns3:TrackPointExtension>
            <ns3:atemp>19.0</ns3:atemp>
          </ns3:TrackPointExtension>
        </extensions>
      </trkpt>
      <trkpt lat="43.1236276589334011077880859375" lon="13.10246698558330535888671875">
        <ele>640.20001220703125</ele>
        <time>2021-05-21T09:04:16.000Z</time>
        <extensions>
          <ns3:TrackPointExtension>
            <ns3:atemp>19.0</ns3:atemp>
          </ns3:TrackPointExtension>
        </extensions>
      </trkpt>
      <trkpt lat="43.1236142478883266448974609375" lon="13.102545440196990966796875">
        <ele>641</ele>
        <time>2021-05-21T09:04:18.000Z</time>
        <extensions>
          <ns3:TrackPointExtension>
            <ns3:atemp>19.0</ns3:atemp>
          </ns3:TrackPointExtension>
        </extensions>
      </trkpt>
      <trkpt lat="43.123604021966457366943359375" lon="13.1025935523211956024169921875">
        <ele>641.20001220703125</ele>
        <time>2021-05-21T09:04:19.000Z</time>
        <extensions>
          <ns3:TrackPointExtension>
            <ns3:atemp>19.0</ns3:atemp>
          </ns3:TrackPointExtension>
        </extensions>
      </trkpt>
      <trkpt lat="43.12357409857213497161865234375" lon="13.10278658755123615264892578125">
        <ele>641.79998779296875</ele>
        <time>2021-05-21T09:04:23.000Z</time>
        <extensions>
          <ns3:TrackPointExtension>
            <ns3:atemp>19.0</ns3:atemp>
          </ns3:TrackPointExtension>
        </extensions>
      </trkpt>
      <trkpt lat="43.12355331145226955413818359375" lon="13.10296629555523395538330078125">
        <ele>642.4000244140625</ele>
        <time>2021-05-21T09:04:27.000Z</time>
        <extensions>
          <ns3:TrackPointExtension>
            <ns3:atemp>19.0</ns3:atemp>
          </ns3:TrackPointExtension>
        </extensions>
      </trkpt>
      <trkpt lat="43.12355230562388896942138671875" lon="13.1030820496380329132080078125">
        <ele>643.20001220703125</ele>
        <time>2021-05-21T09:04:30.000Z</time>
        <extensions>
          <ns3:TrackPointExtension>
            <ns3:atemp>19.0</ns3:atemp>
          </ns3:TrackPointExtension>
        </extensions>
      </trkpt>
      <trkpt lat="43.12354844994843006134033203125" lon="13.10312010347843170166015625">
        <ele>643.5999755859375</ele>
        <time>2021-05-21T09:04:31.000Z</time>
        <extensions>
          <ns3:TrackPointExtension>
            <ns3:atemp>19.0</ns3:atemp>
          </ns3:TrackPointExtension>
        </extensions>
      </trkpt>
      <trkpt lat="43.12353654764592647552490234375" lon="13.1032865680754184722900390625">
        <ele>644.79998779296875</ele>
        <time>2021-05-21T09:04:35.000Z</time>
        <extensions>
          <ns3:TrackPointExtension>
            <ns3:atemp>19.0</ns3:atemp>
          </ns3:TrackPointExtension>
        </extensions>
      </trkpt>
      <trkpt lat="43.12353420071303844451904296875" lon="13.1033353507518768310546875">
        <ele>645.20001220703125</ele>
        <time>2021-05-21T09:04:36.000Z</time>
        <extensions>
          <ns3:TrackPointExtension>
            <ns3:atemp>19.0</ns3:atemp>
          </ns3:TrackPointExtension>
        </extensions>
      </trkpt>
      <trkpt lat="43.1235421635210514068603515625" lon="13.10347524471580982208251953125">
        <ele>646</ele>
        <time>2021-05-21T09:04:39.000Z</time>
        <extensions>
          <ns3:TrackPointExtension>
            <ns3:atemp>19.0</ns3:atemp>
          </ns3:TrackPointExtension>
        </extensions>
      </trkpt>
      <trkpt lat="43.12357108108699321746826171875" lon="13.10355730354785919189453125">
        <ele>646.5999755859375</ele>
        <time>2021-05-21T09:04:41.000Z</time>
        <extensions>
          <ns3:TrackPointExtension>
            <ns3:atemp>19.0</ns3:atemp>
          </ns3:TrackPointExtension>
        </extensions>
      </trkpt>
      <trkpt lat="43.12361533753573894500732421875" lon="13.10362226329743862152099609375">
        <ele>647</ele>
        <time>2021-05-21T09:04:43.000Z</time>
        <extensions>
          <ns3:TrackPointExtension>
            <ns3:atemp>19.0</ns3:atemp>
          </ns3:TrackPointExtension>
        </extensions>
      </trkpt>
      <trkpt lat="43.12370820902287960052490234375" lon="13.1037390232086181640625">
        <ele>648.20001220703125</ele>
        <time>2021-05-21T09:04:47.000Z</time>
        <extensions>
          <ns3:TrackPointExtension>
            <ns3:atemp>19.0</ns3:atemp>
          </ns3:TrackPointExtension>
        </extensions>
      </trkpt>
      <trkpt lat="43.12377928756177425384521484375" lon="13.10382694937288761138916015625">
        <ele>649.5999755859375</ele>
        <time>2021-05-21T09:04:50.000Z</time>
        <extensions>
          <ns3:TrackPointExtension>
            <ns3:atemp>19.0</ns3:atemp>
          </ns3:TrackPointExtension>
        </extensions>
      </trkpt>
      <trkpt lat="43.1238532997667789459228515625" lon="13.10391613282263278961181640625">
        <ele>650.5999755859375</ele>
        <time>2021-05-21T09:04:53.000Z</time>
        <extensions>
          <ns3:TrackPointExtension>
            <ns3:atemp>19.0</ns3:atemp>
          </ns3:TrackPointExtension>
        </extensions>
      </trkpt>
      <trkpt lat="43.12389898113906383514404296875" lon="13.1039815954864025115966796875">
        <ele>651.4000244140625</ele>
        <time>2021-05-21T09:04:55.000Z</time>
        <extensions>
          <ns3:TrackPointExtension>
            <ns3:atemp>19.0</ns3:atemp>
          </ns3:TrackPointExtension>
        </extensions>
      </trkpt>
      <trkpt lat="43.12394659034907817840576171875" lon="13.1040434539318084716796875">
        <ele>651.79998779296875</ele>
        <time>2021-05-21T09:04:57.000Z</time>
        <extensions>
          <ns3:TrackPointExtension>
            <ns3:atemp>19.0</ns3:atemp>
          </ns3:TrackPointExtension>
        </extensions>
      </trkpt>
      <trkpt lat="43.12403954565525054931640625" lon="13.104170523583889007568359375">
        <ele>652.79998779296875</ele>
        <time>2021-05-21T09:05:01.000Z</time>
        <extensions>
          <ns3:TrackPointExtension>
            <ns3:atemp>19.0</ns3:atemp>
          </ns3:TrackPointExtension>
        </extensions>
      </trkpt>
      <trkpt lat="43.124096207320690155029296875" lon="13.10421838425099849700927734375">
        <ele>653.5999755859375</ele>
        <time>2021-05-21T09:05:03.000Z</time>
        <extensions>
          <ns3:TrackPointExtension>
            <ns3:atemp>19.0</ns3:atemp>
          </ns3:TrackPointExtension>
        </extensions>
      </trkpt>
      <trkpt lat="43.12415353953838348388671875" lon="13.10425995849072933197021484375">
        <ele>654</ele>
        <time>2021-05-21T09:05:05.000Z</time>
        <extensions>
          <ns3:TrackPointExtension>
            <ns3:atemp>19.0</ns3:atemp>
          </ns3:TrackPointExtension>
        </extensions>
      </trkpt>
      <trkpt lat="43.124312795698642730712890625" lon="13.1043825857341289520263671875">
        <ele>655</ele>
        <time>2021-05-21T09:05:10.000Z</time>
        <extensions>
          <ns3:TrackPointExtension>
            <ns3:atemp>19.0</ns3:atemp>
          </ns3:TrackPointExtension>
        </extensions>
      </trkpt>
      <trkpt lat="43.1244651786983013153076171875" lon="13.10452415607869625091552734375">
        <ele>656.20001220703125</ele>
        <time>2021-05-21T09:05:15.000Z</time>
        <extensions>
          <ns3:TrackPointExtension>
            <ns3:atemp>19.0</ns3:atemp>
          </ns3:TrackPointExtension>
        </extensions>
      </trkpt>
      <trkpt lat="43.12449510209262371063232421875" lon="13.104552738368511199951171875">
        <ele>656.4000244140625</ele>
        <time>2021-05-21T09:05:16.000Z</time>
        <extensions>
          <ns3:TrackPointExtension>
            <ns3:atemp>19.0</ns3:atemp>
          </ns3:TrackPointExtension>
        </extensions>
      </trkpt>
      <trkpt lat="43.1246549449861049652099609375" lon="13.10470587573945522308349609375">
        <ele>657.20001220703125</ele>
        <time>2021-05-21T09:05:21.000Z</time>
        <extensions>
          <ns3:TrackPointExtension>
            <ns3:atemp>19.0</ns3:atemp>
          </ns3:TrackPointExtension>
        </extensions>
      </trkpt>
      <trkpt lat="43.12487329356372356414794921875" lon="13.104905784130096435546875">
        <ele>658</ele>
        <time>2021-05-21T09:05:28.000Z</time>
        <extensions>
          <ns3:TrackPointExtension>
            <ns3:atemp>19.0</ns3:atemp>
          </ns3:TrackPointExtension>
        </extensions>
      </trkpt>
      <trkpt lat="43.12503104098141193389892578125" lon="13.10503461398184299468994140625">
        <ele>658</ele>
        <time>2021-05-21T09:05:33.000Z</time>
        <extensions>
          <ns3:TrackPointExtension>
            <ns3:atemp>19.0</ns3:atemp>
          </ns3:TrackPointExtension>
        </extensions>
      </trkpt>
      <trkpt lat="43.125246204435825347900390625" lon="13.10516101308166980743408203125">
        <ele>657.4000244140625</ele>
        <time>2021-05-21T09:05:39.000Z</time>
        <extensions>
          <ns3:TrackPointExtension>
            <ns3:atemp>19.0</ns3:atemp>
          </ns3:TrackPointExtension>
        </extensions>
      </trkpt>
      <trkpt lat="43.12550663016736507415771484375" lon="13.10532965697348117828369140625">
        <ele>656.79998779296875</ele>
        <time>2021-05-21T09:05:46.000Z</time>
        <extensions>
          <ns3:TrackPointExtension>
            <ns3:atemp>19.0</ns3:atemp>
          </ns3:TrackPointExtension>
        </extensions>
      </trkpt>
      <trkpt lat="43.1257831491529941558837890625" lon="13.10551665723323822021484375">
        <ele>658</ele>
        <time>2021-05-21T09:05:54.000Z</time>
        <extensions>
          <ns3:TrackPointExtension>
            <ns3:atemp>19.0</ns3:atemp>
          </ns3:TrackPointExtension>
        </extensions>
      </trkpt>
      <trkpt lat="43.12581692822277545928955078125" lon="13.1055379472672939300537109375">
        <ele>658.20001220703125</ele>
        <time>2021-05-21T09:05:55.000Z</time>
        <extensions>
          <ns3:TrackPointExtension>
            <ns3:atemp>19.0</ns3:atemp>
          </ns3:TrackPointExtension>
        </extensions>
      </trkpt>
      <trkpt lat="43.12594366259872913360595703125" lon="13.10562218539416790008544921875">
        <ele>659.4000244140625</ele>
        <time>2021-05-21T09:05:59.000Z</time>
        <extensions>
          <ns3:TrackPointExtension>
            <ns3:atemp>19.0</ns3:atemp>
          </ns3:TrackPointExtension>
        </extensions>
      </trkpt>
      <trkpt lat="43.12600568868219852447509765625" lon="13.10565948486328125">
        <ele>660</ele>
        <time>2021-05-21T09:06:01.000Z</time>
        <extensions>
          <ns3:TrackPointExtension>
            <ns3:atemp>19.0</ns3:atemp>
          </ns3:TrackPointExtension>
        </extensions>
      </trkpt>
      <trkpt lat="43.12607157044112682342529296875" lon="13.10569242574274539947509765625">
        <ele>660.4000244140625</ele>
        <time>2021-05-21T09:06:03.000Z</time>
        <extensions>
          <ns3:TrackPointExtension>
            <ns3:atemp>19.0</ns3:atemp>
          </ns3:TrackPointExtension>
        </extensions>
      </trkpt>
      <trkpt lat="43.12628245912492275238037109375" lon="13.105764426290988922119140625">
        <ele>661.4000244140625</ele>
        <time>2021-05-21T09:06:09.000Z</time>
        <extensions>
          <ns3:TrackPointExtension>
            <ns3:atemp>19.0</ns3:atemp>
          </ns3:TrackPointExtension>
        </extensions>
      </trkpt>
      <trkpt lat="43.126321770250797271728515625" lon="13.1057669408619403839111328125">
        <ele>661.4000244140625</ele>
        <time>2021-05-21T09:06:10.000Z</time>
        <extensions>
          <ns3:TrackPointExtension>
            <ns3:atemp>19.0</ns3:atemp>
          </ns3:TrackPointExtension>
        </extensions>
      </trkpt>
      <trkpt lat="43.126365356147289276123046875" lon="13.10575797222554683685302734375">
        <ele>661.5999755859375</ele>
        <time>2021-05-21T09:06:11.000Z</time>
        <extensions>
          <ns3:TrackPointExtension>
            <ns3:atemp>19.0</ns3:atemp>
          </ns3:TrackPointExtension>
        </extensions>
      </trkpt>
      <trkpt lat="43.12645361758768558502197265625" lon="13.10572058893740177154541015625">
        <ele>661.5999755859375</ele>
        <time>2021-05-21T09:06:13.000Z</time>
        <extensions>
          <ns3:TrackPointExtension>
            <ns3:atemp>19.0</ns3:atemp>
          </ns3:TrackPointExtension>
        </extensions>
      </trkpt>
      <trkpt lat="43.126763664186000823974609375" lon="13.10557876713573932647705078125">
        <ele>661</ele>
        <time>2021-05-21T09:06:19.000Z</time>
        <extensions>
          <ns3:TrackPointExtension>
            <ns3:atemp>19.0</ns3:atemp>
          </ns3:TrackPointExtension>
        </extensions>
      </trkpt>
      <trkpt lat="43.12682091258466243743896484375" lon="13.10554473660886287689208984375">
        <ele>660.4000244140625</ele>
        <time>2021-05-21T09:06:20.000Z</time>
        <extensions>
          <ns3:TrackPointExtension>
            <ns3:atemp>19.0</ns3:atemp>
          </ns3:TrackPointExtension>
        </extensions>
      </trkpt>
      <trkpt lat="43.1269370019435882568359375" lon="13.1054853089153766632080078125">
        <ele>658.79998779296875</ele>
        <time>2021-05-21T09:06:22.000Z</time>
        <extensions>
          <ns3:TrackPointExtension>
            <ns3:atemp>19.0</ns3:atemp>
          </ns3:TrackPointExtension>
        </extensions>
      </trkpt>
      <trkpt lat="43.12703548930585384368896484375" lon="13.10543107800185680389404296875">
        <ele>657</ele>
        <time>2021-05-21T09:06:24.000Z</time>
        <extensions>
          <ns3:TrackPointExtension>
            <ns3:atemp>19.0</ns3:atemp>
          </ns3:TrackPointExtension>
        </extensions>
      </trkpt>
      <trkpt lat="43.12715266831219196319580078125" lon="13.10537173412740230560302734375">
        <ele>655.5999755859375</ele>
        <time>2021-05-21T09:06:26.000Z</time>
        <extensions>
          <ns3:TrackPointExtension>
            <ns3:atemp>19.0</ns3:atemp>
          </ns3:TrackPointExtension>
        </extensions>
      </trkpt>
      <trkpt lat="43.12728376127779483795166015625" lon="13.10531674884259700775146484375">
        <ele>654.20001220703125</ele>
        <time>2021-05-21T09:06:28.000Z</time>
        <extensions>
          <ns3:TrackPointExtension>
            <ns3:atemp>19.0</ns3:atemp>
          </ns3:TrackPointExtension>
        </extensions>
      </trkpt>
      <trkpt lat="43.1273482181131839752197265625" lon="13.10528464615345001220703125">
        <ele>653.5999755859375</ele>
        <time>2021-05-21T09:06:29.000Z</time>
        <extensions>
          <ns3:TrackPointExtension>
            <ns3:atemp>19.0</ns3:atemp>
          </ns3:TrackPointExtension>
        </extensions>
      </trkpt>
      <trkpt lat="43.1274102441966533660888671875" lon="13.10525086708366870880126953125">
        <ele>653</ele>
        <time>2021-05-21T09:06:30.000Z</time>
        <extensions>
          <ns3:TrackPointExtension>
            <ns3:atemp>19.0</ns3:atemp>
          </ns3:TrackPointExtension>
        </extensions>
      </trkpt>
      <trkpt lat="43.12758316285908222198486328125" lon="13.10515179298818111419677734375">
        <ele>651.4000244140625</ele>
        <time>2021-05-21T09:06:33.000Z</time>
        <extensions>
          <ns3:TrackPointExtension>
            <ns3:atemp>19.0</ns3:atemp>
          </ns3:TrackPointExtension>
        </extensions>
      </trkpt>
      <trkpt lat="43.12764267437160015106201171875" lon="13.10511558316648006439208984375">
        <ele>650.79998779296875</ele>
        <time>2021-05-21T09:06:34.000Z</time>
        <extensions>
          <ns3:TrackPointExtension>
            <ns3:atemp>19.0</ns3:atemp>
          </ns3:TrackPointExtension>
        </extensions>
      </trkpt>
      <trkpt lat="43.1277009285986423492431640625" lon="13.1050799600780010223388671875">
        <ele>650</ele>
        <time>2021-05-21T09:06:35.000Z</time>
        <extensions>
          <ns3:TrackPointExtension>
            <ns3:atemp>19.0</ns3:atemp>
          </ns3:TrackPointExtension>
        </extensions>
      </trkpt>
      <trkpt lat="43.1278142519295215606689453125" lon="13.105023801326751708984375">
        <ele>649</ele>
        <time>2021-05-21T09:06:37.000Z</time>
        <extensions>
          <ns3:TrackPointExtension>
            <ns3:atemp>19.0</ns3:atemp>
          </ns3:TrackPointExtension>
        </extensions>
      </trkpt>
      <trkpt lat="43.127985410392284393310546875" lon="13.104936964809894561767578125">
        <ele>647.4000244140625</ele>
        <time>2021-05-21T09:06:40.000Z</time>
        <extensions>
          <ns3:TrackPointExtension>
            <ns3:atemp>19.0</ns3:atemp>
          </ns3:TrackPointExtension>
        </extensions>
      </trkpt>
      <trkpt lat="43.12813988886773586273193359375" lon="13.104847781360149383544921875">
        <ele>646.20001220703125</ele>
        <time>2021-05-21T09:06:43.000Z</time>
        <extensions>
          <ns3:TrackPointExtension>
            <ns3:atemp>19.0</ns3:atemp>
          </ns3:TrackPointExtension>
        </extensions>
      </trkpt>
      <trkpt lat="43.1282378733158111572265625" lon="13.1047993339598178863525390625">
        <ele>646</ele>
        <time>2021-05-21T09:06:45.000Z</time>
        <extensions>
          <ns3:TrackPointExtension>
            <ns3:atemp>19.0</ns3:atemp>
          </ns3:TrackPointExtension>
        </extensions>
      </trkpt>
      <trkpt lat="43.12853626906871795654296875" lon="13.10464133508503437042236328125">
        <ele>645.79998779296875</ele>
        <time>2021-05-21T09:06:52.000Z</time>
        <extensions>
          <ns3:TrackPointExtension>
            <ns3:atemp>19.0</ns3:atemp>
          </ns3:TrackPointExtension>
        </extensions>
      </trkpt>
      <trkpt lat="43.12868244946002960205078125" lon="13.10455785132944583892822265625">
        <ele>647.4000244140625</ele>
        <time>2021-05-21T09:06:57.000Z</time>
        <extensions>
          <ns3:TrackPointExtension>
            <ns3:atemp>19.0</ns3:atemp>
          </ns3:TrackPointExtension>
        </extensions>
      </trkpt>
      <trkpt lat="43.12870868481695652008056640625" lon="13.10453991405665874481201171875">
        <ele>647.79998779296875</ele>
        <time>2021-05-21T09:06:58.000Z</time>
        <extensions>
          <ns3:TrackPointExtension>
            <ns3:atemp>19.0</ns3:atemp>
          </ns3:TrackPointExtension>
        </extensions>
      </trkpt>
      <trkpt lat="43.1287956051528453826904296875" lon="13.10447738505899906158447265625">
        <ele>648.79998779296875</ele>
        <time>2021-05-21T09:07:01.000Z</time>
        <extensions>
          <ns3:TrackPointExtension>
            <ns3:atemp>19.0</ns3:atemp>
          </ns3:TrackPointExtension>
        </extensions>
      </trkpt>
      <trkpt lat="43.1288740597665309906005859375" lon="13.10441971756517887115478515625">
        <ele>649.79998779296875</ele>
        <time>2021-05-21T09:07:04.000Z</time>
        <extensions>
          <ns3:TrackPointExtension>
            <ns3:atemp>19.0</ns3:atemp>
          </ns3:TrackPointExtension>
        </extensions>
      </trkpt>
      <trkpt lat="43.12893189489841461181640625" lon="13.10438987798988819122314453125">
        <ele>650.4000244140625</ele>
        <time>2021-05-21T09:07:06.000Z</time>
        <extensions>
          <ns3:TrackPointExtension>
            <ns3:atemp>19.0</ns3:atemp>
          </ns3:TrackPointExtension>
        </extensions>
      </trkpt>
      <trkpt lat="43.12899434007704257965087890625" lon="13.10435886494815349578857421875">
        <ele>651</ele>
        <time>2021-05-21T09:07:08.000Z</time>
        <extensions>
          <ns3:TrackPointExtension>
            <ns3:atemp>19.0</ns3:atemp>
          </ns3:TrackPointExtension>
        </extensions>
      </trkpt>
      <trkpt lat="43.12908880412578582763671875" lon="13.10430672951042652130126953125">
        <ele>652.20001220703125</ele>
        <time>2021-05-21T09:07:11.000Z</time>
        <extensions>
          <ns3:TrackPointExtension>
            <ns3:atemp>19.0</ns3:atemp>
          </ns3:TrackPointExtension>
        </extensions>
      </trkpt>
      <trkpt lat="43.12915426678955554962158203125" lon="13.10427169315516948699951171875">
        <ele>653.20001220703125</ele>
        <time>2021-05-21T09:07:13.000Z</time>
        <extensions>
          <ns3:TrackPointExtension>
            <ns3:atemp>19.0</ns3:atemp>
          </ns3:TrackPointExtension>
        </extensions>
      </trkpt>
      <trkpt lat="43.1291858665645122528076171875" lon="13.1042558513581752777099609375">
        <ele>653.4000244140625</ele>
        <time>2021-05-21T09:07:14.000Z</time>
        <extensions>
          <ns3:TrackPointExtension>
            <ns3:atemp>19.0</ns3:atemp>
          </ns3:TrackPointExtension>
        </extensions>
      </trkpt>
      <trkpt lat="43.12930832616984844207763671875" lon="13.104213774204254150390625">
        <ele>654.20001220703125</ele>
        <time>2021-05-21T09:07:18.000Z</time>
        <extensions>
          <ns3:TrackPointExtension>
            <ns3:atemp>19.0</ns3:atemp>
          </ns3:TrackPointExtension>
        </extensions>
      </trkpt>
      <trkpt lat="43.12934168614447116851806640625" lon="13.10420849360525608062744140625">
        <ele>654.5999755859375</ele>
        <time>2021-05-21T09:07:19.000Z</time>
        <extensions>
          <ns3:TrackPointExtension>
            <ns3:atemp>19.0</ns3:atemp>
          </ns3:TrackPointExtension>
        </extensions>
      </trkpt>
      <trkpt lat="43.129443861544132232666015625" lon="13.10418971814215183258056640625">
        <ele>655.5999755859375</ele>
        <time>2021-05-21T09:07:22.000Z</time>
        <extensions>
          <ns3:TrackPointExtension>
            <ns3:atemp>18.0</ns3:atemp>
          </ns3:TrackPointExtension>
        </extensions>
      </trkpt>
      <trkpt lat="43.12955207191407680511474609375" lon="13.104170858860015869140625">
        <ele>656.20001220703125</ele>
        <time>2021-05-21T09:07:25.000Z</time>
        <extensions>
          <ns3:TrackPointExtension>
            <ns3:atemp>18.0</ns3:atemp>
          </ns3:TrackPointExtension>
        </extensions>
      </trkpt>
      <trkpt lat="43.1296609528362751007080078125" lon="13.10413959436118602752685546875">
        <ele>656.5999755859375</ele>
        <time>2021-05-21T09:07:28.000Z</time>
        <extensions>
          <ns3:TrackPointExtension>
            <ns3:atemp>18.0</ns3:atemp>
          </ns3:TrackPointExtension>
        </extensions>
      </trkpt>
      <trkpt lat="43.12978726811707019805908203125" lon="13.10415049083530902862548828125">
        <ele>657.4000244140625</ele>
        <time>2021-05-21T09:07:31.000Z</time>
        <extensions>
          <ns3:TrackPointExtension>
            <ns3:atemp>18.0</ns3:atemp>
          </ns3:TrackPointExtension>
        </extensions>
      </trkpt>
      <trkpt lat="43.12986438162624835968017578125" lon="13.10417287051677703857421875">
        <ele>657.5999755859375</ele>
        <time>2021-05-21T09:07:33.000Z</time>
        <extensions>
          <ns3:TrackPointExtension>
            <ns3:atemp>18.0</ns3:atemp>
          </ns3:TrackPointExtension>
        </extensions>
      </trkpt>
      <trkpt lat="43.13004744239151477813720703125" lon="13.104219473898410797119140625">
        <ele>658.5999755859375</ele>
        <time>2021-05-21T09:07:38.000Z</time>
        <extensions>
          <ns3:TrackPointExtension>
            <ns3:atemp>18.0</ns3:atemp>
          </ns3:TrackPointExtension>
        </extensions>
      </trkpt>
      <trkpt lat="43.13008599914610385894775390625" lon="13.1042226590216159820556640625">
        <ele>658.79998779296875</ele>
        <time>2021-05-21T09:07:39.000Z</time>
        <extensions>
          <ns3:TrackPointExtension>
            <ns3:atemp>18.0</ns3:atemp>
          </ns3:TrackPointExtension>
        </extensions>
      </trkpt>
      <trkpt lat="43.13020049594342708587646484375" lon="13.1042253412306308746337890625">
        <ele>660</ele>
        <time>2021-05-21T09:07:42.000Z</time>
        <extensions>
          <ns3:TrackPointExtension>
            <ns3:atemp>18.0</ns3:atemp>
          </ns3:TrackPointExtension>
        </extensions>
      </trkpt>
      <trkpt lat="43.130245171487331390380859375" lon="13.10421922244131565093994140625">
        <ele>660.4000244140625</ele>
        <time>2021-05-21T09:07:43.000Z</time>
        <extensions>
          <ns3:TrackPointExtension>
            <ns3:atemp>18.0</ns3:atemp>
          </ns3:TrackPointExtension>
        </extensions>
      </trkpt>
      <trkpt lat="43.13063031993806362152099609375" lon="13.10424260795116424560546875">
        <ele>661</ele>
        <time>2021-05-21T09:07:51.000Z</time>
        <extensions>
          <ns3:TrackPointExtension>
            <ns3:atemp>18.0</ns3:atemp>
          </ns3:TrackPointExtension>
        </extensions>
      </trkpt>
      <trkpt lat="43.13067943789064884185791015625" lon="13.10424755327403545379638671875">
        <ele>661</ele>
        <time>2021-05-21T09:07:52.000Z</time>
        <extensions>
          <ns3:TrackPointExtension>
            <ns3:atemp>18.0</ns3:atemp>
          </ns3:TrackPointExtension>
        </extensions>
      </trkpt>
      <trkpt lat="43.13082193024456501007080078125" lon="13.10423322021961212158203125">
        <ele>661.20001220703125</ele>
        <time>2021-05-21T09:07:55.000Z</time>
        <extensions>
          <ns3:TrackPointExtension>
            <ns3:atemp>18.0</ns3:atemp>
          </ns3:TrackPointExtension>
        </extensions>
      </trkpt>
      <trkpt lat="43.13086484558880329132080078125" lon="13.10422006063163280487060546875">
        <ele>661.20001220703125</ele>
        <time>2021-05-21T09:07:56.000Z</time>
        <extensions>
          <ns3:TrackPointExtension>
            <ns3:atemp>18.0</ns3:atemp>
          </ns3:TrackPointExtension>
        </extensions>
      </trkpt>
      <trkpt lat="43.13106064684689044952392578125" lon="13.10411729849874973297119140625">
        <ele>661.4000244140625</ele>
        <time>2021-05-21T09:08:01.000Z</time>
        <extensions>
          <ns3:TrackPointExtension>
            <ns3:atemp>18.0</ns3:atemp>
          </ns3:TrackPointExtension>
        </extensions>
      </trkpt>
      <trkpt lat="43.131167851388454437255859375" lon="13.10403213836252689361572265625">
        <ele>662</ele>
        <time>2021-05-21T09:08:05.000Z</time>
        <extensions>
          <ns3:TrackPointExtension>
            <ns3:atemp>18.0</ns3:atemp>
          </ns3:TrackPointExtension>
        </extensions>
      </trkpt>
      <trkpt lat="43.13121856190264225006103515625" lon="13.10399659909307956695556640625">
        <ele>662.4000244140625</ele>
        <time>2021-05-21T09:08:07.000Z</time>
        <extensions>
          <ns3:TrackPointExtension>
            <ns3:atemp>18.0</ns3:atemp>
          </ns3:TrackPointExtension>
        </extensions>
      </trkpt>
      <trkpt lat="43.131286539137363433837890625" lon="13.1039554439485073089599609375">
        <ele>663.79998779296875</ele>
        <time>2021-05-21T09:08:10.000Z</time>
        <extensions>
          <ns3:TrackPointExtension>
            <ns3:atemp>18.0</ns3:atemp>
          </ns3:TrackPointExtension>
        </extensions>
      </trkpt>
      <trkpt lat="43.13131093047559261322021484375" lon="13.10394220054149627685546875">
        <ele>664.20001220703125</ele>
        <time>2021-05-21T09:08:11.000Z</time>
        <extensions>
          <ns3:TrackPointExtension>
            <ns3:atemp>18.0</ns3:atemp>
          </ns3:TrackPointExtension>
        </extensions>
      </trkpt>
      <trkpt lat="43.13135585747659206390380859375" lon="13.10391135513782501220703125">
        <ele>665.20001220703125</ele>
        <time>2021-05-21T09:08:13.000Z</time>
        <extensions>
          <ns3:TrackPointExtension>
            <ns3:atemp>18.0</ns3:atemp>
          </ns3:TrackPointExtension>
        </extensions>
      </trkpt>
      <trkpt lat="43.13139575533568859100341796875" lon="13.10387782752513885498046875">
        <ele>666.4000244140625</ele>
        <time>2021-05-21T09:08:15.000Z</time>
        <extensions>
          <ns3:TrackPointExtension>
            <ns3:atemp>18.0</ns3:atemp>
          </ns3:TrackPointExtension>
        </extensions>
      </trkpt>
      <trkpt lat="43.1314350664615631103515625" lon="13.1038417853415012359619140625">
        <ele>667.5999755859375</ele>
        <time>2021-05-21T09:08:17.000Z</time>
        <extensions>
          <ns3:TrackPointExtension>
            <ns3:atemp>18.0</ns3:atemp>
          </ns3:TrackPointExtension>
        </extensions>
      </trkpt>
      <trkpt lat="43.13148938119411468505859375" lon="13.103787638247013092041015625">
        <ele>669</ele>
        <time>2021-05-21T09:08:20.000Z</time>
        <extensions>
          <ns3:TrackPointExtension>
            <ns3:atemp>18.0</ns3:atemp>
          </ns3:TrackPointExtension>
        </extensions>
      </trkpt>
      <trkpt lat="43.1315234117209911346435546875" lon="13.10375452972948551177978515625">
        <ele>670</ele>
        <time>2021-05-21T09:08:22.000Z</time>
        <extensions>
          <ns3:TrackPointExtension>
            <ns3:atemp>18.0</ns3:atemp>
          </ns3:TrackPointExtension>
        </extensions>
      </trkpt>
      <trkpt lat="43.13157923519611358642578125" lon="13.1037033163011074066162109375">
        <ele>671.5999755859375</ele>
        <time>2021-05-21T09:08:25.000Z</time>
        <extensions>
          <ns3:TrackPointExtension>
            <ns3:atemp>18.0</ns3:atemp>
          </ns3:TrackPointExtension>
        </extensions>
      </trkpt>
      <trkpt lat="43.13163556158542633056640625" lon="13.1036419607698917388916015625">
        <ele>673</ele>
        <time>2021-05-21T09:08:28.000Z</time>
        <extensions>
          <ns3:TrackPointExtension>
            <ns3:atemp>18.0</ns3:atemp>
          </ns3:TrackPointExtension>
        </extensions>
      </trkpt>
      <trkpt lat="43.13167043030261993408203125" lon="13.103602230548858642578125">
        <ele>673.79998779296875</ele>
        <time>2021-05-21T09:08:30.000Z</time>
        <extensions>
          <ns3:TrackPointExtension>
            <ns3:atemp>18.0</ns3:atemp>
          </ns3:TrackPointExtension>
        </extensions>
      </trkpt>
      <trkpt lat="43.13168845139443874359130859375" lon="13.10358119197189807891845703125">
        <ele>674.20001220703125</ele>
        <time>2021-05-21T09:08:31.000Z</time>
        <extensions>
          <ns3:TrackPointExtension>
            <ns3:atemp>18.0</ns3:atemp>
          </ns3:TrackPointExtension>
        </extensions>
      </trkpt>
      <trkpt lat="43.13176774419844150543212890625" lon="13.10349167324602603912353515625">
        <ele>675.4000244140625</ele>
        <time>2021-05-21T09:08:35.000Z</time>
        <extensions>
          <ns3:TrackPointExtension>
            <ns3:atemp>18.0</ns3:atemp>
          </ns3:TrackPointExtension>
        </extensions>
      </trkpt>
      <trkpt lat="43.13185952603816986083984375" lon="13.10341179370880126953125">
        <ele>676.4000244140625</ele>
        <time>2021-05-21T09:08:38.000Z</time>
        <extensions>
          <ns3:TrackPointExtension>
            <ns3:atemp>18.0</ns3:atemp>
          </ns3:TrackPointExtension>
        </extensions>
      </trkpt>
      <trkpt lat="43.13208642415702342987060546875" lon="13.10329520143568515777587890625">
        <ele>676.79998779296875</ele>
        <time>2021-05-21T09:08:43.000Z</time>
        <extensions>
          <ns3:TrackPointExtension>
            <ns3:atemp>18.0</ns3:atemp>
          </ns3:TrackPointExtension>
        </extensions>
      </trkpt>
      <trkpt lat="43.13221936114132404327392578125" lon="13.10318992473185062408447265625">
        <ele>677</ele>
        <time>2021-05-21T09:08:47.000Z</time>
        <extensions>
          <ns3:TrackPointExtension>
            <ns3:atemp>18.0</ns3:atemp>
          </ns3:TrackPointExtension>
        </extensions>
      </trkpt>
      <trkpt lat="43.13239923678338527679443359375" lon="13.10289211571216583251953125">
        <ele>677</ele>
        <time>2021-05-21T09:08:54.000Z</time>
        <extensions>
          <ns3:TrackPointExtension>
            <ns3:atemp>18.0</ns3:atemp>
          </ns3:TrackPointExtension>
        </extensions>
      </trkpt>
      <trkpt lat="43.13250585459172725677490234375" lon="13.10264443047344684600830078125">
        <ele>677.5999755859375</ele>
        <time>2021-05-21T09:08:59.000Z</time>
        <extensions>
          <ns3:TrackPointExtension>
            <ns3:atemp>18.0</ns3:atemp>
          </ns3:TrackPointExtension>
        </extensions>
      </trkpt>
      <trkpt lat="43.13255279324948787689208984375" lon="13.10255977325141429901123046875">
        <ele>678</ele>
        <time>2021-05-21T09:09:01.000Z</time>
        <extensions>
          <ns3:TrackPointExtension>
            <ns3:atemp>18.0</ns3:atemp>
          </ns3:TrackPointExtension>
        </extensions>
      </trkpt>
      <trkpt lat="43.13265454955399036407470703125" lon="13.10239322483539581298828125">
        <ele>678.79998779296875</ele>
        <time>2021-05-21T09:09:05.000Z</time>
        <extensions>
          <ns3:TrackPointExtension>
            <ns3:atemp>18.0</ns3:atemp>
          </ns3:TrackPointExtension>
        </extensions>
      </trkpt>
      <trkpt lat="43.1327076070010662078857421875" lon="13.10232323594391345977783203125">
        <ele>679.4000244140625</ele>
        <time>2021-05-21T09:09:07.000Z</time>
        <extensions>
          <ns3:TrackPointExtension>
            <ns3:atemp>18.0</ns3:atemp>
          </ns3:TrackPointExtension>
        </extensions>
      </trkpt>
      <trkpt lat="43.1327991373836994171142578125" lon="13.10224997811019420623779296875">
        <ele>680</ele>
        <time>2021-05-21T09:09:10.000Z</time>
        <extensions>
          <ns3:TrackPointExtension>
            <ns3:atemp>18.0</ns3:atemp>
          </ns3:TrackPointExtension>
        </extensions>
      </trkpt>
      <trkpt lat="43.13287532888352870941162109375" lon="13.1022227369248867034912109375">
        <ele>680.20001220703125</ele>
        <time>2021-05-21T09:09:13.000Z</time>
        <extensions>
          <ns3:TrackPointExtension>
            <ns3:atemp>18.0</ns3:atemp>
          </ns3:TrackPointExtension>
        </extensions>
      </trkpt>
      <trkpt lat="43.13303190283477306365966796875" lon="13.10220547020435333251953125">
        <ele>681</ele>
        <time>2021-05-21T09:09:18.000Z</time>
        <extensions>
          <ns3:TrackPointExtension>
            <ns3:atemp>18.0</ns3:atemp>
          </ns3:TrackPointExtension>
        </extensions>
      </trkpt>
      <trkpt lat="43.13306610099971294403076171875" lon="13.10221075080335140228271484375">
        <ele>681.20001220703125</ele>
        <time>2021-05-21T09:09:19.000Z</time>
        <extensions>
          <ns3:TrackPointExtension>
            <ns3:atemp>18.0</ns3:atemp>
          </ns3:TrackPointExtension>
        </extensions>
      </trkpt>
      <trkpt lat="43.13316551037132740020751953125" lon="13.10225802473723888397216796875">
        <ele>682.20001220703125</ele>
        <time>2021-05-21T09:09:22.000Z</time>
        <extensions>
          <ns3:TrackPointExtension>
            <ns3:atemp>18.0</ns3:atemp>
          </ns3:TrackPointExtension>
        </extensions>
      </trkpt>
      <trkpt lat="43.133265338838100433349609375" lon="13.10229825787246227264404296875">
        <ele>683.20001220703125</ele>
        <time>2021-05-21T09:09:25.000Z</time>
        <extensions>
          <ns3:TrackPointExtension>
            <ns3:atemp>18.0</ns3:atemp>
          </ns3:TrackPointExtension>
        </extensions>
      </trkpt>
      <trkpt lat="43.1332970224320888519287109375" lon="13.10230513103306293487548828125">
        <ele>683.5999755859375</ele>
        <time>2021-05-21T09:09:26.000Z</time>
        <extensions>
          <ns3:TrackPointExtension>
            <ns3:atemp>18.0</ns3:atemp>
          </ns3:TrackPointExtension>
        </extensions>
      </trkpt>
      <trkpt lat="43.133451081812381744384765625" lon="13.10231502167880535125732421875">
        <ele>684.5999755859375</ele>
        <time>2021-05-21T09:09:31.000Z</time>
        <extensions>
          <ns3:TrackPointExtension>
            <ns3:atemp>18.0</ns3:atemp>
          </ns3:TrackPointExtension>
        </extensions>
      </trkpt>
      <trkpt lat="43.13348268158733844757080078125" lon="13.1023176200687885284423828125">
        <ele>684.5999755859375</ele>
        <time>2021-05-21T09:09:32.000Z</time>
        <extensions>
          <ns3:TrackPointExtension>
            <ns3:atemp>18.0</ns3:atemp>
          </ns3:TrackPointExtension>
        </extensions>
      </trkpt>
      <trkpt lat="43.1336282752454280853271484375" lon="13.102322481572628021240234375">
        <ele>685.5999755859375</ele>
        <time>2021-05-21T09:09:37.000Z</time>
        <extensions>
          <ns3:TrackPointExtension>
            <ns3:atemp>18.0</ns3:atemp>
          </ns3:TrackPointExtension>
        </extensions>
      </trkpt>
      <trkpt lat="43.1337218172848224639892578125" lon="13.10232742689549922943115234375">
        <ele>686.79998779296875</ele>
        <time>2021-05-21T09:09:40.000Z</time>
        <extensions>
          <ns3:TrackPointExtension>
            <ns3:atemp>18.0</ns3:atemp>
          </ns3:TrackPointExtension>
        </extensions>
      </trkpt>
      <trkpt lat="43.13391300849616527557373046875" lon="13.10233765281736850738525390625">
        <ele>687.4000244140625</ele>
        <time>2021-05-21T09:09:47.000Z</time>
        <extensions>
          <ns3:TrackPointExtension>
            <ns3:atemp>18.0</ns3:atemp>
          </ns3:TrackPointExtension>
        </extensions>
      </trkpt>
      <trkpt lat="43.133937902748584747314453125" lon="13.10233580879867076873779296875">
        <ele>687.5999755859375</ele>
        <time>2021-05-21T09:09:51.000Z</time>
        <extensions>
          <ns3:TrackPointExtension>
            <ns3:atemp>18.0</ns3:atemp>
          </ns3:TrackPointExtension>
        </extensions>
      </trkpt>
      <trkpt lat="43.13393555581569671630859375" lon="13.102329187095165252685546875">
        <ele>687.79998779296875</ele>
        <time>2021-05-21T09:09:58.000Z</time>
        <extensions>
          <ns3:TrackPointExtension>
            <ns3:atemp>18.0</ns3:atemp>
          </ns3:TrackPointExtension>
        </extensions>
      </trkpt>
      <trkpt lat="43.1339337117969989776611328125" lon="13.10233027674257755279541015625">
        <ele>687.79998779296875</ele>
        <time>2021-05-21T09:10:02.000Z</time>
        <extensions>
          <ns3:TrackPointExtension>
            <ns3:atemp>18.0</ns3:atemp>
          </ns3:TrackPointExtension>
        </extensions>
      </trkpt>
      <trkpt lat="43.13393379561603069305419921875" lon="13.10233061201870441436767578125">
        <ele>687.79998779296875</ele>
        <time>2021-05-21T09:10:10.000Z</time>
        <extensions>
          <ns3:TrackPointExtension>
            <ns3:atemp>18.0</ns3:atemp>
          </ns3:TrackPointExtension>
        </extensions>
      </trkpt>
      <trkpt lat="43.1339337117969989776611328125" lon="13.1023296900093555450439453125">
        <ele>687.79998779296875</ele>
        <time>2021-05-21T09:11:13.000Z</time>
        <extensions>
          <ns3:TrackPointExtension>
            <ns3:atemp>19.0</ns3:atemp>
          </ns3:TrackPointExtension>
        </extensions>
      </trkpt>
      <trkpt lat="43.1339340470731258392333984375" lon="13.1023296900093555450439453125">
        <ele>687.79998779296875</ele>
        <time>2021-05-21T09:11:44.000Z</time>
        <extensions>
          <ns3:TrackPointExtension>
            <ns3:atemp>19.0</ns3:atemp>
          </ns3:TrackPointExtension>
        </extensions>
      </trkpt>
      <trkpt lat="43.13393446616828441619873046875" lon="13.102327845990657806396484375">
        <ele>688</ele>
        <time>2021-05-21T09:12:36.000Z</time>
        <extensions>
          <ns3:TrackPointExtension>
            <ns3:atemp>20.0</ns3:atemp>
          </ns3:TrackPointExtension>
        </extensions>
      </trkpt>
      <trkpt lat="43.13393446616828441619873046875" lon="13.10232776217162609100341796875">
        <ele>688</ele>
        <time>2021-05-21T09:12:44.000Z</time>
        <extensions>
          <ns3:TrackPointExtension>
            <ns3:atemp>20.0</ns3:atemp>
          </ns3:TrackPointExtension>
        </extensions>
      </trkpt>
      <trkpt lat="43.1339343823492527008056640625" lon="13.1023263372480869293212890625">
        <ele>688.20001220703125</ele>
        <time>2021-05-21T09:13:38.000Z</time>
        <extensions>
          <ns3:TrackPointExtension>
            <ns3:atemp>21.0</ns3:atemp>
          </ns3:TrackPointExtension>
        </extensions>
      </trkpt>
      <trkpt lat="43.13393446616828441619873046875" lon="13.10232658870518207550048828125">
        <ele>688</ele>
        <time>2021-05-21T09:13:44.000Z</time>
        <extensions>
          <ns3:TrackPointExtension>
            <ns3:atemp>21.0</ns3:atemp>
          </ns3:TrackPointExtension>
        </extensions>
      </trkpt>
      <trkpt lat="43.13393480144441127777099609375" lon="13.102327845990657806396484375">
        <ele>688.20001220703125</ele>
        <time>2021-05-21T09:14:32.000Z</time>
        <extensions>
          <ns3:TrackPointExtension>
            <ns3:atemp>22.0</ns3:atemp>
          </ns3:TrackPointExtension>
        </extensions>
      </trkpt>
      <trkpt lat="43.13395743258297443389892578125" lon="13.10233748517930507659912109375">
        <ele>688.79998779296875</ele>
        <time>2021-05-21T09:14:54.000Z</time>
        <extensions>
          <ns3:TrackPointExtension>
            <ns3:atemp>22.0</ns3:atemp>
          </ns3:TrackPointExtension>
        </extensions>
      </trkpt>
      <trkpt lat="43.1340502202510833740234375" lon="13.10235139913856983184814453125">
        <ele>688.79998779296875</ele>
        <time>2021-05-21T09:14:58.000Z</time>
        <extensions>
          <ns3:TrackPointExtension>
            <ns3:atemp>22.0</ns3:atemp>
          </ns3:TrackPointExtension>
        </extensions>
      </trkpt>
      <trkpt lat="43.1342076323926448822021484375" lon="13.1024416722357273101806640625">
        <ele>688.4000244140625</ele>
        <time>2021-05-21T09:15:03.000Z</time>
        <extensions>
          <ns3:TrackPointExtension>
            <ns3:atemp>22.0</ns3:atemp>
          </ns3:TrackPointExtension>
        </extensions>
      </trkpt>
      <trkpt lat="43.134393878281116485595703125" lon="13.1026180274784564971923828125">
        <ele>688.4000244140625</ele>
        <time>2021-05-21T09:15:10.000Z</time>
        <extensions>
          <ns3:TrackPointExtension>
            <ns3:atemp>22.0</ns3:atemp>
          </ns3:TrackPointExtension>
        </extensions>
      </trkpt>
      <trkpt lat="43.13456746749579906463623046875" lon="13.1027947179973125457763671875">
        <ele>688.79998779296875</ele>
        <time>2021-05-21T09:15:16.000Z</time>
        <extensions>
          <ns3:TrackPointExtension>
            <ns3:atemp>22.0</ns3:atemp>
          </ns3:TrackPointExtension>
        </extensions>
      </trkpt>
      <trkpt lat="43.134747929871082305908203125" lon="13.102941401302814483642578125">
        <ele>689.20001220703125</ele>
        <time>2021-05-21T09:15:21.000Z</time>
        <extensions>
          <ns3:TrackPointExtension>
            <ns3:atemp>22.0</ns3:atemp>
          </ns3:TrackPointExtension>
        </extensions>
      </trkpt>
      <trkpt lat="43.13496795482933521270751953125" lon="13.10297383926808834075927734375">
        <ele>688.79998779296875</ele>
        <time>2021-05-21T09:15:25.000Z</time>
        <extensions>
          <ns3:TrackPointExtension>
            <ns3:atemp>22.0</ns3:atemp>
          </ns3:TrackPointExtension>
        </extensions>
      </trkpt>
      <trkpt lat="43.135292418301105499267578125" lon="13.10294886119663715362548828125">
        <ele>687.4000244140625</ele>
        <time>2021-05-21T09:15:30.000Z</time>
        <extensions>
          <ns3:TrackPointExtension>
            <ns3:atemp>22.0</ns3:atemp>
          </ns3:TrackPointExtension>
        </extensions>
      </trkpt>
      <trkpt lat="43.135363161563873291015625" lon="13.10294131748378276824951171875">
        <ele>686.79998779296875</ele>
        <time>2021-05-21T09:15:31.000Z</time>
        <extensions>
          <ns3:TrackPointExtension>
            <ns3:atemp>22.0</ns3:atemp>
          </ns3:TrackPointExtension>
        </extensions>
      </trkpt>
      <trkpt lat="43.13543968833982944488525390625" lon="13.102944083511829376220703125">
        <ele>686.20001220703125</ele>
        <time>2021-05-21T09:15:32.000Z</time>
        <extensions>
          <ns3:TrackPointExtension>
            <ns3:atemp>22.0</ns3:atemp>
          </ns3:TrackPointExtension>
        </extensions>
      </trkpt>
      <trkpt lat="43.13559760339558124542236328125" lon="13.1029422394931316375732421875">
        <ele>684.79998779296875</ele>
        <time>2021-05-21T09:15:34.000Z</time>
        <extensions>
          <ns3:TrackPointExtension>
            <ns3:atemp>22.0</ns3:atemp>
          </ns3:TrackPointExtension>
        </extensions>
      </trkpt>
      <trkpt lat="43.13575870357453823089599609375" lon="13.10294265858829021453857421875">
        <ele>683.20001220703125</ele>
        <time>2021-05-21T09:15:36.000Z</time>
        <extensions>
          <ns3:TrackPointExtension>
            <ns3:atemp>22.0</ns3:atemp>
          </ns3:TrackPointExtension>
        </extensions>
      </trkpt>
      <trkpt lat="43.1359269283711910247802734375" lon="13.10291667468845844268798828125">
        <ele>681.5999755859375</ele>
        <time>2021-05-21T09:15:38.000Z</time>
        <extensions>
          <ns3:TrackPointExtension>
            <ns3:atemp>22.0</ns3:atemp>
          </ns3:TrackPointExtension>
        </extensions>
      </trkpt>
      <trkpt lat="43.1360888667404651641845703125" lon="13.10290024615824222564697265625">
        <ele>680.4000244140625</ele>
        <time>2021-05-21T09:15:40.000Z</time>
        <extensions>
          <ns3:TrackPointExtension>
            <ns3:atemp>22.0</ns3:atemp>
          </ns3:TrackPointExtension>
        </extensions>
      </trkpt>
      <trkpt lat="43.1361582688987255096435546875" lon="13.102905191481113433837890625">
        <ele>680</ele>
        <time>2021-05-21T09:15:41.000Z</time>
        <extensions>
          <ns3:TrackPointExtension>
            <ns3:atemp>22.0</ns3:atemp>
          </ns3:TrackPointExtension>
        </extensions>
      </trkpt>
      <trkpt lat="43.13628072850406169891357421875" lon="13.1029442511498928070068359375">
        <ele>679</ele>
        <time>2021-05-21T09:15:43.000Z</time>
        <extensions>
          <ns3:TrackPointExtension>
            <ns3:atemp>22.0</ns3:atemp>
          </ns3:TrackPointExtension>
        </extensions>
      </trkpt>
      <trkpt lat="43.1363376416265964508056640625" lon="13.10297400690615177154541015625">
        <ele>678.79998779296875</ele>
        <time>2021-05-21T09:15:44.000Z</time>
        <extensions>
          <ns3:TrackPointExtension>
            <ns3:atemp>22.0</ns3:atemp>
          </ns3:TrackPointExtension>
        </extensions>
      </trkpt>
      <trkpt lat="43.136392123997211456298828125" lon="13.10301004908978939056396484375">
        <ele>678.5999755859375</ele>
        <time>2021-05-21T09:15:45.000Z</time>
        <extensions>
          <ns3:TrackPointExtension>
            <ns3:atemp>22.0</ns3:atemp>
          </ns3:TrackPointExtension>
        </extensions>
      </trkpt>
      <trkpt lat="43.1365830637514591217041015625" lon="13.10312421061098575592041015625">
        <ele>678</ele>
        <time>2021-05-21T09:15:48.000Z</time>
        <extensions>
          <ns3:TrackPointExtension>
            <ns3:atemp>22.0</ns3:atemp>
          </ns3:TrackPointExtension>
        </extensions>
      </trkpt>
      <trkpt lat="43.136719353497028350830078125" lon="13.10319964773952960968017578125">
        <ele>677.4000244140625</ele>
        <time>2021-05-21T09:15:50.000Z</time>
        <extensions>
          <ns3:TrackPointExtension>
            <ns3:atemp>22.0</ns3:atemp>
          </ns3:TrackPointExtension>
        </extensions>
      </trkpt>
      <trkpt lat="43.13685572706162929534912109375" lon="13.10329000465571880340576171875">
        <ele>676.79998779296875</ele>
        <time>2021-05-21T09:15:52.000Z</time>
        <extensions>
          <ns3:TrackPointExtension>
            <ns3:atemp>22.0</ns3:atemp>
          </ns3:TrackPointExtension>
        </extensions>
      </trkpt>
      <trkpt lat="43.13706711865961551666259765625" lon="13.10342076234519481658935546875">
        <ele>675</ele>
        <time>2021-05-21T09:15:55.000Z</time>
        <extensions>
          <ns3:TrackPointExtension>
            <ns3:atemp>22.0</ns3:atemp>
          </ns3:TrackPointExtension>
        </extensions>
      </trkpt>
      <trkpt lat="43.137214221060276031494140625" lon="13.10351329855620861053466796875">
        <ele>673.20001220703125</ele>
        <time>2021-05-21T09:15:57.000Z</time>
        <extensions>
          <ns3:TrackPointExtension>
            <ns3:atemp>22.0</ns3:atemp>
          </ns3:TrackPointExtension>
        </extensions>
      </trkpt>
      <trkpt lat="43.137355707585811614990234375" lon="13.10360432602465152740478515625">
        <ele>670.5999755859375</ele>
        <time>2021-05-21T09:15:59.000Z</time>
        <extensions>
          <ns3:TrackPointExtension>
            <ns3:atemp>22.0</ns3:atemp>
          </ns3:TrackPointExtension>
        </extensions>
      </trkpt>
      <trkpt lat="43.13749845139682292938232421875" lon="13.1036795116961002349853515625">
        <ele>669.4000244140625</ele>
        <time>2021-05-21T09:16:01.000Z</time>
        <extensions>
          <ns3:TrackPointExtension>
            <ns3:atemp>22.0</ns3:atemp>
          </ns3:TrackPointExtension>
        </extensions>
      </trkpt>
      <trkpt lat="43.13763675279915332794189453125" lon="13.1037505902349948883056640625">
        <ele>668.5999755859375</ele>
        <time>2021-05-21T09:16:03.000Z</time>
        <extensions>
          <ns3:TrackPointExtension>
            <ns3:atemp>22.0</ns3:atemp>
          </ns3:TrackPointExtension>
        </extensions>
      </trkpt>
      <trkpt lat="43.1377059035003185272216796875" lon="13.1037868000566959381103515625">
        <ele>668.20001220703125</ele>
        <time>2021-05-21T09:16:04.000Z</time>
        <extensions>
          <ns3:TrackPointExtension>
            <ns3:atemp>22.0</ns3:atemp>
          </ns3:TrackPointExtension>
        </extensions>
      </trkpt>
      <trkpt lat="43.137843199074268341064453125" lon="13.1038637459278106689453125">
        <ele>667.20001220703125</ele>
        <time>2021-05-21T09:16:06.000Z</time>
        <extensions>
          <ns3:TrackPointExtension>
            <ns3:atemp>21.0</ns3:atemp>
          </ns3:TrackPointExtension>
        </extensions>
      </trkpt>
      <trkpt lat="43.13801963813602924346923828125" lon="13.103986121714115142822265625">
        <ele>666</ele>
        <time>2021-05-21T09:16:09.000Z</time>
        <extensions>
          <ns3:TrackPointExtension>
            <ns3:atemp>21.0</ns3:atemp>
          </ns3:TrackPointExtension>
        </extensions>
      </trkpt>
      <trkpt lat="43.13806640915572643280029296875" lon="13.1040302105247974395751953125">
        <ele>665.20001220703125</ele>
        <time>2021-05-21T09:16:10.000Z</time>
        <extensions>
          <ns3:TrackPointExtension>
            <ns3:atemp>21.0</ns3:atemp>
          </ns3:TrackPointExtension>
        </extensions>
      </trkpt>
      <trkpt lat="43.13810748048126697540283203125" lon="13.1040724553167819976806640625">
        <ele>664.5999755859375</ele>
        <time>2021-05-21T09:16:11.000Z</time>
        <extensions>
          <ns3:TrackPointExtension>
            <ns3:atemp>21.0</ns3:atemp>
          </ns3:TrackPointExtension>
        </extensions>
      </trkpt>
      <trkpt lat="43.1381789781153202056884765625" lon="13.104159794747829437255859375">
        <ele>663.20001220703125</ele>
        <time>2021-05-21T09:16:13.000Z</time>
        <extensions>
          <ns3:TrackPointExtension>
            <ns3:atemp>21.0</ns3:atemp>
          </ns3:TrackPointExtension>
        </extensions>
      </trkpt>
      <trkpt lat="43.13822717405855655670166015625" lon="13.10428946278989315032958984375">
        <ele>662</ele>
        <time>2021-05-21T09:16:15.000Z</time>
        <extensions>
          <ns3:TrackPointExtension>
            <ns3:atemp>21.0</ns3:atemp>
          </ns3:TrackPointExtension>
        </extensions>
      </trkpt>
      <trkpt lat="43.1382376514375209808349609375" lon="13.1043664924800395965576171875">
        <ele>661.5999755859375</ele>
        <time>2021-05-21T09:16:16.000Z</time>
        <extensions>
          <ns3:TrackPointExtension>
            <ns3:atemp>21.0</ns3:atemp>
          </ns3:TrackPointExtension>
        </extensions>
      </trkpt>
      <trkpt lat="43.13824309967458248138427734375" lon="13.10444050468504428863525390625">
        <ele>661.4000244140625</ele>
        <time>2021-05-21T09:16:17.000Z</time>
        <extensions>
          <ns3:TrackPointExtension>
            <ns3:atemp>21.0</ns3:atemp>
          </ns3:TrackPointExtension>
        </extensions>
      </trkpt>
      <trkpt lat="43.13824561424553394317626953125" lon="13.104645274579524993896484375">
        <ele>660.79998779296875</ele>
        <time>2021-05-21T09:16:20.000Z</time>
        <extensions>
          <ns3:TrackPointExtension>
            <ns3:atemp>21.0</ns3:atemp>
          </ns3:TrackPointExtension>
        </extensions>
      </trkpt>
      <trkpt lat="43.138245530426502227783203125" lon="13.104761280119419097900390625">
        <ele>659</ele>
        <time>2021-05-21T09:16:22.000Z</time>
        <extensions>
          <ns3:TrackPointExtension>
            <ns3:atemp>21.0</ns3:atemp>
          </ns3:TrackPointExtension>
        </extensions>
      </trkpt>
      <trkpt lat="43.1382446922361850738525390625" lon="13.10487669892609119415283203125">
        <ele>657.4000244140625</ele>
        <time>2021-05-21T09:16:24.000Z</time>
        <extensions>
          <ns3:TrackPointExtension>
            <ns3:atemp>21.0</ns3:atemp>
          </ns3:TrackPointExtension>
        </extensions>
      </trkpt>
      <trkpt lat="43.138251565396785736083984375" lon="13.10505188070237636566162109375">
        <ele>656.20001220703125</ele>
        <time>2021-05-21T09:16:27.000Z</time>
        <extensions>
          <ns3:TrackPointExtension>
            <ns3:atemp>21.0</ns3:atemp>
          </ns3:TrackPointExtension>
        </extensions>
      </trkpt>
      <trkpt lat="43.13826221041381359100341796875" lon="13.10515967197716236114501953125">
        <ele>655.4000244140625</ele>
        <time>2021-05-21T09:16:29.000Z</time>
        <extensions>
          <ns3:TrackPointExtension>
            <ns3:atemp>21.0</ns3:atemp>
          </ns3:TrackPointExtension>
        </extensions>
      </trkpt>
      <trkpt lat="43.13826489262282848358154296875" lon="13.1051922775804996490478515625">
        <ele>655</ele>
        <time>2021-05-21T09:16:30.000Z</time>
        <extensions>
          <ns3:TrackPointExtension>
            <ns3:atemp>21.0</ns3:atemp>
          </ns3:TrackPointExtension>
        </extensions>
      </trkpt>
      <trkpt lat="43.13827671110630035400390625" lon="13.105220608413219451904296875">
        <ele>654.5999755859375</ele>
        <time>2021-05-21T09:16:32.000Z</time>
        <extensions>
          <ns3:TrackPointExtension>
            <ns3:atemp>21.0</ns3:atemp>
          </ns3:TrackPointExtension>
        </extensions>
      </trkpt>
      <trkpt lat="43.13830814324319362640380859375" lon="13.1052462570369243621826171875">
        <ele>654</ele>
        <time>2021-05-21T09:16:35.000Z</time>
        <extensions>
          <ns3:TrackPointExtension>
            <ns3:atemp>21.0</ns3:atemp>
          </ns3:TrackPointExtension>
        </extensions>
      </trkpt>
      <trkpt lat="43.1383325345814228057861328125" lon="13.10525648295879364013671875">
        <ele>653.79998779296875</ele>
        <time>2021-05-21T09:16:39.000Z</time>
        <extensions>
          <ns3:TrackPointExtension>
            <ns3:atemp>21.0</ns3:atemp>
          </ns3:TrackPointExtension>
        </extensions>
      </trkpt>
      <trkpt lat="43.1383402459323406219482421875" lon="13.10525807552039623260498046875">
        <ele>653.4000244140625</ele>
        <time>2021-05-21T09:16:53.000Z</time>
        <extensions>
          <ns3:TrackPointExtension>
            <ns3:atemp>21.0</ns3:atemp>
          </ns3:TrackPointExtension>
        </extensions>
      </trkpt>
      <trkpt lat="43.13836061395704746246337890625" lon="13.1053408049046993255615234375">
        <ele>653.20001220703125</ele>
        <time>2021-05-21T09:17:02.000Z</time>
        <extensions>
          <ns3:TrackPointExtension>
            <ns3:atemp>21.0</ns3:atemp>
          </ns3:TrackPointExtension>
        </extensions>
      </trkpt>
      <trkpt lat="43.13836396671831607818603515625" lon="13.10544348321855068206787109375">
        <ele>653</ele>
        <time>2021-05-21T09:17:09.000Z</time>
        <extensions>
          <ns3:TrackPointExtension>
            <ns3:atemp>21.0</ns3:atemp>
          </ns3:TrackPointExtension>
        </extensions>
      </trkpt>
      <trkpt lat="43.13836161978542804718017578125" lon="13.1054591573774814605712890625">
        <ele>653</ele>
        <time>2021-05-21T09:17:12.000Z</time>
        <extensions>
          <ns3:TrackPointExtension>
            <ns3:atemp>21.0</ns3:atemp>
          </ns3:TrackPointExtension>
        </extensions>
      </trkpt>
      <trkpt lat="43.13835357315838336944580078125" lon="13.10548153705894947052001953125">
        <ele>652.79998779296875</ele>
        <time>2021-05-21T09:17:19.000Z</time>
        <extensions>
          <ns3:TrackPointExtension>
            <ns3:atemp>21.0</ns3:atemp>
          </ns3:TrackPointExtension>
        </extensions>
      </trkpt>
      <trkpt lat="43.13834720291197299957275390625" lon="13.105527721345424652099609375">
        <ele>652.5999755859375</ele>
        <time>2021-05-21T09:17:33.000Z</time>
        <extensions>
          <ns3:TrackPointExtension>
            <ns3:atemp>21.0</ns3:atemp>
          </ns3:TrackPointExtension>
        </extensions>
      </trkpt>
      <trkpt lat="43.1383310258388519287109375" lon="13.10561195947229862213134765625">
        <ele>652.79998779296875</ele>
        <time>2021-05-21T09:17:41.000Z</time>
        <extensions>
          <ns3:TrackPointExtension>
            <ns3:atemp>21.0</ns3:atemp>
          </ns3:TrackPointExtension>
        </extensions>
      </trkpt>
      <trkpt lat="43.13832842744886875152587890625" lon="13.10562469996511936187744140625">
        <ele>652</ele>
        <time>2021-05-21T09:17:47.000Z</time>
        <extensions>
          <ns3:TrackPointExtension>
            <ns3:atemp>21.0</ns3:atemp>
          </ns3:TrackPointExtension>
        </extensions>
      </trkpt>
      <trkpt lat="43.13832507468760013580322265625" lon="13.10562201775610446929931640625">
        <ele>651.5999755859375</ele>
        <time>2021-05-21T09:17:53.000Z</time>
        <extensions>
          <ns3:TrackPointExtension>
            <ns3:atemp>20.0</ns3:atemp>
          </ns3:TrackPointExtension>
        </extensions>
      </trkpt>
      <trkpt lat="43.13832758925855159759521484375" lon="13.10562788508832454681396484375">
        <ele>651.5999755859375</ele>
        <time>2021-05-21T09:18:03.000Z</time>
        <extensions>
          <ns3:TrackPointExtension>
            <ns3:atemp>20.0</ns3:atemp>
          </ns3:TrackPointExtension>
        </extensions>
      </trkpt>
      <trkpt lat="43.1383137591183185577392578125" lon="13.1056221015751361846923828125">
        <ele>651.4000244140625</ele>
        <time>2021-05-21T09:18:13.000Z</time>
        <extensions>
          <ns3:TrackPointExtension>
            <ns3:atemp>20.0</ns3:atemp>
          </ns3:TrackPointExtension>
        </extensions>
      </trkpt>
      <trkpt lat="43.13828718848526477813720703125" lon="13.10563693754374980926513671875">
        <ele>651.20001220703125</ele>
        <time>2021-05-21T09:18:24.000Z</time>
        <extensions>
          <ns3:TrackPointExtension>
            <ns3:atemp>20.0</ns3:atemp>
          </ns3:TrackPointExtension>
        </extensions>
      </trkpt>
      <trkpt lat="43.13827143050730228424072265625" lon="13.10576484538614749908447265625">
        <ele>651.20001220703125</ele>
        <time>2021-05-21T09:18:27.000Z</time>
        <extensions>
          <ns3:TrackPointExtension>
            <ns3:atemp>20.0</ns3:atemp>
          </ns3:TrackPointExtension>
        </extensions>
      </trkpt>
      <trkpt lat="43.138256259262561798095703125" lon="13.106101043522357940673828125">
        <ele>651</ele>
        <time>2021-05-21T09:18:32.000Z</time>
        <extensions>
          <ns3:TrackPointExtension>
            <ns3:atemp>20.0</ns3:atemp>
          </ns3:TrackPointExtension>
        </extensions>
      </trkpt>
      <trkpt lat="43.13826204277575016021728515625" lon="13.10619366355240345001220703125">
        <ele>650.79998779296875</ele>
        <time>2021-05-21T09:18:33.000Z</time>
        <extensions>
          <ns3:TrackPointExtension>
            <ns3:atemp>20.0</ns3:atemp>
          </ns3:TrackPointExtension>
        </extensions>
      </trkpt>
      <trkpt lat="43.13826791010797023773193359375" lon="13.10636247508227825164794921875">
        <ele>649.4000244140625</ele>
        <time>2021-05-21T09:18:35.000Z</time>
        <extensions>
          <ns3:TrackPointExtension>
            <ns3:atemp>20.0</ns3:atemp>
          </ns3:TrackPointExtension>
        </extensions>
      </trkpt>
      <trkpt lat="43.138267658650875091552734375" lon="13.10650899074971675872802734375">
        <ele>648.20001220703125</ele>
        <time>2021-05-21T09:18:37.000Z</time>
        <extensions>
          <ns3:TrackPointExtension>
            <ns3:atemp>20.0</ns3:atemp>
          </ns3:TrackPointExtension>
        </extensions>
      </trkpt>
      <trkpt lat="43.13827126286923885345458984375" lon="13.10657436959445476531982421875">
        <ele>647.4000244140625</ele>
        <time>2021-05-21T09:18:38.000Z</time>
        <extensions>
          <ns3:TrackPointExtension>
            <ns3:atemp>20.0</ns3:atemp>
          </ns3:TrackPointExtension>
        </extensions>
      </trkpt>
      <trkpt lat="43.13827780075371265411376953125" lon="13.1066332943737506866455078125">
        <ele>646.20001220703125</ele>
        <time>2021-05-21T09:18:39.000Z</time>
        <extensions>
          <ns3:TrackPointExtension>
            <ns3:atemp>20.0</ns3:atemp>
          </ns3:TrackPointExtension>
        </extensions>
      </trkpt>
      <trkpt lat="43.1382902897894382476806640625" lon="13.106685094535350799560546875">
        <ele>645</ele>
        <time>2021-05-21T09:18:40.000Z</time>
        <extensions>
          <ns3:TrackPointExtension>
            <ns3:atemp>20.0</ns3:atemp>
          </ns3:TrackPointExtension>
        </extensions>
      </trkpt>
      <trkpt lat="43.13831652514636516571044921875" lon="13.10673077590763568878173828125">
        <ele>644</ele>
        <time>2021-05-21T09:18:41.000Z</time>
        <extensions>
          <ns3:TrackPointExtension>
            <ns3:atemp>20.0</ns3:atemp>
          </ns3:TrackPointExtension>
        </extensions>
      </trkpt>
      <trkpt lat="43.138353824615478515625" lon="13.10676924884319305419921875">
        <ele>643</ele>
        <time>2021-05-21T09:18:42.000Z</time>
        <extensions>
          <ns3:TrackPointExtension>
            <ns3:atemp>20.0</ns3:atemp>
          </ns3:TrackPointExtension>
        </extensions>
      </trkpt>
      <trkpt lat="43.13839196227490901947021484375" lon="13.10679548420011997222900390625">
        <ele>642.5999755859375</ele>
        <time>2021-05-21T09:18:43.000Z</time>
        <extensions>
          <ns3:TrackPointExtension>
            <ns3:atemp>20.0</ns3:atemp>
          </ns3:TrackPointExtension>
        </extensions>
      </trkpt>
      <trkpt lat="43.13846622593700885772705078125" lon="13.10681744478642940521240234375">
        <ele>641.4000244140625</ele>
        <time>2021-05-21T09:18:45.000Z</time>
        <extensions>
          <ns3:TrackPointExtension>
            <ns3:atemp>20.0</ns3:atemp>
          </ns3:TrackPointExtension>
        </extensions>
      </trkpt>
      <trkpt lat="43.13850662671029567718505859375" lon="13.10682264156639575958251953125">
        <ele>641</ele>
        <time>2021-05-21T09:18:46.000Z</time>
        <extensions>
          <ns3:TrackPointExtension>
            <ns3:atemp>20.0</ns3:atemp>
          </ns3:TrackPointExtension>
        </extensions>
      </trkpt>
      <trkpt lat="43.13854736275970935821533203125" lon="13.10683001764118671417236328125">
        <ele>640.5999755859375</ele>
        <time>2021-05-21T09:18:47.000Z</time>
        <extensions>
          <ns3:TrackPointExtension>
            <ns3:atemp>20.0</ns3:atemp>
          </ns3:TrackPointExtension>
        </extensions>
      </trkpt>
      <trkpt lat="43.13859480433166027069091796875" lon="13.10683890245854854583740234375">
        <ele>640.4000244140625</ele>
        <time>2021-05-21T09:18:48.000Z</time>
        <extensions>
          <ns3:TrackPointExtension>
            <ns3:atemp>20.0</ns3:atemp>
          </ns3:TrackPointExtension>
        </extensions>
      </trkpt>
      <trkpt lat="43.1388580799102783203125" lon="13.10685910284519195556640625">
        <ele>639.79998779296875</ele>
        <time>2021-05-21T09:18:54.000Z</time>
        <extensions>
          <ns3:TrackPointExtension>
            <ns3:atemp>20.0</ns3:atemp>
          </ns3:TrackPointExtension>
        </extensions>
      </trkpt>
      <trkpt lat="43.13909503631293773651123046875" lon="13.106875531375408172607421875">
        <ele>639.4000244140625</ele>
        <time>2021-05-21T09:18:59.000Z</time>
        <extensions>
          <ns3:TrackPointExtension>
            <ns3:atemp>20.0</ns3:atemp>
          </ns3:TrackPointExtension>
        </extensions>
      </trkpt>
      <trkpt lat="43.1391422264277935028076171875" lon="13.1068726815283298492431640625">
        <ele>639.4000244140625</ele>
        <time>2021-05-21T09:19:00.000Z</time>
        <extensions>
          <ns3:TrackPointExtension>
            <ns3:atemp>20.0</ns3:atemp>
          </ns3:TrackPointExtension>
        </extensions>
      </trkpt>
      <trkpt lat="43.13919595442712306976318359375" lon="13.1068678200244903564453125">
        <ele>639.20001220703125</ele>
        <time>2021-05-21T09:19:01.000Z</time>
        <extensions>
          <ns3:TrackPointExtension>
            <ns3:atemp>20.0</ns3:atemp>
          </ns3:TrackPointExtension>
        </extensions>
      </trkpt>
      <trkpt lat="43.13935671932995319366455078125" lon="13.106867484748363494873046875">
        <ele>638.4000244140625</ele>
        <time>2021-05-21T09:19:04.000Z</time>
        <extensions>
          <ns3:TrackPointExtension>
            <ns3:atemp>20.0</ns3:atemp>
          </ns3:TrackPointExtension>
        </extensions>
      </trkpt>
      <trkpt lat="43.1394600681960582733154296875" lon="13.1068730168044567108154296875">
        <ele>638.20001220703125</ele>
        <time>2021-05-21T09:19:06.000Z</time>
        <extensions>
          <ns3:TrackPointExtension>
            <ns3:atemp>20.0</ns3:atemp>
          </ns3:TrackPointExtension>
        </extensions>
      </trkpt>
      <trkpt lat="43.13950977288186550140380859375" lon="13.10688030906021595001220703125">
        <ele>638.20001220703125</ele>
        <time>2021-05-21T09:19:07.000Z</time>
        <extensions>
          <ns3:TrackPointExtension>
            <ns3:atemp>20.0</ns3:atemp>
          </ns3:TrackPointExtension>
        </extensions>
      </trkpt>
      <trkpt lat="43.13960851170122623443603515625" lon="13.10691517777740955352783203125">
        <ele>638.20001220703125</ele>
        <time>2021-05-21T09:19:09.000Z</time>
        <extensions>
          <ns3:TrackPointExtension>
            <ns3:atemp>20.0</ns3:atemp>
          </ns3:TrackPointExtension>
        </extensions>
      </trkpt>
      <trkpt lat="43.1397467292845249176025390625" lon="13.10701995156705379486083984375">
        <ele>638.20001220703125</ele>
        <time>2021-05-21T09:19:12.000Z</time>
        <extensions>
          <ns3:TrackPointExtension>
            <ns3:atemp>20.0</ns3:atemp>
          </ns3:TrackPointExtension>
        </extensions>
      </trkpt>
      <trkpt lat="43.1397966854274272918701171875" lon="13.10705398209393024444580078125">
        <ele>638.20001220703125</ele>
        <time>2021-05-21T09:19:13.000Z</time>
        <extensions>
          <ns3:TrackPointExtension>
            <ns3:atemp>20.0</ns3:atemp>
          </ns3:TrackPointExtension>
        </extensions>
      </trkpt>
      <trkpt lat="43.13994898460805416107177734375" lon="13.1071492843329906463623046875">
        <ele>638.4000244140625</ele>
        <time>2021-05-21T09:19:16.000Z</time>
        <extensions>
          <ns3:TrackPointExtension>
            <ns3:atemp>20.0</ns3:atemp>
          </ns3:TrackPointExtension>
        </extensions>
      </trkpt>
      <trkpt lat="43.1400932371616363525390625" lon="13.107225894927978515625">
        <ele>638.4000244140625</ele>
        <time>2021-05-21T09:19:19.000Z</time>
        <extensions>
          <ns3:TrackPointExtension>
            <ns3:atemp>20.0</ns3:atemp>
          </ns3:TrackPointExtension>
        </extensions>
      </trkpt>
      <trkpt lat="43.1403951533138751983642578125" lon="13.1073544733226299285888671875">
        <ele>638.5999755859375</ele>
        <time>2021-05-21T09:19:25.000Z</time>
        <extensions>
          <ns3:TrackPointExtension>
            <ns3:atemp>20.0</ns3:atemp>
          </ns3:TrackPointExtension>
        </extensions>
      </trkpt>
      <trkpt lat="43.1404501385986804962158203125" lon="13.1073608435690402984619140625">
        <ele>638.5999755859375</ele>
        <time>2021-05-21T09:19:26.000Z</time>
        <extensions>
          <ns3:TrackPointExtension>
            <ns3:atemp>20.0</ns3:atemp>
          </ns3:TrackPointExtension>
        </extensions>
      </trkpt>
      <trkpt lat="43.140635378658771514892578125" lon="13.10738749802112579345703125">
        <ele>638.5999755859375</ele>
        <time>2021-05-21T09:19:30.000Z</time>
        <extensions>
          <ns3:TrackPointExtension>
            <ns3:atemp>20.0</ns3:atemp>
          </ns3:TrackPointExtension>
        </extensions>
      </trkpt>
      <trkpt lat="43.14068424515426158905029296875" lon="13.10739261098206043243408203125">
        <ele>638.79998779296875</ele>
        <time>2021-05-21T09:19:31.000Z</time>
        <extensions>
          <ns3:TrackPointExtension>
            <ns3:atemp>20.0</ns3:atemp>
          </ns3:TrackPointExtension>
        </extensions>
      </trkpt>
      <trkpt lat="43.14082288183271884918212890625" lon="13.10740384273231029510498046875">
        <ele>638.79998779296875</ele>
        <time>2021-05-21T09:19:34.000Z</time>
        <extensions>
          <ns3:TrackPointExtension>
            <ns3:atemp>20.0</ns3:atemp>
          </ns3:TrackPointExtension>
        </extensions>
      </trkpt>
      <trkpt lat="43.14086906611919403076171875" lon="13.10741758905351161956787109375">
        <ele>639</ele>
        <time>2021-05-21T09:19:35.000Z</time>
        <extensions>
          <ns3:TrackPointExtension>
            <ns3:atemp>19.0</ns3:atemp>
          </ns3:TrackPointExtension>
        </extensions>
      </trkpt>
      <trkpt lat="43.14106361009180545806884765625" lon="13.107513897120952606201171875">
        <ele>639.4000244140625</ele>
        <time>2021-05-21T09:19:39.000Z</time>
        <extensions>
          <ns3:TrackPointExtension>
            <ns3:atemp>19.0</ns3:atemp>
          </ns3:TrackPointExtension>
        </extensions>
      </trkpt>
      <trkpt lat="43.141113482415676116943359375" lon="13.1075522862374782562255859375">
        <ele>639.5999755859375</ele>
        <time>2021-05-21T09:19:40.000Z</time>
        <extensions>
          <ns3:TrackPointExtension>
            <ns3:atemp>19.0</ns3:atemp>
          </ns3:TrackPointExtension>
        </extensions>
      </trkpt>
      <trkpt lat="43.14115581102669239044189453125" lon="13.1076019071042537689208984375">
        <ele>639.79998779296875</ele>
        <time>2021-05-21T09:19:41.000Z</time>
        <extensions>
          <ns3:TrackPointExtension>
            <ns3:atemp>19.0</ns3:atemp>
          </ns3:TrackPointExtension>
        </extensions>
      </trkpt>
      <trkpt lat="43.14123057760298252105712890625" lon="13.10770709998905658721923828125">
        <ele>640.20001220703125</ele>
        <time>2021-05-21T09:19:43.000Z</time>
        <extensions>
          <ns3:TrackPointExtension>
            <ns3:atemp>19.0</ns3:atemp>
          </ns3:TrackPointExtension>
        </extensions>
      </trkpt>
      <trkpt lat="43.14130869694054126739501953125" lon="13.1078253686428070068359375">
        <ele>640.20001220703125</ele>
        <time>2021-05-21T09:19:45.000Z</time>
        <extensions>
          <ns3:TrackPointExtension>
            <ns3:atemp>19.0</ns3:atemp>
          </ns3:TrackPointExtension>
        </extensions>
      </trkpt>
      <trkpt lat="43.14135261811316013336181640625" lon="13.10787239111959934234619140625">
        <ele>640.20001220703125</ele>
        <time>2021-05-21T09:19:46.000Z</time>
        <extensions>
          <ns3:TrackPointExtension>
            <ns3:atemp>19.0</ns3:atemp>
          </ns3:TrackPointExtension>
        </extensions>
      </trkpt>
      <trkpt lat="43.14155696891248226165771484375" lon="13.1079472415149211883544921875">
        <ele>640.20001220703125</ele>
        <time>2021-05-21T09:19:50.000Z</time>
        <extensions>
          <ns3:TrackPointExtension>
            <ns3:atemp>19.0</ns3:atemp>
          </ns3:TrackPointExtension>
        </extensions>
      </trkpt>
      <trkpt lat="43.14170985482633113861083984375" lon="13.1079006381332874298095703125">
        <ele>640.20001220703125</ele>
        <time>2021-05-21T09:19:53.000Z</time>
        <extensions>
          <ns3:TrackPointExtension>
            <ns3:atemp>19.0</ns3:atemp>
          </ns3:TrackPointExtension>
        </extensions>
      </trkpt>
      <trkpt lat="43.14176584593951702117919921875" lon="13.10787725262343883514404296875">
        <ele>640.20001220703125</ele>
        <time>2021-05-21T09:19:54.000Z</time>
        <extensions>
          <ns3:TrackPointExtension>
            <ns3:atemp>19.0</ns3:atemp>
          </ns3:TrackPointExtension>
        </extensions>
      </trkpt>
      <trkpt lat="43.14182183705270290374755859375" lon="13.1078548729419708251953125">
        <ele>640.20001220703125</ele>
        <time>2021-05-21T09:19:55.000Z</time>
        <extensions>
          <ns3:TrackPointExtension>
            <ns3:atemp>19.0</ns3:atemp>
          </ns3:TrackPointExtension>
        </extensions>
      </trkpt>
      <trkpt lat="43.1420524232089519500732421875" lon="13.1077517755329608917236328125">
        <ele>640.20001220703125</ele>
        <time>2021-05-21T09:20:00.000Z</time>
        <extensions>
          <ns3:TrackPointExtension>
            <ns3:atemp>19.0</ns3:atemp>
          </ns3:TrackPointExtension>
        </extensions>
      </trkpt>
      <trkpt lat="43.14233045093715190887451171875" lon="13.107630573213100433349609375">
        <ele>640</ele>
        <time>2021-05-21T09:20:06.000Z</time>
        <extensions>
          <ns3:TrackPointExtension>
            <ns3:atemp>19.0</ns3:atemp>
          </ns3:TrackPointExtension>
        </extensions>
      </trkpt>
      <trkpt lat="43.14264041371643543243408203125" lon="13.10757265426218509674072265625">
        <ele>640</ele>
        <time>2021-05-21T09:20:12.000Z</time>
        <extensions>
          <ns3:TrackPointExtension>
            <ns3:atemp>19.0</ns3:atemp>
          </ns3:TrackPointExtension>
        </extensions>
      </trkpt>
      <trkpt lat="43.14293981529772281646728515625" lon="13.10752504505217075347900390625">
        <ele>640.4000244140625</ele>
        <time>2021-05-21T09:20:17.000Z</time>
        <extensions>
          <ns3:TrackPointExtension>
            <ns3:atemp>19.0</ns3:atemp>
          </ns3:TrackPointExtension>
        </extensions>
      </trkpt>
      <trkpt lat="43.142997734248638153076171875" lon="13.10751800425350666046142578125">
        <ele>640.5999755859375</ele>
        <time>2021-05-21T09:20:18.000Z</time>
        <extensions>
          <ns3:TrackPointExtension>
            <ns3:atemp>19.0</ns3:atemp>
          </ns3:TrackPointExtension>
        </extensions>
      </trkpt>
      <trkpt lat="43.14329914748668670654296875" lon="13.10749084688723087310791015625">
        <ele>640.79998779296875</ele>
        <time>2021-05-21T09:20:23.000Z</time>
        <extensions>
          <ns3:TrackPointExtension>
            <ns3:atemp>19.0</ns3:atemp>
          </ns3:TrackPointExtension>
        </extensions>
      </trkpt>
      <trkpt lat="43.14336729235947132110595703125" lon="13.10750911943614482879638671875">
        <ele>640.79998779296875</ele>
        <time>2021-05-21T09:20:24.000Z</time>
        <extensions>
          <ns3:TrackPointExtension>
            <ns3:atemp>19.0</ns3:atemp>
          </ns3:TrackPointExtension>
        </extensions>
      </trkpt>
      <trkpt lat="43.1436714716255664825439453125" lon="13.1076350994408130645751953125">
        <ele>640.5999755859375</ele>
        <time>2021-05-21T09:20:28.000Z</time>
        <extensions>
          <ns3:TrackPointExtension>
            <ns3:atemp>19.0</ns3:atemp>
          </ns3:TrackPointExtension>
        </extensions>
      </trkpt>
      <trkpt lat="43.1440087594091892242431640625" lon="13.10766519047319889068603515625">
        <ele>639.79998779296875</ele>
        <time>2021-05-21T09:20:32.000Z</time>
        <extensions>
          <ns3:TrackPointExtension>
            <ns3:atemp>19.0</ns3:atemp>
          </ns3:TrackPointExtension>
        </extensions>
      </trkpt>
      <trkpt lat="43.14409467391669750213623046875" lon="13.10765915550291538238525390625">
        <ele>639</ele>
        <time>2021-05-21T09:20:33.000Z</time>
        <extensions>
          <ns3:TrackPointExtension>
            <ns3:atemp>19.0</ns3:atemp>
          </ns3:TrackPointExtension>
        </extensions>
      </trkpt>
      <trkpt lat="43.1441814266145229339599609375" lon="13.10765462927520275115966796875">
        <ele>638</ele>
        <time>2021-05-21T09:20:34.000Z</time>
        <extensions>
          <ns3:TrackPointExtension>
            <ns3:atemp>19.0</ns3:atemp>
          </ns3:TrackPointExtension>
        </extensions>
      </trkpt>
      <trkpt lat="43.14426952041685581207275390625" lon="13.107651360332965850830078125">
        <ele>636.79998779296875</ele>
        <time>2021-05-21T09:20:35.000Z</time>
        <extensions>
          <ns3:TrackPointExtension>
            <ns3:atemp>19.0</ns3:atemp>
          </ns3:TrackPointExtension>
        </extensions>
      </trkpt>
      <trkpt lat="43.14443414099514484405517578125" lon="13.10766778886318206787109375">
        <ele>634.5999755859375</ele>
        <time>2021-05-21T09:20:37.000Z</time>
        <extensions>
          <ns3:TrackPointExtension>
            <ns3:atemp>19.0</ns3:atemp>
          </ns3:TrackPointExtension>
        </extensions>
      </trkpt>
      <trkpt lat="43.14450873993337154388427734375" lon="13.10768312774598598480224609375">
        <ele>633.5999755859375</ele>
        <time>2021-05-21T09:20:38.000Z</time>
        <extensions>
          <ns3:TrackPointExtension>
            <ns3:atemp>19.0</ns3:atemp>
          </ns3:TrackPointExtension>
        </extensions>
      </trkpt>
      <trkpt lat="43.14458585344254970550537109375" lon="13.1077031604945659637451171875">
        <ele>632.4000244140625</ele>
        <time>2021-05-21T09:20:39.000Z</time>
        <extensions>
          <ns3:TrackPointExtension>
            <ns3:atemp>19.0</ns3:atemp>
          </ns3:TrackPointExtension>
        </extensions>
      </trkpt>
      <trkpt lat="43.14473538659512996673583984375" lon="13.10775470919907093048095703125">
        <ele>630.79998779296875</ele>
        <time>2021-05-21T09:20:41.000Z</time>
        <extensions>
          <ns3:TrackPointExtension>
            <ns3:atemp>19.0</ns3:atemp>
          </ns3:TrackPointExtension>
        </extensions>
      </trkpt>
      <trkpt lat="43.14480562694370746612548828125" lon="13.1077916733920574188232421875">
        <ele>629.4000244140625</ele>
        <time>2021-05-21T09:20:42.000Z</time>
        <extensions>
          <ns3:TrackPointExtension>
            <ns3:atemp>19.0</ns3:atemp>
          </ns3:TrackPointExtension>
        </extensions>
      </trkpt>
      <trkpt lat="43.144872598350048065185546875" lon="13.10783618129789829254150390625">
        <ele>628.4000244140625</ele>
        <time>2021-05-21T09:20:43.000Z</time>
        <extensions>
          <ns3:TrackPointExtension>
            <ns3:atemp>19.0</ns3:atemp>
          </ns3:TrackPointExtension>
        </extensions>
      </trkpt>
      <trkpt lat="43.14500528387725353240966796875" lon="13.1079452298581600189208984375">
        <ele>627</ele>
        <time>2021-05-21T09:20:45.000Z</time>
        <extensions>
          <ns3:TrackPointExtension>
            <ns3:atemp>19.0</ns3:atemp>
          </ns3:TrackPointExtension>
        </extensions>
      </trkpt>
      <trkpt lat="43.14515247009694576263427734375" lon="13.108065426349639892578125">
        <ele>625.5999755859375</ele>
        <time>2021-05-21T09:20:47.000Z</time>
        <extensions>
          <ns3:TrackPointExtension>
            <ns3:atemp>18.0</ns3:atemp>
          </ns3:TrackPointExtension>
        </extensions>
      </trkpt>
      <trkpt lat="43.1455369479954242706298828125" lon="13.10835778713226318359375">
        <ele>625</ele>
        <time>2021-05-21T09:20:52.000Z</time>
        <extensions>
          <ns3:TrackPointExtension>
            <ns3:atemp>18.0</ns3:atemp>
          </ns3:TrackPointExtension>
        </extensions>
      </trkpt>
      <trkpt lat="43.14560710452497005462646484375" lon="13.10842148959636688232421875">
        <ele>624.5999755859375</ele>
        <time>2021-05-21T09:20:53.000Z</time>
        <extensions>
          <ns3:TrackPointExtension>
            <ns3:atemp>18.0</ns3:atemp>
          </ns3:TrackPointExtension>
        </extensions>
      </trkpt>
      <trkpt lat="43.14574263989925384521484375" lon="13.10855233110487461090087890625">
        <ele>623.20001220703125</ele>
        <time>2021-05-21T09:20:55.000Z</time>
        <extensions>
          <ns3:TrackPointExtension>
            <ns3:atemp>18.0</ns3:atemp>
          </ns3:TrackPointExtension>
        </extensions>
      </trkpt>
      <trkpt lat="43.145890496671199798583984375" lon="13.10864822007715702056884765625">
        <ele>621.79998779296875</ele>
        <time>2021-05-21T09:20:57.000Z</time>
        <extensions>
          <ns3:TrackPointExtension>
            <ns3:atemp>18.0</ns3:atemp>
          </ns3:TrackPointExtension>
        </extensions>
      </trkpt>
      <trkpt lat="43.146228790283203125" lon="13.108804710209369659423828125">
        <ele>620.79998779296875</ele>
        <time>2021-05-21T09:21:02.000Z</time>
        <extensions>
          <ns3:TrackPointExtension>
            <ns3:atemp>18.0</ns3:atemp>
          </ns3:TrackPointExtension>
        </extensions>
      </trkpt>
      <trkpt lat="43.146440684795379638671875" lon="13.1088484637439250946044921875">
        <ele>620.79998779296875</ele>
        <time>2021-05-21T09:21:06.000Z</time>
        <extensions>
          <ns3:TrackPointExtension>
            <ns3:atemp>18.0</ns3:atemp>
          </ns3:TrackPointExtension>
        </extensions>
      </trkpt>
      <trkpt lat="43.146493323147296905517578125" lon="13.1088499724864959716796875">
        <ele>620.79998779296875</ele>
        <time>2021-05-21T09:21:07.000Z</time>
        <extensions>
          <ns3:TrackPointExtension>
            <ns3:atemp>18.0</ns3:atemp>
          </ns3:TrackPointExtension>
        </extensions>
      </trkpt>
      <trkpt lat="43.1468121707439422607421875" lon="13.108758442103862762451171875">
        <ele>621.5999755859375</ele>
        <time>2021-05-21T09:21:13.000Z</time>
        <extensions>
          <ns3:TrackPointExtension>
            <ns3:atemp>18.0</ns3:atemp>
          </ns3:TrackPointExtension>
        </extensions>
      </trkpt>
      <trkpt lat="43.146927170455455780029296875" lon="13.1086928956210613250732421875">
        <ele>622</ele>
        <time>2021-05-21T09:21:15.000Z</time>
        <extensions>
          <ns3:TrackPointExtension>
            <ns3:atemp>18.0</ns3:atemp>
          </ns3:TrackPointExtension>
        </extensions>
      </trkpt>
      <trkpt lat="43.14710922539234161376953125" lon="13.10854160226881504058837890625">
        <ele>622</ele>
        <time>2021-05-21T09:21:18.000Z</time>
        <extensions>
          <ns3:TrackPointExtension>
            <ns3:atemp>18.0</ns3:atemp>
          </ns3:TrackPointExtension>
        </extensions>
      </trkpt>
      <trkpt lat="43.14722782932221889495849609375" lon="13.10843246988952159881591796875">
        <ele>622</ele>
        <time>2021-05-21T09:21:20.000Z</time>
        <extensions>
          <ns3:TrackPointExtension>
            <ns3:atemp>18.0</ns3:atemp>
          </ns3:TrackPointExtension>
        </extensions>
      </trkpt>
      <trkpt lat="43.1473608501255512237548828125" lon="13.10834580101072788238525390625">
        <ele>622</ele>
        <time>2021-05-21T09:21:22.000Z</time>
        <extensions>
          <ns3:TrackPointExtension>
            <ns3:atemp>18.0</ns3:atemp>
          </ns3:TrackPointExtension>
        </extensions>
      </trkpt>
      <trkpt lat="43.1474369578063488006591796875" lon="13.10831227339804172515869140625">
        <ele>622</ele>
        <time>2021-05-21T09:21:23.000Z</time>
        <extensions>
          <ns3:TrackPointExtension>
            <ns3:atemp>18.0</ns3:atemp>
          </ns3:TrackPointExtension>
        </extensions>
      </trkpt>
      <trkpt lat="43.1478815339505672454833984375" lon="13.1081785820424556732177734375">
        <ele>620.5999755859375</ele>
        <time>2021-05-21T09:21:29.000Z</time>
        <extensions>
          <ns3:TrackPointExtension>
            <ns3:atemp>18.0</ns3:atemp>
          </ns3:TrackPointExtension>
        </extensions>
      </trkpt>
      <trkpt lat="43.14799477346241474151611328125" lon="13.108184449374675750732421875">
        <ele>618.79998779296875</ele>
        <time>2021-05-21T09:21:31.000Z</time>
        <extensions>
          <ns3:TrackPointExtension>
            <ns3:atemp>18.0</ns3:atemp>
          </ns3:TrackPointExtension>
        </extensions>
      </trkpt>
      <trkpt lat="43.1480367667973041534423828125" lon="13.10821135528385639190673828125">
        <ele>617.5999755859375</ele>
        <time>2021-05-21T09:21:32.000Z</time>
        <extensions>
          <ns3:TrackPointExtension>
            <ns3:atemp>18.0</ns3:atemp>
          </ns3:TrackPointExtension>
        </extensions>
      </trkpt>
      <trkpt lat="43.148067779839038848876953125" lon="13.10825410299003124237060546875">
        <ele>616.5999755859375</ele>
        <time>2021-05-21T09:21:33.000Z</time>
        <extensions>
          <ns3:TrackPointExtension>
            <ns3:atemp>18.0</ns3:atemp>
          </ns3:TrackPointExtension>
        </extensions>
      </trkpt>
      <trkpt lat="43.1480917520821094512939453125" lon="13.10830959118902683258056640625">
        <ele>615.5999755859375</ele>
        <time>2021-05-21T09:21:34.000Z</time>
        <extensions>
          <ns3:TrackPointExtension>
            <ns3:atemp>18.0</ns3:atemp>
          </ns3:TrackPointExtension>
        </extensions>
      </trkpt>
      <trkpt lat="43.1481323204934597015380859375" lon="13.108443282544612884521484375">
        <ele>614.79998779296875</ele>
        <time>2021-05-21T09:21:36.000Z</time>
        <extensions>
          <ns3:TrackPointExtension>
            <ns3:atemp>18.0</ns3:atemp>
          </ns3:TrackPointExtension>
        </extensions>
      </trkpt>
      <trkpt lat="43.14815084449946880340576171875" lon="13.10851427726447582244873046875">
        <ele>614.79998779296875</ele>
        <time>2021-05-21T09:21:37.000Z</time>
        <extensions>
          <ns3:TrackPointExtension>
            <ns3:atemp>18.0</ns3:atemp>
          </ns3:TrackPointExtension>
        </extensions>
      </trkpt>
      <trkpt lat="43.14816911704838275909423828125" lon="13.10858166776597499847412109375">
        <ele>614.5999755859375</ele>
        <time>2021-05-21T09:21:38.000Z</time>
        <extensions>
          <ns3:TrackPointExtension>
            <ns3:atemp>18.0</ns3:atemp>
          </ns3:TrackPointExtension>
        </extensions>
      </trkpt>
      <trkpt lat="43.14819208346307277679443359375" lon="13.10863967053592205047607421875">
        <ele>614.5999755859375</ele>
        <time>2021-05-21T09:21:39.000Z</time>
        <extensions>
          <ns3:TrackPointExtension>
            <ns3:atemp>18.0</ns3:atemp>
          </ns3:TrackPointExtension>
        </extensions>
      </trkpt>
      <trkpt lat="43.14827070571482181549072265625" lon="13.10869616456329822540283203125">
        <ele>614.4000244140625</ele>
        <time>2021-05-21T09:21:41.000Z</time>
        <extensions>
          <ns3:TrackPointExtension>
            <ns3:atemp>18.0</ns3:atemp>
          </ns3:TrackPointExtension>
        </extensions>
      </trkpt>
      <trkpt lat="43.148368187248706817626953125" lon="13.10860496945679187774658203125">
        <ele>613.5999755859375</ele>
        <time>2021-05-21T09:21:44.000Z</time>
        <extensions>
          <ns3:TrackPointExtension>
            <ns3:atemp>18.0</ns3:atemp>
          </ns3:TrackPointExtension>
        </extensions>
      </trkpt>
      <trkpt lat="43.1483938358724117279052734375" lon="13.10856507159769535064697265625">
        <ele>612.79998779296875</ele>
        <time>2021-05-21T09:21:45.000Z</time>
        <extensions>
          <ns3:TrackPointExtension>
            <ns3:atemp>18.0</ns3:atemp>
          </ns3:TrackPointExtension>
        </extensions>
      </trkpt>
      <trkpt lat="43.14851361326873302459716796875" lon="13.10838871635496616363525390625">
        <ele>612.5999755859375</ele>
        <time>2021-05-21T09:21:50.000Z</time>
        <extensions>
          <ns3:TrackPointExtension>
            <ns3:atemp>18.0</ns3:atemp>
          </ns3:TrackPointExtension>
        </extensions>
      </trkpt>
      <trkpt lat="43.14870941452682018280029296875" lon="13.10822091065347194671630859375">
        <ele>613.20001220703125</ele>
        <time>2021-05-21T09:21:56.000Z</time>
        <extensions>
          <ns3:TrackPointExtension>
            <ns3:atemp>18.0</ns3:atemp>
          </ns3:TrackPointExtension>
        </extensions>
      </trkpt>
      <trkpt lat="43.1488005258142948150634765625" lon="13.1081688590347766876220703125">
        <ele>614.4000244140625</ele>
        <time>2021-05-21T09:21:58.000Z</time>
        <extensions>
          <ns3:TrackPointExtension>
            <ns3:atemp>18.0</ns3:atemp>
          </ns3:TrackPointExtension>
        </extensions>
      </trkpt>
      <trkpt lat="43.14894930459558963775634765625" lon="13.1080961041152477264404296875">
        <ele>615.5999755859375</ele>
        <time>2021-05-21T09:22:01.000Z</time>
        <extensions>
          <ns3:TrackPointExtension>
            <ns3:atemp>18.0</ns3:atemp>
          </ns3:TrackPointExtension>
        </extensions>
      </trkpt>
      <trkpt lat="43.1490030325949192047119140625" lon="13.1080716289579868316650390625">
        <ele>616.20001220703125</ele>
        <time>2021-05-21T09:22:02.000Z</time>
        <extensions>
          <ns3:TrackPointExtension>
            <ns3:atemp>18.0</ns3:atemp>
          </ns3:TrackPointExtension>
        </extensions>
      </trkpt>
      <trkpt lat="43.149113170802593231201171875" lon="13.1080183200538158416748046875">
        <ele>616.79998779296875</ele>
        <time>2021-05-21T09:22:04.000Z</time>
        <extensions>
          <ns3:TrackPointExtension>
            <ns3:atemp>18.0</ns3:atemp>
          </ns3:TrackPointExtension>
        </extensions>
      </trkpt>
      <trkpt lat="43.1493805535137653350830078125" lon="13.1078801862895488739013671875">
        <ele>617.4000244140625</ele>
        <time>2021-05-21T09:22:09.000Z</time>
        <extensions>
          <ns3:TrackPointExtension>
            <ns3:atemp>18.0</ns3:atemp>
          </ns3:TrackPointExtension>
        </extensions>
      </trkpt>
      <trkpt lat="43.14959940500557422637939453125" lon="13.107803575694561004638671875">
        <ele>618</ele>
        <time>2021-05-21T09:22:14.000Z</time>
        <extensions>
          <ns3:TrackPointExtension>
            <ns3:atemp>18.0</ns3:atemp>
          </ns3:TrackPointExtension>
        </extensions>
      </trkpt>
      <trkpt lat="43.14963527955114841461181640625" lon="13.10779024846851825714111328125">
        <ele>618.20001220703125</ele>
        <time>2021-05-21T09:22:15.000Z</time>
        <extensions>
          <ns3:TrackPointExtension>
            <ns3:atemp>18.0</ns3:atemp>
          </ns3:TrackPointExtension>
        </extensions>
      </trkpt>
      <trkpt lat="43.14973904751241207122802734375" lon="13.1077641807496547698974609375">
        <ele>619.20001220703125</ele>
        <time>2021-05-21T09:22:18.000Z</time>
        <extensions>
          <ns3:TrackPointExtension>
            <ns3:atemp>18.0</ns3:atemp>
          </ns3:TrackPointExtension>
        </extensions>
      </trkpt>
      <trkpt lat="43.1498516164720058441162109375" lon="13.107739873230457305908203125">
        <ele>620.79998779296875</ele>
        <time>2021-05-21T09:22:21.000Z</time>
        <extensions>
          <ns3:TrackPointExtension>
            <ns3:atemp>18.0</ns3:atemp>
          </ns3:TrackPointExtension>
        </extensions>
      </trkpt>
      <trkpt lat="43.149928562343120574951171875" lon="13.1077179126441478729248046875">
        <ele>622</ele>
        <time>2021-05-21T09:22:23.000Z</time>
        <extensions>
          <ns3:TrackPointExtension>
            <ns3:atemp>18.0</ns3:atemp>
          </ns3:TrackPointExtension>
        </extensions>
      </trkpt>
      <trkpt lat="43.15000542439520359039306640625" lon="13.10769201256334781646728515625">
        <ele>623.4000244140625</ele>
        <time>2021-05-21T09:22:25.000Z</time>
        <extensions>
          <ns3:TrackPointExtension>
            <ns3:atemp>18.0</ns3:atemp>
          </ns3:TrackPointExtension>
        </extensions>
      </trkpt>
      <trkpt lat="43.15012260340154170989990234375" lon="13.107644654810428619384765625">
        <ele>624.79998779296875</ele>
        <time>2021-05-21T09:22:28.000Z</time>
        <extensions>
          <ns3:TrackPointExtension>
            <ns3:atemp>18.0</ns3:atemp>
          </ns3:TrackPointExtension>
        </extensions>
      </trkpt>
      <trkpt lat="43.1501661054790019989013671875" lon="13.10763032175600528717041015625">
        <ele>625.20001220703125</ele>
        <time>2021-05-21T09:22:29.000Z</time>
        <extensions>
          <ns3:TrackPointExtension>
            <ns3:atemp>18.0</ns3:atemp>
          </ns3:TrackPointExtension>
        </extensions>
      </trkpt>
      <trkpt lat="43.1502569653093814849853515625" lon="13.1076025776565074920654296875">
        <ele>626</ele>
        <time>2021-05-21T09:22:31.000Z</time>
        <extensions>
          <ns3:TrackPointExtension>
            <ns3:atemp>18.0</ns3:atemp>
          </ns3:TrackPointExtension>
        </extensions>
      </trkpt>
      <trkpt lat="43.15034338273108005523681640625" lon="13.10756209306418895721435546875">
        <ele>627</ele>
        <time>2021-05-21T09:22:33.000Z</time>
        <extensions>
          <ns3:TrackPointExtension>
            <ns3:atemp>18.0</ns3:atemp>
          </ns3:TrackPointExtension>
        </extensions>
      </trkpt>
      <trkpt lat="43.15038143657147884368896484375" lon="13.10752890072762966156005859375">
        <ele>627.4000244140625</ele>
        <time>2021-05-21T09:22:34.000Z</time>
        <extensions>
          <ns3:TrackPointExtension>
            <ns3:atemp>18.0</ns3:atemp>
          </ns3:TrackPointExtension>
        </extensions>
      </trkpt>
      <trkpt lat="43.1504170596599578857421875" lon="13.10748699121177196502685546875">
        <ele>627.79998779296875</ele>
        <time>2021-05-21T09:22:35.000Z</time>
        <extensions>
          <ns3:TrackPointExtension>
            <ns3:atemp>18.0</ns3:atemp>
          </ns3:TrackPointExtension>
        </extensions>
      </trkpt>
      <trkpt lat="43.1504816003143787384033203125" lon="13.1073937006294727325439453125">
        <ele>628.4000244140625</ele>
        <time>2021-05-21T09:22:37.000Z</time>
        <extensions>
          <ns3:TrackPointExtension>
            <ns3:atemp>18.0</ns3:atemp>
          </ns3:TrackPointExtension>
        </extensions>
      </trkpt>
      <trkpt lat="43.1505134515464305877685546875" lon="13.10734751634299755096435546875">
        <ele>628.5999755859375</ele>
        <time>2021-05-21T09:22:38.000Z</time>
        <extensions>
          <ns3:TrackPointExtension>
            <ns3:atemp>18.0</ns3:atemp>
          </ns3:TrackPointExtension>
        </extensions>
      </trkpt>
      <trkpt lat="43.15065066330134868621826171875" lon="13.10715540312230587005615234375">
        <ele>629.79998779296875</ele>
        <time>2021-05-21T09:22:42.000Z</time>
        <extensions>
          <ns3:TrackPointExtension>
            <ns3:atemp>18.0</ns3:atemp>
          </ns3:TrackPointExtension>
        </extensions>
      </trkpt>
      <trkpt lat="43.15079885534942150115966796875" lon="13.1069615297019481658935546875">
        <ele>630.79998779296875</ele>
        <time>2021-05-21T09:22:46.000Z</time>
        <extensions>
          <ns3:TrackPointExtension>
            <ns3:atemp>18.0</ns3:atemp>
          </ns3:TrackPointExtension>
        </extensions>
      </trkpt>
      <trkpt lat="43.15090932883322238922119140625" lon="13.1068277545273303985595703125">
        <ele>631.5999755859375</ele>
        <time>2021-05-21T09:22:49.000Z</time>
        <extensions>
          <ns3:TrackPointExtension>
            <ns3:atemp>18.0</ns3:atemp>
          </ns3:TrackPointExtension>
        </extensions>
      </trkpt>
      <trkpt lat="43.1509808264672756195068359375" lon="13.106742762029170989990234375">
        <ele>632</ele>
        <time>2021-05-21T09:22:51.000Z</time>
        <extensions>
          <ns3:TrackPointExtension>
            <ns3:atemp>18.0</ns3:atemp>
          </ns3:TrackPointExtension>
        </extensions>
      </trkpt>
      <trkpt lat="43.1511310301721096038818359375" lon="13.106550984084606170654296875">
        <ele>632.5999755859375</ele>
        <time>2021-05-21T09:22:56.000Z</time>
        <extensions>
          <ns3:TrackPointExtension>
            <ns3:atemp>18.0</ns3:atemp>
          </ns3:TrackPointExtension>
        </extensions>
      </trkpt>
      <trkpt lat="43.15120873041450977325439453125" lon="13.10644042678177356719970703125">
        <ele>633.4000244140625</ele>
        <time>2021-05-21T09:22:59.000Z</time>
        <extensions>
          <ns3:TrackPointExtension>
            <ns3:atemp>18.0</ns3:atemp>
          </ns3:TrackPointExtension>
        </extensions>
      </trkpt>
      <trkpt lat="43.15124510787427425384521484375" lon="13.10635350644588470458984375">
        <ele>634.79998779296875</ele>
        <time>2021-05-21T09:23:01.000Z</time>
        <extensions>
          <ns3:TrackPointExtension>
            <ns3:atemp>18.0</ns3:atemp>
          </ns3:TrackPointExtension>
        </extensions>
      </trkpt>
      <trkpt lat="43.151252567768096923828125" lon="13.10630329884588718414306640625">
        <ele>635.4000244140625</ele>
        <time>2021-05-21T09:23:02.000Z</time>
        <extensions>
          <ns3:TrackPointExtension>
            <ns3:atemp>18.0</ns3:atemp>
          </ns3:TrackPointExtension>
        </extensions>
      </trkpt>
      <trkpt lat="43.15125726163387298583984375" lon="13.1062504090368747711181640625">
        <ele>636</ele>
        <time>2021-05-21T09:23:03.000Z</time>
        <extensions>
          <ns3:TrackPointExtension>
            <ns3:atemp>18.0</ns3:atemp>
          </ns3:TrackPointExtension>
        </extensions>
      </trkpt>
      <trkpt lat="43.15126388333737850189208984375" lon="13.10610481537878513336181640625">
        <ele>637.20001220703125</ele>
        <time>2021-05-21T09:23:06.000Z</time>
        <extensions>
          <ns3:TrackPointExtension>
            <ns3:atemp>18.0</ns3:atemp>
          </ns3:TrackPointExtension>
        </extensions>
      </trkpt>
      <trkpt lat="43.1512860953807830810546875" lon="13.10601965524256229400634765625">
        <ele>638.20001220703125</ele>
        <time>2021-05-21T09:23:08.000Z</time>
        <extensions>
          <ns3:TrackPointExtension>
            <ns3:atemp>18.0</ns3:atemp>
          </ns3:TrackPointExtension>
        </extensions>
      </trkpt>
      <trkpt lat="43.1513016857206821441650390625" lon="13.10598344542086124420166015625">
        <ele>638.79998779296875</ele>
        <time>2021-05-21T09:23:09.000Z</time>
        <extensions>
          <ns3:TrackPointExtension>
            <ns3:atemp>18.0</ns3:atemp>
          </ns3:TrackPointExtension>
        </extensions>
      </trkpt>
      <trkpt lat="43.151372261345386505126953125" lon="13.10585872270166873931884765625">
        <ele>639.79998779296875</ele>
        <time>2021-05-21T09:23:13.000Z</time>
        <extensions>
          <ns3:TrackPointExtension>
            <ns3:atemp>18.0</ns3:atemp>
          </ns3:TrackPointExtension>
        </extensions>
      </trkpt>
      <trkpt lat="43.1514247320592403411865234375" lon="13.10577859170734882354736328125">
        <ele>641.4000244140625</ele>
        <time>2021-05-21T09:23:16.000Z</time>
        <extensions>
          <ns3:TrackPointExtension>
            <ns3:atemp>18.0</ns3:atemp>
          </ns3:TrackPointExtension>
        </extensions>
      </trkpt>
      <trkpt lat="43.1514606066048145294189453125" lon="13.10572410933673381805419921875">
        <ele>643</ele>
        <time>2021-05-21T09:23:18.000Z</time>
        <extensions>
          <ns3:TrackPointExtension>
            <ns3:atemp>18.0</ns3:atemp>
          </ns3:TrackPointExtension>
        </extensions>
      </trkpt>
      <trkpt lat="43.1514793820679187774658203125" lon="13.10569904744625091552734375">
        <ele>643.5999755859375</ele>
        <time>2021-05-21T09:23:19.000Z</time>
        <extensions>
          <ns3:TrackPointExtension>
            <ns3:atemp>18.0</ns3:atemp>
          </ns3:TrackPointExtension>
        </extensions>
      </trkpt>
      <trkpt lat="43.15149723552167415618896484375" lon="13.10566929168999195098876953125">
        <ele>644.20001220703125</ele>
        <time>2021-05-21T09:23:20.000Z</time>
        <extensions>
          <ns3:TrackPointExtension>
            <ns3:atemp>18.0</ns3:atemp>
          </ns3:TrackPointExtension>
        </extensions>
      </trkpt>
      <trkpt lat="43.15152958966791629791259765625" lon="13.1056130491197109222412109375">
        <ele>645.20001220703125</ele>
        <time>2021-05-21T09:23:22.000Z</time>
        <extensions>
          <ns3:TrackPointExtension>
            <ns3:atemp>18.0</ns3:atemp>
          </ns3:TrackPointExtension>
        </extensions>
      </trkpt>
      <trkpt lat="43.1515596807003021240234375" lon="13.10556066222488880157470703125">
        <ele>646.5999755859375</ele>
        <time>2021-05-21T09:23:24.000Z</time>
        <extensions>
          <ns3:TrackPointExtension>
            <ns3:atemp>18.0</ns3:atemp>
          </ns3:TrackPointExtension>
        </extensions>
      </trkpt>
      <trkpt lat="43.1516195274889469146728515625" lon="13.10547483153641223907470703125">
        <ele>648</ele>
        <time>2021-05-21T09:23:27.000Z</time>
        <extensions>
          <ns3:TrackPointExtension>
            <ns3:atemp>18.0</ns3:atemp>
          </ns3:TrackPointExtension>
        </extensions>
      </trkpt>
      <trkpt lat="43.15168264321982860565185546875" lon="13.10539553873240947723388671875">
        <ele>649</ele>
        <time>2021-05-21T09:23:30.000Z</time>
        <extensions>
          <ns3:TrackPointExtension>
            <ns3:atemp>18.0</ns3:atemp>
          </ns3:TrackPointExtension>
        </extensions>
      </trkpt>
      <trkpt lat="43.1517626903951168060302734375" lon="13.10537324286997318267822265625">
        <ele>650.20001220703125</ele>
        <time>2021-05-21T09:23:33.000Z</time>
        <extensions>
          <ns3:TrackPointExtension>
            <ns3:atemp>18.0</ns3:atemp>
          </ns3:TrackPointExtension>
        </extensions>
      </trkpt>
      <trkpt lat="43.1517854891717433929443359375" lon="13.1053773500025272369384765625">
        <ele>650.4000244140625</ele>
        <time>2021-05-21T09:23:34.000Z</time>
        <extensions>
          <ns3:TrackPointExtension>
            <ns3:atemp>18.0</ns3:atemp>
          </ns3:TrackPointExtension>
        </extensions>
      </trkpt>
      <trkpt lat="43.1518579088151454925537109375" lon="13.105382882058620452880859375">
        <ele>651.4000244140625</ele>
        <time>2021-05-21T09:23:37.000Z</time>
        <extensions>
          <ns3:TrackPointExtension>
            <ns3:atemp>18.0</ns3:atemp>
          </ns3:TrackPointExtension>
        </extensions>
      </trkpt>
      <trkpt lat="43.15196427516639232635498046875" lon="13.1053786911070346832275390625">
        <ele>653</ele>
        <time>2021-05-21T09:23:41.000Z</time>
        <extensions>
          <ns3:TrackPointExtension>
            <ns3:atemp>18.0</ns3:atemp>
          </ns3:TrackPointExtension>
        </extensions>
      </trkpt>
      <trkpt lat="43.1520478427410125732421875" lon="13.1053773500025272369384765625">
        <ele>654.4000244140625</ele>
        <time>2021-05-21T09:23:44.000Z</time>
        <extensions>
          <ns3:TrackPointExtension>
            <ns3:atemp>18.0</ns3:atemp>
          </ns3:TrackPointExtension>
        </extensions>
      </trkpt>
      <trkpt lat="43.15214767120778560638427734375" lon="13.10535597614943981170654296875">
        <ele>655.79998779296875</ele>
        <time>2021-05-21T09:23:47.000Z</time>
        <extensions>
          <ns3:TrackPointExtension>
            <ns3:atemp>18.0</ns3:atemp>
          </ns3:TrackPointExtension>
        </extensions>
      </trkpt>
      <trkpt lat="43.15234431065618991851806640625" lon="13.10524432919919490814208984375">
        <ele>657</ele>
        <time>2021-05-21T09:23:52.000Z</time>
        <extensions>
          <ns3:TrackPointExtension>
            <ns3:atemp>18.0</ns3:atemp>
          </ns3:TrackPointExtension>
        </extensions>
      </trkpt>
      <trkpt lat="43.1526260264217853546142578125" lon="13.10503997839987277984619140625">
        <ele>657.20001220703125</ele>
        <time>2021-05-21T09:23:58.000Z</time>
        <extensions>
          <ns3:TrackPointExtension>
            <ns3:atemp>18.0</ns3:atemp>
          </ns3:TrackPointExtension>
        </extensions>
      </trkpt>
      <trkpt lat="43.15273473970592021942138671875" lon="13.10497761704027652740478515625">
        <ele>658.20001220703125</ele>
        <time>2021-05-21T09:24:01.000Z</time>
        <extensions>
          <ns3:TrackPointExtension>
            <ns3:atemp>18.0</ns3:atemp>
          </ns3:TrackPointExtension>
        </extensions>
      </trkpt>
      <trkpt lat="43.15280020236968994140625" lon="13.10493193566799163818359375">
        <ele>658.79998779296875</ele>
        <time>2021-05-21T09:24:03.000Z</time>
        <extensions>
          <ns3:TrackPointExtension>
            <ns3:atemp>18.0</ns3:atemp>
          </ns3:TrackPointExtension>
        </extensions>
      </trkpt>
      <trkpt lat="43.15285963006317615509033203125" lon="13.10488558374345302581787109375">
        <ele>659.4000244140625</ele>
        <time>2021-05-21T09:24:05.000Z</time>
        <extensions>
          <ns3:TrackPointExtension>
            <ns3:atemp>18.0</ns3:atemp>
          </ns3:TrackPointExtension>
        </extensions>
      </trkpt>
      <trkpt lat="43.152961470186710357666015625" lon="13.104819953441619873046875">
        <ele>660.79998779296875</ele>
        <time>2021-05-21T09:24:08.000Z</time>
        <extensions>
          <ns3:TrackPointExtension>
            <ns3:atemp>18.0</ns3:atemp>
          </ns3:TrackPointExtension>
        </extensions>
      </trkpt>
      <trkpt lat="43.15302307717502117156982421875" lon="13.1047778762876987457275390625">
        <ele>662.20001220703125</ele>
        <time>2021-05-21T09:24:10.000Z</time>
        <extensions>
          <ns3:TrackPointExtension>
            <ns3:atemp>18.0</ns3:atemp>
          </ns3:TrackPointExtension>
        </extensions>
      </trkpt>
      <trkpt lat="43.153106309473514556884765625" lon="13.10470797121524810791015625">
        <ele>663.5999755859375</ele>
        <time>2021-05-21T09:24:13.000Z</time>
        <extensions>
          <ns3:TrackPointExtension>
            <ns3:atemp>18.0</ns3:atemp>
          </ns3:TrackPointExtension>
        </extensions>
      </trkpt>
      <trkpt lat="43.15317462198436260223388671875" lon="13.10462172143161296844482421875">
        <ele>665</ele>
        <time>2021-05-21T09:24:16.000Z</time>
        <extensions>
          <ns3:TrackPointExtension>
            <ns3:atemp>18.0</ns3:atemp>
          </ns3:TrackPointExtension>
        </extensions>
      </trkpt>
      <trkpt lat="43.153204880654811859130859375" lon="13.104503788053989410400390625">
        <ele>666.4000244140625</ele>
        <time>2021-05-21T09:24:19.000Z</time>
        <extensions>
          <ns3:TrackPointExtension>
            <ns3:atemp>18.0</ns3:atemp>
          </ns3:TrackPointExtension>
        </extensions>
      </trkpt>
      <trkpt lat="43.1531973369419574737548828125" lon="13.10446715913712978363037109375">
        <ele>666.79998779296875</ele>
        <time>2021-05-21T09:24:20.000Z</time>
        <extensions>
          <ns3:TrackPointExtension>
            <ns3:atemp>18.0</ns3:atemp>
          </ns3:TrackPointExtension>
        </extensions>
      </trkpt>
      <trkpt lat="43.15317160449922084808349609375" lon="13.1044055521488189697265625">
        <ele>667.5999755859375</ele>
        <time>2021-05-21T09:24:22.000Z</time>
        <extensions>
          <ns3:TrackPointExtension>
            <ns3:atemp>18.0</ns3:atemp>
          </ns3:TrackPointExtension>
        </extensions>
      </trkpt>
      <trkpt lat="43.15314352512359619140625" lon="13.10433112084865570068359375">
        <ele>669</ele>
        <time>2021-05-21T09:24:25.000Z</time>
        <extensions>
          <ns3:TrackPointExtension>
            <ns3:atemp>18.0</ns3:atemp>
          </ns3:TrackPointExtension>
        </extensions>
      </trkpt>
      <trkpt lat="43.1531175412237644195556640625" lon="13.10425962321460247039794921875">
        <ele>670.20001220703125</ele>
        <time>2021-05-21T09:24:28.000Z</time>
        <extensions>
          <ns3:TrackPointExtension>
            <ns3:atemp>18.0</ns3:atemp>
          </ns3:TrackPointExtension>
        </extensions>
      </trkpt>
      <trkpt lat="43.15308962948620319366455078125" lon="13.1041851080954074859619140625">
        <ele>671.5999755859375</ele>
        <time>2021-05-21T09:24:31.000Z</time>
        <extensions>
          <ns3:TrackPointExtension>
            <ns3:atemp>18.0</ns3:atemp>
          </ns3:TrackPointExtension>
        </extensions>
      </trkpt>
      <trkpt lat="43.15305626951158046722412109375" lon="13.1040828488767147064208984375">
        <ele>672.79998779296875</ele>
        <time>2021-05-21T09:24:35.000Z</time>
        <extensions>
          <ns3:TrackPointExtension>
            <ns3:atemp>18.0</ns3:atemp>
          </ns3:TrackPointExtension>
        </extensions>
      </trkpt>
      <trkpt lat="43.15305157564580440521240234375" lon="13.10405225493013858795166015625">
        <ele>673.20001220703125</ele>
        <time>2021-05-21T09:24:36.000Z</time>
        <extensions>
          <ns3:TrackPointExtension>
            <ns3:atemp>18.0</ns3:atemp>
          </ns3:TrackPointExtension>
        </extensions>
      </trkpt>
      <trkpt lat="43.1530404277145862579345703125" lon="13.10396826826035976409912109375">
        <ele>674.20001220703125</ele>
        <time>2021-05-21T09:24:39.000Z</time>
        <extensions>
          <ns3:TrackPointExtension>
            <ns3:atemp>18.0</ns3:atemp>
          </ns3:TrackPointExtension>
        </extensions>
      </trkpt>
      <trkpt lat="43.15302911214530467987060546875" lon="13.103915043175220489501953125">
        <ele>675.20001220703125</ele>
        <time>2021-05-21T09:24:41.000Z</time>
        <extensions>
          <ns3:TrackPointExtension>
            <ns3:atemp>18.0</ns3:atemp>
          </ns3:TrackPointExtension>
        </extensions>
      </trkpt>
      <trkpt lat="43.15302777104079723358154296875" lon="13.10388796962797641754150390625">
        <ele>675.79998779296875</ele>
        <time>2021-05-21T09:24:42.000Z</time>
        <extensions>
          <ns3:TrackPointExtension>
            <ns3:atemp>18.0</ns3:atemp>
          </ns3:TrackPointExtension>
        </extensions>
      </trkpt>
      <trkpt lat="43.15303397364914417266845703125" lon="13.10386114753782749176025390625">
        <ele>676.4000244140625</ele>
        <time>2021-05-21T09:24:43.000Z</time>
        <extensions>
          <ns3:TrackPointExtension>
            <ns3:atemp>18.0</ns3:atemp>
          </ns3:TrackPointExtension>
        </extensions>
      </trkpt>
      <trkpt lat="43.15303799696266651153564453125" lon="13.10380934737622737884521484375">
        <ele>677.4000244140625</ele>
        <time>2021-05-21T09:24:45.000Z</time>
        <extensions>
          <ns3:TrackPointExtension>
            <ns3:atemp>18.0</ns3:atemp>
          </ns3:TrackPointExtension>
        </extensions>
      </trkpt>
      <trkpt lat="43.15304285846650600433349609375" lon="13.1037878058850765228271484375">
        <ele>678</ele>
        <time>2021-05-21T09:24:46.000Z</time>
        <extensions>
          <ns3:TrackPointExtension>
            <ns3:atemp>18.0</ns3:atemp>
          </ns3:TrackPointExtension>
        </extensions>
      </trkpt>
      <trkpt lat="43.15305777825415134429931640625" lon="13.1037579663097858428955078125">
        <ele>678.79998779296875</ele>
        <time>2021-05-21T09:24:48.000Z</time>
        <extensions>
          <ns3:TrackPointExtension>
            <ns3:atemp>18.0</ns3:atemp>
          </ns3:TrackPointExtension>
        </extensions>
      </trkpt>
      <trkpt lat="43.1530699320137500762939453125" lon="13.1037321500480175018310546875">
        <ele>680</ele>
        <time>2021-05-21T09:24:50.000Z</time>
        <extensions>
          <ns3:TrackPointExtension>
            <ns3:atemp>18.0</ns3:atemp>
          </ns3:TrackPointExtension>
        </extensions>
      </trkpt>
      <trkpt lat="43.153068758547306060791015625" lon="13.10372368432581424713134765625">
        <ele>681</ele>
        <time>2021-05-21T09:24:53.000Z</time>
        <extensions>
          <ns3:TrackPointExtension>
            <ns3:atemp>18.0</ns3:atemp>
          </ns3:TrackPointExtension>
        </extensions>
      </trkpt>
      <trkpt lat="43.15307085402309894561767578125" lon="13.10371949337422847747802734375">
        <ele>681.5999755859375</ele>
        <time>2021-05-21T09:25:05.000Z</time>
        <extensions>
          <ns3:TrackPointExtension>
            <ns3:atemp>17.0</ns3:atemp>
          </ns3:TrackPointExtension>
        </extensions>
      </trkpt>
      <trkpt lat="43.1530776433646678924560546875" lon="13.10371555387973785400390625">
        <ele>681.4000244140625</ele>
        <time>2021-05-21T09:25:13.000Z</time>
        <extensions>
          <ns3:TrackPointExtension>
            <ns3:atemp>17.0</ns3:atemp>
          </ns3:TrackPointExtension>
        </extensions>
      </trkpt>
      <trkpt lat="43.15308242104947566986083984375" lon="13.10371345840394496917724609375">
        <ele>681.4000244140625</ele>
        <time>2021-05-21T09:25:23.000Z</time>
        <extensions>
          <ns3:TrackPointExtension>
            <ns3:atemp>17.0</ns3:atemp>
          </ns3:TrackPointExtension>
        </extensions>
      </trkpt>
      <trkpt lat="43.1530850194394588470458984375" lon="13.1037135422229766845703125">
        <ele>681.4000244140625</ele>
        <time>2021-05-21T09:25:45.000Z</time>
        <extensions>
          <ns3:TrackPointExtension>
            <ns3:atemp>17.0</ns3:atemp>
          </ns3:TrackPointExtension>
        </extensions>
      </trkpt>
      <trkpt lat="43.1530880369246006011962890625" lon="13.10371345840394496917724609375">
        <ele>681</ele>
        <time>2021-05-21T09:26:10.000Z</time>
        <extensions>
          <ns3:TrackPointExtension>
            <ns3:atemp>17.0</ns3:atemp>
          </ns3:TrackPointExtension>
        </extensions>
      </trkpt>
      <trkpt lat="43.15309415571391582489013671875" lon="13.103712536394596099853515625">
        <ele>681.20001220703125</ele>
        <time>2021-05-21T09:26:27.000Z</time>
        <extensions>
          <ns3:TrackPointExtension>
            <ns3:atemp>17.0</ns3:atemp>
          </ns3:TrackPointExtension>
        </extensions>
      </trkpt>
      <trkpt lat="43.15310488454997539520263671875" lon="13.1037108600139617919921875">
        <ele>681</ele>
        <time>2021-05-21T09:26:38.000Z</time>
        <extensions>
          <ns3:TrackPointExtension>
            <ns3:atemp>17.0</ns3:atemp>
          </ns3:TrackPointExtension>
        </extensions>
      </trkpt>
      <trkpt lat="43.153116367757320404052734375" lon="13.10370390303432941436767578125">
        <ele>681</ele>
        <time>2021-05-21T09:26:55.000Z</time>
        <extensions>
          <ns3:TrackPointExtension>
            <ns3:atemp>17.0</ns3:atemp>
          </ns3:TrackPointExtension>
        </extensions>
      </trkpt>
      <trkpt lat="43.153126426041126251220703125" lon="13.10370189137756824493408203125">
        <ele>680.79998779296875</ele>
        <time>2021-05-21T09:27:08.000Z</time>
        <extensions>
          <ns3:TrackPointExtension>
            <ns3:atemp>17.0</ns3:atemp>
          </ns3:TrackPointExtension>
        </extensions>
      </trkpt>
      <trkpt lat="43.15312734805047512054443359375" lon="13.10369987972080707550048828125">
        <ele>680.79998779296875</ele>
        <time>2021-05-21T09:27:24.000Z</time>
        <extensions>
          <ns3:TrackPointExtension>
            <ns3:atemp>17.0</ns3:atemp>
          </ns3:TrackPointExtension>
        </extensions>
      </trkpt>
      <trkpt lat="43.15312768332660198211669921875" lon="13.10369904153048992156982421875">
        <ele>681</ele>
        <time>2021-05-21T09:27:35.000Z</time>
        <extensions>
          <ns3:TrackPointExtension>
            <ns3:atemp>17.0</ns3:atemp>
          </ns3:TrackPointExtension>
        </extensions>
      </trkpt>
      <trkpt lat="43.15313606522977352142333984375" lon="13.10365210287272930145263671875">
        <ele>680.79998779296875</ele>
        <time>2021-05-21T09:27:59.000Z</time>
        <extensions>
          <ns3:TrackPointExtension>
            <ns3:atemp>17.0</ns3:atemp>
          </ns3:TrackPointExtension>
        </extensions>
      </trkpt>
      <trkpt lat="43.15313690342009067535400390625" lon="13.103630729019641876220703125">
        <ele>680.79998779296875</ele>
        <time>2021-05-21T09:28:00.000Z</time>
        <extensions>
          <ns3:TrackPointExtension>
            <ns3:atemp>17.0</ns3:atemp>
          </ns3:TrackPointExtension>
        </extensions>
      </trkpt>
      <trkpt lat="43.15315500833094120025634765625" lon="13.1034816987812519073486328125">
        <ele>680.5999755859375</ele>
        <time>2021-05-21T09:28:04.000Z</time>
        <extensions>
          <ns3:TrackPointExtension>
            <ns3:atemp>17.0</ns3:atemp>
          </ns3:TrackPointExtension>
        </extensions>
      </trkpt>
      <trkpt lat="43.15321988426148891448974609375" lon="13.103418163955211639404296875">
        <ele>680.5999755859375</ele>
        <time>2021-05-21T09:28:06.000Z</time>
        <extensions>
          <ns3:TrackPointExtension>
            <ns3:atemp>17.0</ns3:atemp>
          </ns3:TrackPointExtension>
        </extensions>
      </trkpt>
      <trkpt lat="43.15330320037901401519775390625" lon="13.10330207459628582000732421875">
        <ele>680.5999755859375</ele>
        <time>2021-05-21T09:28:09.000Z</time>
        <extensions>
          <ns3:TrackPointExtension>
            <ns3:atemp>17.0</ns3:atemp>
          </ns3:TrackPointExtension>
        </extensions>
      </trkpt>
      <trkpt lat="43.1534373946487903594970703125" lon="13.103135861456394195556640625">
        <ele>680</ele>
        <time>2021-05-21T09:28:14.000Z</time>
        <extensions>
          <ns3:TrackPointExtension>
            <ns3:atemp>17.0</ns3:atemp>
          </ns3:TrackPointExtension>
        </extensions>
      </trkpt>
      <trkpt lat="43.15349648706614971160888671875" lon="13.103041984140872955322265625">
        <ele>679.79998779296875</ele>
        <time>2021-05-21T09:28:16.000Z</time>
        <extensions>
          <ns3:TrackPointExtension>
            <ns3:atemp>17.0</ns3:atemp>
          </ns3:TrackPointExtension>
        </extensions>
      </trkpt>
      <trkpt lat="43.153592459857463836669921875" lon="13.10286152176558971405029296875">
        <ele>679.79998779296875</ele>
        <time>2021-05-21T09:28:20.000Z</time>
        <extensions>
          <ns3:TrackPointExtension>
            <ns3:atemp>17.0</ns3:atemp>
          </ns3:TrackPointExtension>
        </extensions>
      </trkpt>
      <trkpt lat="43.15368734300136566162109375" lon="13.10272204689681529998779296875">
        <ele>679.79998779296875</ele>
        <time>2021-05-21T09:28:24.000Z</time>
        <extensions>
          <ns3:TrackPointExtension>
            <ns3:atemp>17.0</ns3:atemp>
          </ns3:TrackPointExtension>
        </extensions>
      </trkpt>
      <trkpt lat="43.15371978096663951873779296875" lon="13.10263931751251220703125">
        <ele>680</ele>
        <time>2021-05-21T09:28:26.000Z</time>
        <extensions>
          <ns3:TrackPointExtension>
            <ns3:atemp>17.0</ns3:atemp>
          </ns3:TrackPointExtension>
        </extensions>
      </trkpt>
      <trkpt lat="43.15375305712223052978515625" lon="13.10244913212954998016357421875">
        <ele>680.79998779296875</ele>
        <time>2021-05-21T09:28:30.000Z</time>
        <extensions>
          <ns3:TrackPointExtension>
            <ns3:atemp>17.0</ns3:atemp>
          </ns3:TrackPointExtension>
        </extensions>
      </trkpt>
      <trkpt lat="43.15374811179935932159423828125" lon="13.10224427841603755950927734375">
        <ele>682</ele>
        <time>2021-05-21T09:28:34.000Z</time>
        <extensions>
          <ns3:TrackPointExtension>
            <ns3:atemp>17.0</ns3:atemp>
          </ns3:TrackPointExtension>
        </extensions>
      </trkpt>
      <trkpt lat="43.15374291501939296722412109375" lon="13.1021523289382457733154296875">
        <ele>682.5999755859375</ele>
        <time>2021-05-21T09:28:36.000Z</time>
        <extensions>
          <ns3:TrackPointExtension>
            <ns3:atemp>17.0</ns3:atemp>
          </ns3:TrackPointExtension>
        </extensions>
      </trkpt>
      <trkpt lat="43.1537247262895107269287109375" lon="13.10205769725143909454345703125">
        <ele>683.20001220703125</ele>
        <time>2021-05-21T09:28:38.000Z</time>
        <extensions>
          <ns3:TrackPointExtension>
            <ns3:atemp>17.0</ns3:atemp>
          </ns3:TrackPointExtension>
        </extensions>
      </trkpt>
      <trkpt lat="43.15369714982807636260986328125" lon="13.101914785802364349365234375">
        <ele>683.5999755859375</ele>
        <time>2021-05-21T09:28:41.000Z</time>
        <extensions>
          <ns3:TrackPointExtension>
            <ns3:atemp>17.0</ns3:atemp>
          </ns3:TrackPointExtension>
        </extensions>
      </trkpt>
      <trkpt lat="43.15367518924176692962646484375" lon="13.101729042828083038330078125">
        <ele>683.5999755859375</ele>
        <time>2021-05-21T09:28:45.000Z</time>
        <extensions>
          <ns3:TrackPointExtension>
            <ns3:atemp>17.0</ns3:atemp>
          </ns3:TrackPointExtension>
        </extensions>
      </trkpt>
      <trkpt lat="43.1535963155329227447509765625" lon="13.1014804355800151824951171875">
        <ele>683.5999755859375</ele>
        <time>2021-05-21T09:28:49.000Z</time>
        <extensions>
          <ns3:TrackPointExtension>
            <ns3:atemp>17.0</ns3:atemp>
          </ns3:TrackPointExtension>
        </extensions>
      </trkpt>
      <trkpt lat="43.15340596251189708709716796875" lon="13.101014234125614166259765625">
        <ele>682</ele>
        <time>2021-05-21T09:28:55.000Z</time>
        <extensions>
          <ns3:TrackPointExtension>
            <ns3:atemp>17.0</ns3:atemp>
          </ns3:TrackPointExtension>
        </extensions>
      </trkpt>
      <trkpt lat="43.1533420085906982421875" lon="13.1008677184581756591796875">
        <ele>680.79998779296875</ele>
        <time>2021-05-21T09:28:57.000Z</time>
        <extensions>
          <ns3:TrackPointExtension>
            <ns3:atemp>17.0</ns3:atemp>
          </ns3:TrackPointExtension>
        </extensions>
      </trkpt>
      <trkpt lat="43.15330387093126773834228515625" lon="13.1007958017289638519287109375">
        <ele>680</ele>
        <time>2021-05-21T09:28:58.000Z</time>
        <extensions>
          <ns3:TrackPointExtension>
            <ns3:atemp>17.0</ns3:atemp>
          </ns3:TrackPointExtension>
        </extensions>
      </trkpt>
      <trkpt lat="43.1532664038240909576416015625" lon="13.10072396881878376007080078125">
        <ele>679.4000244140625</ele>
        <time>2021-05-21T09:28:59.000Z</time>
        <extensions>
          <ns3:TrackPointExtension>
            <ns3:atemp>17.0</ns3:atemp>
          </ns3:TrackPointExtension>
        </extensions>
      </trkpt>
      <trkpt lat="43.1532003544270992279052734375" lon="13.10057627968490123748779296875">
        <ele>678.4000244140625</ele>
        <time>2021-05-21T09:29:01.000Z</time>
        <extensions>
          <ns3:TrackPointExtension>
            <ns3:atemp>17.0</ns3:atemp>
          </ns3:TrackPointExtension>
        </extensions>
      </trkpt>
      <trkpt lat="43.15317059867084026336669921875" lon="13.1004987470805644989013671875">
        <ele>678.20001220703125</ele>
        <time>2021-05-21T09:29:02.000Z</time>
        <extensions>
          <ns3:TrackPointExtension>
            <ns3:atemp>17.0</ns3:atemp>
          </ns3:TrackPointExtension>
        </extensions>
      </trkpt>
      <trkpt lat="43.15299843437969684600830078125" lon="13.10010689310729503631591796875">
        <ele>677.5999755859375</ele>
        <time>2021-05-21T09:29:08.000Z</time>
        <extensions>
          <ns3:TrackPointExtension>
            <ns3:atemp>17.0</ns3:atemp>
          </ns3:TrackPointExtension>
        </extensions>
      </trkpt>
      <trkpt lat="43.15297253429889678955078125" lon="13.1000494770705699920654296875">
        <ele>677.5999755859375</ele>
        <time>2021-05-21T09:29:09.000Z</time>
        <extensions>
          <ns3:TrackPointExtension>
            <ns3:atemp>17.0</ns3:atemp>
          </ns3:TrackPointExtension>
        </extensions>
      </trkpt>
      <trkpt lat="43.15289047546684741973876953125" lon="13.09985711239278316497802734375">
        <ele>677.5999755859375</ele>
        <time>2021-05-21T09:29:13.000Z</time>
        <extensions>
          <ns3:TrackPointExtension>
            <ns3:atemp>17.0</ns3:atemp>
          </ns3:TrackPointExtension>
        </extensions>
      </trkpt>
      <trkpt lat="43.15279341302812099456787109375" lon="13.09967338107526302337646484375">
        <ele>678.4000244140625</ele>
        <time>2021-05-21T09:29:19.000Z</time>
        <extensions>
          <ns3:TrackPointExtension>
            <ns3:atemp>17.0</ns3:atemp>
          </ns3:TrackPointExtension>
        </extensions>
      </trkpt>
      <trkpt lat="43.15276474691927433013916015625" lon="13.09961604885756969451904296875">
        <ele>680</ele>
        <time>2021-05-21T09:29:21.000Z</time>
        <extensions>
          <ns3:TrackPointExtension>
            <ns3:atemp>17.0</ns3:atemp>
          </ns3:TrackPointExtension>
        </extensions>
      </trkpt>
      <trkpt lat="43.1527245976030826568603515625" lon="13.0995552800595760345458984375">
        <ele>681.79998779296875</ele>
        <time>2021-05-21T09:29:23.000Z</time>
        <extensions>
          <ns3:TrackPointExtension>
            <ns3:atemp>17.0</ns3:atemp>
          </ns3:TrackPointExtension>
        </extensions>
      </trkpt>
      <trkpt lat="43.1526900641620159149169921875" lon="13.09951177798211574554443359375">
        <ele>683</ele>
        <time>2021-05-21T09:29:25.000Z</time>
        <extensions>
          <ns3:TrackPointExtension>
            <ns3:atemp>17.0</ns3:atemp>
          </ns3:TrackPointExtension>
        </extensions>
      </trkpt>
      <trkpt lat="43.15268092788755893707275390625" lon="13.09949786402285099029541015625">
        <ele>683.5999755859375</ele>
        <time>2021-05-21T09:29:26.000Z</time>
        <extensions>
          <ns3:TrackPointExtension>
            <ns3:atemp>17.0</ns3:atemp>
          </ns3:TrackPointExtension>
        </extensions>
      </trkpt>
      <trkpt lat="43.15267078578472137451171875" lon="13.09948948211967945098876953125">
        <ele>684.20001220703125</ele>
        <time>2021-05-21T09:29:27.000Z</time>
        <extensions>
          <ns3:TrackPointExtension>
            <ns3:atemp>17.0</ns3:atemp>
          </ns3:TrackPointExtension>
        </extensions>
      </trkpt>
      <trkpt lat="43.15265259705483913421630859375" lon="13.09947757981717586517333984375">
        <ele>685.4000244140625</ele>
        <time>2021-05-21T09:29:29.000Z</time>
        <extensions>
          <ns3:TrackPointExtension>
            <ns3:atemp>17.0</ns3:atemp>
          </ns3:TrackPointExtension>
        </extensions>
      </trkpt>
      <trkpt lat="43.15262041054666042327880859375" lon="13.09946131892502307891845703125">
        <ele>686.5999755859375</ele>
        <time>2021-05-21T09:29:31.000Z</time>
        <extensions>
          <ns3:TrackPointExtension>
            <ns3:atemp>17.0</ns3:atemp>
          </ns3:TrackPointExtension>
        </extensions>
      </trkpt>
      <trkpt lat="43.15257447771728038787841796875" lon="13.09943784959614276885986328125">
        <ele>687.5999755859375</ele>
        <time>2021-05-21T09:29:33.000Z</time>
        <extensions>
          <ns3:TrackPointExtension>
            <ns3:atemp>17.0</ns3:atemp>
          </ns3:TrackPointExtension>
        </extensions>
      </trkpt>
      <trkpt lat="43.15242880024015903472900390625" lon="13.09941756539046764373779296875">
        <ele>687.79998779296875</ele>
        <time>2021-05-21T09:29:39.000Z</time>
        <extensions>
          <ns3:TrackPointExtension>
            <ns3:atemp>17.0</ns3:atemp>
          </ns3:TrackPointExtension>
        </extensions>
      </trkpt>
      <trkpt lat="43.15240985713899135589599609375" lon="13.09940180741250514984130859375">
        <ele>687.20001220703125</ele>
        <time>2021-05-21T09:29:46.000Z</time>
        <extensions>
          <ns3:TrackPointExtension>
            <ns3:atemp>17.0</ns3:atemp>
          </ns3:TrackPointExtension>
        </extensions>
      </trkpt>
      <trkpt lat="43.15240868367254734039306640625" lon="13.0994027294218540191650390625">
        <ele>687</ele>
        <time>2021-05-21T09:29:59.000Z</time>
        <extensions>
          <ns3:TrackPointExtension>
            <ns3:atemp>17.0</ns3:atemp>
          </ns3:TrackPointExtension>
        </extensions>
      </trkpt>
      <trkpt lat="43.15241019241511821746826171875" lon="13.09940029866993427276611328125">
        <ele>686.79998779296875</ele>
        <time>2021-05-21T09:30:17.000Z</time>
        <extensions>
          <ns3:TrackPointExtension>
            <ns3:atemp>17.0</ns3:atemp>
          </ns3:TrackPointExtension>
        </extensions>
      </trkpt>
      <trkpt lat="43.1524097733199596405029296875" lon="13.09940113686025142669677734375">
        <ele>686.79998779296875</ele>
        <time>2021-05-21T09:30:34.000Z</time>
        <extensions>
          <ns3:TrackPointExtension>
            <ns3:atemp>17.0</ns3:atemp>
          </ns3:TrackPointExtension>
        </extensions>
      </trkpt>
      <trkpt lat="43.1524104438722133636474609375" lon="13.09940122067928314208984375">
        <ele>686.5999755859375</ele>
        <time>2021-05-21T09:30:48.000Z</time>
        <extensions>
          <ns3:TrackPointExtension>
            <ns3:atemp>17.0</ns3:atemp>
          </ns3:TrackPointExtension>
        </extensions>
      </trkpt>
      <trkpt lat="43.15241270698606967926025390625" lon="13.0994040705263614654541015625">
        <ele>686.4000244140625</ele>
        <time>2021-05-21T09:31:02.000Z</time>
        <extensions>
          <ns3:TrackPointExtension>
            <ns3:atemp>18.0</ns3:atemp>
          </ns3:TrackPointExtension>
        </extensions>
      </trkpt>
      <trkpt lat="43.1524154730141162872314453125" lon="13.09940465725958347320556640625">
        <ele>686.4000244140625</ele>
        <time>2021-05-21T09:31:09.000Z</time>
        <extensions>
          <ns3:TrackPointExtension>
            <ns3:atemp>18.0</ns3:atemp>
          </ns3:TrackPointExtension>
        </extensions>
      </trkpt>
      <trkpt lat="43.1523293070495128631591796875" lon="13.09940733946859836578369140625">
        <ele>686.4000244140625</ele>
        <time>2021-05-21T09:31:17.000Z</time>
        <extensions>
          <ns3:TrackPointExtension>
            <ns3:atemp>18.0</ns3:atemp>
          </ns3:TrackPointExtension>
        </extensions>
      </trkpt>
      <trkpt lat="43.15213861875236034393310546875" lon="13.0994166433811187744140625">
        <ele>686.4000244140625</ele>
        <time>2021-05-21T09:31:21.000Z</time>
        <extensions>
          <ns3:TrackPointExtension>
            <ns3:atemp>18.0</ns3:atemp>
          </ns3:TrackPointExtension>
        </extensions>
      </trkpt>
      <trkpt lat="43.15206888131797313690185546875" lon="13.0994124524295330047607421875">
        <ele>686.20001220703125</ele>
        <time>2021-05-21T09:31:22.000Z</time>
        <extensions>
          <ns3:TrackPointExtension>
            <ns3:atemp>18.0</ns3:atemp>
          </ns3:TrackPointExtension>
        </extensions>
      </trkpt>
      <trkpt lat="43.15192923881113529205322265625" lon="13.09938370250165462493896484375">
        <ele>685.5999755859375</ele>
        <time>2021-05-21T09:31:24.000Z</time>
        <extensions>
          <ns3:TrackPointExtension>
            <ns3:atemp>18.0</ns3:atemp>
          </ns3:TrackPointExtension>
        </extensions>
      </trkpt>
      <trkpt lat="43.151869475841522216796875" lon="13.09935201890766620635986328125">
        <ele>685.20001220703125</ele>
        <time>2021-05-21T09:31:25.000Z</time>
        <extensions>
          <ns3:TrackPointExtension>
            <ns3:atemp>18.0</ns3:atemp>
          </ns3:TrackPointExtension>
        </extensions>
      </trkpt>
      <trkpt lat="43.1518166698515415191650390625" lon="13.09931480325758457183837890625">
        <ele>684.79998779296875</ele>
        <time>2021-05-21T09:31:26.000Z</time>
        <extensions>
          <ns3:TrackPointExtension>
            <ns3:atemp>18.0</ns3:atemp>
          </ns3:TrackPointExtension>
        </extensions>
      </trkpt>
      <trkpt lat="43.15172404982149600982666015625" lon="13.099224865436553955078125">
        <ele>682.79998779296875</ele>
        <time>2021-05-21T09:31:28.000Z</time>
        <extensions>
          <ns3:TrackPointExtension>
            <ns3:atemp>18.0</ns3:atemp>
          </ns3:TrackPointExtension>
        </extensions>
      </trkpt>
      <trkpt lat="43.15168105065822601318359375" lon="13.099184967577457427978515625">
        <ele>681.79998779296875</ele>
        <time>2021-05-21T09:31:29.000Z</time>
        <extensions>
          <ns3:TrackPointExtension>
            <ns3:atemp>18.0</ns3:atemp>
          </ns3:TrackPointExtension>
        </extensions>
      </trkpt>
      <trkpt lat="43.1516399793326854705810546875" lon="13.0991459079086780548095703125">
        <ele>680.4000244140625</ele>
        <time>2021-05-21T09:31:30.000Z</time>
        <extensions>
          <ns3:TrackPointExtension>
            <ns3:atemp>18.0</ns3:atemp>
          </ns3:TrackPointExtension>
        </extensions>
      </trkpt>
      <trkpt lat="43.151598237454891204833984375" lon="13.0991046689450740814208984375">
        <ele>679.4000244140625</ele>
        <time>2021-05-21T09:31:31.000Z</time>
        <extensions>
          <ns3:TrackPointExtension>
            <ns3:atemp>18.0</ns3:atemp>
          </ns3:TrackPointExtension>
        </extensions>
      </trkpt>
      <trkpt lat="43.15151031129062175750732421875" lon="13.0990089476108551025390625">
        <ele>678.4000244140625</ele>
        <time>2021-05-21T09:31:33.000Z</time>
        <extensions>
          <ns3:TrackPointExtension>
            <ns3:atemp>18.0</ns3:atemp>
          </ns3:TrackPointExtension>
        </extensions>
      </trkpt>
      <trkpt lat="43.15137703903019428253173828125" lon="13.0988480150699615478515625">
        <ele>677.4000244140625</ele>
        <time>2021-05-21T09:31:36.000Z</time>
        <extensions>
          <ns3:TrackPointExtension>
            <ns3:atemp>18.0</ns3:atemp>
          </ns3:TrackPointExtension>
        </extensions>
      </trkpt>
      <trkpt lat="43.15133881755173206329345703125" lon="13.09877668507397174835205078125">
        <ele>677</ele>
        <time>2021-05-21T09:31:37.000Z</time>
        <extensions>
          <ns3:TrackPointExtension>
            <ns3:atemp>18.0</ns3:atemp>
          </ns3:TrackPointExtension>
        </extensions>
      </trkpt>
      <trkpt lat="43.15127670764923095703125" lon="13.0986238829791545867919921875">
        <ele>675.5999755859375</ele>
        <time>2021-05-21T09:31:39.000Z</time>
        <extensions>
          <ns3:TrackPointExtension>
            <ns3:atemp>18.0</ns3:atemp>
          </ns3:TrackPointExtension>
        </extensions>
      </trkpt>
      <trkpt lat="43.15125063993036746978759765625" lon="13.0985484458506107330322265625">
        <ele>674.5999755859375</ele>
        <time>2021-05-21T09:31:40.000Z</time>
        <extensions>
          <ns3:TrackPointExtension>
            <ns3:atemp>18.0</ns3:atemp>
          </ns3:TrackPointExtension>
        </extensions>
      </trkpt>
      <trkpt lat="43.15122582949697971343994140625" lon="13.09847745113074779510498046875">
        <ele>674</ele>
        <time>2021-05-21T09:31:41.000Z</time>
        <extensions>
          <ns3:TrackPointExtension>
            <ns3:atemp>18.0</ns3:atemp>
          </ns3:TrackPointExtension>
        </extensions>
      </trkpt>
      <trkpt lat="43.151202611625194549560546875" lon="13.09840612113475799560546875">
        <ele>673.20001220703125</ele>
        <time>2021-05-21T09:31:42.000Z</time>
        <extensions>
          <ns3:TrackPointExtension>
            <ns3:atemp>18.0</ns3:atemp>
          </ns3:TrackPointExtension>
        </extensions>
      </trkpt>
      <trkpt lat="43.151171766221523284912109375" lon="13.09833244420588016510009765625">
        <ele>672.5999755859375</ele>
        <time>2021-05-21T09:31:43.000Z</time>
        <extensions>
          <ns3:TrackPointExtension>
            <ns3:atemp>18.0</ns3:atemp>
          </ns3:TrackPointExtension>
        </extensions>
      </trkpt>
      <trkpt lat="43.151089958846569061279296875" lon="13.0981722660362720489501953125">
        <ele>670.79998779296875</ele>
        <time>2021-05-21T09:31:45.000Z</time>
        <extensions>
          <ns3:TrackPointExtension>
            <ns3:atemp>18.0</ns3:atemp>
          </ns3:TrackPointExtension>
        </extensions>
      </trkpt>
      <trkpt lat="43.150968253612518310546875" lon="13.09802516363561153411865234375">
        <ele>669.20001220703125</ele>
        <time>2021-05-21T09:31:47.000Z</time>
        <extensions>
          <ns3:TrackPointExtension>
            <ns3:atemp>18.0</ns3:atemp>
          </ns3:TrackPointExtension>
        </extensions>
      </trkpt>
      <trkpt lat="43.150833137333393096923828125" lon="13.09792064130306243896484375">
        <ele>667.79998779296875</ele>
        <time>2021-05-21T09:31:49.000Z</time>
        <extensions>
          <ns3:TrackPointExtension>
            <ns3:atemp>18.0</ns3:atemp>
          </ns3:TrackPointExtension>
        </extensions>
      </trkpt>
      <trkpt lat="43.1507022120058536529541015625" lon="13.097843192517757415771484375">
        <ele>666.20001220703125</ele>
        <time>2021-05-21T09:31:51.000Z</time>
        <extensions>
          <ns3:TrackPointExtension>
            <ns3:atemp>18.0</ns3:atemp>
          </ns3:TrackPointExtension>
        </extensions>
      </trkpt>
      <trkpt lat="43.15064437687397003173828125" lon="13.09780924580991268157958984375">
        <ele>665.20001220703125</ele>
        <time>2021-05-21T09:31:52.000Z</time>
        <extensions>
          <ns3:TrackPointExtension>
            <ns3:atemp>18.0</ns3:atemp>
          </ns3:TrackPointExtension>
        </extensions>
      </trkpt>
      <trkpt lat="43.15059400163590908050537109375" lon="13.09777672402560710906982421875">
        <ele>664.20001220703125</ele>
        <time>2021-05-21T09:31:53.000Z</time>
        <extensions>
          <ns3:TrackPointExtension>
            <ns3:atemp>18.0</ns3:atemp>
          </ns3:TrackPointExtension>
        </extensions>
      </trkpt>
      <trkpt lat="43.15050917677581310272216796875" lon="13.09772307984530925750732421875">
        <ele>663</ele>
        <time>2021-05-21T09:31:55.000Z</time>
        <extensions>
          <ns3:TrackPointExtension>
            <ns3:atemp>18.0</ns3:atemp>
          </ns3:TrackPointExtension>
        </extensions>
      </trkpt>
      <trkpt lat="43.150389231741428375244140625" lon="13.09764437377452850341796875">
        <ele>662.79998779296875</ele>
        <time>2021-05-21T09:31:58.000Z</time>
        <extensions>
          <ns3:TrackPointExtension>
            <ns3:atemp>18.0</ns3:atemp>
          </ns3:TrackPointExtension>
        </extensions>
      </trkpt>
      <trkpt lat="43.1500977091491222381591796875" lon="13.09742568992078304290771484375">
        <ele>664</ele>
        <time>2021-05-21T09:32:05.000Z</time>
        <extensions>
          <ns3:TrackPointExtension>
            <ns3:atemp>18.0</ns3:atemp>
          </ns3:TrackPointExtension>
        </extensions>
      </trkpt>
      <trkpt lat="43.150068707764148712158203125" lon="13.09738495387136936187744140625">
        <ele>664.20001220703125</ele>
        <time>2021-05-21T09:32:06.000Z</time>
        <extensions>
          <ns3:TrackPointExtension>
            <ns3:atemp>18.0</ns3:atemp>
          </ns3:TrackPointExtension>
        </extensions>
      </trkpt>
      <trkpt lat="43.15001883544027805328369140625" lon="13.0972925014793872833251953125">
        <ele>664.4000244140625</ele>
        <time>2021-05-21T09:32:08.000Z</time>
        <extensions>
          <ns3:TrackPointExtension>
            <ns3:atemp>18.0</ns3:atemp>
          </ns3:TrackPointExtension>
        </extensions>
      </trkpt>
      <trkpt lat="43.14998866058886051177978515625" lon="13.097179345786571502685546875">
        <ele>664.4000244140625</ele>
        <time>2021-05-21T09:32:10.000Z</time>
        <extensions>
          <ns3:TrackPointExtension>
            <ns3:atemp>18.0</ns3:atemp>
          </ns3:TrackPointExtension>
        </extensions>
      </trkpt>
      <trkpt lat="43.14995664171874523162841796875" lon="13.09695060364902019500732421875">
        <ele>664.5999755859375</ele>
        <time>2021-05-21T09:32:13.000Z</time>
        <extensions>
          <ns3:TrackPointExtension>
            <ns3:atemp>18.0</ns3:atemp>
          </ns3:TrackPointExtension>
        </extensions>
      </trkpt>
      <trkpt lat="43.149956725537776947021484375" lon="13.096864856779575347900390625">
        <ele>664.5999755859375</ele>
        <time>2021-05-21T09:32:14.000Z</time>
        <extensions>
          <ns3:TrackPointExtension>
            <ns3:atemp>18.0</ns3:atemp>
          </ns3:TrackPointExtension>
        </extensions>
      </trkpt>
      <trkpt lat="43.14995680935680866241455078125" lon="13.0966323427855968475341796875">
        <ele>664.4000244140625</ele>
        <time>2021-05-21T09:32:17.000Z</time>
        <extensions>
          <ns3:TrackPointExtension>
            <ns3:atemp>18.0</ns3:atemp>
          </ns3:TrackPointExtension>
        </extensions>
      </trkpt>
      <trkpt lat="43.14994163811206817626953125" lon="13.09656151570379734039306640625">
        <ele>664.20001220703125</ele>
        <time>2021-05-21T09:32:18.000Z</time>
        <extensions>
          <ns3:TrackPointExtension>
            <ns3:atemp>18.0</ns3:atemp>
          </ns3:TrackPointExtension>
        </extensions>
      </trkpt>
      <trkpt lat="43.14987382851541042327880859375" lon="13.0964412353932857513427734375">
        <ele>662.79998779296875</ele>
        <time>2021-05-21T09:32:20.000Z</time>
        <extensions>
          <ns3:TrackPointExtension>
            <ns3:atemp>18.0</ns3:atemp>
          </ns3:TrackPointExtension>
        </extensions>
      </trkpt>
      <trkpt lat="43.1498377025127410888671875" lon="13.09641114436089992523193359375">
        <ele>661.4000244140625</ele>
        <time>2021-05-21T09:32:21.000Z</time>
        <extensions>
          <ns3:TrackPointExtension>
            <ns3:atemp>18.0</ns3:atemp>
          </ns3:TrackPointExtension>
        </extensions>
      </trkpt>
      <trkpt lat="43.14980459399521350860595703125" lon="13.09639521874487400054931640625">
        <ele>660</ele>
        <time>2021-05-21T09:32:22.000Z</time>
        <extensions>
          <ns3:TrackPointExtension>
            <ns3:atemp>18.0</ns3:atemp>
          </ns3:TrackPointExtension>
        </extensions>
      </trkpt>
      <trkpt lat="43.1497758440673351287841796875" lon="13.09638298116624355316162109375">
        <ele>659</ele>
        <time>2021-05-21T09:32:23.000Z</time>
        <extensions>
          <ns3:TrackPointExtension>
            <ns3:atemp>18.0</ns3:atemp>
          </ns3:TrackPointExtension>
        </extensions>
      </trkpt>
      <trkpt lat="43.1497304141521453857421875" lon="13.09636755846440792083740234375">
        <ele>658</ele>
        <time>2021-05-21T09:32:25.000Z</time>
        <extensions>
          <ns3:TrackPointExtension>
            <ns3:atemp>18.0</ns3:atemp>
          </ns3:TrackPointExtension>
        </extensions>
      </trkpt>
      <trkpt lat="43.14972127787768840789794921875" lon="13.09636537916958332061767578125">
        <ele>657.79998779296875</ele>
        <time>2021-05-21T09:32:26.000Z</time>
        <extensions>
          <ns3:TrackPointExtension>
            <ns3:atemp>18.0</ns3:atemp>
          </ns3:TrackPointExtension>
        </extensions>
      </trkpt>
      <trkpt lat="43.1497104652225971221923828125" lon="13.09635330922901630401611328125">
        <ele>657.79998779296875</ele>
        <time>2021-05-21T09:32:29.000Z</time>
        <extensions>
          <ns3:TrackPointExtension>
            <ns3:atemp>18.0</ns3:atemp>
          </ns3:TrackPointExtension>
        </extensions>
      </trkpt>
      <trkpt lat="43.14969043247401714324951171875" lon="13.09634509496390819549560546875">
        <ele>659</ele>
        <time>2021-05-21T09:32:35.000Z</time>
        <extensions>
          <ns3:TrackPointExtension>
            <ns3:atemp>18.0</ns3:atemp>
          </ns3:TrackPointExtension>
        </extensions>
      </trkpt>
      <trkpt lat="43.149684481322765350341796875" lon="13.0963426642119884490966796875">
        <ele>659.20001220703125</ele>
        <time>2021-05-21T09:32:41.000Z</time>
        <extensions>
          <ns3:TrackPointExtension>
            <ns3:atemp>18.0</ns3:atemp>
          </ns3:TrackPointExtension>
        </extensions>
      </trkpt>
      <trkpt lat="43.14968255348503589630126953125" lon="13.0963423289358615875244140625">
        <ele>659.20001220703125</ele>
        <time>2021-05-21T09:32:50.000Z</time>
        <extensions>
          <ns3:TrackPointExtension>
            <ns3:atemp>18.0</ns3:atemp>
          </ns3:TrackPointExtension>
        </extensions>
      </trkpt>
      <trkpt lat="43.149679116904735565185546875" lon="13.0963423289358615875244140625">
        <ele>659.4000244140625</ele>
        <time>2021-05-21T09:33:05.000Z</time>
        <extensions>
          <ns3:TrackPointExtension>
            <ns3:atemp>18.0</ns3:atemp>
          </ns3:TrackPointExtension>
        </extensions>
      </trkpt>
      <trkpt lat="43.1496413983404636383056640625" lon="13.09633738361299037933349609375">
        <ele>659.4000244140625</ele>
        <time>2021-05-21T09:33:19.000Z</time>
        <extensions>
          <ns3:TrackPointExtension>
            <ns3:atemp>18.0</ns3:atemp>
          </ns3:TrackPointExtension>
        </extensions>
      </trkpt>
      <trkpt lat="43.14950066618621349334716796875" lon="13.09630670584738254547119140625">
        <ele>659.4000244140625</ele>
        <time>2021-05-21T09:33:24.000Z</time>
        <extensions>
          <ns3:TrackPointExtension>
            <ns3:atemp>18.0</ns3:atemp>
          </ns3:TrackPointExtension>
        </extensions>
      </trkpt>
      <trkpt lat="43.14930201508104801177978515625" lon="13.09628709219396114349365234375">
        <ele>659.20001220703125</ele>
        <time>2021-05-21T09:33:29.000Z</time>
        <extensions>
          <ns3:TrackPointExtension>
            <ns3:atemp>18.0</ns3:atemp>
          </ns3:TrackPointExtension>
        </extensions>
      </trkpt>
      <trkpt lat="43.149155080318450927734375" lon="13.096184246242046356201171875">
        <ele>659</ele>
        <time>2021-05-21T09:33:33.000Z</time>
        <extensions>
          <ns3:TrackPointExtension>
            <ns3:atemp>18.0</ns3:atemp>
          </ns3:TrackPointExtension>
        </extensions>
      </trkpt>
      <trkpt lat="43.1490737758576869964599609375" lon="13.0961411632597446441650390625">
        <ele>659</ele>
        <time>2021-05-21T09:33:36.000Z</time>
        <extensions>
          <ns3:TrackPointExtension>
            <ns3:atemp>18.0</ns3:atemp>
          </ns3:TrackPointExtension>
        </extensions>
      </trkpt>
      <trkpt lat="43.14901719801127910614013671875" lon="13.09614443220198154449462890625">
        <ele>658.5999755859375</ele>
        <time>2021-05-21T09:33:39.000Z</time>
        <extensions>
          <ns3:TrackPointExtension>
            <ns3:atemp>18.0</ns3:atemp>
          </ns3:TrackPointExtension>
        </extensions>
      </trkpt>
      <trkpt lat="43.14896204508841037750244140625" lon="13.09618332423269748687744140625">
        <ele>657.79998779296875</ele>
        <time>2021-05-21T09:33:41.000Z</time>
        <extensions>
          <ns3:TrackPointExtension>
            <ns3:atemp>18.0</ns3:atemp>
          </ns3:TrackPointExtension>
        </extensions>
      </trkpt>
      <trkpt lat="43.148899264633655548095703125" lon="13.09630402363836765289306640625">
        <ele>657.20001220703125</ele>
        <time>2021-05-21T09:33:44.000Z</time>
        <extensions>
          <ns3:TrackPointExtension>
            <ns3:atemp>18.0</ns3:atemp>
          </ns3:TrackPointExtension>
        </extensions>
      </trkpt>
      <trkpt lat="43.14888509921729564666748046875" lon="13.096351213753223419189453125">
        <ele>657</ele>
        <time>2021-05-21T09:33:45.000Z</time>
        <extensions>
          <ns3:TrackPointExtension>
            <ns3:atemp>18.0</ns3:atemp>
          </ns3:TrackPointExtension>
        </extensions>
      </trkpt>
      <trkpt lat="43.14882994629442691802978515625" lon="13.0966159142553806304931640625">
        <ele>656.79998779296875</ele>
        <time>2021-05-21T09:33:51.000Z</time>
        <extensions>
          <ns3:TrackPointExtension>
            <ns3:atemp>18.0</ns3:atemp>
          </ns3:TrackPointExtension>
        </extensions>
      </trkpt>
      <trkpt lat="43.14883111976087093353271484375" lon="13.09664064086973667144775390625">
        <ele>657</ele>
        <time>2021-05-21T09:33:52.000Z</time>
        <extensions>
          <ns3:TrackPointExtension>
            <ns3:atemp>18.0</ns3:atemp>
          </ns3:TrackPointExtension>
        </extensions>
      </trkpt>
      <trkpt lat="43.14883531071245670318603515625" lon="13.09664969332516193389892578125">
        <ele>657</ele>
        <time>2021-05-21T09:33:54.000Z</time>
        <extensions>
          <ns3:TrackPointExtension>
            <ns3:atemp>18.0</ns3:atemp>
          </ns3:TrackPointExtension>
        </extensions>
      </trkpt>
      <trkpt lat="43.14884000457823276519775390625" lon="13.0966078676283359527587890625">
        <ele>657</ele>
        <time>2021-05-21T09:33:58.000Z</time>
        <extensions>
          <ns3:TrackPointExtension>
            <ns3:atemp>18.0</ns3:atemp>
          </ns3:TrackPointExtension>
        </extensions>
      </trkpt>
      <trkpt lat="43.1488407589495182037353515625" lon="13.0965424887835979461669921875">
        <ele>656.79998779296875</ele>
        <time>2021-05-21T09:34:00.000Z</time>
        <extensions>
          <ns3:TrackPointExtension>
            <ns3:atemp>18.0</ns3:atemp>
          </ns3:TrackPointExtension>
        </extensions>
      </trkpt>
      <trkpt lat="43.14885308034718036651611328125" lon="13.096444420516490936279296875">
        <ele>656.79998779296875</ele>
        <time>2021-05-21T09:34:02.000Z</time>
        <extensions>
          <ns3:TrackPointExtension>
            <ns3:atemp>18.0</ns3:atemp>
          </ns3:TrackPointExtension>
        </extensions>
      </trkpt>
      <trkpt lat="43.1489014439284801483154296875" lon="13.09629865922033786773681640625">
        <ele>656.79998779296875</ele>
        <time>2021-05-21T09:34:05.000Z</time>
        <extensions>
          <ns3:TrackPointExtension>
            <ns3:atemp>18.0</ns3:atemp>
          </ns3:TrackPointExtension>
        </extensions>
      </trkpt>
      <trkpt lat="43.14892633818089962005615234375" lon="13.09624937362968921661376953125">
        <ele>656.79998779296875</ele>
        <time>2021-05-21T09:34:06.000Z</time>
        <extensions>
          <ns3:TrackPointExtension>
            <ns3:atemp>18.0</ns3:atemp>
          </ns3:TrackPointExtension>
        </extensions>
      </trkpt>
      <trkpt lat="43.148956261575222015380859375" lon="13.09620360843837261199951171875">
        <ele>656.5999755859375</ele>
        <time>2021-05-21T09:34:07.000Z</time>
        <extensions>
          <ns3:TrackPointExtension>
            <ns3:atemp>18.0</ns3:atemp>
          </ns3:TrackPointExtension>
        </extensions>
      </trkpt>
      <trkpt lat="43.148986436426639556884765625" lon="13.0961448512971401214599609375">
        <ele>656.4000244140625</ele>
        <time>2021-05-21T09:34:09.000Z</time>
        <extensions>
          <ns3:TrackPointExtension>
            <ns3:atemp>18.0</ns3:atemp>
          </ns3:TrackPointExtension>
        </extensions>
      </trkpt>
      <trkpt lat="43.14894679002463817596435546875" lon="13.09604669921100139617919921875">
        <ele>655.79998779296875</ele>
        <time>2021-05-21T09:34:12.000Z</time>
        <extensions>
          <ns3:TrackPointExtension>
            <ns3:atemp>18.0</ns3:atemp>
          </ns3:TrackPointExtension>
        </extensions>
      </trkpt>
      <trkpt lat="43.14892315305769443511962890625" lon="13.0959995090961456298828125">
        <ele>655.5999755859375</ele>
        <time>2021-05-21T09:34:13.000Z</time>
        <extensions>
          <ns3:TrackPointExtension>
            <ns3:atemp>18.0</ns3:atemp>
          </ns3:TrackPointExtension>
        </extensions>
      </trkpt>
      <trkpt lat="43.1487991847097873687744140625" lon="13.09582927264273166656494140625">
        <ele>655.4000244140625</ele>
        <time>2021-05-21T09:34:17.000Z</time>
        <extensions>
          <ns3:TrackPointExtension>
            <ns3:atemp>18.0</ns3:atemp>
          </ns3:TrackPointExtension>
        </extensions>
      </trkpt>
      <trkpt lat="43.1486885435879230499267578125" lon="13.09578484855592250823974609375">
        <ele>654.5999755859375</ele>
        <time>2021-05-21T09:34:20.000Z</time>
        <extensions>
          <ns3:TrackPointExtension>
            <ns3:atemp>18.0</ns3:atemp>
          </ns3:TrackPointExtension>
        </extensions>
      </trkpt>
      <trkpt lat="43.1486509926617145538330078125" lon="13.0957783944904804229736328125">
        <ele>653.79998779296875</ele>
        <time>2021-05-21T09:34:21.000Z</time>
        <extensions>
          <ns3:TrackPointExtension>
            <ns3:atemp>18.0</ns3:atemp>
          </ns3:TrackPointExtension>
        </extensions>
      </trkpt>
      <trkpt lat="43.1486208178102970123291015625" lon="13.0957576073706150054931640625">
        <ele>652.5999755859375</ele>
        <time>2021-05-21T09:34:22.000Z</time>
        <extensions>
          <ns3:TrackPointExtension>
            <ns3:atemp>18.0</ns3:atemp>
          </ns3:TrackPointExtension>
        </extensions>
      </trkpt>
      <trkpt lat="43.14859525300562381744384765625" lon="13.09572701342403888702392578125">
        <ele>651.5999755859375</ele>
        <time>2021-05-21T09:34:23.000Z</time>
        <extensions>
          <ns3:TrackPointExtension>
            <ns3:atemp>18.0</ns3:atemp>
          </ns3:TrackPointExtension>
        </extensions>
      </trkpt>
      <trkpt lat="43.1485742144286632537841796875" lon="13.09568946249783039093017578125">
        <ele>649.79998779296875</ele>
        <time>2021-05-21T09:34:24.000Z</time>
        <extensions>
          <ns3:TrackPointExtension>
            <ns3:atemp>18.0</ns3:atemp>
          </ns3:TrackPointExtension>
        </extensions>
      </trkpt>
      <trkpt lat="43.1485537625849246978759765625" lon="13.09562508948147296905517578125">
        <ele>648.20001220703125</ele>
        <time>2021-05-21T09:34:26.000Z</time>
        <extensions>
          <ns3:TrackPointExtension>
            <ns3:atemp>18.0</ns3:atemp>
          </ns3:TrackPointExtension>
        </extensions>
      </trkpt>
      <trkpt lat="43.1485473923385143280029296875" lon="13.09556004591286182403564453125">
        <ele>646.4000244140625</ele>
        <time>2021-05-21T09:34:28.000Z</time>
        <extensions>
          <ns3:TrackPointExtension>
            <ns3:atemp>18.0</ns3:atemp>
          </ns3:TrackPointExtension>
        </extensions>
      </trkpt>
      <trkpt lat="43.14853825606405735015869140625" lon="13.0955219082534313201904296875">
        <ele>645.5999755859375</ele>
        <time>2021-05-21T09:34:29.000Z</time>
        <extensions>
          <ns3:TrackPointExtension>
            <ns3:atemp>18.0</ns3:atemp>
          </ns3:TrackPointExtension>
        </extensions>
      </trkpt>
      <trkpt lat="43.1485245935618877410888671875" lon="13.09548209421336650848388671875">
        <ele>645</ele>
        <time>2021-05-21T09:34:30.000Z</time>
        <extensions>
          <ns3:TrackPointExtension>
            <ns3:atemp>18.0</ns3:atemp>
          </ns3:TrackPointExtension>
        </extensions>
      </trkpt>
      <trkpt lat="43.14850397408008575439453125" lon="13.09540271759033203125">
        <ele>643.5999755859375</ele>
        <time>2021-05-21T09:34:32.000Z</time>
        <extensions>
          <ns3:TrackPointExtension>
            <ns3:atemp>18.0</ns3:atemp>
          </ns3:TrackPointExtension>
        </extensions>
      </trkpt>
      <trkpt lat="43.14848260022699832916259765625" lon="13.0953281186521053314208984375">
        <ele>642.5999755859375</ele>
        <time>2021-05-21T09:34:34.000Z</time>
        <extensions>
          <ns3:TrackPointExtension>
            <ns3:atemp>18.0</ns3:atemp>
          </ns3:TrackPointExtension>
        </extensions>
      </trkpt>
      <trkpt lat="43.14845929853618144989013671875" lon="13.09525276534259319305419921875">
        <ele>641.20001220703125</ele>
        <time>2021-05-21T09:34:36.000Z</time>
        <extensions>
          <ns3:TrackPointExtension>
            <ns3:atemp>18.0</ns3:atemp>
          </ns3:TrackPointExtension>
        </extensions>
      </trkpt>
      <trkpt lat="43.14844957552850246429443359375" lon="13.09521990828216075897216796875">
        <ele>640.4000244140625</ele>
        <time>2021-05-21T09:34:37.000Z</time>
        <extensions>
          <ns3:TrackPointExtension>
            <ns3:atemp>18.0</ns3:atemp>
          </ns3:TrackPointExtension>
        </extensions>
      </trkpt>
      <trkpt lat="43.14843851141631603240966796875" lon="13.09518001042306423187255859375">
        <ele>639.4000244140625</ele>
        <time>2021-05-21T09:34:38.000Z</time>
        <extensions>
          <ns3:TrackPointExtension>
            <ns3:atemp>18.0</ns3:atemp>
          </ns3:TrackPointExtension>
        </extensions>
      </trkpt>
      <trkpt lat="43.14840816892683506011962890625" lon="13.09507892467081546783447265625">
        <ele>637.4000244140625</ele>
        <time>2021-05-21T09:34:40.000Z</time>
        <extensions>
          <ns3:TrackPointExtension>
            <ns3:atemp>18.0</ns3:atemp>
          </ns3:TrackPointExtension>
        </extensions>
      </trkpt>
      <trkpt lat="43.14838553778827190399169921875" lon="13.0950149707496166229248046875">
        <ele>636.20001220703125</ele>
        <time>2021-05-21T09:34:41.000Z</time>
        <extensions>
          <ns3:TrackPointExtension>
            <ns3:atemp>18.0</ns3:atemp>
          </ns3:TrackPointExtension>
        </extensions>
      </trkpt>
      <trkpt lat="43.1483650021255016326904296875" lon="13.09495470486581325531005859375">
        <ele>635</ele>
        <time>2021-05-21T09:34:42.000Z</time>
        <extensions>
          <ns3:TrackPointExtension>
            <ns3:atemp>18.0</ns3:atemp>
          </ns3:TrackPointExtension>
        </extensions>
      </trkpt>
      <trkpt lat="43.14834044314920902252197265625" lon="13.09489653445780277252197265625">
        <ele>634</ele>
        <time>2021-05-21T09:34:43.000Z</time>
        <extensions>
          <ns3:TrackPointExtension>
            <ns3:atemp>18.0</ns3:atemp>
          </ns3:TrackPointExtension>
        </extensions>
      </trkpt>
      <trkpt lat="43.14829132519662380218505859375" lon="13.09481061995029449462890625">
        <ele>632</ele>
        <time>2021-05-21T09:34:45.000Z</time>
        <extensions>
          <ns3:TrackPointExtension>
            <ns3:atemp>18.0</ns3:atemp>
          </ns3:TrackPointExtension>
        </extensions>
      </trkpt>
      <trkpt lat="43.1482855416834354400634765625" lon="13.09477868489921092987060546875">
        <ele>630.79998779296875</ele>
        <time>2021-05-21T09:34:46.000Z</time>
        <extensions>
          <ns3:TrackPointExtension>
            <ns3:atemp>18.0</ns3:atemp>
          </ns3:TrackPointExtension>
        </extensions>
      </trkpt>
      <trkpt lat="43.14828579314053058624267578125" lon="13.09473945759236812591552734375">
        <ele>629.20001220703125</ele>
        <time>2021-05-21T09:34:47.000Z</time>
        <extensions>
          <ns3:TrackPointExtension>
            <ns3:atemp>18.0</ns3:atemp>
          </ns3:TrackPointExtension>
        </extensions>
      </trkpt>
      <trkpt lat="43.14829266630113124847412109375" lon="13.09470743872225284576416015625">
        <ele>627.4000244140625</ele>
        <time>2021-05-21T09:34:48.000Z</time>
        <extensions>
          <ns3:TrackPointExtension>
            <ns3:atemp>18.0</ns3:atemp>
          </ns3:TrackPointExtension>
        </extensions>
      </trkpt>
      <trkpt lat="43.1482979469001293182373046875" lon="13.09469126164913177490234375">
        <ele>625.4000244140625</ele>
        <time>2021-05-21T09:34:49.000Z</time>
        <extensions>
          <ns3:TrackPointExtension>
            <ns3:atemp>18.0</ns3:atemp>
          </ns3:TrackPointExtension>
        </extensions>
      </trkpt>
      <trkpt lat="43.14830188639461994171142578125" lon="13.09468111954629421234130859375">
        <ele>623.20001220703125</ele>
        <time>2021-05-21T09:34:50.000Z</time>
        <extensions>
          <ns3:TrackPointExtension>
            <ns3:atemp>18.0</ns3:atemp>
          </ns3:TrackPointExtension>
        </extensions>
      </trkpt>
      <trkpt lat="43.14830138348042964935302734375" lon="13.09467072598636150360107421875">
        <ele>621.5999755859375</ele>
        <time>2021-05-21T09:34:51.000Z</time>
        <extensions>
          <ns3:TrackPointExtension>
            <ns3:atemp>18.0</ns3:atemp>
          </ns3:TrackPointExtension>
        </extensions>
      </trkpt>
      <trkpt lat="43.14830004237592220306396484375" lon="13.09466267935931682586669921875">
        <ele>620.4000244140625</ele>
        <time>2021-05-21T09:34:52.000Z</time>
        <extensions>
          <ns3:TrackPointExtension>
            <ns3:atemp>18.0</ns3:atemp>
          </ns3:TrackPointExtension>
        </extensions>
      </trkpt>
      <trkpt lat="43.14829702489078044891357421875" lon="13.09465748257935047149658203125">
        <ele>618.5999755859375</ele>
        <time>2021-05-21T09:34:53.000Z</time>
        <extensions>
          <ns3:TrackPointExtension>
            <ns3:atemp>18.0</ns3:atemp>
          </ns3:TrackPointExtension>
        </extensions>
      </trkpt>
      <trkpt lat="43.14829300157725811004638671875" lon="13.09465236961841583251953125">
        <ele>618</ele>
        <time>2021-05-21T09:34:56.000Z</time>
        <extensions>
          <ns3:TrackPointExtension>
            <ns3:atemp>18.0</ns3:atemp>
          </ns3:TrackPointExtension>
        </extensions>
      </trkpt>
      <trkpt lat="43.14829249866306781768798828125" lon="13.094651363790035247802734375">
        <ele>617.5999755859375</ele>
        <time>2021-05-21T09:35:02.000Z</time>
        <extensions>
          <ns3:TrackPointExtension>
            <ns3:atemp>18.0</ns3:atemp>
          </ns3:TrackPointExtension>
        </extensions>
      </trkpt>
      <trkpt lat="43.1482925824820995330810546875" lon="13.09465060941874980926513671875">
        <ele>617.20001220703125</ele>
        <time>2021-05-21T09:35:21.000Z</time>
        <extensions>
          <ns3:TrackPointExtension>
            <ns3:atemp>18.0</ns3:atemp>
          </ns3:TrackPointExtension>
        </extensions>
      </trkpt>
      <trkpt lat="43.14829182811081409454345703125" lon="13.09464876540005207061767578125">
        <ele>617</ele>
        <time>2021-05-21T09:35:40.000Z</time>
        <extensions>
          <ns3:TrackPointExtension>
            <ns3:atemp>19.0</ns3:atemp>
          </ns3:TrackPointExtension>
        </extensions>
      </trkpt>
      <trkpt lat="43.14829132519662380218505859375" lon="13.09464775957167148590087890625">
        <ele>617</ele>
        <time>2021-05-21T09:35:58.000Z</time>
        <extensions>
          <ns3:TrackPointExtension>
            <ns3:atemp>19.0</ns3:atemp>
          </ns3:TrackPointExtension>
        </extensions>
      </trkpt>
      <trkpt lat="43.14829166047275066375732421875" lon="13.0946475081145763397216796875">
        <ele>617</ele>
        <time>2021-05-21T09:36:03.000Z</time>
        <extensions>
          <ns3:TrackPointExtension>
            <ns3:atemp>19.0</ns3:atemp>
          </ns3:TrackPointExtension>
        </extensions>
      </trkpt>
      <trkpt lat="43.14829216338694095611572265625" lon="13.09464977122843265533447265625">
        <ele>616.5999755859375</ele>
        <time>2021-05-21T09:36:14.000Z</time>
        <extensions>
          <ns3:TrackPointExtension>
            <ns3:atemp>20.0</ns3:atemp>
          </ns3:TrackPointExtension>
        </extensions>
      </trkpt>
      <trkpt lat="43.14829182811081409454345703125" lon="13.09464943595230579376220703125">
        <ele>616.79998779296875</ele>
        <time>2021-05-21T09:36:31.000Z</time>
        <extensions>
          <ns3:TrackPointExtension>
            <ns3:atemp>20.0</ns3:atemp>
          </ns3:TrackPointExtension>
        </extensions>
      </trkpt>
      <trkpt lat="43.14829182811081409454345703125" lon="13.09464826248586177825927734375">
        <ele>616.79998779296875</ele>
        <time>2021-05-21T09:36:49.000Z</time>
        <extensions>
          <ns3:TrackPointExtension>
            <ns3:atemp>20.0</ns3:atemp>
          </ns3:TrackPointExtension>
        </extensions>
      </trkpt>
      <trkpt lat="43.14829199574887752532958984375" lon="13.09464809484779834747314453125">
        <ele>616.79998779296875</ele>
        <time>2021-05-21T09:36:53.000Z</time>
        <extensions>
          <ns3:TrackPointExtension>
            <ns3:atemp>20.0</ns3:atemp>
          </ns3:TrackPointExtension>
        </extensions>
      </trkpt>
      <trkpt lat="43.148294426500797271728515625" lon="13.094645328819751739501953125">
        <ele>616.79998779296875</ele>
        <time>2021-05-21T09:37:24.000Z</time>
        <extensions>
          <ns3:TrackPointExtension>
            <ns3:atemp>21.0</ns3:atemp>
          </ns3:TrackPointExtension>
        </extensions>
      </trkpt>
      <trkpt lat="43.148295097053050994873046875" lon="13.09463736601173877716064453125">
        <ele>616.5999755859375</ele>
        <time>2021-05-21T09:37:34.000Z</time>
        <extensions>
          <ns3:TrackPointExtension>
            <ns3:atemp>21.0</ns3:atemp>
          </ns3:TrackPointExtension>
        </extensions>
      </trkpt>
      <trkpt lat="43.1482942588627338409423828125" lon="13.09463770128786563873291015625">
        <ele>616.5999755859375</ele>
        <time>2021-05-21T09:37:50.000Z</time>
        <extensions>
          <ns3:TrackPointExtension>
            <ns3:atemp>21.0</ns3:atemp>
          </ns3:TrackPointExtension>
        </extensions>
      </trkpt>
      <trkpt lat="43.14829400740563869476318359375" lon="13.094637282192707061767578125">
        <ele>616.5999755859375</ele>
        <time>2021-05-21T09:37:55.000Z</time>
        <extensions>
          <ns3:TrackPointExtension>
            <ns3:atemp>21.0</ns3:atemp>
          </ns3:TrackPointExtension>
        </extensions>
      </trkpt>
      <trkpt lat="43.1482932530343532562255859375" lon="13.09463627636432647705078125">
        <ele>616.79998779296875</ele>
        <time>2021-05-21T09:38:19.000Z</time>
        <extensions>
          <ns3:TrackPointExtension>
            <ns3:atemp>21.0</ns3:atemp>
          </ns3:TrackPointExtension>
        </extensions>
      </trkpt>
      <trkpt lat="43.148293085396289825439453125" lon="13.09463602490723133087158203125">
        <ele>616.79998779296875</ele>
        <time>2021-05-21T09:38:24.000Z</time>
        <extensions>
          <ns3:TrackPointExtension>
            <ns3:atemp>21.0</ns3:atemp>
          </ns3:TrackPointExtension>
        </extensions>
      </trkpt>
      <trkpt lat="43.14829233102500438690185546875" lon="13.09463359415531158447265625">
        <ele>616.4000244140625</ele>
        <time>2021-05-21T09:38:54.000Z</time>
        <extensions>
          <ns3:TrackPointExtension>
            <ns3:atemp>21.0</ns3:atemp>
          </ns3:TrackPointExtension>
        </extensions>
      </trkpt>
      <trkpt lat="43.14829182811081409454345703125" lon="13.09463149867951869964599609375">
        <ele>616</ele>
        <time>2021-05-21T09:39:21.000Z</time>
        <extensions>
          <ns3:TrackPointExtension>
            <ns3:atemp>22.0</ns3:atemp>
          </ns3:TrackPointExtension>
        </extensions>
      </trkpt>
      <trkpt lat="43.1482919119298458099365234375" lon="13.09463091194629669189453125">
        <ele>616.4000244140625</ele>
        <time>2021-05-21T09:39:46.000Z</time>
        <extensions>
          <ns3:TrackPointExtension>
            <ns3:atemp>22.0</ns3:atemp>
          </ns3:TrackPointExtension>
        </extensions>
      </trkpt>
      <trkpt lat="43.14832158386707305908203125" lon="13.09461959637701511383056640625">
        <ele>616.4000244140625</ele>
        <time>2021-05-21T09:39:59.000Z</time>
        <extensions>
          <ns3:TrackPointExtension>
            <ns3:atemp>22.0</ns3:atemp>
          </ns3:TrackPointExtension>
        </extensions>
      </trkpt>
      <trkpt lat="43.1484213285148143768310546875" lon="13.09456695802509784698486328125">
        <ele>616.4000244140625</ele>
        <time>2021-05-21T09:40:02.000Z</time>
        <extensions>
          <ns3:TrackPointExtension>
            <ns3:atemp>22.0</ns3:atemp>
          </ns3:TrackPointExtension>
        </extensions>
      </trkpt>
      <trkpt lat="43.14846382476389408111572265625" lon="13.09453108347952365875244140625">
        <ele>616.4000244140625</ele>
        <time>2021-05-21T09:40:03.000Z</time>
        <extensions>
          <ns3:TrackPointExtension>
            <ns3:atemp>22.0</ns3:atemp>
          </ns3:TrackPointExtension>
        </extensions>
      </trkpt>
      <trkpt lat="43.14874579198658466339111328125" lon="13.09429538436233997344970703125">
        <ele>615.20001220703125</ele>
        <time>2021-05-21T09:40:09.000Z</time>
        <extensions>
          <ns3:TrackPointExtension>
            <ns3:atemp>22.0</ns3:atemp>
          </ns3:TrackPointExtension>
        </extensions>
      </trkpt>
      <trkpt lat="43.148793987929821014404296875" lon="13.09426554478704929351806640625">
        <ele>613.79998779296875</ele>
        <time>2021-05-21T09:40:10.000Z</time>
        <extensions>
          <ns3:TrackPointExtension>
            <ns3:atemp>22.0</ns3:atemp>
          </ns3:TrackPointExtension>
        </extensions>
      </trkpt>
      <trkpt lat="43.14884302206337451934814453125" lon="13.09423620812594890594482421875">
        <ele>612.5999755859375</ele>
        <time>2021-05-21T09:40:11.000Z</time>
        <extensions>
          <ns3:TrackPointExtension>
            <ns3:atemp>22.0</ns3:atemp>
          </ns3:TrackPointExtension>
        </extensions>
      </trkpt>
      <trkpt lat="43.14889381639659404754638671875" lon="13.09420988894999027252197265625">
        <ele>611.20001220703125</ele>
        <time>2021-05-21T09:40:12.000Z</time>
        <extensions>
          <ns3:TrackPointExtension>
            <ns3:atemp>22.0</ns3:atemp>
          </ns3:TrackPointExtension>
        </extensions>
      </trkpt>
      <trkpt lat="43.14894662238657474517822265625" lon="13.09418876655399799346923828125">
        <ele>610.20001220703125</ele>
        <time>2021-05-21T09:40:13.000Z</time>
        <extensions>
          <ns3:TrackPointExtension>
            <ns3:atemp>22.0</ns3:atemp>
          </ns3:TrackPointExtension>
        </extensions>
      </trkpt>
      <trkpt lat="43.14904871396720409393310546875" lon="13.0941650457680225372314453125">
        <ele>608.4000244140625</ele>
        <time>2021-05-21T09:40:15.000Z</time>
        <extensions>
          <ns3:TrackPointExtension>
            <ns3:atemp>22.0</ns3:atemp>
          </ns3:TrackPointExtension>
        </extensions>
      </trkpt>
      <trkpt lat="43.1491322815418243408203125" lon="13.0941675603389739990234375">
        <ele>606.5999755859375</ele>
        <time>2021-05-21T09:40:17.000Z</time>
        <extensions>
          <ns3:TrackPointExtension>
            <ns3:atemp>22.0</ns3:atemp>
          </ns3:TrackPointExtension>
        </extensions>
      </trkpt>
      <trkpt lat="43.149199001491069793701171875" lon="13.09419932775199413299560546875">
        <ele>605</ele>
        <time>2021-05-21T09:40:19.000Z</time>
        <extensions>
          <ns3:TrackPointExtension>
            <ns3:atemp>22.0</ns3:atemp>
          </ns3:TrackPointExtension>
        </extensions>
      </trkpt>
      <trkpt lat="43.1492323614656925201416015625" lon="13.09423469938337802886962890625">
        <ele>603.79998779296875</ele>
        <time>2021-05-21T09:40:20.000Z</time>
        <extensions>
          <ns3:TrackPointExtension>
            <ns3:atemp>22.0</ns3:atemp>
          </ns3:TrackPointExtension>
        </extensions>
      </trkpt>
      <trkpt lat="43.1492610275745391845703125" lon="13.0942743457853794097900390625">
        <ele>602.5999755859375</ele>
        <time>2021-05-21T09:40:21.000Z</time>
        <extensions>
          <ns3:TrackPointExtension>
            <ns3:atemp>22.0</ns3:atemp>
          </ns3:TrackPointExtension>
        </extensions>
      </trkpt>
      <trkpt lat="43.1492851674556732177734375" lon="13.094312064349651336669921875">
        <ele>601.5999755859375</ele>
        <time>2021-05-21T09:40:22.000Z</time>
        <extensions>
          <ns3:TrackPointExtension>
            <ns3:atemp>22.0</ns3:atemp>
          </ns3:TrackPointExtension>
        </extensions>
      </trkpt>
      <trkpt lat="43.14931039698421955108642578125" lon="13.0943407304584980010986328125">
        <ele>601</ele>
        <time>2021-05-21T09:40:23.000Z</time>
        <extensions>
          <ns3:TrackPointExtension>
            <ns3:atemp>22.0</ns3:atemp>
          </ns3:TrackPointExtension>
        </extensions>
      </trkpt>
      <trkpt lat="43.14933168701827526092529296875" lon="13.09436595998704433441162109375">
        <ele>600.4000244140625</ele>
        <time>2021-05-21T09:40:24.000Z</time>
        <extensions>
          <ns3:TrackPointExtension>
            <ns3:atemp>22.0</ns3:atemp>
          </ns3:TrackPointExtension>
        </extensions>
      </trkpt>
      <trkpt lat="43.14935465343296527862548828125" lon="13.094375431537628173828125">
        <ele>599.79998779296875</ele>
        <time>2021-05-21T09:40:25.000Z</time>
        <extensions>
          <ns3:TrackPointExtension>
            <ns3:atemp>22.0</ns3:atemp>
          </ns3:TrackPointExtension>
        </extensions>
      </trkpt>
      <trkpt lat="43.1493775360286235809326171875" lon="13.09436738491058349609375">
        <ele>599</ele>
        <time>2021-05-21T09:40:26.000Z</time>
        <extensions>
          <ns3:TrackPointExtension>
            <ns3:atemp>22.0</ns3:atemp>
          </ns3:TrackPointExtension>
        </extensions>
      </trkpt>
      <trkpt lat="43.14939178526401519775390625" lon="13.09433276765048503875732421875">
        <ele>598.20001220703125</ele>
        <time>2021-05-21T09:40:27.000Z</time>
        <extensions>
          <ns3:TrackPointExtension>
            <ns3:atemp>22.0</ns3:atemp>
          </ns3:TrackPointExtension>
        </extensions>
      </trkpt>
      <trkpt lat="43.14939153380692005157470703125" lon="13.0942854098975658416748046875">
        <ele>597.5999755859375</ele>
        <time>2021-05-21T09:40:28.000Z</time>
        <extensions>
          <ns3:TrackPointExtension>
            <ns3:atemp>22.0</ns3:atemp>
          </ns3:TrackPointExtension>
        </extensions>
      </trkpt>
      <trkpt lat="43.149369992315769195556640625" lon="13.09417401440441608428955078125">
        <ele>596.5999755859375</ele>
        <time>2021-05-21T09:40:30.000Z</time>
        <extensions>
          <ns3:TrackPointExtension>
            <ns3:atemp>22.0</ns3:atemp>
          </ns3:TrackPointExtension>
        </extensions>
      </trkpt>
      <trkpt lat="43.14933319576084613800048828125" lon="13.09405465610325336456298828125">
        <ele>595.4000244140625</ele>
        <time>2021-05-21T09:40:32.000Z</time>
        <extensions>
          <ns3:TrackPointExtension>
            <ns3:atemp>22.0</ns3:atemp>
          </ns3:TrackPointExtension>
        </extensions>
      </trkpt>
      <trkpt lat="43.14925021491944789886474609375" lon="13.09386874549090862274169921875">
        <ele>593.79998779296875</ele>
        <time>2021-05-21T09:40:35.000Z</time>
        <extensions>
          <ns3:TrackPointExtension>
            <ns3:atemp>22.0</ns3:atemp>
          </ns3:TrackPointExtension>
        </extensions>
      </trkpt>
      <trkpt lat="43.14916673116385936737060546875" lon="13.0937258340418338775634765625">
        <ele>592.20001220703125</ele>
        <time>2021-05-21T09:40:37.000Z</time>
        <extensions>
          <ns3:TrackPointExtension>
            <ns3:atemp>22.0</ns3:atemp>
          </ns3:TrackPointExtension>
        </extensions>
      </trkpt>
      <trkpt lat="43.14911325462162494659423828125" lon="13.0936500616371631622314453125">
        <ele>591.20001220703125</ele>
        <time>2021-05-21T09:40:38.000Z</time>
        <extensions>
          <ns3:TrackPointExtension>
            <ns3:atemp>21.0</ns3:atemp>
          </ns3:TrackPointExtension>
        </extensions>
      </trkpt>
      <trkpt lat="43.149060197174549102783203125" lon="13.0935746245086193084716796875">
        <ele>590.5999755859375</ele>
        <time>2021-05-21T09:40:39.000Z</time>
        <extensions>
          <ns3:TrackPointExtension>
            <ns3:atemp>21.0</ns3:atemp>
          </ns3:TrackPointExtension>
        </extensions>
      </trkpt>
      <trkpt lat="43.14900328405201435089111328125" lon="13.09350027702748775482177734375">
        <ele>590</ele>
        <time>2021-05-21T09:40:40.000Z</time>
        <extensions>
          <ns3:TrackPointExtension>
            <ns3:atemp>21.0</ns3:atemp>
          </ns3:TrackPointExtension>
        </extensions>
      </trkpt>
      <trkpt lat="43.1488855183124542236328125" lon="13.0933333933353424072265625">
        <ele>588.4000244140625</ele>
        <time>2021-05-21T09:40:42.000Z</time>
        <extensions>
          <ns3:TrackPointExtension>
            <ns3:atemp>21.0</ns3:atemp>
          </ns3:TrackPointExtension>
        </extensions>
      </trkpt>
      <trkpt lat="43.14875886775553226470947265625" lon="13.093156702816486358642578125">
        <ele>586.4000244140625</ele>
        <time>2021-05-21T09:40:44.000Z</time>
        <extensions>
          <ns3:TrackPointExtension>
            <ns3:atemp>21.0</ns3:atemp>
          </ns3:TrackPointExtension>
        </extensions>
      </trkpt>
      <trkpt lat="43.14868862740695476531982421875" lon="13.09306927956640720367431640625">
        <ele>585.20001220703125</ele>
        <time>2021-05-21T09:40:45.000Z</time>
        <extensions>
          <ns3:TrackPointExtension>
            <ns3:atemp>21.0</ns3:atemp>
          </ns3:TrackPointExtension>
        </extensions>
      </trkpt>
      <trkpt lat="43.14861570484936237335205078125" lon="13.0929821915924549102783203125">
        <ele>583.79998779296875</ele>
        <time>2021-05-21T09:40:46.000Z</time>
        <extensions>
          <ns3:TrackPointExtension>
            <ns3:atemp>21.0</ns3:atemp>
          </ns3:TrackPointExtension>
        </extensions>
      </trkpt>
      <trkpt lat="43.148541860282421112060546875" lon="13.0928977020084857940673828125">
        <ele>582.4000244140625</ele>
        <time>2021-05-21T09:40:47.000Z</time>
        <extensions>
          <ns3:TrackPointExtension>
            <ns3:atemp>21.0</ns3:atemp>
          </ns3:TrackPointExtension>
        </extensions>
      </trkpt>
      <trkpt lat="43.1484652496874332427978515625" lon="13.0928246118128299713134765625">
        <ele>581.20001220703125</ele>
        <time>2021-05-21T09:40:48.000Z</time>
        <extensions>
          <ns3:TrackPointExtension>
            <ns3:atemp>21.0</ns3:atemp>
          </ns3:TrackPointExtension>
        </extensions>
      </trkpt>
      <trkpt lat="43.1483881361782550811767578125" lon="13.09276736341416835784912109375">
        <ele>579.5999755859375</ele>
        <time>2021-05-21T09:40:49.000Z</time>
        <extensions>
          <ns3:TrackPointExtension>
            <ns3:atemp>21.0</ns3:atemp>
          </ns3:TrackPointExtension>
        </extensions>
      </trkpt>
      <trkpt lat="43.14830708317458629608154296875" lon="13.0927287228405475616455078125">
        <ele>578</ele>
        <time>2021-05-21T09:40:50.000Z</time>
        <extensions>
          <ns3:TrackPointExtension>
            <ns3:atemp>21.0</ns3:atemp>
          </ns3:TrackPointExtension>
        </extensions>
      </trkpt>
      <trkpt lat="43.14822326414287090301513671875" lon="13.09269108809530735015869140625">
        <ele>576.4000244140625</ele>
        <time>2021-05-21T09:40:51.000Z</time>
        <extensions>
          <ns3:TrackPointExtension>
            <ns3:atemp>21.0</ns3:atemp>
          </ns3:TrackPointExtension>
        </extensions>
      </trkpt>
      <trkpt lat="43.148140199482440948486328125" lon="13.09264549054205417633056640625">
        <ele>575</ele>
        <time>2021-05-21T09:40:52.000Z</time>
        <extensions>
          <ns3:TrackPointExtension>
            <ns3:atemp>21.0</ns3:atemp>
          </ns3:TrackPointExtension>
        </extensions>
      </trkpt>
      <trkpt lat="43.14805529080331325531005859375" lon="13.0925872363150119781494140625">
        <ele>573.79998779296875</ele>
        <time>2021-05-21T09:40:53.000Z</time>
        <extensions>
          <ns3:TrackPointExtension>
            <ns3:atemp>21.0</ns3:atemp>
          </ns3:TrackPointExtension>
        </extensions>
      </trkpt>
      <trkpt lat="43.14797398634254932403564453125" lon="13.09252244420349597930908203125">
        <ele>572.79998779296875</ele>
        <time>2021-05-21T09:40:54.000Z</time>
        <extensions>
          <ns3:TrackPointExtension>
            <ns3:atemp>21.0</ns3:atemp>
          </ns3:TrackPointExtension>
        </extensions>
      </trkpt>
      <trkpt lat="43.147894442081451416015625" lon="13.092455305159091949462890625">
        <ele>571.5999755859375</ele>
        <time>2021-05-21T09:40:55.000Z</time>
        <extensions>
          <ns3:TrackPointExtension>
            <ns3:atemp>21.0</ns3:atemp>
          </ns3:TrackPointExtension>
        </extensions>
      </trkpt>
      <trkpt lat="43.14781221561133861541748046875" lon="13.0923797003924846649169921875">
        <ele>570.20001220703125</ele>
        <time>2021-05-21T09:40:56.000Z</time>
        <extensions>
          <ns3:TrackPointExtension>
            <ns3:atemp>21.0</ns3:atemp>
          </ns3:TrackPointExtension>
        </extensions>
      </trkpt>
      <trkpt lat="43.14763887785375118255615234375" lon="13.092215247452259063720703125">
        <ele>568.79998779296875</ele>
        <time>2021-05-21T09:40:58.000Z</time>
        <extensions>
          <ns3:TrackPointExtension>
            <ns3:atemp>21.0</ns3:atemp>
          </ns3:TrackPointExtension>
        </extensions>
      </trkpt>
      <trkpt lat="43.14746302552521228790283203125" lon="13.0920357070863246917724609375">
        <ele>567.20001220703125</ele>
        <time>2021-05-21T09:41:00.000Z</time>
        <extensions>
          <ns3:TrackPointExtension>
            <ns3:atemp>21.0</ns3:atemp>
          </ns3:TrackPointExtension>
        </extensions>
      </trkpt>
      <trkpt lat="43.147374428808689117431640625" lon="13.091943003237247467041015625">
        <ele>565.5999755859375</ele>
        <time>2021-05-21T09:41:01.000Z</time>
        <extensions>
          <ns3:TrackPointExtension>
            <ns3:atemp>21.0</ns3:atemp>
          </ns3:TrackPointExtension>
        </extensions>
      </trkpt>
      <trkpt lat="43.14728633500635623931884765625" lon="13.0918501317501068115234375">
        <ele>564.4000244140625</ele>
        <time>2021-05-21T09:41:02.000Z</time>
        <extensions>
          <ns3:TrackPointExtension>
            <ns3:atemp>21.0</ns3:atemp>
          </ns3:TrackPointExtension>
        </extensions>
      </trkpt>
      <trkpt lat="43.1471090577542781829833984375" lon="13.0916578508913516998291015625">
        <ele>562.79998779296875</ele>
        <time>2021-05-21T09:41:04.000Z</time>
        <extensions>
          <ns3:TrackPointExtension>
            <ns3:atemp>21.0</ns3:atemp>
          </ns3:TrackPointExtension>
        </extensions>
      </trkpt>
      <trkpt lat="43.14701937139034271240234375" lon="13.09155844151973724365234375">
        <ele>560</ele>
        <time>2021-05-21T09:41:05.000Z</time>
        <extensions>
          <ns3:TrackPointExtension>
            <ns3:atemp>21.0</ns3:atemp>
          </ns3:TrackPointExtension>
        </extensions>
      </trkpt>
      <trkpt lat="43.14693094231188297271728515625" lon="13.09146322309970855712890625">
        <ele>557.5999755859375</ele>
        <time>2021-05-21T09:41:06.000Z</time>
        <extensions>
          <ns3:TrackPointExtension>
            <ns3:atemp>21.0</ns3:atemp>
          </ns3:TrackPointExtension>
        </extensions>
      </trkpt>
      <trkpt lat="43.146844692528247833251953125" lon="13.09136792086064815521240234375">
        <ele>555.5999755859375</ele>
        <time>2021-05-21T09:41:07.000Z</time>
        <extensions>
          <ns3:TrackPointExtension>
            <ns3:atemp>21.0</ns3:atemp>
          </ns3:TrackPointExtension>
        </extensions>
      </trkpt>
      <trkpt lat="43.14675391651690006256103515625" lon="13.09127538464963436126708984375">
        <ele>554.79998779296875</ele>
        <time>2021-05-21T09:41:08.000Z</time>
        <extensions>
          <ns3:TrackPointExtension>
            <ns3:atemp>21.0</ns3:atemp>
          </ns3:TrackPointExtension>
        </extensions>
      </trkpt>
      <trkpt lat="43.146662302315235137939453125" lon="13.0911849439144134521484375">
        <ele>553.4000244140625</ele>
        <time>2021-05-21T09:41:09.000Z</time>
        <extensions>
          <ns3:TrackPointExtension>
            <ns3:atemp>21.0</ns3:atemp>
          </ns3:TrackPointExtension>
        </extensions>
      </trkpt>
      <trkpt lat="43.14657353796064853668212890625" lon="13.09109081514179706573486328125">
        <ele>551.4000244140625</ele>
        <time>2021-05-21T09:41:10.000Z</time>
        <extensions>
          <ns3:TrackPointExtension>
            <ns3:atemp>21.0</ns3:atemp>
          </ns3:TrackPointExtension>
        </extensions>
      </trkpt>
      <trkpt lat="43.14649240113794803619384765625" lon="13.0909899808466434478759765625">
        <ele>549.79998779296875</ele>
        <time>2021-05-21T09:41:11.000Z</time>
        <extensions>
          <ns3:TrackPointExtension>
            <ns3:atemp>21.0</ns3:atemp>
          </ns3:TrackPointExtension>
        </extensions>
      </trkpt>
      <trkpt lat="43.14641998149454593658447265625" lon="13.09087791480123996734619140625">
        <ele>548.79998779296875</ele>
        <time>2021-05-21T09:41:12.000Z</time>
        <extensions>
          <ns3:TrackPointExtension>
            <ns3:atemp>21.0</ns3:atemp>
          </ns3:TrackPointExtension>
        </extensions>
      </trkpt>
      <trkpt lat="43.1463570334017276763916015625" lon="13.09075553901493549346923828125">
        <ele>547.79998779296875</ele>
        <time>2021-05-21T09:41:13.000Z</time>
        <extensions>
          <ns3:TrackPointExtension>
            <ns3:atemp>21.0</ns3:atemp>
          </ns3:TrackPointExtension>
        </extensions>
      </trkpt>
      <trkpt lat="43.14625100232660770416259765625" lon="13.09049754403531551361083984375">
        <ele>545.79998779296875</ele>
        <time>2021-05-21T09:41:15.000Z</time>
        <extensions>
          <ns3:TrackPointExtension>
            <ns3:atemp>21.0</ns3:atemp>
          </ns3:TrackPointExtension>
        </extensions>
      </trkpt>
      <trkpt lat="43.1462028063833713531494140625" lon="13.0903677083551883697509765625">
        <ele>544.4000244140625</ele>
        <time>2021-05-21T09:41:16.000Z</time>
        <extensions>
          <ns3:TrackPointExtension>
            <ns3:atemp>21.0</ns3:atemp>
          </ns3:TrackPointExtension>
        </extensions>
      </trkpt>
      <trkpt lat="43.14615477807819843292236328125" lon="13.09023745357990264892578125">
        <ele>543.20001220703125</ele>
        <time>2021-05-21T09:41:17.000Z</time>
        <extensions>
          <ns3:TrackPointExtension>
            <ns3:atemp>21.0</ns3:atemp>
          </ns3:TrackPointExtension>
        </extensions>
      </trkpt>
      <trkpt lat="43.146060146391391754150390625" lon="13.0899806320667266845703125">
        <ele>540.79998779296875</ele>
        <time>2021-05-21T09:41:19.000Z</time>
        <extensions>
          <ns3:TrackPointExtension>
            <ns3:atemp>21.0</ns3:atemp>
          </ns3:TrackPointExtension>
        </extensions>
      </trkpt>
      <trkpt lat="43.14601630903780460357666015625" lon="13.08984878472983837127685546875">
        <ele>539.5999755859375</ele>
        <time>2021-05-21T09:41:20.000Z</time>
        <extensions>
          <ns3:TrackPointExtension>
            <ns3:atemp>21.0</ns3:atemp>
          </ns3:TrackPointExtension>
        </extensions>
      </trkpt>
      <trkpt lat="43.145926035940647125244140625" lon="13.089588023722171783447265625">
        <ele>538.4000244140625</ele>
        <time>2021-05-21T09:41:22.000Z</time>
        <extensions>
          <ns3:TrackPointExtension>
            <ns3:atemp>21.0</ns3:atemp>
          </ns3:TrackPointExtension>
        </extensions>
      </trkpt>
      <trkpt lat="43.14588085748255252838134765625" lon="13.08946187607944011688232421875">
        <ele>538.20001220703125</ele>
        <time>2021-05-21T09:41:23.000Z</time>
        <extensions>
          <ns3:TrackPointExtension>
            <ns3:atemp>21.0</ns3:atemp>
          </ns3:TrackPointExtension>
        </extensions>
      </trkpt>
      <trkpt lat="43.1457553803920745849609375" lon="13.08910262770950794219970703125">
        <ele>537.20001220703125</ele>
        <time>2021-05-21T09:41:26.000Z</time>
        <extensions>
          <ns3:TrackPointExtension>
            <ns3:atemp>21.0</ns3:atemp>
          </ns3:TrackPointExtension>
        </extensions>
      </trkpt>
      <trkpt lat="43.14570064656436443328857421875" lon="13.0889950878918170928955078125">
        <ele>536.79998779296875</ele>
        <time>2021-05-21T09:41:27.000Z</time>
        <extensions>
          <ns3:TrackPointExtension>
            <ns3:atemp>21.0</ns3:atemp>
          </ns3:TrackPointExtension>
        </extensions>
      </trkpt>
      <trkpt lat="43.145641386508941650390625" lon="13.08888989500701427459716796875">
        <ele>536.5999755859375</ele>
        <time>2021-05-21T09:41:28.000Z</time>
        <extensions>
          <ns3:TrackPointExtension>
            <ns3:atemp>21.0</ns3:atemp>
          </ns3:TrackPointExtension>
        </extensions>
      </trkpt>
      <trkpt lat="43.1454363651573657989501953125" lon="13.0885992944240570068359375">
        <ele>536.20001220703125</ele>
        <time>2021-05-21T09:41:31.000Z</time>
        <extensions>
          <ns3:TrackPointExtension>
            <ns3:atemp>21.0</ns3:atemp>
          </ns3:TrackPointExtension>
        </extensions>
      </trkpt>
      <trkpt lat="43.14535967074334621429443359375" lon="13.0885035730898380279541015625">
        <ele>536</ele>
        <time>2021-05-21T09:41:32.000Z</time>
        <extensions>
          <ns3:TrackPointExtension>
            <ns3:atemp>21.0</ns3:atemp>
          </ns3:TrackPointExtension>
        </extensions>
      </trkpt>
      <trkpt lat="43.14495666883885860443115234375" lon="13.08800845406949520111083984375">
        <ele>534.79998779296875</ele>
        <time>2021-05-21T09:41:37.000Z</time>
        <extensions>
          <ns3:TrackPointExtension>
            <ns3:atemp>21.0</ns3:atemp>
          </ns3:TrackPointExtension>
        </extensions>
      </trkpt>
      <trkpt lat="43.1447969935834407806396484375" lon="13.0878122337162494659423828125">
        <ele>532.5999755859375</ele>
        <time>2021-05-21T09:41:39.000Z</time>
        <extensions>
          <ns3:TrackPointExtension>
            <ns3:atemp>21.0</ns3:atemp>
          </ns3:TrackPointExtension>
        </extensions>
      </trkpt>
      <trkpt lat="43.144723065197467803955078125" lon="13.08771751821041107177734375">
        <ele>531.4000244140625</ele>
        <time>2021-05-21T09:41:40.000Z</time>
        <extensions>
          <ns3:TrackPointExtension>
            <ns3:atemp>21.0</ns3:atemp>
          </ns3:TrackPointExtension>
        </extensions>
      </trkpt>
      <trkpt lat="43.1446528248488903045654296875" lon="13.0876285023987293243408203125">
        <ele>530.20001220703125</ele>
        <time>2021-05-21T09:41:41.000Z</time>
        <extensions>
          <ns3:TrackPointExtension>
            <ns3:atemp>21.0</ns3:atemp>
          </ns3:TrackPointExtension>
        </extensions>
      </trkpt>
      <trkpt lat="43.14458794891834259033203125" lon="13.0875446833670139312744140625">
        <ele>529.20001220703125</ele>
        <time>2021-05-21T09:41:42.000Z</time>
        <extensions>
          <ns3:TrackPointExtension>
            <ns3:atemp>21.0</ns3:atemp>
          </ns3:TrackPointExtension>
        </extensions>
      </trkpt>
      <trkpt lat="43.144530951976776123046875" lon="13.08746865950524806976318359375">
        <ele>528.20001220703125</ele>
        <time>2021-05-21T09:41:43.000Z</time>
        <extensions>
          <ns3:TrackPointExtension>
            <ns3:atemp>21.0</ns3:atemp>
          </ns3:TrackPointExtension>
        </extensions>
      </trkpt>
      <trkpt lat="43.1444841809570789337158203125" lon="13.0873941443860530853271484375">
        <ele>527.4000244140625</ele>
        <time>2021-05-21T09:41:44.000Z</time>
        <extensions>
          <ns3:TrackPointExtension>
            <ns3:atemp>21.0</ns3:atemp>
          </ns3:TrackPointExtension>
        </extensions>
      </trkpt>
      <trkpt lat="43.14445643685758113861083984375" lon="13.0873150192201137542724609375">
        <ele>526.20001220703125</ele>
        <time>2021-05-21T09:41:45.000Z</time>
        <extensions>
          <ns3:TrackPointExtension>
            <ns3:atemp>21.0</ns3:atemp>
          </ns3:TrackPointExtension>
        </extensions>
      </trkpt>
      <trkpt lat="43.1444476358592510223388671875" lon="13.08723178692162036895751953125">
        <ele>525.4000244140625</ele>
        <time>2021-05-21T09:41:46.000Z</time>
        <extensions>
          <ns3:TrackPointExtension>
            <ns3:atemp>21.0</ns3:atemp>
          </ns3:TrackPointExtension>
        </extensions>
      </trkpt>
      <trkpt lat="43.1444437801837921142578125" lon="13.087143860757350921630859375">
        <ele>524.5999755859375</ele>
        <time>2021-05-21T09:41:47.000Z</time>
        <extensions>
          <ns3:TrackPointExtension>
            <ns3:atemp>21.0</ns3:atemp>
          </ns3:TrackPointExtension>
        </extensions>
      </trkpt>
      <trkpt lat="43.14443464390933513641357421875" lon="13.0870622210204601287841796875">
        <ele>523.79998779296875</ele>
        <time>2021-05-21T09:41:48.000Z</time>
        <extensions>
          <ns3:TrackPointExtension>
            <ns3:atemp>21.0</ns3:atemp>
          </ns3:TrackPointExtension>
        </extensions>
      </trkpt>
      <trkpt lat="43.14437278546392917633056640625" lon="13.0869341455399990081787109375">
        <ele>523.4000244140625</ele>
        <time>2021-05-21T09:41:50.000Z</time>
        <extensions>
          <ns3:TrackPointExtension>
            <ns3:atemp>21.0</ns3:atemp>
          </ns3:TrackPointExtension>
        </extensions>
      </trkpt>
      <trkpt lat="43.144303299486637115478515625" lon="13.0868761427700519561767578125">
        <ele>523.20001220703125</ele>
        <time>2021-05-21T09:41:52.000Z</time>
        <extensions>
          <ns3:TrackPointExtension>
            <ns3:atemp>21.0</ns3:atemp>
          </ns3:TrackPointExtension>
        </extensions>
      </trkpt>
      <trkpt lat="43.1442541815340518951416015625" lon="13.086822666227817535400390625">
        <ele>523.20001220703125</ele>
        <time>2021-05-21T09:41:54.000Z</time>
        <extensions>
          <ns3:TrackPointExtension>
            <ns3:atemp>21.0</ns3:atemp>
          </ns3:TrackPointExtension>
        </extensions>
      </trkpt>
      <trkpt lat="43.14412903971970081329345703125" lon="13.08664941228926181793212890625">
        <ele>524.79998779296875</ele>
        <time>2021-05-21T09:42:00.000Z</time>
        <extensions>
          <ns3:TrackPointExtension>
            <ns3:atemp>21.0</ns3:atemp>
          </ns3:TrackPointExtension>
        </extensions>
      </trkpt>
      <trkpt lat="43.14411361701786518096923828125" lon="13.08662828989326953887939453125">
        <ele>525.4000244140625</ele>
        <time>2021-05-21T09:42:01.000Z</time>
        <extensions>
          <ns3:TrackPointExtension>
            <ns3:atemp>21.0</ns3:atemp>
          </ns3:TrackPointExtension>
        </extensions>
      </trkpt>
      <trkpt lat="43.144096769392490386962890625" lon="13.08662275783717632293701171875">
        <ele>525.79998779296875</ele>
        <time>2021-05-21T09:42:02.000Z</time>
        <extensions>
          <ns3:TrackPointExtension>
            <ns3:atemp>21.0</ns3:atemp>
          </ns3:TrackPointExtension>
        </extensions>
      </trkpt>
      <trkpt lat="43.14408360980451107025146484375" lon="13.086631558835506439208984375">
        <ele>526.4000244140625</ele>
        <time>2021-05-21T09:42:03.000Z</time>
        <extensions>
          <ns3:TrackPointExtension>
            <ns3:atemp>21.0</ns3:atemp>
          </ns3:TrackPointExtension>
        </extensions>
      </trkpt>
      <trkpt lat="43.14407740719616413116455078125" lon="13.08664455078542232513427734375">
        <ele>527</ele>
        <time>2021-05-21T09:42:04.000Z</time>
        <extensions>
          <ns3:TrackPointExtension>
            <ns3:atemp>21.0</ns3:atemp>
          </ns3:TrackPointExtension>
        </extensions>
      </trkpt>
      <trkpt lat="43.14407355152070522308349609375" lon="13.08665544725954532623291015625">
        <ele>527.5999755859375</ele>
        <time>2021-05-21T09:42:07.000Z</time>
        <extensions>
          <ns3:TrackPointExtension>
            <ns3:atemp>21.0</ns3:atemp>
          </ns3:TrackPointExtension>
        </extensions>
      </trkpt>
      <trkpt lat="43.144070617854595184326171875" lon="13.0866595543920993804931640625">
        <ele>528.20001220703125</ele>
        <time>2021-05-21T09:42:09.000Z</time>
        <extensions>
          <ns3:TrackPointExtension>
            <ns3:atemp>21.0</ns3:atemp>
          </ns3:TrackPointExtension>
        </extensions>
      </trkpt>
      <trkpt lat="43.14409031532704830169677734375" lon="13.0866615660488605499267578125">
        <ele>528.4000244140625</ele>
        <time>2021-05-21T09:42:11.000Z</time>
        <extensions>
          <ns3:TrackPointExtension>
            <ns3:atemp>21.0</ns3:atemp>
          </ns3:TrackPointExtension>
        </extensions>
      </trkpt>
      <trkpt lat="43.14409852959215641021728515625" lon="13.086623847484588623046875">
        <ele>528.4000244140625</ele>
        <time>2021-05-21T09:42:13.000Z</time>
        <extensions>
          <ns3:TrackPointExtension>
            <ns3:atemp>21.0</ns3:atemp>
          </ns3:TrackPointExtension>
        </extensions>
      </trkpt>
      <trkpt lat="43.14407656900584697723388671875" lon="13.08656358160078525543212890625">
        <ele>528.5999755859375</ele>
        <time>2021-05-21T09:42:15.000Z</time>
        <extensions>
          <ns3:TrackPointExtension>
            <ns3:atemp>21.0</ns3:atemp>
          </ns3:TrackPointExtension>
        </extensions>
      </trkpt>
      <trkpt lat="43.14404907636344432830810546875" lon="13.0864935927093029022216796875">
        <ele>528.5999755859375</ele>
        <time>2021-05-21T09:42:17.000Z</time>
        <extensions>
          <ns3:TrackPointExtension>
            <ns3:atemp>21.0</ns3:atemp>
          </ns3:TrackPointExtension>
        </extensions>
      </trkpt>
      <trkpt lat="43.14390708692371845245361328125" lon="13.0861271359026432037353515625">
        <ele>528.79998779296875</ele>
        <time>2021-05-21T09:42:25.000Z</time>
        <extensions>
          <ns3:TrackPointExtension>
            <ns3:atemp>20.0</ns3:atemp>
          </ns3:TrackPointExtension>
        </extensions>
      </trkpt>
      <trkpt lat="43.14389728009700775146484375" lon="13.08607122860848903656005859375">
        <ele>528.79998779296875</ele>
        <time>2021-05-21T09:42:26.000Z</time>
        <extensions>
          <ns3:TrackPointExtension>
            <ns3:atemp>20.0</ns3:atemp>
          </ns3:TrackPointExtension>
        </extensions>
      </trkpt>
      <trkpt lat="43.14390130341053009033203125" lon="13.0858508683741092681884765625">
        <ele>529.20001220703125</ele>
        <time>2021-05-21T09:42:30.000Z</time>
        <extensions>
          <ns3:TrackPointExtension>
            <ns3:atemp>20.0</ns3:atemp>
          </ns3:TrackPointExtension>
        </extensions>
      </trkpt>
      <trkpt lat="43.14398135058581829071044921875" lon="13.08554165996611118316650390625">
        <ele>529.20001220703125</ele>
        <time>2021-05-21T09:42:35.000Z</time>
        <extensions>
          <ns3:TrackPointExtension>
            <ns3:atemp>20.0</ns3:atemp>
          </ns3:TrackPointExtension>
        </extensions>
      </trkpt>
      <trkpt lat="43.14400322735309600830078125" lon="13.08547426946461200714111328125">
        <ele>529.20001220703125</ele>
        <time>2021-05-21T09:42:36.000Z</time>
        <extensions>
          <ns3:TrackPointExtension>
            <ns3:atemp>20.0</ns3:atemp>
          </ns3:TrackPointExtension>
        </extensions>
      </trkpt>
      <trkpt lat="43.144176565110683441162109375" lon="13.08500756509602069854736328125">
        <ele>529.5999755859375</ele>
        <time>2021-05-21T09:42:43.000Z</time>
        <extensions>
          <ns3:TrackPointExtension>
            <ns3:atemp>20.0</ns3:atemp>
          </ns3:TrackPointExtension>
        </extensions>
      </trkpt>
      <trkpt lat="43.14432735554873943328857421875" lon="13.08458612300455570220947265625">
        <ele>530.4000244140625</ele>
        <time>2021-05-21T09:42:50.000Z</time>
        <extensions>
          <ns3:TrackPointExtension>
            <ns3:atemp>20.0</ns3:atemp>
          </ns3:TrackPointExtension>
        </extensions>
      </trkpt>
      <trkpt lat="43.14439809881150722503662109375" lon="13.08441697619855403900146484375">
        <ele>531.4000244140625</ele>
        <time>2021-05-21T09:42:53.000Z</time>
        <extensions>
          <ns3:TrackPointExtension>
            <ns3:atemp>20.0</ns3:atemp>
          </ns3:TrackPointExtension>
        </extensions>
      </trkpt>
      <trkpt lat="43.14444235526025295257568359375" lon="13.08429879136383533477783203125">
        <ele>532.5999755859375</ele>
        <time>2021-05-21T09:42:55.000Z</time>
        <extensions>
          <ns3:TrackPointExtension>
            <ns3:atemp>20.0</ns3:atemp>
          </ns3:TrackPointExtension>
        </extensions>
      </trkpt>
      <trkpt lat="43.14451175741851329803466796875" lon="13.084123022854328155517578125">
        <ele>533.20001220703125</ele>
        <time>2021-05-21T09:42:58.000Z</time>
        <extensions>
          <ns3:TrackPointExtension>
            <ns3:atemp>20.0</ns3:atemp>
          </ns3:TrackPointExtension>
        </extensions>
      </trkpt>
      <trkpt lat="43.1445725262165069580078125" lon="13.08393920771777629852294921875">
        <ele>533.5999755859375</ele>
        <time>2021-05-21T09:43:01.000Z</time>
        <extensions>
          <ns3:TrackPointExtension>
            <ns3:atemp>20.0</ns3:atemp>
          </ns3:TrackPointExtension>
        </extensions>
      </trkpt>
      <trkpt lat="43.1446020305156707763671875" lon="13.08381632901728153228759765625">
        <ele>534.79998779296875</ele>
        <time>2021-05-21T09:43:03.000Z</time>
        <extensions>
          <ns3:TrackPointExtension>
            <ns3:atemp>20.0</ns3:atemp>
          </ns3:TrackPointExtension>
        </extensions>
      </trkpt>
      <trkpt lat="43.14460999332368373870849609375" lon="13.08375497348606586456298828125">
        <ele>535.20001220703125</ele>
        <time>2021-05-21T09:43:04.000Z</time>
        <extensions>
          <ns3:TrackPointExtension>
            <ns3:atemp>20.0</ns3:atemp>
          </ns3:TrackPointExtension>
        </extensions>
      </trkpt>
      <trkpt lat="43.14461636357009410858154296875" lon="13.0836935341358184814453125">
        <ele>535.5999755859375</ele>
        <time>2021-05-21T09:43:05.000Z</time>
        <extensions>
          <ns3:TrackPointExtension>
            <ns3:atemp>20.0</ns3:atemp>
          </ns3:TrackPointExtension>
        </extensions>
      </trkpt>
      <trkpt lat="43.1446209736168384552001953125" lon="13.0836320109665393829345703125">
        <ele>536</ele>
        <time>2021-05-21T09:43:06.000Z</time>
        <extensions>
          <ns3:TrackPointExtension>
            <ns3:atemp>20.0</ns3:atemp>
          </ns3:TrackPointExtension>
        </extensions>
      </trkpt>
      <trkpt lat="43.14462088979780673980712890625" lon="13.083512820303440093994140625">
        <ele>536.79998779296875</ele>
        <time>2021-05-21T09:43:08.000Z</time>
        <extensions>
          <ns3:TrackPointExtension>
            <ns3:atemp>20.0</ns3:atemp>
          </ns3:TrackPointExtension>
        </extensions>
      </trkpt>
      <trkpt lat="43.14461384899914264678955078125" lon="13.08345456607639789581298828125">
        <ele>537.20001220703125</ele>
        <time>2021-05-21T09:43:09.000Z</time>
        <extensions>
          <ns3:TrackPointExtension>
            <ns3:atemp>20.0</ns3:atemp>
          </ns3:TrackPointExtension>
        </extensions>
      </trkpt>
      <trkpt lat="43.1446047127246856689453125" lon="13.0833989940583705902099609375">
        <ele>537.4000244140625</ele>
        <time>2021-05-21T09:43:10.000Z</time>
        <extensions>
          <ns3:TrackPointExtension>
            <ns3:atemp>20.0</ns3:atemp>
          </ns3:TrackPointExtension>
        </extensions>
      </trkpt>
      <trkpt lat="43.144574873149394989013671875" lon="13.08329648338258266448974609375">
        <ele>537.5999755859375</ele>
        <time>2021-05-21T09:43:12.000Z</time>
        <extensions>
          <ns3:TrackPointExtension>
            <ns3:atemp>20.0</ns3:atemp>
          </ns3:TrackPointExtension>
        </extensions>
      </trkpt>
      <trkpt lat="43.14453589729964733123779296875" lon="13.0831881053745746612548828125">
        <ele>537.79998779296875</ele>
        <time>2021-05-21T09:43:14.000Z</time>
        <extensions>
          <ns3:TrackPointExtension>
            <ns3:atemp>20.0</ns3:atemp>
          </ns3:TrackPointExtension>
        </extensions>
      </trkpt>
      <trkpt lat="43.1445083208382129669189453125" lon="13.08313353918492794036865234375">
        <ele>537.79998779296875</ele>
        <time>2021-05-21T09:43:15.000Z</time>
        <extensions>
          <ns3:TrackPointExtension>
            <ns3:atemp>20.0</ns3:atemp>
          </ns3:TrackPointExtension>
        </extensions>
      </trkpt>
      <trkpt lat="43.1442702747881412506103515625" lon="13.08279239572584629058837890625">
        <ele>538.20001220703125</ele>
        <time>2021-05-21T09:43:21.000Z</time>
        <extensions>
          <ns3:TrackPointExtension>
            <ns3:atemp>20.0</ns3:atemp>
          </ns3:TrackPointExtension>
        </extensions>
      </trkpt>
      <trkpt lat="43.1441841088235378265380859375" lon="13.08268510736525058746337890625">
        <ele>538.5999755859375</ele>
        <time>2021-05-21T09:43:23.000Z</time>
        <extensions>
          <ns3:TrackPointExtension>
            <ns3:atemp>20.0</ns3:atemp>
          </ns3:TrackPointExtension>
        </extensions>
      </trkpt>
      <trkpt lat="43.14406692981719970703125" lon="13.082548566162586212158203125">
        <ele>538.79998779296875</ele>
        <time>2021-05-21T09:43:26.000Z</time>
        <extensions>
          <ns3:TrackPointExtension>
            <ns3:atemp>20.0</ns3:atemp>
          </ns3:TrackPointExtension>
        </extensions>
      </trkpt>
      <trkpt lat="43.14370105974376201629638671875" lon="13.0821158923208713531494140625">
        <ele>539</ele>
        <time>2021-05-21T09:43:35.000Z</time>
        <extensions>
          <ns3:TrackPointExtension>
            <ns3:atemp>20.0</ns3:atemp>
          </ns3:TrackPointExtension>
        </extensions>
      </trkpt>
      <trkpt lat="43.14348757266998291015625" lon="13.08177131228148937225341796875">
        <ele>538.4000244140625</ele>
        <time>2021-05-21T09:43:41.000Z</time>
        <extensions>
          <ns3:TrackPointExtension>
            <ns3:atemp>20.0</ns3:atemp>
          </ns3:TrackPointExtension>
        </extensions>
      </trkpt>
      <trkpt lat="43.14342663623392581939697265625" lon="13.0816196836531162261962890625">
        <ele>538.4000244140625</ele>
        <time>2021-05-21T09:43:43.000Z</time>
        <extensions>
          <ns3:TrackPointExtension>
            <ns3:atemp>20.0</ns3:atemp>
          </ns3:TrackPointExtension>
        </extensions>
      </trkpt>
      <trkpt lat="43.14338455908000469207763671875" lon="13.08144357986748218536376953125">
        <ele>538.20001220703125</ele>
        <time>2021-05-21T09:43:45.000Z</time>
        <extensions>
          <ns3:TrackPointExtension>
            <ns3:atemp>20.0</ns3:atemp>
          </ns3:TrackPointExtension>
        </extensions>
      </trkpt>
      <trkpt lat="43.14324391074478626251220703125" lon="13.0807818286120891571044921875">
        <ele>537</ele>
        <time>2021-05-21T09:43:52.000Z</time>
        <extensions>
          <ns3:TrackPointExtension>
            <ns3:atemp>20.0</ns3:atemp>
          </ns3:TrackPointExtension>
        </extensions>
      </trkpt>
      <trkpt lat="43.14322480000555515289306640625" lon="13.08068183250725269317626953125">
        <ele>535.79998779296875</ele>
        <time>2021-05-21T09:43:53.000Z</time>
        <extensions>
          <ns3:TrackPointExtension>
            <ns3:atemp>20.0</ns3:atemp>
          </ns3:TrackPointExtension>
        </extensions>
      </trkpt>
      <trkpt lat="43.14320334233343601226806640625" lon="13.0805836804211139678955078125">
        <ele>534.5999755859375</ele>
        <time>2021-05-21T09:43:54.000Z</time>
        <extensions>
          <ns3:TrackPointExtension>
            <ns3:atemp>20.0</ns3:atemp>
          </ns3:TrackPointExtension>
        </extensions>
      </trkpt>
      <trkpt lat="43.1431571580469608306884765625" lon="13.08038410730659961700439453125">
        <ele>533.5999755859375</ele>
        <time>2021-05-21T09:43:56.000Z</time>
        <extensions>
          <ns3:TrackPointExtension>
            <ns3:atemp>20.0</ns3:atemp>
          </ns3:TrackPointExtension>
        </extensions>
      </trkpt>
      <trkpt lat="43.14312689937651157379150390625" lon="13.08007967658340930938720703125">
        <ele>533</ele>
        <time>2021-05-21T09:43:59.000Z</time>
        <extensions>
          <ns3:TrackPointExtension>
            <ns3:atemp>20.0</ns3:atemp>
          </ns3:TrackPointExtension>
        </extensions>
      </trkpt>
      <trkpt lat="43.1431098841130733489990234375" lon="13.0799778364598751068115234375">
        <ele>532.5999755859375</ele>
        <time>2021-05-21T09:44:00.000Z</time>
        <extensions>
          <ns3:TrackPointExtension>
            <ns3:atemp>20.0</ns3:atemp>
          </ns3:TrackPointExtension>
        </extensions>
      </trkpt>
      <trkpt lat="43.1430401466786861419677734375" lon="13.079584054648876190185546875">
        <ele>531.79998779296875</ele>
        <time>2021-05-21T09:44:04.000Z</time>
        <extensions>
          <ns3:TrackPointExtension>
            <ns3:atemp>20.0</ns3:atemp>
          </ns3:TrackPointExtension>
        </extensions>
      </trkpt>
      <trkpt lat="43.143015168607234954833984375" lon="13.07948707602918148040771484375">
        <ele>531.5999755859375</ele>
        <time>2021-05-21T09:44:05.000Z</time>
        <extensions>
          <ns3:TrackPointExtension>
            <ns3:atemp>20.0</ns3:atemp>
          </ns3:TrackPointExtension>
        </extensions>
      </trkpt>
      <trkpt lat="43.14294040203094482421875" lon="13.07920016348361968994140625">
        <ele>529.79998779296875</ele>
        <time>2021-05-21T09:44:08.000Z</time>
        <extensions>
          <ns3:TrackPointExtension>
            <ns3:atemp>20.0</ns3:atemp>
          </ns3:TrackPointExtension>
        </extensions>
      </trkpt>
      <trkpt lat="43.14285616390407085418701171875" lon="13.07891693897545337677001953125">
        <ele>528.79998779296875</ele>
        <time>2021-05-21T09:44:11.000Z</time>
        <extensions>
          <ns3:TrackPointExtension>
            <ns3:atemp>20.0</ns3:atemp>
          </ns3:TrackPointExtension>
        </extensions>
      </trkpt>
      <trkpt lat="43.14282950945198535919189453125" lon="13.0788281746208667755126953125">
        <ele>528.79998779296875</ele>
        <time>2021-05-21T09:44:12.000Z</time>
        <extensions>
          <ns3:TrackPointExtension>
            <ns3:atemp>20.0</ns3:atemp>
          </ns3:TrackPointExtension>
        </extensions>
      </trkpt>
      <trkpt lat="43.14270461909472942352294921875" lon="13.07840614579617977142333984375">
        <ele>527.79998779296875</ele>
        <time>2021-05-21T09:44:17.000Z</time>
        <extensions>
          <ns3:TrackPointExtension>
            <ns3:atemp>20.0</ns3:atemp>
          </ns3:TrackPointExtension>
        </extensions>
      </trkpt>
      <trkpt lat="43.142679892480373382568359375" lon="13.07832987047731876373291015625">
        <ele>527.5999755859375</ele>
        <time>2021-05-21T09:44:18.000Z</time>
        <extensions>
          <ns3:TrackPointExtension>
            <ns3:atemp>20.0</ns3:atemp>
          </ns3:TrackPointExtension>
        </extensions>
      </trkpt>
      <trkpt lat="43.14259280450642108917236328125" lon="13.0781301297247409820556640625">
        <ele>527.4000244140625</ele>
        <time>2021-05-21T09:44:21.000Z</time>
        <extensions>
          <ns3:TrackPointExtension>
            <ns3:atemp>21.0</ns3:atemp>
          </ns3:TrackPointExtension>
        </extensions>
      </trkpt>
      <trkpt lat="43.1425191275775432586669921875" lon="13.07802275754511356353759765625">
        <ele>527.4000244140625</ele>
        <time>2021-05-21T09:44:23.000Z</time>
        <extensions>
          <ns3:TrackPointExtension>
            <ns3:atemp>21.0</ns3:atemp>
          </ns3:TrackPointExtension>
        </extensions>
      </trkpt>
      <trkpt lat="43.14243589527904987335205078125" lon="13.0779366753995418548583984375">
        <ele>527.20001220703125</ele>
        <time>2021-05-21T09:44:25.000Z</time>
        <extensions>
          <ns3:TrackPointExtension>
            <ns3:atemp>21.0</ns3:atemp>
          </ns3:TrackPointExtension>
        </extensions>
      </trkpt>
      <trkpt lat="43.1423659063875675201416015625" lon="13.077879846096038818359375">
        <ele>527.20001220703125</ele>
        <time>2021-05-21T09:44:27.000Z</time>
        <extensions>
          <ns3:TrackPointExtension>
            <ns3:atemp>21.0</ns3:atemp>
          </ns3:TrackPointExtension>
        </extensions>
      </trkpt>
      <trkpt lat="43.1423437781631946563720703125" lon="13.07782125659286975860595703125">
        <ele>527</ele>
        <time>2021-05-21T09:44:29.000Z</time>
        <extensions>
          <ns3:TrackPointExtension>
            <ns3:atemp>21.0</ns3:atemp>
          </ns3:TrackPointExtension>
        </extensions>
      </trkpt>
      <trkpt lat="43.1423394195735454559326171875" lon="13.07781052775681018829345703125">
        <ele>527.20001220703125</ele>
        <time>2021-05-21T09:44:30.000Z</time>
        <extensions>
          <ns3:TrackPointExtension>
            <ns3:atemp>21.0</ns3:atemp>
          </ns3:TrackPointExtension>
        </extensions>
      </trkpt>
    </trkseg>
  </trk>
</gpx>
